<?xml version="1.0" encoding="UTF-8" standalone="no" ?>
<gpx xmlns="http://www.topografix.com/GPX/1/1" xmlns:xsi="http://www.w3.org/2001/XMLSchema-instance" xsi:schemaLocation="http://www.topografix.com/GPX/1/1 http://www.topografix.com/GPX/1/1/gpx.xsd" version="1.1" creator="VisuGPX - https://www.visugpx.com">
  <metadata>
    <name>Sortie Lacs et Etangs</name>
    <desc><![CDATA[Sortie au départ de la Tessoualle]]></desc>
  </metadata>
  <trk>
    <name><![CDATA[29-AOU-12 12:44:28]]></name>
    <trkseg>
      <trkpt lat="47.00267" lon="-0.8555">
        <ele>143.37</ele>
        <time>2012-08-28T12:47:08Z</time>
      </trkpt>
      <trkpt lat="47.00267" lon="-0.8555">
        <ele>148.18</ele>
        <time>2012-08-28T12:47:09Z</time>
      </trkpt>
      <trkpt lat="47.00267" lon="-0.8555">
        <ele>146.74</ele>
        <time>2012-08-28T12:47:10Z</time>
      </trkpt>
      <trkpt lat="47.00267" lon="-0.8555">
        <ele>146.74</ele>
        <time>2012-08-28T12:47:30Z</time>
      </trkpt>
      <trkpt lat="47.00267" lon="-0.8555">
        <ele>146.74</ele>
        <time>2012-08-28T12:47:46Z</time>
      </trkpt>
      <trkpt lat="47.00267" lon="-0.8555">
        <ele>147.22</ele>
        <time>2012-08-28T12:47:48Z</time>
      </trkpt>
      <trkpt lat="47.0028" lon="-0.85547">
        <ele>147.7</ele>
        <time>2012-08-28T12:47:55Z</time>
      </trkpt>
      <trkpt lat="47.00287" lon="-0.85537">
        <ele>147.22</ele>
        <time>2012-08-28T12:47:59Z</time>
      </trkpt>
      <trkpt lat="47.00274" lon="-0.85504">
        <ele>145.3</ele>
        <time>2012-08-28T12:48:08Z</time>
      </trkpt>
      <trkpt lat="47.00254" lon="-0.85478">
        <ele>144.82</ele>
        <time>2012-08-28T12:48:15Z</time>
      </trkpt>
      <trkpt lat="47.00253" lon="-0.85471">
        <ele>144.82</ele>
        <time>2012-08-28T12:48:17Z</time>
      </trkpt>
      <trkpt lat="47.00259" lon="-0.85461">
        <ele>144.34</ele>
        <time>2012-08-28T12:48:19Z</time>
      </trkpt>
      <trkpt lat="47.00262" lon="-0.85457">
        <ele>144.34</ele>
        <time>2012-08-28T12:48:20Z</time>
      </trkpt>
      <trkpt lat="47.00318" lon="-0.85394">
        <ele>143.85</ele>
        <time>2012-08-28T12:48:35Z</time>
      </trkpt>
      <trkpt lat="47.00321" lon="-0.85389">
        <ele>144.34</ele>
        <time>2012-08-28T12:48:36Z</time>
      </trkpt>
      <trkpt lat="47.00321" lon="-0.85383">
        <ele>143.37</ele>
        <time>2012-08-28T12:48:37Z</time>
      </trkpt>
      <trkpt lat="47.0032" lon="-0.85378">
        <ele>143.85</ele>
        <time>2012-08-28T12:48:38Z</time>
      </trkpt>
      <trkpt lat="47.00318" lon="-0.85373">
        <ele>142.89</ele>
        <time>2012-08-28T12:48:39Z</time>
      </trkpt>
      <trkpt lat="47.00315" lon="-0.85368">
        <ele>141.93</ele>
        <time>2012-08-28T12:48:40Z</time>
      </trkpt>
      <trkpt lat="47.00312" lon="-0.85362">
        <ele>142.89</ele>
        <time>2012-08-28T12:48:41Z</time>
      </trkpt>
      <trkpt lat="47.00308" lon="-0.85357">
        <ele>142.41</ele>
        <time>2012-08-28T12:48:42Z</time>
      </trkpt>
      <trkpt lat="47.00295" lon="-0.85342">
        <ele>141.45</ele>
        <time>2012-08-28T12:48:45Z</time>
      </trkpt>
      <trkpt lat="47.00292" lon="-0.85336">
        <ele>141.45</ele>
        <time>2012-08-28T12:48:46Z</time>
      </trkpt>
      <trkpt lat="47.00289" lon="-0.8533">
        <ele>140.97</ele>
        <time>2012-08-28T12:48:47Z</time>
      </trkpt>
      <trkpt lat="47.00287" lon="-0.85324">
        <ele>140.97</ele>
        <time>2012-08-28T12:48:48Z</time>
      </trkpt>
      <trkpt lat="47.00286" lon="-0.85318">
        <ele>140.97</ele>
        <time>2012-08-28T12:48:49Z</time>
      </trkpt>
      <trkpt lat="47.00287" lon="-0.85313">
        <ele>140.97</ele>
        <time>2012-08-28T12:48:50Z</time>
      </trkpt>
      <trkpt lat="47.00289" lon="-0.85308">
        <ele>141.45</ele>
        <time>2012-08-28T12:48:51Z</time>
      </trkpt>
      <trkpt lat="47.00292" lon="-0.85304">
        <ele>140.97</ele>
        <time>2012-08-28T12:48:52Z</time>
      </trkpt>
      <trkpt lat="47.00296" lon="-0.85301">
        <ele>141.45</ele>
        <time>2012-08-28T12:48:53Z</time>
      </trkpt>
      <trkpt lat="47.00303" lon="-0.85294">
        <ele>141.93</ele>
        <time>2012-08-28T12:48:55Z</time>
      </trkpt>
      <trkpt lat="47.00306" lon="-0.8529">
        <ele>141.45</ele>
        <time>2012-08-28T12:48:56Z</time>
      </trkpt>
      <trkpt lat="47.00309" lon="-0.85285">
        <ele>141.45</ele>
        <time>2012-08-28T12:48:57Z</time>
      </trkpt>
      <trkpt lat="47.00312" lon="-0.8528">
        <ele>141.45</ele>
        <time>2012-08-28T12:48:58Z</time>
      </trkpt>
      <trkpt lat="47.00314" lon="-0.85275">
        <ele>140.97</ele>
        <time>2012-08-28T12:48:59Z</time>
      </trkpt>
      <trkpt lat="47.00318" lon="-0.85271">
        <ele>141.45</ele>
        <time>2012-08-28T12:49:00Z</time>
      </trkpt>
      <trkpt lat="47.00322" lon="-0.85267">
        <ele>140.97</ele>
        <time>2012-08-28T12:49:01Z</time>
      </trkpt>
      <trkpt lat="47.00325" lon="-0.85263">
        <ele>141.45</ele>
        <time>2012-08-28T12:49:02Z</time>
      </trkpt>
      <trkpt lat="47.00362" lon="-0.85223">
        <ele>140.49</ele>
        <time>2012-08-28T12:49:11Z</time>
      </trkpt>
      <trkpt lat="47.00367" lon="-0.85219">
        <ele>140.01</ele>
        <time>2012-08-28T12:49:12Z</time>
      </trkpt>
      <trkpt lat="47.00391" lon="-0.85194">
        <ele>140.01</ele>
        <time>2012-08-28T12:49:17Z</time>
      </trkpt>
      <trkpt lat="47.00396" lon="-0.85188">
        <ele>139.53</ele>
        <time>2012-08-28T12:49:18Z</time>
      </trkpt>
      <trkpt lat="47.00426" lon="-0.85152">
        <ele>139.05</ele>
        <time>2012-08-28T12:49:25Z</time>
      </trkpt>
      <trkpt lat="47.0043" lon="-0.85147">
        <ele>139.05</ele>
        <time>2012-08-28T12:49:26Z</time>
      </trkpt>
      <trkpt lat="47.00463" lon="-0.85111">
        <ele>138.57</ele>
        <time>2012-08-28T12:49:36Z</time>
      </trkpt>
      <trkpt lat="47.00465" lon="-0.85106">
        <ele>138.09</ele>
        <time>2012-08-28T12:49:37Z</time>
      </trkpt>
      <trkpt lat="47.00465" lon="-0.85099">
        <ele>137.13</ele>
        <time>2012-08-28T12:49:38Z</time>
      </trkpt>
      <trkpt lat="47.00464" lon="-0.85093">
        <ele>137.61</ele>
        <time>2012-08-28T12:49:39Z</time>
      </trkpt>
      <trkpt lat="47.00464" lon="-0.85086">
        <ele>137.61</ele>
        <time>2012-08-28T12:49:40Z</time>
      </trkpt>
      <trkpt lat="47.00466" lon="-0.85078">
        <ele>137.13</ele>
        <time>2012-08-28T12:49:41Z</time>
      </trkpt>
      <trkpt lat="47.00469" lon="-0.85072">
        <ele>137.13</ele>
        <time>2012-08-28T12:49:42Z</time>
      </trkpt>
      <trkpt lat="47.00473" lon="-0.85066">
        <ele>136.64</ele>
        <time>2012-08-28T12:49:43Z</time>
      </trkpt>
      <trkpt lat="47.00477" lon="-0.8506">
        <ele>136.64</ele>
        <time>2012-08-28T12:49:44Z</time>
      </trkpt>
      <trkpt lat="47.00494" lon="-0.85039">
        <ele>134.24</ele>
        <time>2012-08-28T12:49:47Z</time>
      </trkpt>
      <trkpt lat="47.005" lon="-0.8503">
        <ele>133.28</ele>
        <time>2012-08-28T12:49:48Z</time>
      </trkpt>
      <trkpt lat="47.00509" lon="-0.85013">
        <ele>132.8</ele>
        <time>2012-08-28T12:49:50Z</time>
      </trkpt>
      <trkpt lat="47.00529" lon="-0.84978">
        <ele>130.88</ele>
        <time>2012-08-28T12:49:54Z</time>
      </trkpt>
      <trkpt lat="47.00532" lon="-0.84967">
        <ele>130.4</ele>
        <time>2012-08-28T12:49:55Z</time>
      </trkpt>
      <trkpt lat="47.00533" lon="-0.84955">
        <ele>130.4</ele>
        <time>2012-08-28T12:49:56Z</time>
      </trkpt>
      <trkpt lat="47.00535" lon="-0.84905">
        <ele>127.51</ele>
        <time>2012-08-28T12:50:00Z</time>
      </trkpt>
      <trkpt lat="47.00537" lon="-0.84893">
        <ele>127.03</ele>
        <time>2012-08-28T12:50:01Z</time>
      </trkpt>
      <trkpt lat="47.00541" lon="-0.84881">
        <ele>126.07</ele>
        <time>2012-08-28T12:50:02Z</time>
      </trkpt>
      <trkpt lat="47.00546" lon="-0.8487">
        <ele>126.07</ele>
        <time>2012-08-28T12:50:03Z</time>
      </trkpt>
      <trkpt lat="47.00552" lon="-0.84861">
        <ele>125.11</ele>
        <time>2012-08-28T12:50:04Z</time>
      </trkpt>
      <trkpt lat="47.0056" lon="-0.84854">
        <ele>125.11</ele>
        <time>2012-08-28T12:50:05Z</time>
      </trkpt>
      <trkpt lat="47.00568" lon="-0.84849">
        <ele>125.11</ele>
        <time>2012-08-28T12:50:06Z</time>
      </trkpt>
      <trkpt lat="47.00577" lon="-0.84845">
        <ele>124.15</ele>
        <time>2012-08-28T12:50:07Z</time>
      </trkpt>
      <trkpt lat="47.00586" lon="-0.84843">
        <ele>123.67</ele>
        <time>2012-08-28T12:50:08Z</time>
      </trkpt>
      <trkpt lat="47.0063" lon="-0.84829">
        <ele>127.03</ele>
        <time>2012-08-28T12:50:14Z</time>
      </trkpt>
      <trkpt lat="47.00641" lon="-0.84825">
        <ele>127.99</ele>
        <time>2012-08-28T12:50:16Z</time>
      </trkpt>
      <trkpt lat="47.00677" lon="-0.84811">
        <ele>130.88</ele>
        <time>2012-08-28T12:50:23Z</time>
      </trkpt>
      <trkpt lat="47.00749" lon="-0.84783">
        <ele>132.32</ele>
        <time>2012-08-28T12:50:37Z</time>
      </trkpt>
      <trkpt lat="47.008" lon="-0.84774">
        <ele>130.88</ele>
        <time>2012-08-28T12:50:45Z</time>
      </trkpt>
      <trkpt lat="47.00806" lon="-0.84771">
        <ele>130.88</ele>
        <time>2012-08-28T12:50:46Z</time>
      </trkpt>
      <trkpt lat="47.00812" lon="-0.84766">
        <ele>130.88</ele>
        <time>2012-08-28T12:50:47Z</time>
      </trkpt>
      <trkpt lat="47.00818" lon="-0.84764">
        <ele>131.36</ele>
        <time>2012-08-28T12:50:48Z</time>
      </trkpt>
      <trkpt lat="47.00824" lon="-0.84765">
        <ele>130.4</ele>
        <time>2012-08-28T12:50:49Z</time>
      </trkpt>
      <trkpt lat="47.00831" lon="-0.84767">
        <ele>129.92</ele>
        <time>2012-08-28T12:50:50Z</time>
      </trkpt>
      <trkpt lat="47.00837" lon="-0.84768">
        <ele>130.4</ele>
        <time>2012-08-28T12:50:51Z</time>
      </trkpt>
      <trkpt lat="47.00844" lon="-0.84768">
        <ele>129.92</ele>
        <time>2012-08-28T12:50:52Z</time>
      </trkpt>
      <trkpt lat="47.00897" lon="-0.84758">
        <ele>129.92</ele>
        <time>2012-08-28T12:51:00Z</time>
      </trkpt>
      <trkpt lat="47.00903" lon="-0.84755">
        <ele>129.43</ele>
        <time>2012-08-28T12:51:01Z</time>
      </trkpt>
      <trkpt lat="47.00978" lon="-0.84688">
        <ele>131.84</ele>
        <time>2012-08-28T12:51:15Z</time>
      </trkpt>
      <trkpt lat="47.0105" lon="-0.84608">
        <ele>134.72</ele>
        <time>2012-08-28T12:51:32Z</time>
      </trkpt>
      <trkpt lat="47.01128" lon="-0.84505">
        <ele>132.8</ele>
        <time>2012-08-28T12:51:50Z</time>
      </trkpt>
      <trkpt lat="47.01175" lon="-0.84442">
        <ele>129.43</ele>
        <time>2012-08-28T12:51:58Z</time>
      </trkpt>
      <trkpt lat="47.01211" lon="-0.84392">
        <ele>126.07</ele>
        <time>2012-08-28T12:52:03Z</time>
      </trkpt>
      <trkpt lat="47.01256" lon="-0.84347">
        <ele>122.22</ele>
        <time>2012-08-28T12:52:08Z</time>
      </trkpt>
      <trkpt lat="47.01266" lon="-0.84339">
        <ele>121.74</ele>
        <time>2012-08-28T12:52:09Z</time>
      </trkpt>
      <trkpt lat="47.01305" lon="-0.84308">
        <ele>118.86</ele>
        <time>2012-08-28T12:52:13Z</time>
      </trkpt>
      <trkpt lat="47.01315" lon="-0.84301">
        <ele>118.38</ele>
        <time>2012-08-28T12:52:14Z</time>
      </trkpt>
      <trkpt lat="47.01397" lon="-0.84234">
        <ele>115.5</ele>
        <time>2012-08-28T12:52:23Z</time>
      </trkpt>
      <trkpt lat="47.01503" lon="-0.84159">
        <ele>115.5</ele>
        <time>2012-08-28T12:52:36Z</time>
      </trkpt>
      <trkpt lat="47.01614" lon="-0.84125">
        <ele>117.9</ele>
        <time>2012-08-28T12:52:52Z</time>
      </trkpt>
      <trkpt lat="47.01715" lon="-0.84095">
        <ele>120.78</ele>
        <time>2012-08-28T12:53:09Z</time>
      </trkpt>
      <trkpt lat="47.01799" lon="-0.84069">
        <ele>122.71</ele>
        <time>2012-08-28T12:53:24Z</time>
      </trkpt>
      <trkpt lat="47.0189" lon="-0.84029">
        <ele>125.11</ele>
        <time>2012-08-28T12:53:41Z</time>
      </trkpt>
      <trkpt lat="47.01969" lon="-0.83976">
        <ele>125.59</ele>
        <time>2012-08-28T12:53:56Z</time>
      </trkpt>
      <trkpt lat="47.02069" lon="-0.83908">
        <ele>126.55</ele>
        <time>2012-08-28T12:54:15Z</time>
      </trkpt>
      <trkpt lat="47.02138" lon="-0.83864">
        <ele>127.51</ele>
        <time>2012-08-28T12:54:29Z</time>
      </trkpt>
      <trkpt lat="47.02186" lon="-0.8383">
        <ele>128.47</ele>
        <time>2012-08-28T12:54:40Z</time>
      </trkpt>
      <trkpt lat="47.0219" lon="-0.83829">
        <ele>128.95</ele>
        <time>2012-08-28T12:54:41Z</time>
      </trkpt>
      <trkpt lat="47.02194" lon="-0.8383">
        <ele>128.95</ele>
        <time>2012-08-28T12:54:42Z</time>
      </trkpt>
      <trkpt lat="47.02197" lon="-0.83833">
        <ele>129.43</ele>
        <time>2012-08-28T12:54:43Z</time>
      </trkpt>
      <trkpt lat="47.022" lon="-0.83837">
        <ele>128.95</ele>
        <time>2012-08-28T12:54:44Z</time>
      </trkpt>
      <trkpt lat="47.02201" lon="-0.83842">
        <ele>128.47</ele>
        <time>2012-08-28T12:54:45Z</time>
      </trkpt>
      <trkpt lat="47.02202" lon="-0.83847">
        <ele>128.47</ele>
        <time>2012-08-28T12:54:46Z</time>
      </trkpt>
      <trkpt lat="47.02204" lon="-0.83853">
        <ele>127.99</ele>
        <time>2012-08-28T12:54:47Z</time>
      </trkpt>
      <trkpt lat="47.02206" lon="-0.83859">
        <ele>127.99</ele>
        <time>2012-08-28T12:54:48Z</time>
      </trkpt>
      <trkpt lat="47.02252" lon="-0.83956">
        <ele>128.47</ele>
        <time>2012-08-28T12:55:04Z</time>
      </trkpt>
      <trkpt lat="47.02289" lon="-0.84051">
        <ele>127.51</ele>
        <time>2012-08-28T12:55:18Z</time>
      </trkpt>
      <trkpt lat="47.02304" lon="-0.84162">
        <ele>125.59</ele>
        <time>2012-08-28T12:55:33Z</time>
      </trkpt>
      <trkpt lat="47.02299" lon="-0.84292">
        <ele>125.11</ele>
        <time>2012-08-28T12:55:50Z</time>
      </trkpt>
      <trkpt lat="47.02311" lon="-0.84417">
        <ele>125.59</ele>
        <time>2012-08-28T12:56:07Z</time>
      </trkpt>
      <trkpt lat="47.02312" lon="-0.8443">
        <ele>125.11</ele>
        <time>2012-08-28T12:56:09Z</time>
      </trkpt>
      <trkpt lat="47.02314" lon="-0.84496">
        <ele>121.74</ele>
        <time>2012-08-28T12:56:17Z</time>
      </trkpt>
      <trkpt lat="47.02315" lon="-0.84506">
        <ele>121.74</ele>
        <time>2012-08-28T12:56:18Z</time>
      </trkpt>
      <trkpt lat="47.02316" lon="-0.84558">
        <ele>118.38</ele>
        <time>2012-08-28T12:56:23Z</time>
      </trkpt>
      <trkpt lat="47.02316" lon="-0.84567">
        <ele>117.9</ele>
        <time>2012-08-28T12:56:24Z</time>
      </trkpt>
      <trkpt lat="47.02317" lon="-0.84576">
        <ele>117.9</ele>
        <time>2012-08-28T12:56:25Z</time>
      </trkpt>
      <trkpt lat="47.02319" lon="-0.84582">
        <ele>117.9</ele>
        <time>2012-08-28T12:56:26Z</time>
      </trkpt>
      <trkpt lat="47.02322" lon="-0.84586">
        <ele>117.42</ele>
        <time>2012-08-28T12:56:27Z</time>
      </trkpt>
      <trkpt lat="47.02326" lon="-0.84588">
        <ele>117.42</ele>
        <time>2012-08-28T12:56:28Z</time>
      </trkpt>
      <trkpt lat="47.0233" lon="-0.84589">
        <ele>116.46</ele>
        <time>2012-08-28T12:56:29Z</time>
      </trkpt>
      <trkpt lat="47.02335" lon="-0.8459">
        <ele>116.46</ele>
        <time>2012-08-28T12:56:30Z</time>
      </trkpt>
      <trkpt lat="47.0236" lon="-0.84596">
        <ele>115.01</ele>
        <time>2012-08-28T12:56:35Z</time>
      </trkpt>
      <trkpt lat="47.02365" lon="-0.84595">
        <ele>114.53</ele>
        <time>2012-08-28T12:56:36Z</time>
      </trkpt>
      <trkpt lat="47.0237" lon="-0.84595">
        <ele>115.01</ele>
        <time>2012-08-28T12:56:37Z</time>
      </trkpt>
      <trkpt lat="47.02386" lon="-0.84596">
        <ele>113.57</ele>
        <time>2012-08-28T12:56:40Z</time>
      </trkpt>
      <trkpt lat="47.02391" lon="-0.84596">
        <ele>113.57</ele>
        <time>2012-08-28T12:56:41Z</time>
      </trkpt>
      <trkpt lat="47.02394" lon="-0.84597">
        <ele>114.05</ele>
        <time>2012-08-28T12:56:42Z</time>
      </trkpt>
      <trkpt lat="47.02396" lon="-0.84598">
        <ele>113.57</ele>
        <time>2012-08-28T12:56:43Z</time>
      </trkpt>
      <trkpt lat="47.02398" lon="-0.846">
        <ele>114.05</ele>
        <time>2012-08-28T12:56:44Z</time>
      </trkpt>
      <trkpt lat="47.02399" lon="-0.84602">
        <ele>113.57</ele>
        <time>2012-08-28T12:56:45Z</time>
      </trkpt>
      <trkpt lat="47.02399" lon="-0.84605">
        <ele>113.09</ele>
        <time>2012-08-28T12:56:47Z</time>
      </trkpt>
      <trkpt lat="47.02406" lon="-0.84612">
        <ele>111.17</ele>
        <time>2012-08-28T12:56:51Z</time>
      </trkpt>
      <trkpt lat="47.02409" lon="-0.84616">
        <ele>110.69</ele>
        <time>2012-08-28T12:56:52Z</time>
      </trkpt>
      <trkpt lat="47.02412" lon="-0.84619">
        <ele>110.69</ele>
        <time>2012-08-28T12:56:53Z</time>
      </trkpt>
      <trkpt lat="47.02415" lon="-0.8462">
        <ele>110.69</ele>
        <time>2012-08-28T12:56:54Z</time>
      </trkpt>
      <trkpt lat="47.02418" lon="-0.8462">
        <ele>110.69</ele>
        <time>2012-08-28T12:56:55Z</time>
      </trkpt>
      <trkpt lat="47.02423" lon="-0.8462">
        <ele>109.73</ele>
        <time>2012-08-28T12:56:56Z</time>
      </trkpt>
      <trkpt lat="47.02428" lon="-0.84619">
        <ele>108.77</ele>
        <time>2012-08-28T12:56:57Z</time>
      </trkpt>
      <trkpt lat="47.02444" lon="-0.84619">
        <ele>105.88</ele>
        <time>2012-08-28T12:57:01Z</time>
      </trkpt>
      <trkpt lat="47.02449" lon="-0.84625">
        <ele>103.96</ele>
        <time>2012-08-28T12:57:07Z</time>
      </trkpt>
      <trkpt lat="47.0244" lon="-0.84638">
        <ele>102.52</ele>
        <time>2012-08-28T12:57:11Z</time>
      </trkpt>
      <trkpt lat="47.02441" lon="-0.84647">
        <ele>101.56</ele>
        <time>2012-08-28T12:57:15Z</time>
      </trkpt>
      <trkpt lat="47.02446" lon="-0.84662">
        <ele>96.27</ele>
        <time>2012-08-28T12:57:24Z</time>
      </trkpt>
      <trkpt lat="47.02445" lon="-0.84668">
        <ele>95.31</ele>
        <time>2012-08-28T12:57:25Z</time>
      </trkpt>
      <trkpt lat="47.02446" lon="-0.84675">
        <ele>93.87</ele>
        <time>2012-08-28T12:57:26Z</time>
      </trkpt>
      <trkpt lat="47.02448" lon="-0.84683">
        <ele>92.9</ele>
        <time>2012-08-28T12:57:27Z</time>
      </trkpt>
      <trkpt lat="47.02452" lon="-0.84692">
        <ele>92.42</ele>
        <time>2012-08-28T12:57:28Z</time>
      </trkpt>
      <trkpt lat="47.02457" lon="-0.84701">
        <ele>91.46</ele>
        <time>2012-08-28T12:57:29Z</time>
      </trkpt>
      <trkpt lat="47.0246" lon="-0.84711">
        <ele>90.5</ele>
        <time>2012-08-28T12:57:30Z</time>
      </trkpt>
      <trkpt lat="47.02464" lon="-0.84722">
        <ele>90.02</ele>
        <time>2012-08-28T12:57:31Z</time>
      </trkpt>
      <trkpt lat="47.02466" lon="-0.84733">
        <ele>90.02</ele>
        <time>2012-08-28T12:57:32Z</time>
      </trkpt>
      <trkpt lat="47.02468" lon="-0.84743">
        <ele>90.02</ele>
        <time>2012-08-28T12:57:33Z</time>
      </trkpt>
      <trkpt lat="47.02469" lon="-0.84753">
        <ele>89.54</ele>
        <time>2012-08-28T12:57:34Z</time>
      </trkpt>
      <trkpt lat="47.0247" lon="-0.84761">
        <ele>90.02</ele>
        <time>2012-08-28T12:57:35Z</time>
      </trkpt>
      <trkpt lat="47.02469" lon="-0.84766">
        <ele>90.02</ele>
        <time>2012-08-28T12:57:36Z</time>
      </trkpt>
      <trkpt lat="47.02469" lon="-0.8477">
        <ele>90.5</ele>
        <time>2012-08-28T12:57:37Z</time>
      </trkpt>
      <trkpt lat="47.02468" lon="-0.84773">
        <ele>90.98</ele>
        <time>2012-08-28T12:57:38Z</time>
      </trkpt>
      <trkpt lat="47.02466" lon="-0.84775">
        <ele>90.5</ele>
        <time>2012-08-28T12:57:39Z</time>
      </trkpt>
      <trkpt lat="47.02464" lon="-0.84777">
        <ele>90.02</ele>
        <time>2012-08-28T12:57:40Z</time>
      </trkpt>
      <trkpt lat="47.02462" lon="-0.84779">
        <ele>90.98</ele>
        <time>2012-08-28T12:57:41Z</time>
      </trkpt>
      <trkpt lat="47.0246" lon="-0.8478">
        <ele>90.5</ele>
        <time>2012-08-28T12:57:42Z</time>
      </trkpt>
      <trkpt lat="47.02452" lon="-0.84785">
        <ele>91.46</ele>
        <time>2012-08-28T12:57:47Z</time>
      </trkpt>
      <trkpt lat="47.02451" lon="-0.84784">
        <ele>91.46</ele>
        <time>2012-08-28T12:57:52Z</time>
      </trkpt>
      <trkpt lat="47.02449" lon="-0.84782">
        <ele>91.94</ele>
        <time>2012-08-28T12:58:04Z</time>
      </trkpt>
      <trkpt lat="47.02449" lon="-0.84784">
        <ele>90.5</ele>
        <time>2012-08-28T12:58:13Z</time>
      </trkpt>
      <trkpt lat="47.02449" lon="-0.84785">
        <ele>90.98</ele>
        <time>2012-08-28T12:58:14Z</time>
      </trkpt>
      <trkpt lat="47.0245" lon="-0.84787">
        <ele>91.94</ele>
        <time>2012-08-28T12:58:15Z</time>
      </trkpt>
      <trkpt lat="47.02451" lon="-0.84789">
        <ele>91.46</ele>
        <time>2012-08-28T12:58:16Z</time>
      </trkpt>
      <trkpt lat="47.02453" lon="-0.8479">
        <ele>91.46</ele>
        <time>2012-08-28T12:58:17Z</time>
      </trkpt>
      <trkpt lat="47.02458" lon="-0.84791">
        <ele>91.94</ele>
        <time>2012-08-28T12:58:20Z</time>
      </trkpt>
      <trkpt lat="47.0246" lon="-0.84791">
        <ele>92.9</ele>
        <time>2012-08-28T12:58:21Z</time>
      </trkpt>
      <trkpt lat="47.02461" lon="-0.8479">
        <ele>93.39</ele>
        <time>2012-08-28T12:58:22Z</time>
      </trkpt>
      <trkpt lat="47.02463" lon="-0.8479">
        <ele>92.9</ele>
        <time>2012-08-28T12:58:23Z</time>
      </trkpt>
      <trkpt lat="47.02465" lon="-0.84789">
        <ele>93.39</ele>
        <time>2012-08-28T12:58:24Z</time>
      </trkpt>
      <trkpt lat="47.02467" lon="-0.84788">
        <ele>93.39</ele>
        <time>2012-08-28T12:58:25Z</time>
      </trkpt>
      <trkpt lat="47.02469" lon="-0.84787">
        <ele>93.39</ele>
        <time>2012-08-28T12:58:26Z</time>
      </trkpt>
      <trkpt lat="47.02483" lon="-0.84785">
        <ele>97.23</ele>
        <time>2012-08-28T12:58:35Z</time>
      </trkpt>
      <trkpt lat="47.02484" lon="-0.84785">
        <ele>97.23</ele>
        <time>2012-08-28T12:58:36Z</time>
      </trkpt>
      <trkpt lat="47.0249" lon="-0.84782">
        <ele>98.19</ele>
        <time>2012-08-28T12:58:40Z</time>
      </trkpt>
      <trkpt lat="47.02491" lon="-0.84782">
        <ele>98.19</ele>
        <time>2012-08-28T12:58:41Z</time>
      </trkpt>
      <trkpt lat="47.02495" lon="-0.84781">
        <ele>98.67</ele>
        <time>2012-08-28T12:58:55Z</time>
      </trkpt>
      <trkpt lat="47.02497" lon="-0.84783">
        <ele>101.56</ele>
        <time>2012-08-28T12:59:10Z</time>
      </trkpt>
      <trkpt lat="47.02496" lon="-0.84797">
        <ele>104.92</ele>
        <time>2012-08-28T12:59:22Z</time>
      </trkpt>
      <trkpt lat="47.025" lon="-0.84811">
        <ele>106.36</ele>
        <time>2012-08-28T12:59:33Z</time>
      </trkpt>
      <trkpt lat="47.02502" lon="-0.84811">
        <ele>106.84</ele>
        <time>2012-08-28T12:59:43Z</time>
      </trkpt>
      <trkpt lat="47.02513" lon="-0.84818">
        <ele>107.32</ele>
        <time>2012-08-28T12:59:56Z</time>
      </trkpt>
      <trkpt lat="47.0252" lon="-0.84828">
        <ele>108.29</ele>
        <time>2012-08-28T13:00:00Z</time>
      </trkpt>
      <trkpt lat="47.0253" lon="-0.84829">
        <ele>108.77</ele>
        <time>2012-08-28T13:00:05Z</time>
      </trkpt>
      <trkpt lat="47.0255" lon="-0.84813">
        <ele>109.73</ele>
        <time>2012-08-28T13:00:15Z</time>
      </trkpt>
      <trkpt lat="47.02563" lon="-0.84791">
        <ele>106.36</ele>
        <time>2012-08-28T13:00:21Z</time>
      </trkpt>
      <trkpt lat="47.02566" lon="-0.84788">
        <ele>105.88</ele>
        <time>2012-08-28T13:00:22Z</time>
      </trkpt>
      <trkpt lat="47.02569" lon="-0.84783">
        <ele>105.4</ele>
        <time>2012-08-28T13:00:23Z</time>
      </trkpt>
      <trkpt lat="47.02576" lon="-0.84777">
        <ele>104.44</ele>
        <time>2012-08-28T13:00:25Z</time>
      </trkpt>
      <trkpt lat="47.02579" lon="-0.84776">
        <ele>104.44</ele>
        <time>2012-08-28T13:00:26Z</time>
      </trkpt>
      <trkpt lat="47.02584" lon="-0.84775">
        <ele>103.96</ele>
        <time>2012-08-28T13:00:27Z</time>
      </trkpt>
      <trkpt lat="47.02605" lon="-0.84771">
        <ele>102.52</ele>
        <time>2012-08-28T13:00:31Z</time>
      </trkpt>
      <trkpt lat="47.02612" lon="-0.84772">
        <ele>102.04</ele>
        <time>2012-08-28T13:00:32Z</time>
      </trkpt>
      <trkpt lat="47.02617" lon="-0.84776">
        <ele>102.04</ele>
        <time>2012-08-28T13:00:33Z</time>
      </trkpt>
      <trkpt lat="47.02628" lon="-0.84784">
        <ele>101.56</ele>
        <time>2012-08-28T13:00:35Z</time>
      </trkpt>
      <trkpt lat="47.02634" lon="-0.84785">
        <ele>102.04</ele>
        <time>2012-08-28T13:00:36Z</time>
      </trkpt>
      <trkpt lat="47.02639" lon="-0.84785">
        <ele>101.56</ele>
        <time>2012-08-28T13:00:37Z</time>
      </trkpt>
      <trkpt lat="47.0265" lon="-0.84782">
        <ele>101.08</ele>
        <time>2012-08-28T13:00:39Z</time>
      </trkpt>
      <trkpt lat="47.02656" lon="-0.8478">
        <ele>100.6</ele>
        <time>2012-08-28T13:00:40Z</time>
      </trkpt>
      <trkpt lat="47.02661" lon="-0.84776">
        <ele>100.6</ele>
        <time>2012-08-28T13:00:41Z</time>
      </trkpt>
      <trkpt lat="47.02666" lon="-0.84771">
        <ele>100.11</ele>
        <time>2012-08-28T13:00:42Z</time>
      </trkpt>
      <trkpt lat="47.02672" lon="-0.84766">
        <ele>99.63</ele>
        <time>2012-08-28T13:00:43Z</time>
      </trkpt>
      <trkpt lat="47.02683" lon="-0.84757">
        <ele>98.67</ele>
        <time>2012-08-28T13:00:45Z</time>
      </trkpt>
      <trkpt lat="47.02689" lon="-0.84755">
        <ele>98.67</ele>
        <time>2012-08-28T13:00:46Z</time>
      </trkpt>
      <trkpt lat="47.02791" lon="-0.84719">
        <ele>97.71</ele>
        <time>2012-08-28T13:01:03Z</time>
      </trkpt>
      <trkpt lat="47.02875" lon="-0.84691">
        <ele>97.71</ele>
        <time>2012-08-28T13:01:17Z</time>
      </trkpt>
      <trkpt lat="47.0288" lon="-0.84691">
        <ele>97.23</ele>
        <time>2012-08-28T13:01:18Z</time>
      </trkpt>
      <trkpt lat="47.02886" lon="-0.84691">
        <ele>96.75</ele>
        <time>2012-08-28T13:01:19Z</time>
      </trkpt>
      <trkpt lat="47.02919" lon="-0.84703">
        <ele>97.23</ele>
        <time>2012-08-28T13:01:25Z</time>
      </trkpt>
      <trkpt lat="47.02925" lon="-0.84704">
        <ele>97.23</ele>
        <time>2012-08-28T13:01:26Z</time>
      </trkpt>
      <trkpt lat="47.02994" lon="-0.84701">
        <ele>98.19</ele>
        <time>2012-08-28T13:01:38Z</time>
      </trkpt>
      <trkpt lat="47.02999" lon="-0.84697">
        <ele>98.67</ele>
        <time>2012-08-28T13:01:39Z</time>
      </trkpt>
      <trkpt lat="47.03004" lon="-0.84693">
        <ele>98.67</ele>
        <time>2012-08-28T13:01:40Z</time>
      </trkpt>
      <trkpt lat="47.03009" lon="-0.84688">
        <ele>98.67</ele>
        <time>2012-08-28T13:01:41Z</time>
      </trkpt>
      <trkpt lat="47.03012" lon="-0.84682">
        <ele>99.15</ele>
        <time>2012-08-28T13:01:42Z</time>
      </trkpt>
      <trkpt lat="47.03015" lon="-0.84675">
        <ele>99.15</ele>
        <time>2012-08-28T13:01:43Z</time>
      </trkpt>
      <trkpt lat="47.03018" lon="-0.84668">
        <ele>99.15</ele>
        <time>2012-08-28T13:01:44Z</time>
      </trkpt>
      <trkpt lat="47.0302" lon="-0.84661">
        <ele>99.15</ele>
        <time>2012-08-28T13:01:45Z</time>
      </trkpt>
      <trkpt lat="47.03028" lon="-0.8464">
        <ele>99.15</ele>
        <time>2012-08-28T13:01:48Z</time>
      </trkpt>
      <trkpt lat="47.03035" lon="-0.84628">
        <ele>98.67</ele>
        <time>2012-08-28T13:01:50Z</time>
      </trkpt>
      <trkpt lat="47.03041" lon="-0.84626">
        <ele>98.19</ele>
        <time>2012-08-28T13:01:51Z</time>
      </trkpt>
      <trkpt lat="47.03047" lon="-0.84626">
        <ele>97.71</ele>
        <time>2012-08-28T13:01:52Z</time>
      </trkpt>
      <trkpt lat="47.03052" lon="-0.84628">
        <ele>98.19</ele>
        <time>2012-08-28T13:01:53Z</time>
      </trkpt>
      <trkpt lat="47.03057" lon="-0.84628">
        <ele>98.19</ele>
        <time>2012-08-28T13:01:54Z</time>
      </trkpt>
      <trkpt lat="47.03063" lon="-0.84628">
        <ele>97.71</ele>
        <time>2012-08-28T13:01:55Z</time>
      </trkpt>
      <trkpt lat="47.03068" lon="-0.84626">
        <ele>97.71</ele>
        <time>2012-08-28T13:01:56Z</time>
      </trkpt>
      <trkpt lat="47.03074" lon="-0.84625">
        <ele>97.23</ele>
        <time>2012-08-28T13:01:57Z</time>
      </trkpt>
      <trkpt lat="47.03084" lon="-0.8462">
        <ele>97.23</ele>
        <time>2012-08-28T13:01:59Z</time>
      </trkpt>
      <trkpt lat="47.03089" lon="-0.84617">
        <ele>97.23</ele>
        <time>2012-08-28T13:02:00Z</time>
      </trkpt>
      <trkpt lat="47.03091" lon="-0.84614">
        <ele>97.71</ele>
        <time>2012-08-28T13:02:01Z</time>
      </trkpt>
      <trkpt lat="47.03091" lon="-0.84611">
        <ele>98.19</ele>
        <time>2012-08-28T13:02:02Z</time>
      </trkpt>
      <trkpt lat="47.03091" lon="-0.84608">
        <ele>98.67</ele>
        <time>2012-08-28T13:02:03Z</time>
      </trkpt>
      <trkpt lat="47.0309" lon="-0.84605">
        <ele>98.67</ele>
        <time>2012-08-28T13:02:04Z</time>
      </trkpt>
      <trkpt lat="47.03088" lon="-0.84601">
        <ele>98.67</ele>
        <time>2012-08-28T13:02:05Z</time>
      </trkpt>
      <trkpt lat="47.03087" lon="-0.84597">
        <ele>98.67</ele>
        <time>2012-08-28T13:02:06Z</time>
      </trkpt>
      <trkpt lat="47.03083" lon="-0.84578">
        <ele>98.19</ele>
        <time>2012-08-28T13:02:11Z</time>
      </trkpt>
      <trkpt lat="47.03089" lon="-0.84559">
        <ele>98.67</ele>
        <time>2012-08-28T13:02:15Z</time>
      </trkpt>
      <trkpt lat="47.03092" lon="-0.84554">
        <ele>98.19</ele>
        <time>2012-08-28T13:02:16Z</time>
      </trkpt>
      <trkpt lat="47.03095" lon="-0.8455">
        <ele>98.67</ele>
        <time>2012-08-28T13:02:17Z</time>
      </trkpt>
      <trkpt lat="47.03116" lon="-0.84522">
        <ele>99.15</ele>
        <time>2012-08-28T13:02:23Z</time>
      </trkpt>
      <trkpt lat="47.03119" lon="-0.84518">
        <ele>99.63</ele>
        <time>2012-08-28T13:02:24Z</time>
      </trkpt>
      <trkpt lat="47.03122" lon="-0.84515">
        <ele>100.11</ele>
        <time>2012-08-28T13:02:25Z</time>
      </trkpt>
      <trkpt lat="47.03125" lon="-0.84511">
        <ele>100.11</ele>
        <time>2012-08-28T13:02:26Z</time>
      </trkpt>
      <trkpt lat="47.03128" lon="-0.84506">
        <ele>100.11</ele>
        <time>2012-08-28T13:02:27Z</time>
      </trkpt>
      <trkpt lat="47.03131" lon="-0.84503">
        <ele>99.63</ele>
        <time>2012-08-28T13:02:28Z</time>
      </trkpt>
      <trkpt lat="47.03135" lon="-0.84498">
        <ele>99.63</ele>
        <time>2012-08-28T13:02:29Z</time>
      </trkpt>
      <trkpt lat="47.03154" lon="-0.84473">
        <ele>99.15</ele>
        <time>2012-08-28T13:02:34Z</time>
      </trkpt>
      <trkpt lat="47.03158" lon="-0.84471">
        <ele>99.63</ele>
        <time>2012-08-28T13:02:35Z</time>
      </trkpt>
      <trkpt lat="47.03162" lon="-0.8447">
        <ele>99.15</ele>
        <time>2012-08-28T13:02:36Z</time>
      </trkpt>
      <trkpt lat="47.03166" lon="-0.8447">
        <ele>100.6</ele>
        <time>2012-08-28T13:02:37Z</time>
      </trkpt>
      <trkpt lat="47.03169" lon="-0.84469">
        <ele>100.6</ele>
        <time>2012-08-28T13:02:38Z</time>
      </trkpt>
      <trkpt lat="47.03173" lon="-0.84467">
        <ele>101.08</ele>
        <time>2012-08-28T13:02:39Z</time>
      </trkpt>
      <trkpt lat="47.03177" lon="-0.84465">
        <ele>101.56</ele>
        <time>2012-08-28T13:02:40Z</time>
      </trkpt>
      <trkpt lat="47.03181" lon="-0.84461">
        <ele>102.04</ele>
        <time>2012-08-28T13:02:41Z</time>
      </trkpt>
      <trkpt lat="47.03184" lon="-0.84457">
        <ele>103</ele>
        <time>2012-08-28T13:02:42Z</time>
      </trkpt>
      <trkpt lat="47.03187" lon="-0.84452">
        <ele>102.52</ele>
        <time>2012-08-28T13:02:43Z</time>
      </trkpt>
      <trkpt lat="47.0319" lon="-0.84448">
        <ele>103</ele>
        <time>2012-08-28T13:02:44Z</time>
      </trkpt>
      <trkpt lat="47.03193" lon="-0.84443">
        <ele>103</ele>
        <time>2012-08-28T13:02:45Z</time>
      </trkpt>
      <trkpt lat="47.03231" lon="-0.84376">
        <ele>102.04</ele>
        <time>2012-08-28T13:02:58Z</time>
      </trkpt>
      <trkpt lat="47.03238" lon="-0.8436">
        <ele>100.6</ele>
        <time>2012-08-28T13:03:00Z</time>
      </trkpt>
      <trkpt lat="47.03261" lon="-0.8432">
        <ele>98.67</ele>
        <time>2012-08-28T13:03:05Z</time>
      </trkpt>
      <trkpt lat="47.03266" lon="-0.84313">
        <ele>97.71</ele>
        <time>2012-08-28T13:03:06Z</time>
      </trkpt>
      <trkpt lat="47.03272" lon="-0.84307">
        <ele>97.71</ele>
        <time>2012-08-28T13:03:07Z</time>
      </trkpt>
      <trkpt lat="47.03277" lon="-0.84298">
        <ele>96.75</ele>
        <time>2012-08-28T13:03:08Z</time>
      </trkpt>
      <trkpt lat="47.03282" lon="-0.84289">
        <ele>96.27</ele>
        <time>2012-08-28T13:03:09Z</time>
      </trkpt>
      <trkpt lat="47.03303" lon="-0.84246">
        <ele>96.75</ele>
        <time>2012-08-28T13:03:14Z</time>
      </trkpt>
      <trkpt lat="47.03312" lon="-0.84223">
        <ele>98.19</ele>
        <time>2012-08-28T13:03:17Z</time>
      </trkpt>
      <trkpt lat="47.03319" lon="-0.84209">
        <ele>99.15</ele>
        <time>2012-08-28T13:03:19Z</time>
      </trkpt>
      <trkpt lat="47.03325" lon="-0.84197">
        <ele>99.15</ele>
        <time>2012-08-28T13:03:21Z</time>
      </trkpt>
      <trkpt lat="47.03368" lon="-0.84109">
        <ele>98.67</ele>
        <time>2012-08-28T13:03:34Z</time>
      </trkpt>
      <trkpt lat="47.03373" lon="-0.84095">
        <ele>98.67</ele>
        <time>2012-08-28T13:03:36Z</time>
      </trkpt>
      <trkpt lat="47.03379" lon="-0.8408">
        <ele>99.63</ele>
        <time>2012-08-28T13:03:38Z</time>
      </trkpt>
      <trkpt lat="47.03382" lon="-0.84074">
        <ele>99.63</ele>
        <time>2012-08-28T13:03:39Z</time>
      </trkpt>
      <trkpt lat="47.03385" lon="-0.84068">
        <ele>100.11</ele>
        <time>2012-08-28T13:03:40Z</time>
      </trkpt>
      <trkpt lat="47.03391" lon="-0.84057">
        <ele>101.08</ele>
        <time>2012-08-28T13:03:42Z</time>
      </trkpt>
      <trkpt lat="47.03425" lon="-0.83999">
        <ele>100.6</ele>
        <time>2012-08-28T13:03:52Z</time>
      </trkpt>
      <trkpt lat="47.03428" lon="-0.83993">
        <ele>100.6</ele>
        <time>2012-08-28T13:03:53Z</time>
      </trkpt>
      <trkpt lat="47.03432" lon="-0.83987">
        <ele>100.6</ele>
        <time>2012-08-28T13:03:54Z</time>
      </trkpt>
      <trkpt lat="47.03453" lon="-0.83957">
        <ele>102.04</ele>
        <time>2012-08-28T13:04:00Z</time>
      </trkpt>
      <trkpt lat="47.0347" lon="-0.83935">
        <ele>102.52</ele>
        <time>2012-08-28T13:04:05Z</time>
      </trkpt>
      <trkpt lat="47.03474" lon="-0.83932">
        <ele>103</ele>
        <time>2012-08-28T13:04:06Z</time>
      </trkpt>
      <trkpt lat="47.03478" lon="-0.8393">
        <ele>103</ele>
        <time>2012-08-28T13:04:07Z</time>
      </trkpt>
      <trkpt lat="47.03483" lon="-0.83928">
        <ele>103</ele>
        <time>2012-08-28T13:04:08Z</time>
      </trkpt>
      <trkpt lat="47.03487" lon="-0.83927">
        <ele>103.48</ele>
        <time>2012-08-28T13:04:09Z</time>
      </trkpt>
      <trkpt lat="47.03499" lon="-0.83925">
        <ele>103.96</ele>
        <time>2012-08-28T13:04:12Z</time>
      </trkpt>
      <trkpt lat="47.03503" lon="-0.83925">
        <ele>103.48</ele>
        <time>2012-08-28T13:04:13Z</time>
      </trkpt>
      <trkpt lat="47.03508" lon="-0.83925">
        <ele>103.48</ele>
        <time>2012-08-28T13:04:14Z</time>
      </trkpt>
      <trkpt lat="47.03513" lon="-0.83926">
        <ele>103.48</ele>
        <time>2012-08-28T13:04:15Z</time>
      </trkpt>
      <trkpt lat="47.03517" lon="-0.83927">
        <ele>103.48</ele>
        <time>2012-08-28T13:04:16Z</time>
      </trkpt>
      <trkpt lat="47.03522" lon="-0.8393">
        <ele>103.48</ele>
        <time>2012-08-28T13:04:17Z</time>
      </trkpt>
      <trkpt lat="47.03526" lon="-0.83933">
        <ele>103.48</ele>
        <time>2012-08-28T13:04:18Z</time>
      </trkpt>
      <trkpt lat="47.0353" lon="-0.83936">
        <ele>103.48</ele>
        <time>2012-08-28T13:04:19Z</time>
      </trkpt>
      <trkpt lat="47.03541" lon="-0.83943">
        <ele>103.48</ele>
        <time>2012-08-28T13:04:22Z</time>
      </trkpt>
      <trkpt lat="47.03546" lon="-0.83944">
        <ele>102.52</ele>
        <time>2012-08-28T13:04:23Z</time>
      </trkpt>
      <trkpt lat="47.03552" lon="-0.83943">
        <ele>102.04</ele>
        <time>2012-08-28T13:04:24Z</time>
      </trkpt>
      <trkpt lat="47.03558" lon="-0.83941">
        <ele>101.56</ele>
        <time>2012-08-28T13:04:25Z</time>
      </trkpt>
      <trkpt lat="47.03563" lon="-0.83936">
        <ele>101.56</ele>
        <time>2012-08-28T13:04:26Z</time>
      </trkpt>
      <trkpt lat="47.03567" lon="-0.83932">
        <ele>102.04</ele>
        <time>2012-08-28T13:04:27Z</time>
      </trkpt>
      <trkpt lat="47.0357" lon="-0.8393">
        <ele>102.52</ele>
        <time>2012-08-28T13:04:28Z</time>
      </trkpt>
      <trkpt lat="47.03572" lon="-0.8393">
        <ele>103.48</ele>
        <time>2012-08-28T13:04:29Z</time>
      </trkpt>
      <trkpt lat="47.03574" lon="-0.83931">
        <ele>104.44</ele>
        <time>2012-08-28T13:04:30Z</time>
      </trkpt>
      <trkpt lat="47.03575" lon="-0.83932">
        <ele>104.92</ele>
        <time>2012-08-28T13:04:31Z</time>
      </trkpt>
      <trkpt lat="47.03577" lon="-0.83934">
        <ele>105.4</ele>
        <time>2012-08-28T13:04:32Z</time>
      </trkpt>
      <trkpt lat="47.03579" lon="-0.83934">
        <ele>105.88</ele>
        <time>2012-08-28T13:04:34Z</time>
      </trkpt>
      <trkpt lat="47.03581" lon="-0.83932">
        <ele>106.36</ele>
        <time>2012-08-28T13:04:35Z</time>
      </trkpt>
      <trkpt lat="47.03583" lon="-0.83929">
        <ele>105.88</ele>
        <time>2012-08-28T13:04:36Z</time>
      </trkpt>
      <trkpt lat="47.03586" lon="-0.83927">
        <ele>105.88</ele>
        <time>2012-08-28T13:04:37Z</time>
      </trkpt>
      <trkpt lat="47.03589" lon="-0.83926">
        <ele>106.84</ele>
        <time>2012-08-28T13:04:38Z</time>
      </trkpt>
      <trkpt lat="47.03592" lon="-0.83926">
        <ele>106.84</ele>
        <time>2012-08-28T13:04:39Z</time>
      </trkpt>
      <trkpt lat="47.03596" lon="-0.83925">
        <ele>107.32</ele>
        <time>2012-08-28T13:04:40Z</time>
      </trkpt>
      <trkpt lat="47.03599" lon="-0.83925">
        <ele>106.84</ele>
        <time>2012-08-28T13:04:41Z</time>
      </trkpt>
      <trkpt lat="47.03634" lon="-0.83917">
        <ele>106.84</ele>
        <time>2012-08-28T13:04:50Z</time>
      </trkpt>
      <trkpt lat="47.0364" lon="-0.83918">
        <ele>106.36</ele>
        <time>2012-08-28T13:04:51Z</time>
      </trkpt>
      <trkpt lat="47.03645" lon="-0.83919">
        <ele>106.84</ele>
        <time>2012-08-28T13:04:52Z</time>
      </trkpt>
      <trkpt lat="47.0365" lon="-0.83921">
        <ele>107.81</ele>
        <time>2012-08-28T13:04:53Z</time>
      </trkpt>
      <trkpt lat="47.03654" lon="-0.83922">
        <ele>107.81</ele>
        <time>2012-08-28T13:04:54Z</time>
      </trkpt>
      <trkpt lat="47.03657" lon="-0.83922">
        <ele>107.32</ele>
        <time>2012-08-28T13:04:55Z</time>
      </trkpt>
      <trkpt lat="47.03661" lon="-0.83922">
        <ele>107.32</ele>
        <time>2012-08-28T13:04:56Z</time>
      </trkpt>
      <trkpt lat="47.03675" lon="-0.83921">
        <ele>105.88</ele>
        <time>2012-08-28T13:05:00Z</time>
      </trkpt>
      <trkpt lat="47.0368" lon="-0.83922">
        <ele>105.88</ele>
        <time>2012-08-28T13:05:01Z</time>
      </trkpt>
      <trkpt lat="47.03686" lon="-0.83923">
        <ele>104.92</ele>
        <time>2012-08-28T13:05:02Z</time>
      </trkpt>
      <trkpt lat="47.03719" lon="-0.8394">
        <ele>105.88</ele>
        <time>2012-08-28T13:05:08Z</time>
      </trkpt>
      <trkpt lat="47.03749" lon="-0.83939">
        <ele>109.73</ele>
        <time>2012-08-28T13:05:16Z</time>
      </trkpt>
      <trkpt lat="47.03782" lon="-0.83921">
        <ele>111.65</ele>
        <time>2012-08-28T13:05:26Z</time>
      </trkpt>
      <trkpt lat="47.03791" lon="-0.83908">
        <ele>112.13</ele>
        <time>2012-08-28T13:05:29Z</time>
      </trkpt>
      <trkpt lat="47.03794" lon="-0.83905">
        <ele>111.65</ele>
        <time>2012-08-28T13:05:30Z</time>
      </trkpt>
      <trkpt lat="47.03798" lon="-0.83902">
        <ele>111.65</ele>
        <time>2012-08-28T13:05:31Z</time>
      </trkpt>
      <trkpt lat="47.03802" lon="-0.83899">
        <ele>111.65</ele>
        <time>2012-08-28T13:05:32Z</time>
      </trkpt>
      <trkpt lat="47.03805" lon="-0.83894">
        <ele>111.65</ele>
        <time>2012-08-28T13:05:33Z</time>
      </trkpt>
      <trkpt lat="47.03808" lon="-0.83889">
        <ele>112.13</ele>
        <time>2012-08-28T13:05:34Z</time>
      </trkpt>
      <trkpt lat="47.0381" lon="-0.83884">
        <ele>111.65</ele>
        <time>2012-08-28T13:05:35Z</time>
      </trkpt>
      <trkpt lat="47.03812" lon="-0.83878">
        <ele>111.65</ele>
        <time>2012-08-28T13:05:36Z</time>
      </trkpt>
      <trkpt lat="47.03813" lon="-0.83872">
        <ele>111.65</ele>
        <time>2012-08-28T13:05:37Z</time>
      </trkpt>
      <trkpt lat="47.03814" lon="-0.83866">
        <ele>111.65</ele>
        <time>2012-08-28T13:05:38Z</time>
      </trkpt>
      <trkpt lat="47.03816" lon="-0.8386">
        <ele>112.13</ele>
        <time>2012-08-28T13:05:39Z</time>
      </trkpt>
      <trkpt lat="47.03818" lon="-0.83856">
        <ele>111.65</ele>
        <time>2012-08-28T13:05:40Z</time>
      </trkpt>
      <trkpt lat="47.03819" lon="-0.83853">
        <ele>112.13</ele>
        <time>2012-08-28T13:05:45Z</time>
      </trkpt>
      <trkpt lat="47.03818" lon="-0.83856">
        <ele>111.65</ele>
        <time>2012-08-28T13:05:46Z</time>
      </trkpt>
      <trkpt lat="47.03819" lon="-0.83858">
        <ele>112.13</ele>
        <time>2012-08-28T13:05:47Z</time>
      </trkpt>
      <trkpt lat="47.0382" lon="-0.8386">
        <ele>112.13</ele>
        <time>2012-08-28T13:05:48Z</time>
      </trkpt>
      <trkpt lat="47.03821" lon="-0.83861">
        <ele>112.13</ele>
        <time>2012-08-28T13:05:49Z</time>
      </trkpt>
      <trkpt lat="47.03826" lon="-0.83865">
        <ele>113.09</ele>
        <time>2012-08-28T13:05:52Z</time>
      </trkpt>
      <trkpt lat="47.03852" lon="-0.83872">
        <ele>115.5</ele>
        <time>2012-08-28T13:06:02Z</time>
      </trkpt>
      <trkpt lat="47.03856" lon="-0.83867">
        <ele>115.5</ele>
        <time>2012-08-28T13:06:04Z</time>
      </trkpt>
      <trkpt lat="47.03857" lon="-0.83863">
        <ele>115.01</ele>
        <time>2012-08-28T13:06:05Z</time>
      </trkpt>
      <trkpt lat="47.03886" lon="-0.8381">
        <ele>115.5</ele>
        <time>2012-08-28T13:06:18Z</time>
      </trkpt>
      <trkpt lat="47.03896" lon="-0.83799">
        <ele>115.01</ele>
        <time>2012-08-28T13:06:21Z</time>
      </trkpt>
      <trkpt lat="47.03899" lon="-0.83797">
        <ele>115.98</ele>
        <time>2012-08-28T13:06:22Z</time>
      </trkpt>
      <trkpt lat="47.03903" lon="-0.83794">
        <ele>115.98</ele>
        <time>2012-08-28T13:06:23Z</time>
      </trkpt>
      <trkpt lat="47.03924" lon="-0.83785">
        <ele>115.5</ele>
        <time>2012-08-28T13:06:28Z</time>
      </trkpt>
      <trkpt lat="47.03929" lon="-0.83785">
        <ele>115.5</ele>
        <time>2012-08-28T13:06:29Z</time>
      </trkpt>
      <trkpt lat="47.03933" lon="-0.83784">
        <ele>115.5</ele>
        <time>2012-08-28T13:06:30Z</time>
      </trkpt>
      <trkpt lat="47.0398" lon="-0.83784">
        <ele>115.98</ele>
        <time>2012-08-28T13:06:40Z</time>
      </trkpt>
      <trkpt lat="47.03985" lon="-0.83787">
        <ele>115.5</ele>
        <time>2012-08-28T13:06:41Z</time>
      </trkpt>
      <trkpt lat="47.03989" lon="-0.83791">
        <ele>115.5</ele>
        <time>2012-08-28T13:06:42Z</time>
      </trkpt>
      <trkpt lat="47.03996" lon="-0.838">
        <ele>115.5</ele>
        <time>2012-08-28T13:06:44Z</time>
      </trkpt>
      <trkpt lat="47.03999" lon="-0.83806">
        <ele>115.5</ele>
        <time>2012-08-28T13:06:45Z</time>
      </trkpt>
      <trkpt lat="47.04019" lon="-0.83841">
        <ele>116.94</ele>
        <time>2012-08-28T13:06:52Z</time>
      </trkpt>
      <trkpt lat="47.04057" lon="-0.83896">
        <ele>119.82</ele>
        <time>2012-08-28T13:07:05Z</time>
      </trkpt>
      <trkpt lat="47.0406" lon="-0.839">
        <ele>119.82</ele>
        <time>2012-08-28T13:07:06Z</time>
      </trkpt>
      <trkpt lat="47.04063" lon="-0.83904">
        <ele>120.3</ele>
        <time>2012-08-28T13:07:07Z</time>
      </trkpt>
      <trkpt lat="47.04119" lon="-0.83959">
        <ele>123.19</ele>
        <time>2012-08-28T13:07:24Z</time>
      </trkpt>
      <trkpt lat="47.04122" lon="-0.83959">
        <ele>122.71</ele>
        <time>2012-08-28T13:07:25Z</time>
      </trkpt>
      <trkpt lat="47.04125" lon="-0.83956">
        <ele>123.19</ele>
        <time>2012-08-28T13:07:26Z</time>
      </trkpt>
      <trkpt lat="47.04127" lon="-0.83952">
        <ele>124.15</ele>
        <time>2012-08-28T13:07:27Z</time>
      </trkpt>
      <trkpt lat="47.04137" lon="-0.83932">
        <ele>123.19</ele>
        <time>2012-08-28T13:07:31Z</time>
      </trkpt>
      <trkpt lat="47.0414" lon="-0.83928">
        <ele>122.71</ele>
        <time>2012-08-28T13:07:32Z</time>
      </trkpt>
      <trkpt lat="47.0415" lon="-0.83917">
        <ele>123.19</ele>
        <time>2012-08-28T13:07:35Z</time>
      </trkpt>
      <trkpt lat="47.04154" lon="-0.83915">
        <ele>123.19</ele>
        <time>2012-08-28T13:07:36Z</time>
      </trkpt>
      <trkpt lat="47.04158" lon="-0.83912">
        <ele>123.67</ele>
        <time>2012-08-28T13:07:37Z</time>
      </trkpt>
      <trkpt lat="47.04192" lon="-0.83876">
        <ele>124.15</ele>
        <time>2012-08-28T13:07:48Z</time>
      </trkpt>
      <trkpt lat="47.04195" lon="-0.83871">
        <ele>123.67</ele>
        <time>2012-08-28T13:07:49Z</time>
      </trkpt>
      <trkpt lat="47.04197" lon="-0.83865">
        <ele>124.15</ele>
        <time>2012-08-28T13:07:50Z</time>
      </trkpt>
      <trkpt lat="47.04209" lon="-0.83823">
        <ele>122.71</ele>
        <time>2012-08-28T13:07:56Z</time>
      </trkpt>
      <trkpt lat="47.04218" lon="-0.83797">
        <ele>119.82</ele>
        <time>2012-08-28T13:07:59Z</time>
      </trkpt>
      <trkpt lat="47.04228" lon="-0.83768">
        <ele>119.82</ele>
        <time>2012-08-28T13:08:02Z</time>
      </trkpt>
      <trkpt lat="47.04239" lon="-0.8374">
        <ele>122.71</ele>
        <time>2012-08-28T13:08:08Z</time>
      </trkpt>
      <trkpt lat="47.0425" lon="-0.8374">
        <ele>123.67</ele>
        <time>2012-08-28T13:08:13Z</time>
      </trkpt>
      <trkpt lat="47.04276" lon="-0.83794">
        <ele>124.63</ele>
        <time>2012-08-28T13:08:25Z</time>
      </trkpt>
      <trkpt lat="47.04295" lon="-0.83826">
        <ele>127.51</ele>
        <time>2012-08-28T13:08:33Z</time>
      </trkpt>
      <trkpt lat="47.04336" lon="-0.8389">
        <ele>129.43</ele>
        <time>2012-08-28T13:08:49Z</time>
      </trkpt>
      <trkpt lat="47.04374" lon="-0.83938">
        <ele>130.88</ele>
        <time>2012-08-28T13:09:02Z</time>
      </trkpt>
      <trkpt lat="47.04416" lon="-0.83975">
        <ele>133.28</ele>
        <time>2012-08-28T13:09:15Z</time>
      </trkpt>
      <trkpt lat="47.04419" lon="-0.83972">
        <ele>132.8</ele>
        <time>2012-08-28T13:09:16Z</time>
      </trkpt>
      <trkpt lat="47.04423" lon="-0.8397">
        <ele>132.8</ele>
        <time>2012-08-28T13:09:17Z</time>
      </trkpt>
      <trkpt lat="47.04464" lon="-0.83944">
        <ele>134.24</ele>
        <time>2012-08-28T13:09:31Z</time>
      </trkpt>
      <trkpt lat="47.04465" lon="-0.83944">
        <ele>133.76</ele>
        <time>2012-08-28T13:09:49Z</time>
      </trkpt>
      <trkpt lat="47.04495" lon="-0.83919">
        <ele>133.76</ele>
        <time>2012-08-28T13:09:59Z</time>
      </trkpt>
      <trkpt lat="47.04565" lon="-0.83867">
        <ele>135.68</ele>
        <time>2012-08-28T13:10:14Z</time>
      </trkpt>
      <trkpt lat="47.04669" lon="-0.83794">
        <ele>137.13</ele>
        <time>2012-08-28T13:10:35Z</time>
      </trkpt>
      <trkpt lat="47.04748" lon="-0.83748">
        <ele>137.61</ele>
        <time>2012-08-28T13:10:49Z</time>
      </trkpt>
      <trkpt lat="47.04846" lon="-0.83692">
        <ele>137.61</ele>
        <time>2012-08-28T13:11:06Z</time>
      </trkpt>
      <trkpt lat="47.04862" lon="-0.83682">
        <ele>137.61</ele>
        <time>2012-08-28T13:11:09Z</time>
      </trkpt>
      <trkpt lat="47.04867" lon="-0.83677">
        <ele>137.61</ele>
        <time>2012-08-28T13:11:10Z</time>
      </trkpt>
      <trkpt lat="47.04871" lon="-0.83671">
        <ele>138.57</ele>
        <time>2012-08-28T13:11:11Z</time>
      </trkpt>
      <trkpt lat="47.04874" lon="-0.83663">
        <ele>138.57</ele>
        <time>2012-08-28T13:11:12Z</time>
      </trkpt>
      <trkpt lat="47.04875" lon="-0.83655">
        <ele>138.09</ele>
        <time>2012-08-28T13:11:13Z</time>
      </trkpt>
      <trkpt lat="47.04876" lon="-0.83646">
        <ele>138.09</ele>
        <time>2012-08-28T13:11:14Z</time>
      </trkpt>
      <trkpt lat="47.04876" lon="-0.83638">
        <ele>137.61</ele>
        <time>2012-08-28T13:11:15Z</time>
      </trkpt>
      <trkpt lat="47.04874" lon="-0.8363">
        <ele>138.09</ele>
        <time>2012-08-28T13:11:16Z</time>
      </trkpt>
      <trkpt lat="47.04872" lon="-0.83622">
        <ele>138.09</ele>
        <time>2012-08-28T13:11:17Z</time>
      </trkpt>
      <trkpt lat="47.0487" lon="-0.83614">
        <ele>138.09</ele>
        <time>2012-08-28T13:11:18Z</time>
      </trkpt>
      <trkpt lat="47.04868" lon="-0.83606">
        <ele>138.09</ele>
        <time>2012-08-28T13:11:19Z</time>
      </trkpt>
      <trkpt lat="47.04865" lon="-0.83598">
        <ele>138.09</ele>
        <time>2012-08-28T13:11:20Z</time>
      </trkpt>
      <trkpt lat="47.04863" lon="-0.83589">
        <ele>137.61</ele>
        <time>2012-08-28T13:11:21Z</time>
      </trkpt>
      <trkpt lat="47.04861" lon="-0.83581">
        <ele>137.61</ele>
        <time>2012-08-28T13:11:22Z</time>
      </trkpt>
      <trkpt lat="47.0486" lon="-0.83572">
        <ele>137.61</ele>
        <time>2012-08-28T13:11:23Z</time>
      </trkpt>
      <trkpt lat="47.04861" lon="-0.83564">
        <ele>137.61</ele>
        <time>2012-08-28T13:11:24Z</time>
      </trkpt>
      <trkpt lat="47.04863" lon="-0.83556">
        <ele>137.13</ele>
        <time>2012-08-28T13:11:25Z</time>
      </trkpt>
      <trkpt lat="47.04867" lon="-0.8355">
        <ele>137.61</ele>
        <time>2012-08-28T13:11:26Z</time>
      </trkpt>
      <trkpt lat="47.04871" lon="-0.83545">
        <ele>138.09</ele>
        <time>2012-08-28T13:11:27Z</time>
      </trkpt>
      <trkpt lat="47.04875" lon="-0.83541">
        <ele>138.09</ele>
        <time>2012-08-28T13:11:28Z</time>
      </trkpt>
      <trkpt lat="47.0488" lon="-0.83539">
        <ele>138.57</ele>
        <time>2012-08-28T13:11:29Z</time>
      </trkpt>
      <trkpt lat="47.04885" lon="-0.83536">
        <ele>138.57</ele>
        <time>2012-08-28T13:11:30Z</time>
      </trkpt>
      <trkpt lat="47.04916" lon="-0.83521">
        <ele>139.53</ele>
        <time>2012-08-28T13:11:42Z</time>
      </trkpt>
      <trkpt lat="47.04934" lon="-0.83503">
        <ele>139.05</ele>
        <time>2012-08-28T13:11:51Z</time>
      </trkpt>
      <trkpt lat="47.04938" lon="-0.83499">
        <ele>138.57</ele>
        <time>2012-08-28T13:11:52Z</time>
      </trkpt>
      <trkpt lat="47.04959" lon="-0.83485">
        <ele>139.53</ele>
        <time>2012-08-28T13:11:57Z</time>
      </trkpt>
      <trkpt lat="47.05028" lon="-0.8344">
        <ele>141.45</ele>
        <time>2012-08-28T13:12:14Z</time>
      </trkpt>
      <trkpt lat="47.0507" lon="-0.83416">
        <ele>142.41</ele>
        <time>2012-08-28T13:12:24Z</time>
      </trkpt>
      <trkpt lat="47.05075" lon="-0.83414">
        <ele>142.41</ele>
        <time>2012-08-28T13:12:25Z</time>
      </trkpt>
      <trkpt lat="47.05079" lon="-0.83411">
        <ele>142.41</ele>
        <time>2012-08-28T13:12:26Z</time>
      </trkpt>
      <trkpt lat="47.05083" lon="-0.83407">
        <ele>142.41</ele>
        <time>2012-08-28T13:12:27Z</time>
      </trkpt>
      <trkpt lat="47.05086" lon="-0.83402">
        <ele>142.89</ele>
        <time>2012-08-28T13:12:28Z</time>
      </trkpt>
      <trkpt lat="47.0509" lon="-0.83398">
        <ele>142.89</ele>
        <time>2012-08-28T13:12:29Z</time>
      </trkpt>
      <trkpt lat="47.05148" lon="-0.83328">
        <ele>142.89</ele>
        <time>2012-08-28T13:12:44Z</time>
      </trkpt>
      <trkpt lat="47.05191" lon="-0.83274">
        <ele>143.37</ele>
        <time>2012-08-28T13:12:55Z</time>
      </trkpt>
      <trkpt lat="47.05261" lon="-0.83203">
        <ele>143.85</ele>
        <time>2012-08-28T13:13:11Z</time>
      </trkpt>
      <trkpt lat="47.05269" lon="-0.83192">
        <ele>143.85</ele>
        <time>2012-08-28T13:13:13Z</time>
      </trkpt>
      <trkpt lat="47.05272" lon="-0.83187">
        <ele>143.85</ele>
        <time>2012-08-28T13:13:14Z</time>
      </trkpt>
      <trkpt lat="47.05276" lon="-0.83182">
        <ele>143.85</ele>
        <time>2012-08-28T13:13:15Z</time>
      </trkpt>
      <trkpt lat="47.05279" lon="-0.83176">
        <ele>144.34</ele>
        <time>2012-08-28T13:13:16Z</time>
      </trkpt>
      <trkpt lat="47.05282" lon="-0.8317">
        <ele>143.85</ele>
        <time>2012-08-28T13:13:17Z</time>
      </trkpt>
      <trkpt lat="47.05285" lon="-0.83163">
        <ele>144.34</ele>
        <time>2012-08-28T13:13:18Z</time>
      </trkpt>
      <trkpt lat="47.05292" lon="-0.83141">
        <ele>144.82</ele>
        <time>2012-08-28T13:13:21Z</time>
      </trkpt>
      <trkpt lat="47.05302" lon="-0.83079">
        <ele>145.3</ele>
        <time>2012-08-28T13:13:31Z</time>
      </trkpt>
      <trkpt lat="47.05303" lon="-0.83075">
        <ele>145.3</ele>
        <time>2012-08-28T13:13:32Z</time>
      </trkpt>
      <trkpt lat="47.05305" lon="-0.83075">
        <ele>145.78</ele>
        <time>2012-08-28T13:13:33Z</time>
      </trkpt>
      <trkpt lat="47.05308" lon="-0.83076">
        <ele>145.3</ele>
        <time>2012-08-28T13:13:34Z</time>
      </trkpt>
      <trkpt lat="47.0531" lon="-0.83076">
        <ele>145.3</ele>
        <time>2012-08-28T13:13:35Z</time>
      </trkpt>
      <trkpt lat="47.05314" lon="-0.83076">
        <ele>145.3</ele>
        <time>2012-08-28T13:13:36Z</time>
      </trkpt>
      <trkpt lat="47.05324" lon="-0.83073">
        <ele>145.3</ele>
        <time>2012-08-28T13:13:39Z</time>
      </trkpt>
      <trkpt lat="47.05327" lon="-0.83068">
        <ele>144.82</ele>
        <time>2012-08-28T13:13:40Z</time>
      </trkpt>
      <trkpt lat="47.05328" lon="-0.83062">
        <ele>144.82</ele>
        <time>2012-08-28T13:13:41Z</time>
      </trkpt>
      <trkpt lat="47.05328" lon="-0.83057">
        <ele>145.3</ele>
        <time>2012-08-28T13:13:42Z</time>
      </trkpt>
      <trkpt lat="47.05327" lon="-0.83052">
        <ele>145.3</ele>
        <time>2012-08-28T13:13:43Z</time>
      </trkpt>
      <trkpt lat="47.05326" lon="-0.83048">
        <ele>145.3</ele>
        <time>2012-08-28T13:13:44Z</time>
      </trkpt>
      <trkpt lat="47.05323" lon="-0.83044">
        <ele>145.3</ele>
        <time>2012-08-28T13:13:45Z</time>
      </trkpt>
      <trkpt lat="47.0532" lon="-0.8304">
        <ele>145.78</ele>
        <time>2012-08-28T13:13:46Z</time>
      </trkpt>
      <trkpt lat="47.0531" lon="-0.83017">
        <ele>146.74</ele>
        <time>2012-08-28T13:13:51Z</time>
      </trkpt>
      <trkpt lat="47.05326" lon="-0.82973">
        <ele>147.22</ele>
        <time>2012-08-28T13:13:59Z</time>
      </trkpt>
      <trkpt lat="47.0538" lon="-0.82927">
        <ele>147.7</ele>
        <time>2012-08-28T13:14:13Z</time>
      </trkpt>
      <trkpt lat="47.05445" lon="-0.82895">
        <ele>147.7</ele>
        <time>2012-08-28T13:14:28Z</time>
      </trkpt>
      <trkpt lat="47.05461" lon="-0.82884">
        <ele>148.18</ele>
        <time>2012-08-28T13:14:33Z</time>
      </trkpt>
      <trkpt lat="47.05462" lon="-0.82881">
        <ele>148.18</ele>
        <time>2012-08-28T13:14:34Z</time>
      </trkpt>
      <trkpt lat="47.05463" lon="-0.82879">
        <ele>148.66</ele>
        <time>2012-08-28T13:14:35Z</time>
      </trkpt>
      <trkpt lat="47.05464" lon="-0.82876">
        <ele>148.66</ele>
        <time>2012-08-28T13:14:36Z</time>
      </trkpt>
      <trkpt lat="47.05465" lon="-0.82873">
        <ele>148.66</ele>
        <time>2012-08-28T13:14:37Z</time>
      </trkpt>
      <trkpt lat="47.05468" lon="-0.8287">
        <ele>148.66</ele>
        <time>2012-08-28T13:14:38Z</time>
      </trkpt>
      <trkpt lat="47.05471" lon="-0.82868">
        <ele>148.18</ele>
        <time>2012-08-28T13:14:39Z</time>
      </trkpt>
      <trkpt lat="47.05474" lon="-0.82866">
        <ele>148.18</ele>
        <time>2012-08-28T13:14:40Z</time>
      </trkpt>
      <trkpt lat="47.05478" lon="-0.82865">
        <ele>148.66</ele>
        <time>2012-08-28T13:14:41Z</time>
      </trkpt>
      <trkpt lat="47.05542" lon="-0.82834">
        <ele>149.14</ele>
        <time>2012-08-28T13:14:56Z</time>
      </trkpt>
      <trkpt lat="47.05576" lon="-0.82812">
        <ele>150.58</ele>
        <time>2012-08-28T13:15:09Z</time>
      </trkpt>
      <trkpt lat="47.05622" lon="-0.82786">
        <ele>152.51</ele>
        <time>2012-08-28T13:15:21Z</time>
      </trkpt>
      <trkpt lat="47.05681" lon="-0.82752">
        <ele>154.91</ele>
        <time>2012-08-28T13:15:36Z</time>
      </trkpt>
      <trkpt lat="47.05697" lon="-0.82745">
        <ele>155.87</ele>
        <time>2012-08-28T13:15:40Z</time>
      </trkpt>
      <trkpt lat="47.05701" lon="-0.82745">
        <ele>155.39</ele>
        <time>2012-08-28T13:15:41Z</time>
      </trkpt>
      <trkpt lat="47.05705" lon="-0.82744">
        <ele>156.35</ele>
        <time>2012-08-28T13:15:42Z</time>
      </trkpt>
      <trkpt lat="47.05709" lon="-0.82743">
        <ele>156.35</ele>
        <time>2012-08-28T13:15:43Z</time>
      </trkpt>
      <trkpt lat="47.05712" lon="-0.82741">
        <ele>156.35</ele>
        <time>2012-08-28T13:15:44Z</time>
      </trkpt>
      <trkpt lat="47.05715" lon="-0.82738">
        <ele>156.35</ele>
        <time>2012-08-28T13:15:45Z</time>
      </trkpt>
      <trkpt lat="47.05718" lon="-0.82735">
        <ele>156.35</ele>
        <time>2012-08-28T13:15:46Z</time>
      </trkpt>
      <trkpt lat="47.05721" lon="-0.82731">
        <ele>155.87</ele>
        <time>2012-08-28T13:15:47Z</time>
      </trkpt>
      <trkpt lat="47.05736" lon="-0.82722">
        <ele>155.87</ele>
        <time>2012-08-28T13:15:51Z</time>
      </trkpt>
      <trkpt lat="47.05746" lon="-0.8272">
        <ele>156.35</ele>
        <time>2012-08-28T13:15:53Z</time>
      </trkpt>
      <trkpt lat="47.0575" lon="-0.82718">
        <ele>155.87</ele>
        <time>2012-08-28T13:15:54Z</time>
      </trkpt>
      <trkpt lat="47.05755" lon="-0.82715">
        <ele>156.35</ele>
        <time>2012-08-28T13:15:55Z</time>
      </trkpt>
      <trkpt lat="47.05759" lon="-0.82711">
        <ele>156.83</ele>
        <time>2012-08-28T13:15:56Z</time>
      </trkpt>
      <trkpt lat="47.05763" lon="-0.82708">
        <ele>156.83</ele>
        <time>2012-08-28T13:15:57Z</time>
      </trkpt>
      <trkpt lat="47.05767" lon="-0.82703">
        <ele>157.31</ele>
        <time>2012-08-28T13:15:58Z</time>
      </trkpt>
      <trkpt lat="47.05769" lon="-0.82697">
        <ele>157.31</ele>
        <time>2012-08-28T13:15:59Z</time>
      </trkpt>
      <trkpt lat="47.05772" lon="-0.82691">
        <ele>156.83</ele>
        <time>2012-08-28T13:16:00Z</time>
      </trkpt>
      <trkpt lat="47.05773" lon="-0.82684">
        <ele>157.31</ele>
        <time>2012-08-28T13:16:01Z</time>
      </trkpt>
      <trkpt lat="47.05775" lon="-0.82679">
        <ele>156.83</ele>
        <time>2012-08-28T13:16:02Z</time>
      </trkpt>
      <trkpt lat="47.05776" lon="-0.82673">
        <ele>156.83</ele>
        <time>2012-08-28T13:16:03Z</time>
      </trkpt>
      <trkpt lat="47.05781" lon="-0.82649">
        <ele>156.83</ele>
        <time>2012-08-28T13:16:07Z</time>
      </trkpt>
      <trkpt lat="47.0579" lon="-0.82616">
        <ele>157.31</ele>
        <time>2012-08-28T13:16:12Z</time>
      </trkpt>
      <trkpt lat="47.05811" lon="-0.82544">
        <ele>158.27</ele>
        <time>2012-08-28T13:16:24Z</time>
      </trkpt>
      <trkpt lat="47.05813" lon="-0.82538">
        <ele>158.75</ele>
        <time>2012-08-28T13:16:25Z</time>
      </trkpt>
      <trkpt lat="47.05823" lon="-0.82496">
        <ele>158.75</ele>
        <time>2012-08-28T13:16:32Z</time>
      </trkpt>
      <trkpt lat="47.05824" lon="-0.8249">
        <ele>158.75</ele>
        <time>2012-08-28T13:16:33Z</time>
      </trkpt>
      <trkpt lat="47.05827" lon="-0.82471">
        <ele>158.75</ele>
        <time>2012-08-28T13:16:36Z</time>
      </trkpt>
      <trkpt lat="47.05829" lon="-0.82465">
        <ele>159.24</ele>
        <time>2012-08-28T13:16:37Z</time>
      </trkpt>
      <trkpt lat="47.05831" lon="-0.82459">
        <ele>159.72</ele>
        <time>2012-08-28T13:16:38Z</time>
      </trkpt>
      <trkpt lat="47.05834" lon="-0.82446">
        <ele>159.24</ele>
        <time>2012-08-28T13:16:40Z</time>
      </trkpt>
      <trkpt lat="47.05835" lon="-0.8244">
        <ele>159.72</ele>
        <time>2012-08-28T13:16:41Z</time>
      </trkpt>
      <trkpt lat="47.05836" lon="-0.82434">
        <ele>159.72</ele>
        <time>2012-08-28T13:16:42Z</time>
      </trkpt>
      <trkpt lat="47.05837" lon="-0.82429">
        <ele>159.72</ele>
        <time>2012-08-28T13:16:43Z</time>
      </trkpt>
      <trkpt lat="47.05839" lon="-0.82422">
        <ele>159.72</ele>
        <time>2012-08-28T13:16:44Z</time>
      </trkpt>
      <trkpt lat="47.05841" lon="-0.82416">
        <ele>159.72</ele>
        <time>2012-08-28T13:16:45Z</time>
      </trkpt>
      <trkpt lat="47.05843" lon="-0.82409">
        <ele>159.72</ele>
        <time>2012-08-28T13:16:46Z</time>
      </trkpt>
      <trkpt lat="47.05848" lon="-0.82398">
        <ele>160.2</ele>
        <time>2012-08-28T13:16:48Z</time>
      </trkpt>
      <trkpt lat="47.05849" lon="-0.82391">
        <ele>160.2</ele>
        <time>2012-08-28T13:16:49Z</time>
      </trkpt>
      <trkpt lat="47.05867" lon="-0.82316">
        <ele>159.72</ele>
        <time>2012-08-28T13:17:00Z</time>
      </trkpt>
      <trkpt lat="47.05874" lon="-0.82285">
        <ele>159.72</ele>
        <time>2012-08-28T13:17:04Z</time>
      </trkpt>
      <trkpt lat="47.05876" lon="-0.82277">
        <ele>159.72</ele>
        <time>2012-08-28T13:17:05Z</time>
      </trkpt>
      <trkpt lat="47.05879" lon="-0.8227">
        <ele>160.2</ele>
        <time>2012-08-28T13:17:06Z</time>
      </trkpt>
      <trkpt lat="47.05882" lon="-0.82264">
        <ele>159.72</ele>
        <time>2012-08-28T13:17:07Z</time>
      </trkpt>
      <trkpt lat="47.05885" lon="-0.82257">
        <ele>159.72</ele>
        <time>2012-08-28T13:17:08Z</time>
      </trkpt>
      <trkpt lat="47.05888" lon="-0.82249">
        <ele>158.75</ele>
        <time>2012-08-28T13:17:09Z</time>
      </trkpt>
      <trkpt lat="47.0589" lon="-0.82241">
        <ele>159.24</ele>
        <time>2012-08-28T13:17:10Z</time>
      </trkpt>
      <trkpt lat="47.05892" lon="-0.82233">
        <ele>159.24</ele>
        <time>2012-08-28T13:17:11Z</time>
      </trkpt>
      <trkpt lat="47.05897" lon="-0.82209">
        <ele>158.75</ele>
        <time>2012-08-28T13:17:14Z</time>
      </trkpt>
      <trkpt lat="47.05901" lon="-0.82193">
        <ele>159.24</ele>
        <time>2012-08-28T13:17:16Z</time>
      </trkpt>
      <trkpt lat="47.05904" lon="-0.8217">
        <ele>158.75</ele>
        <time>2012-08-28T13:17:19Z</time>
      </trkpt>
      <trkpt lat="47.05916" lon="-0.82132">
        <ele>158.75</ele>
        <time>2012-08-28T13:17:24Z</time>
      </trkpt>
      <trkpt lat="47.05917" lon="-0.82124">
        <ele>158.27</ele>
        <time>2012-08-28T13:17:25Z</time>
      </trkpt>
      <trkpt lat="47.0592" lon="-0.82109">
        <ele>158.27</ele>
        <time>2012-08-28T13:17:27Z</time>
      </trkpt>
      <trkpt lat="47.05938" lon="-0.82028">
        <ele>156.35</ele>
        <time>2012-08-28T13:17:37Z</time>
      </trkpt>
      <trkpt lat="47.05954" lon="-0.81967">
        <ele>154.43</ele>
        <time>2012-08-28T13:17:44Z</time>
      </trkpt>
      <trkpt lat="47.05959" lon="-0.8196">
        <ele>154.43</ele>
        <time>2012-08-28T13:17:45Z</time>
      </trkpt>
      <trkpt lat="47.06031" lon="-0.81865">
        <ele>151.54</ele>
        <time>2012-08-28T13:17:59Z</time>
      </trkpt>
      <trkpt lat="47.06041" lon="-0.81852">
        <ele>150.58</ele>
        <time>2012-08-28T13:18:01Z</time>
      </trkpt>
      <trkpt lat="47.06107" lon="-0.81739">
        <ele>149.62</ele>
        <time>2012-08-28T13:18:17Z</time>
      </trkpt>
      <trkpt lat="47.06123" lon="-0.81702">
        <ele>149.14</ele>
        <time>2012-08-28T13:18:22Z</time>
      </trkpt>
      <trkpt lat="47.06137" lon="-0.81672">
        <ele>148.66</ele>
        <time>2012-08-28T13:18:26Z</time>
      </trkpt>
      <trkpt lat="47.06187" lon="-0.81546">
        <ele>146.74</ele>
        <time>2012-08-28T13:18:42Z</time>
      </trkpt>
      <trkpt lat="47.0624" lon="-0.8145">
        <ele>144.82</ele>
        <time>2012-08-28T13:18:55Z</time>
      </trkpt>
      <trkpt lat="47.06286" lon="-0.81338">
        <ele>142.41</ele>
        <time>2012-08-28T13:19:10Z</time>
      </trkpt>
      <trkpt lat="47.06304" lon="-0.81289">
        <ele>142.41</ele>
        <time>2012-08-28T13:19:17Z</time>
      </trkpt>
      <trkpt lat="47.06309" lon="-0.81277">
        <ele>141.45</ele>
        <time>2012-08-28T13:19:19Z</time>
      </trkpt>
      <trkpt lat="47.06311" lon="-0.81271">
        <ele>141.93</ele>
        <time>2012-08-28T13:19:20Z</time>
      </trkpt>
      <trkpt lat="47.0632" lon="-0.8124">
        <ele>141.93</ele>
        <time>2012-08-28T13:19:28Z</time>
      </trkpt>
      <trkpt lat="47.06321" lon="-0.81239">
        <ele>141.45</ele>
        <time>2012-08-28T13:19:29Z</time>
      </trkpt>
      <trkpt lat="47.06323" lon="-0.81236">
        <ele>141.45</ele>
        <time>2012-08-28T13:19:30Z</time>
      </trkpt>
      <trkpt lat="47.06324" lon="-0.81233">
        <ele>141.45</ele>
        <time>2012-08-28T13:19:31Z</time>
      </trkpt>
      <trkpt lat="47.06326" lon="-0.8123">
        <ele>141.45</ele>
        <time>2012-08-28T13:19:32Z</time>
      </trkpt>
      <trkpt lat="47.06329" lon="-0.81227">
        <ele>141.45</ele>
        <time>2012-08-28T13:19:33Z</time>
      </trkpt>
      <trkpt lat="47.06333" lon="-0.81225">
        <ele>140.97</ele>
        <time>2012-08-28T13:19:34Z</time>
      </trkpt>
      <trkpt lat="47.06337" lon="-0.81222">
        <ele>140.97</ele>
        <time>2012-08-28T13:19:35Z</time>
      </trkpt>
      <trkpt lat="47.06342" lon="-0.8122">
        <ele>140.97</ele>
        <time>2012-08-28T13:19:36Z</time>
      </trkpt>
      <trkpt lat="47.06346" lon="-0.81219">
        <ele>140.97</ele>
        <time>2012-08-28T13:19:37Z</time>
      </trkpt>
      <trkpt lat="47.06351" lon="-0.81218">
        <ele>140.97</ele>
        <time>2012-08-28T13:19:38Z</time>
      </trkpt>
      <trkpt lat="47.06355" lon="-0.81217">
        <ele>140.97</ele>
        <time>2012-08-28T13:19:39Z</time>
      </trkpt>
      <trkpt lat="47.06442" lon="-0.81213">
        <ele>138.57</ele>
        <time>2012-08-28T13:19:55Z</time>
      </trkpt>
      <trkpt lat="47.0652" lon="-0.81213">
        <ele>136.64</ele>
        <time>2012-08-28T13:20:08Z</time>
      </trkpt>
      <trkpt lat="47.06599" lon="-0.81213">
        <ele>134.72</ele>
        <time>2012-08-28T13:20:21Z</time>
      </trkpt>
      <trkpt lat="47.06682" lon="-0.81211">
        <ele>133.76</ele>
        <time>2012-08-28T13:20:35Z</time>
      </trkpt>
      <trkpt lat="47.06729" lon="-0.81208">
        <ele>133.28</ele>
        <time>2012-08-28T13:20:44Z</time>
      </trkpt>
      <trkpt lat="47.06746" lon="-0.81209">
        <ele>133.28</ele>
        <time>2012-08-28T13:20:49Z</time>
      </trkpt>
      <trkpt lat="47.06748" lon="-0.81205">
        <ele>133.76</ele>
        <time>2012-08-28T13:20:50Z</time>
      </trkpt>
      <trkpt lat="47.0675" lon="-0.812">
        <ele>133.28</ele>
        <time>2012-08-28T13:20:51Z</time>
      </trkpt>
      <trkpt lat="47.06756" lon="-0.81182">
        <ele>132.8</ele>
        <time>2012-08-28T13:20:54Z</time>
      </trkpt>
      <trkpt lat="47.06759" lon="-0.81171">
        <ele>133.28</ele>
        <time>2012-08-28T13:20:56Z</time>
      </trkpt>
      <trkpt lat="47.06761" lon="-0.81165">
        <ele>133.28</ele>
        <time>2012-08-28T13:20:57Z</time>
      </trkpt>
      <trkpt lat="47.06777" lon="-0.81124">
        <ele>133.28</ele>
        <time>2012-08-28T13:21:04Z</time>
      </trkpt>
      <trkpt lat="47.06802" lon="-0.8106">
        <ele>133.76</ele>
        <time>2012-08-28T13:21:16Z</time>
      </trkpt>
      <trkpt lat="47.0682" lon="-0.8102">
        <ele>134.24</ele>
        <time>2012-08-28T13:21:23Z</time>
      </trkpt>
      <trkpt lat="47.06824" lon="-0.81015">
        <ele>134.24</ele>
        <time>2012-08-28T13:21:24Z</time>
      </trkpt>
      <trkpt lat="47.06852" lon="-0.8096">
        <ele>134.72</ele>
        <time>2012-08-28T13:21:35Z</time>
      </trkpt>
      <trkpt lat="47.06893" lon="-0.80889">
        <ele>134.24</ele>
        <time>2012-08-28T13:21:46Z</time>
      </trkpt>
      <trkpt lat="47.06908" lon="-0.80866">
        <ele>134.72</ele>
        <time>2012-08-28T13:21:50Z</time>
      </trkpt>
      <trkpt lat="47.06912" lon="-0.8086">
        <ele>134.72</ele>
        <time>2012-08-28T13:21:51Z</time>
      </trkpt>
      <trkpt lat="47.06915" lon="-0.80853">
        <ele>134.72</ele>
        <time>2012-08-28T13:21:52Z</time>
      </trkpt>
      <trkpt lat="47.06918" lon="-0.80847">
        <ele>134.72</ele>
        <time>2012-08-28T13:21:53Z</time>
      </trkpt>
      <trkpt lat="47.06921" lon="-0.8084">
        <ele>135.2</ele>
        <time>2012-08-28T13:21:54Z</time>
      </trkpt>
      <trkpt lat="47.06939" lon="-0.80803">
        <ele>134.72</ele>
        <time>2012-08-28T13:22:00Z</time>
      </trkpt>
      <trkpt lat="47.06944" lon="-0.8079">
        <ele>134.72</ele>
        <time>2012-08-28T13:22:02Z</time>
      </trkpt>
      <trkpt lat="47.06949" lon="-0.80784">
        <ele>134.24</ele>
        <time>2012-08-28T13:22:03Z</time>
      </trkpt>
      <trkpt lat="47.06976" lon="-0.80749">
        <ele>134.24</ele>
        <time>2012-08-28T13:22:09Z</time>
      </trkpt>
      <trkpt lat="47.07003" lon="-0.80725">
        <ele>134.72</ele>
        <time>2012-08-28T13:22:14Z</time>
      </trkpt>
      <trkpt lat="47.07013" lon="-0.80716">
        <ele>134.72</ele>
        <time>2012-08-28T13:22:16Z</time>
      </trkpt>
      <trkpt lat="47.07049" lon="-0.80686">
        <ele>136.16</ele>
        <time>2012-08-28T13:22:25Z</time>
      </trkpt>
      <trkpt lat="47.07054" lon="-0.80682">
        <ele>136.16</ele>
        <time>2012-08-28T13:22:26Z</time>
      </trkpt>
      <trkpt lat="47.07058" lon="-0.80679">
        <ele>136.16</ele>
        <time>2012-08-28T13:22:27Z</time>
      </trkpt>
      <trkpt lat="47.07062" lon="-0.80675">
        <ele>136.16</ele>
        <time>2012-08-28T13:22:28Z</time>
      </trkpt>
      <trkpt lat="47.07066" lon="-0.8067">
        <ele>136.16</ele>
        <time>2012-08-28T13:22:29Z</time>
      </trkpt>
      <trkpt lat="47.07077" lon="-0.80656">
        <ele>136.16</ele>
        <time>2012-08-28T13:22:32Z</time>
      </trkpt>
      <trkpt lat="47.07081" lon="-0.80652">
        <ele>136.16</ele>
        <time>2012-08-28T13:22:33Z</time>
      </trkpt>
      <trkpt lat="47.07085" lon="-0.80647">
        <ele>136.16</ele>
        <time>2012-08-28T13:22:34Z</time>
      </trkpt>
      <trkpt lat="47.07089" lon="-0.80642">
        <ele>136.16</ele>
        <time>2012-08-28T13:22:35Z</time>
      </trkpt>
      <trkpt lat="47.07093" lon="-0.80636">
        <ele>136.16</ele>
        <time>2012-08-28T13:22:36Z</time>
      </trkpt>
      <trkpt lat="47.07128" lon="-0.80587">
        <ele>135.2</ele>
        <time>2012-08-28T13:22:46Z</time>
      </trkpt>
      <trkpt lat="47.07146" lon="-0.8056">
        <ele>134.72</ele>
        <time>2012-08-28T13:22:51Z</time>
      </trkpt>
      <trkpt lat="47.0715" lon="-0.80554">
        <ele>134.72</ele>
        <time>2012-08-28T13:22:52Z</time>
      </trkpt>
      <trkpt lat="47.07175" lon="-0.80498">
        <ele>133.76</ele>
        <time>2012-08-28T13:23:00Z</time>
      </trkpt>
      <trkpt lat="47.07178" lon="-0.8049">
        <ele>133.76</ele>
        <time>2012-08-28T13:23:01Z</time>
      </trkpt>
      <trkpt lat="47.07179" lon="-0.80483">
        <ele>133.76</ele>
        <time>2012-08-28T13:23:02Z</time>
      </trkpt>
      <trkpt lat="47.07181" lon="-0.80474">
        <ele>134.24</ele>
        <time>2012-08-28T13:23:03Z</time>
      </trkpt>
      <trkpt lat="47.07182" lon="-0.80466">
        <ele>134.24</ele>
        <time>2012-08-28T13:23:04Z</time>
      </trkpt>
      <trkpt lat="47.07184" lon="-0.80458">
        <ele>134.72</ele>
        <time>2012-08-28T13:23:05Z</time>
      </trkpt>
      <trkpt lat="47.07185" lon="-0.80451">
        <ele>134.24</ele>
        <time>2012-08-28T13:23:06Z</time>
      </trkpt>
      <trkpt lat="47.07185" lon="-0.80443">
        <ele>134.72</ele>
        <time>2012-08-28T13:23:07Z</time>
      </trkpt>
      <trkpt lat="47.07186" lon="-0.80436">
        <ele>134.72</ele>
        <time>2012-08-28T13:23:08Z</time>
      </trkpt>
      <trkpt lat="47.07188" lon="-0.80414">
        <ele>135.2</ele>
        <time>2012-08-28T13:23:11Z</time>
      </trkpt>
      <trkpt lat="47.07189" lon="-0.80406">
        <ele>135.2</ele>
        <time>2012-08-28T13:23:12Z</time>
      </trkpt>
      <trkpt lat="47.07189" lon="-0.80399">
        <ele>135.2</ele>
        <time>2012-08-28T13:23:13Z</time>
      </trkpt>
      <trkpt lat="47.07197" lon="-0.80288">
        <ele>137.13</ele>
        <time>2012-08-28T13:23:28Z</time>
      </trkpt>
      <trkpt lat="47.07201" lon="-0.8026">
        <ele>138.09</ele>
        <time>2012-08-28T13:23:32Z</time>
      </trkpt>
      <trkpt lat="47.07201" lon="-0.80253">
        <ele>138.09</ele>
        <time>2012-08-28T13:23:33Z</time>
      </trkpt>
      <trkpt lat="47.07202" lon="-0.80246">
        <ele>138.57</ele>
        <time>2012-08-28T13:23:34Z</time>
      </trkpt>
      <trkpt lat="47.07202" lon="-0.80232">
        <ele>139.05</ele>
        <time>2012-08-28T13:23:36Z</time>
      </trkpt>
      <trkpt lat="47.07204" lon="-0.80211">
        <ele>139.53</ele>
        <time>2012-08-28T13:23:39Z</time>
      </trkpt>
      <trkpt lat="47.07203" lon="-0.80204">
        <ele>139.53</ele>
        <time>2012-08-28T13:23:40Z</time>
      </trkpt>
      <trkpt lat="47.07203" lon="-0.80197">
        <ele>139.53</ele>
        <time>2012-08-28T13:23:41Z</time>
      </trkpt>
      <trkpt lat="47.07207" lon="-0.80129">
        <ele>140.49</ele>
        <time>2012-08-28T13:23:51Z</time>
      </trkpt>
      <trkpt lat="47.07208" lon="-0.80109">
        <ele>141.45</ele>
        <time>2012-08-28T13:23:54Z</time>
      </trkpt>
      <trkpt lat="47.07208" lon="-0.80103">
        <ele>141.45</ele>
        <time>2012-08-28T13:23:55Z</time>
      </trkpt>
      <trkpt lat="47.07209" lon="-0.80097">
        <ele>141.45</ele>
        <time>2012-08-28T13:23:56Z</time>
      </trkpt>
      <trkpt lat="47.07209" lon="-0.80091">
        <ele>141.93</ele>
        <time>2012-08-28T13:23:57Z</time>
      </trkpt>
      <trkpt lat="47.07209" lon="-0.80084">
        <ele>141.93</ele>
        <time>2012-08-28T13:23:58Z</time>
      </trkpt>
      <trkpt lat="47.07209" lon="-0.80078">
        <ele>141.93</ele>
        <time>2012-08-28T13:23:59Z</time>
      </trkpt>
      <trkpt lat="47.07213" lon="-0.80033">
        <ele>143.37</ele>
        <time>2012-08-28T13:24:06Z</time>
      </trkpt>
      <trkpt lat="47.07213" lon="-0.80005">
        <ele>143.85</ele>
        <time>2012-08-28T13:24:10Z</time>
      </trkpt>
      <trkpt lat="47.07213" lon="-0.79999">
        <ele>143.85</ele>
        <time>2012-08-28T13:24:11Z</time>
      </trkpt>
      <trkpt lat="47.07212" lon="-0.79993">
        <ele>143.85</ele>
        <time>2012-08-28T13:24:12Z</time>
      </trkpt>
      <trkpt lat="47.07212" lon="-0.79987">
        <ele>143.85</ele>
        <time>2012-08-28T13:24:13Z</time>
      </trkpt>
      <trkpt lat="47.07211" lon="-0.79981">
        <ele>143.85</ele>
        <time>2012-08-28T13:24:14Z</time>
      </trkpt>
      <trkpt lat="47.0721" lon="-0.79976">
        <ele>144.34</ele>
        <time>2012-08-28T13:24:15Z</time>
      </trkpt>
      <trkpt lat="47.07209" lon="-0.79971">
        <ele>143.85</ele>
        <time>2012-08-28T13:24:16Z</time>
      </trkpt>
      <trkpt lat="47.0721" lon="-0.79965">
        <ele>144.34</ele>
        <time>2012-08-28T13:24:17Z</time>
      </trkpt>
      <trkpt lat="47.07211" lon="-0.79958">
        <ele>144.82</ele>
        <time>2012-08-28T13:24:18Z</time>
      </trkpt>
      <trkpt lat="47.07211" lon="-0.7994">
        <ele>144.82</ele>
        <time>2012-08-28T13:24:21Z</time>
      </trkpt>
      <trkpt lat="47.07212" lon="-0.79933">
        <ele>144.82</ele>
        <time>2012-08-28T13:24:22Z</time>
      </trkpt>
      <trkpt lat="47.07218" lon="-0.79869">
        <ele>146.26</ele>
        <time>2012-08-28T13:24:32Z</time>
      </trkpt>
      <trkpt lat="47.07223" lon="-0.7983">
        <ele>147.22</ele>
        <time>2012-08-28T13:24:38Z</time>
      </trkpt>
      <trkpt lat="47.07224" lon="-0.79782">
        <ele>148.66</ele>
        <time>2012-08-28T13:24:46Z</time>
      </trkpt>
      <trkpt lat="47.07225" lon="-0.79762">
        <ele>148.66</ele>
        <time>2012-08-28T13:24:49Z</time>
      </trkpt>
      <trkpt lat="47.07225" lon="-0.79731">
        <ele>149.14</ele>
        <time>2012-08-28T13:24:54Z</time>
      </trkpt>
      <trkpt lat="47.07225" lon="-0.79725">
        <ele>149.14</ele>
        <time>2012-08-28T13:24:55Z</time>
      </trkpt>
      <trkpt lat="47.07226" lon="-0.79718">
        <ele>149.14</ele>
        <time>2012-08-28T13:24:56Z</time>
      </trkpt>
      <trkpt lat="47.07246" lon="-0.79655">
        <ele>151.06</ele>
        <time>2012-08-28T13:25:07Z</time>
      </trkpt>
      <trkpt lat="47.07272" lon="-0.79612">
        <ele>152.51</ele>
        <time>2012-08-28T13:25:17Z</time>
      </trkpt>
      <trkpt lat="47.07291" lon="-0.79567">
        <ele>152.99</ele>
        <time>2012-08-28T13:25:27Z</time>
      </trkpt>
      <trkpt lat="47.07327" lon="-0.79506">
        <ele>154.43</ele>
        <time>2012-08-28T13:25:39Z</time>
      </trkpt>
      <trkpt lat="47.07358" lon="-0.7944">
        <ele>155.39</ele>
        <time>2012-08-28T13:25:52Z</time>
      </trkpt>
      <trkpt lat="47.07395" lon="-0.79379">
        <ele>156.35</ele>
        <time>2012-08-28T13:26:02Z</time>
      </trkpt>
      <trkpt lat="47.07419" lon="-0.79333">
        <ele>157.31</ele>
        <time>2012-08-28T13:26:12Z</time>
      </trkpt>
      <trkpt lat="47.07427" lon="-0.79319">
        <ele>157.31</ele>
        <time>2012-08-28T13:26:15Z</time>
      </trkpt>
      <trkpt lat="47.07429" lon="-0.79314">
        <ele>157.79</ele>
        <time>2012-08-28T13:26:16Z</time>
      </trkpt>
      <trkpt lat="47.07433" lon="-0.79308">
        <ele>157.79</ele>
        <time>2012-08-28T13:26:17Z</time>
      </trkpt>
      <trkpt lat="47.07435" lon="-0.79301">
        <ele>157.31</ele>
        <time>2012-08-28T13:26:18Z</time>
      </trkpt>
      <trkpt lat="47.07438" lon="-0.79296">
        <ele>157.79</ele>
        <time>2012-08-28T13:26:19Z</time>
      </trkpt>
      <trkpt lat="47.07472" lon="-0.79241">
        <ele>157.31</ele>
        <time>2012-08-28T13:26:26Z</time>
      </trkpt>
      <trkpt lat="47.0748" lon="-0.79228">
        <ele>157.79</ele>
        <time>2012-08-28T13:26:28Z</time>
      </trkpt>
      <trkpt lat="47.07483" lon="-0.79222">
        <ele>157.79</ele>
        <time>2012-08-28T13:26:29Z</time>
      </trkpt>
      <trkpt lat="47.07505" lon="-0.79186">
        <ele>157.79</ele>
        <time>2012-08-28T13:26:35Z</time>
      </trkpt>
      <trkpt lat="47.07527" lon="-0.79148">
        <ele>157.79</ele>
        <time>2012-08-28T13:26:42Z</time>
      </trkpt>
      <trkpt lat="47.07534" lon="-0.79135">
        <ele>157.79</ele>
        <time>2012-08-28T13:26:44Z</time>
      </trkpt>
      <trkpt lat="47.07536" lon="-0.7913">
        <ele>157.79</ele>
        <time>2012-08-28T13:26:45Z</time>
      </trkpt>
      <trkpt lat="47.0754" lon="-0.79124">
        <ele>158.27</ele>
        <time>2012-08-28T13:26:46Z</time>
      </trkpt>
      <trkpt lat="47.07579" lon="-0.79052">
        <ele>158.27</ele>
        <time>2012-08-28T13:26:57Z</time>
      </trkpt>
      <trkpt lat="47.07583" lon="-0.79046">
        <ele>158.27</ele>
        <time>2012-08-28T13:26:58Z</time>
      </trkpt>
      <trkpt lat="47.07592" lon="-0.79027">
        <ele>157.79</ele>
        <time>2012-08-28T13:27:01Z</time>
      </trkpt>
      <trkpt lat="47.07595" lon="-0.7902">
        <ele>157.79</ele>
        <time>2012-08-28T13:27:02Z</time>
      </trkpt>
      <trkpt lat="47.07598" lon="-0.79013">
        <ele>157.79</ele>
        <time>2012-08-28T13:27:03Z</time>
      </trkpt>
      <trkpt lat="47.07609" lon="-0.78991">
        <ele>158.27</ele>
        <time>2012-08-28T13:27:06Z</time>
      </trkpt>
      <trkpt lat="47.07647" lon="-0.78921">
        <ele>157.79</ele>
        <time>2012-08-28T13:27:16Z</time>
      </trkpt>
      <trkpt lat="47.07651" lon="-0.78914">
        <ele>157.79</ele>
        <time>2012-08-28T13:27:17Z</time>
      </trkpt>
      <trkpt lat="47.07659" lon="-0.789">
        <ele>158.27</ele>
        <time>2012-08-28T13:27:19Z</time>
      </trkpt>
      <trkpt lat="47.07672" lon="-0.7888">
        <ele>158.27</ele>
        <time>2012-08-28T13:27:22Z</time>
      </trkpt>
      <trkpt lat="47.07693" lon="-0.78841">
        <ele>158.75</ele>
        <time>2012-08-28T13:27:28Z</time>
      </trkpt>
      <trkpt lat="47.07699" lon="-0.78829">
        <ele>158.75</ele>
        <time>2012-08-28T13:27:30Z</time>
      </trkpt>
      <trkpt lat="47.07725" lon="-0.78785">
        <ele>158.75</ele>
        <time>2012-08-28T13:27:37Z</time>
      </trkpt>
      <trkpt lat="47.07729" lon="-0.78778">
        <ele>158.75</ele>
        <time>2012-08-28T13:27:38Z</time>
      </trkpt>
      <trkpt lat="47.0776" lon="-0.78723">
        <ele>158.27</ele>
        <time>2012-08-28T13:27:46Z</time>
      </trkpt>
      <trkpt lat="47.07763" lon="-0.78717">
        <ele>158.27</ele>
        <time>2012-08-28T13:27:47Z</time>
      </trkpt>
      <trkpt lat="47.07782" lon="-0.78683">
        <ele>157.79</ele>
        <time>2012-08-28T13:27:52Z</time>
      </trkpt>
      <trkpt lat="47.07787" lon="-0.78677">
        <ele>158.27</ele>
        <time>2012-08-28T13:27:53Z</time>
      </trkpt>
      <trkpt lat="47.07813" lon="-0.78627">
        <ele>158.27</ele>
        <time>2012-08-28T13:28:01Z</time>
      </trkpt>
      <trkpt lat="47.07817" lon="-0.7862">
        <ele>158.27</ele>
        <time>2012-08-28T13:28:02Z</time>
      </trkpt>
      <trkpt lat="47.0782" lon="-0.78615">
        <ele>158.27</ele>
        <time>2012-08-28T13:28:03Z</time>
      </trkpt>
      <trkpt lat="47.07827" lon="-0.786">
        <ele>158.27</ele>
        <time>2012-08-28T13:28:06Z</time>
      </trkpt>
      <trkpt lat="47.07843" lon="-0.78574">
        <ele>158.27</ele>
        <time>2012-08-28T13:28:10Z</time>
      </trkpt>
      <trkpt lat="47.07846" lon="-0.78568">
        <ele>158.27</ele>
        <time>2012-08-28T13:28:11Z</time>
      </trkpt>
      <trkpt lat="47.07849" lon="-0.78563">
        <ele>158.27</ele>
        <time>2012-08-28T13:28:12Z</time>
      </trkpt>
      <trkpt lat="47.07852" lon="-0.78558">
        <ele>158.27</ele>
        <time>2012-08-28T13:28:13Z</time>
      </trkpt>
      <trkpt lat="47.07855" lon="-0.78553">
        <ele>158.27</ele>
        <time>2012-08-28T13:28:14Z</time>
      </trkpt>
      <trkpt lat="47.07859" lon="-0.78548">
        <ele>158.27</ele>
        <time>2012-08-28T13:28:15Z</time>
      </trkpt>
      <trkpt lat="47.07895" lon="-0.78489">
        <ele>158.27</ele>
        <time>2012-08-28T13:28:28Z</time>
      </trkpt>
      <trkpt lat="47.07917" lon="-0.78456">
        <ele>158.75</ele>
        <time>2012-08-28T13:28:39Z</time>
      </trkpt>
      <trkpt lat="47.07928" lon="-0.7844">
        <ele>158.75</ele>
        <time>2012-08-28T13:28:47Z</time>
      </trkpt>
      <trkpt lat="47.07929" lon="-0.7844">
        <ele>158.75</ele>
        <time>2012-08-28T13:28:48Z</time>
      </trkpt>
      <trkpt lat="47.07931" lon="-0.7844">
        <ele>158.75</ele>
        <time>2012-08-28T13:28:49Z</time>
      </trkpt>
      <trkpt lat="47.07936" lon="-0.78441">
        <ele>158.75</ele>
        <time>2012-08-28T13:29:04Z</time>
      </trkpt>
      <trkpt lat="47.07936" lon="-0.78439">
        <ele>158.75</ele>
        <time>2012-08-28T13:29:07Z</time>
      </trkpt>
      <trkpt lat="47.07935" lon="-0.78437">
        <ele>158.75</ele>
        <time>2012-08-28T13:29:08Z</time>
      </trkpt>
      <trkpt lat="47.07946" lon="-0.7839">
        <ele>158.75</ele>
        <time>2012-08-28T13:29:19Z</time>
      </trkpt>
      <trkpt lat="47.0795" lon="-0.78372">
        <ele>158.75</ele>
        <time>2012-08-28T13:29:22Z</time>
      </trkpt>
      <trkpt lat="47.07957" lon="-0.78346">
        <ele>158.75</ele>
        <time>2012-08-28T13:29:26Z</time>
      </trkpt>
      <trkpt lat="47.07959" lon="-0.7834">
        <ele>159.24</ele>
        <time>2012-08-28T13:29:27Z</time>
      </trkpt>
      <trkpt lat="47.07962" lon="-0.78326">
        <ele>158.75</ele>
        <time>2012-08-28T13:29:29Z</time>
      </trkpt>
      <trkpt lat="47.07964" lon="-0.78319">
        <ele>158.75</ele>
        <time>2012-08-28T13:29:30Z</time>
      </trkpt>
      <trkpt lat="47.07973" lon="-0.78281">
        <ele>158.75</ele>
        <time>2012-08-28T13:29:35Z</time>
      </trkpt>
      <trkpt lat="47.07975" lon="-0.78273">
        <ele>158.75</ele>
        <time>2012-08-28T13:29:36Z</time>
      </trkpt>
      <trkpt lat="47.07978" lon="-0.78264">
        <ele>158.75</ele>
        <time>2012-08-28T13:29:37Z</time>
      </trkpt>
      <trkpt lat="47.0798" lon="-0.78256">
        <ele>158.27</ele>
        <time>2012-08-28T13:29:38Z</time>
      </trkpt>
      <trkpt lat="47.07982" lon="-0.78247">
        <ele>158.75</ele>
        <time>2012-08-28T13:29:39Z</time>
      </trkpt>
      <trkpt lat="47.08011" lon="-0.78153">
        <ele>158.27</ele>
        <time>2012-08-28T13:29:50Z</time>
      </trkpt>
      <trkpt lat="47.08045" lon="-0.78039">
        <ele>156.83</ele>
        <time>2012-08-28T13:30:03Z</time>
      </trkpt>
      <trkpt lat="47.08076" lon="-0.77934">
        <ele>156.83</ele>
        <time>2012-08-28T13:30:15Z</time>
      </trkpt>
      <trkpt lat="47.08111" lon="-0.77825">
        <ele>156.35</ele>
        <time>2012-08-28T13:30:27Z</time>
      </trkpt>
      <trkpt lat="47.08134" lon="-0.77745">
        <ele>156.35</ele>
        <time>2012-08-28T13:30:36Z</time>
      </trkpt>
      <trkpt lat="47.08159" lon="-0.77667">
        <ele>155.87</ele>
        <time>2012-08-28T13:30:45Z</time>
      </trkpt>
      <trkpt lat="47.08195" lon="-0.77556">
        <ele>157.79</ele>
        <time>2012-08-28T13:30:59Z</time>
      </trkpt>
      <trkpt lat="47.08216" lon="-0.7749">
        <ele>158.75</ele>
        <time>2012-08-28T13:31:10Z</time>
      </trkpt>
      <trkpt lat="47.08217" lon="-0.77485">
        <ele>158.75</ele>
        <time>2012-08-28T13:31:11Z</time>
      </trkpt>
      <trkpt lat="47.08218" lon="-0.7748">
        <ele>158.27</ele>
        <time>2012-08-28T13:31:12Z</time>
      </trkpt>
      <trkpt lat="47.08228" lon="-0.77442">
        <ele>159.24</ele>
        <time>2012-08-28T13:31:23Z</time>
      </trkpt>
      <trkpt lat="47.08231" lon="-0.77437">
        <ele>159.24</ele>
        <time>2012-08-28T13:31:27Z</time>
      </trkpt>
      <trkpt lat="47.08233" lon="-0.77436">
        <ele>159.24</ele>
        <time>2012-08-28T13:31:28Z</time>
      </trkpt>
      <trkpt lat="47.08235" lon="-0.77434">
        <ele>159.24</ele>
        <time>2012-08-28T13:31:29Z</time>
      </trkpt>
      <trkpt lat="47.08236" lon="-0.77431">
        <ele>159.24</ele>
        <time>2012-08-28T13:31:30Z</time>
      </trkpt>
      <trkpt lat="47.08238" lon="-0.77427">
        <ele>159.24</ele>
        <time>2012-08-28T13:31:31Z</time>
      </trkpt>
      <trkpt lat="47.08251" lon="-0.77389">
        <ele>159.24</ele>
        <time>2012-08-28T13:31:39Z</time>
      </trkpt>
      <trkpt lat="47.08254" lon="-0.77386">
        <ele>159.72</ele>
        <time>2012-08-28T13:31:40Z</time>
      </trkpt>
      <trkpt lat="47.08257" lon="-0.77383">
        <ele>159.72</ele>
        <time>2012-08-28T13:31:41Z</time>
      </trkpt>
      <trkpt lat="47.08259" lon="-0.77378">
        <ele>159.72</ele>
        <time>2012-08-28T13:31:42Z</time>
      </trkpt>
      <trkpt lat="47.0826" lon="-0.77372">
        <ele>160.2</ele>
        <time>2012-08-28T13:31:43Z</time>
      </trkpt>
      <trkpt lat="47.0826" lon="-0.77366">
        <ele>159.72</ele>
        <time>2012-08-28T13:31:44Z</time>
      </trkpt>
      <trkpt lat="47.08277" lon="-0.7732">
        <ele>160.2</ele>
        <time>2012-08-28T13:31:53Z</time>
      </trkpt>
      <trkpt lat="47.0828" lon="-0.77313">
        <ele>160.68</ele>
        <time>2012-08-28T13:31:54Z</time>
      </trkpt>
      <trkpt lat="47.08299" lon="-0.77269">
        <ele>160.68</ele>
        <time>2012-08-28T13:32:01Z</time>
      </trkpt>
      <trkpt lat="47.08304" lon="-0.77262">
        <ele>160.68</ele>
        <time>2012-08-28T13:32:02Z</time>
      </trkpt>
      <trkpt lat="47.08307" lon="-0.77258">
        <ele>161.16</ele>
        <time>2012-08-28T13:32:03Z</time>
      </trkpt>
      <trkpt lat="47.08309" lon="-0.77252">
        <ele>161.16</ele>
        <time>2012-08-28T13:32:04Z</time>
      </trkpt>
      <trkpt lat="47.08312" lon="-0.77246">
        <ele>161.16</ele>
        <time>2012-08-28T13:32:05Z</time>
      </trkpt>
      <trkpt lat="47.08322" lon="-0.77211">
        <ele>161.64</ele>
        <time>2012-08-28T13:32:10Z</time>
      </trkpt>
      <trkpt lat="47.08323" lon="-0.77203">
        <ele>161.64</ele>
        <time>2012-08-28T13:32:11Z</time>
      </trkpt>
      <trkpt lat="47.08323" lon="-0.77196">
        <ele>162.12</ele>
        <time>2012-08-28T13:32:12Z</time>
      </trkpt>
      <trkpt lat="47.08323" lon="-0.77189">
        <ele>162.12</ele>
        <time>2012-08-28T13:32:13Z</time>
      </trkpt>
      <trkpt lat="47.08322" lon="-0.77182">
        <ele>162.12</ele>
        <time>2012-08-28T13:32:14Z</time>
      </trkpt>
      <trkpt lat="47.08321" lon="-0.77176">
        <ele>162.12</ele>
        <time>2012-08-28T13:32:15Z</time>
      </trkpt>
      <trkpt lat="47.08319" lon="-0.77171">
        <ele>162.12</ele>
        <time>2012-08-28T13:32:16Z</time>
      </trkpt>
      <trkpt lat="47.08317" lon="-0.77165">
        <ele>162.6</ele>
        <time>2012-08-28T13:32:17Z</time>
      </trkpt>
      <trkpt lat="47.0831" lon="-0.77147">
        <ele>162.6</ele>
        <time>2012-08-28T13:32:20Z</time>
      </trkpt>
      <trkpt lat="47.08308" lon="-0.77141">
        <ele>162.6</ele>
        <time>2012-08-28T13:32:21Z</time>
      </trkpt>
      <trkpt lat="47.08307" lon="-0.77136">
        <ele>162.6</ele>
        <time>2012-08-28T13:32:22Z</time>
      </trkpt>
      <trkpt lat="47.08306" lon="-0.7713">
        <ele>162.6</ele>
        <time>2012-08-28T13:32:23Z</time>
      </trkpt>
      <trkpt lat="47.08304" lon="-0.77124">
        <ele>162.6</ele>
        <time>2012-08-28T13:32:24Z</time>
      </trkpt>
      <trkpt lat="47.08298" lon="-0.7706">
        <ele>163.08</ele>
        <time>2012-08-28T13:32:33Z</time>
      </trkpt>
      <trkpt lat="47.08298" lon="-0.77052">
        <ele>163.08</ele>
        <time>2012-08-28T13:32:34Z</time>
      </trkpt>
      <trkpt lat="47.08299" lon="-0.77045">
        <ele>163.08</ele>
        <time>2012-08-28T13:32:35Z</time>
      </trkpt>
      <trkpt lat="47.083" lon="-0.77037">
        <ele>163.56</ele>
        <time>2012-08-28T13:32:36Z</time>
      </trkpt>
      <trkpt lat="47.083" lon="-0.77029">
        <ele>163.56</ele>
        <time>2012-08-28T13:32:37Z</time>
      </trkpt>
      <trkpt lat="47.08301" lon="-0.77021">
        <ele>163.56</ele>
        <time>2012-08-28T13:32:38Z</time>
      </trkpt>
      <trkpt lat="47.08301" lon="-0.77013">
        <ele>163.56</ele>
        <time>2012-08-28T13:32:39Z</time>
      </trkpt>
      <trkpt lat="47.08302" lon="-0.77005">
        <ele>163.56</ele>
        <time>2012-08-28T13:32:40Z</time>
      </trkpt>
      <trkpt lat="47.08304" lon="-0.76973">
        <ele>164.04</ele>
        <time>2012-08-28T13:32:44Z</time>
      </trkpt>
      <trkpt lat="47.08309" lon="-0.76927">
        <ele>163.56</ele>
        <time>2012-08-28T13:32:50Z</time>
      </trkpt>
      <trkpt lat="47.08316" lon="-0.76902">
        <ele>163.08</ele>
        <time>2012-08-28T13:32:53Z</time>
      </trkpt>
      <trkpt lat="47.08318" lon="-0.76895">
        <ele>163.08</ele>
        <time>2012-08-28T13:32:54Z</time>
      </trkpt>
      <trkpt lat="47.08321" lon="-0.76889">
        <ele>163.56</ele>
        <time>2012-08-28T13:32:55Z</time>
      </trkpt>
      <trkpt lat="47.08324" lon="-0.76884">
        <ele>163.08</ele>
        <time>2012-08-28T13:32:56Z</time>
      </trkpt>
      <trkpt lat="47.08328" lon="-0.76878">
        <ele>163.08</ele>
        <time>2012-08-28T13:32:57Z</time>
      </trkpt>
      <trkpt lat="47.08332" lon="-0.76871">
        <ele>163.56</ele>
        <time>2012-08-28T13:32:58Z</time>
      </trkpt>
      <trkpt lat="47.08334" lon="-0.76863">
        <ele>163.56</ele>
        <time>2012-08-28T13:32:59Z</time>
      </trkpt>
      <trkpt lat="47.08337" lon="-0.76855">
        <ele>163.56</ele>
        <time>2012-08-28T13:33:00Z</time>
      </trkpt>
      <trkpt lat="47.08339" lon="-0.76848">
        <ele>163.08</ele>
        <time>2012-08-28T13:33:01Z</time>
      </trkpt>
      <trkpt lat="47.0834" lon="-0.7684">
        <ele>163.08</ele>
        <time>2012-08-28T13:33:02Z</time>
      </trkpt>
      <trkpt lat="47.0834" lon="-0.76833">
        <ele>163.56</ele>
        <time>2012-08-28T13:33:03Z</time>
      </trkpt>
      <trkpt lat="47.08339" lon="-0.76811">
        <ele>163.08</ele>
        <time>2012-08-28T13:33:06Z</time>
      </trkpt>
      <trkpt lat="47.08337" lon="-0.76796">
        <ele>163.08</ele>
        <time>2012-08-28T13:33:08Z</time>
      </trkpt>
      <trkpt lat="47.08327" lon="-0.76753">
        <ele>164.04</ele>
        <time>2012-08-28T13:33:15Z</time>
      </trkpt>
      <trkpt lat="47.08323" lon="-0.76721">
        <ele>164.04</ele>
        <time>2012-08-28T13:33:19Z</time>
      </trkpt>
      <trkpt lat="47.08321" lon="-0.7669">
        <ele>164.04</ele>
        <time>2012-08-28T13:33:23Z</time>
      </trkpt>
      <trkpt lat="47.08322" lon="-0.76639">
        <ele>164.04</ele>
        <time>2012-08-28T13:33:29Z</time>
      </trkpt>
      <trkpt lat="47.08322" lon="-0.76632">
        <ele>164.04</ele>
        <time>2012-08-28T13:33:30Z</time>
      </trkpt>
      <trkpt lat="47.08322" lon="-0.76625">
        <ele>164.04</ele>
        <time>2012-08-28T13:33:31Z</time>
      </trkpt>
      <trkpt lat="47.08321" lon="-0.76604">
        <ele>164.52</ele>
        <time>2012-08-28T13:33:34Z</time>
      </trkpt>
      <trkpt lat="47.08322" lon="-0.76597">
        <ele>164.52</ele>
        <time>2012-08-28T13:33:35Z</time>
      </trkpt>
      <trkpt lat="47.08323" lon="-0.76589">
        <ele>164.52</ele>
        <time>2012-08-28T13:33:36Z</time>
      </trkpt>
      <trkpt lat="47.08323" lon="-0.76581">
        <ele>164.52</ele>
        <time>2012-08-28T13:33:37Z</time>
      </trkpt>
      <trkpt lat="47.08322" lon="-0.76573">
        <ele>164.52</ele>
        <time>2012-08-28T13:33:38Z</time>
      </trkpt>
      <trkpt lat="47.08322" lon="-0.76565">
        <ele>164.52</ele>
        <time>2012-08-28T13:33:39Z</time>
      </trkpt>
      <trkpt lat="47.08321" lon="-0.76557">
        <ele>164.52</ele>
        <time>2012-08-28T13:33:40Z</time>
      </trkpt>
      <trkpt lat="47.0832" lon="-0.7655">
        <ele>165</ele>
        <time>2012-08-28T13:33:41Z</time>
      </trkpt>
      <trkpt lat="47.08318" lon="-0.76517">
        <ele>165</ele>
        <time>2012-08-28T13:33:46Z</time>
      </trkpt>
      <trkpt lat="47.08317" lon="-0.76439">
        <ele>166.45</ele>
        <time>2012-08-28T13:33:58Z</time>
      </trkpt>
      <trkpt lat="47.08318" lon="-0.76432">
        <ele>166.93</ele>
        <time>2012-08-28T13:33:59Z</time>
      </trkpt>
      <trkpt lat="47.08319" lon="-0.76425">
        <ele>166.93</ele>
        <time>2012-08-28T13:34:00Z</time>
      </trkpt>
      <trkpt lat="47.0832" lon="-0.76418">
        <ele>166.93</ele>
        <time>2012-08-28T13:34:01Z</time>
      </trkpt>
      <trkpt lat="47.08321" lon="-0.7641">
        <ele>166.93</ele>
        <time>2012-08-28T13:34:02Z</time>
      </trkpt>
      <trkpt lat="47.08327" lon="-0.76335">
        <ele>167.89</ele>
        <time>2012-08-28T13:34:13Z</time>
      </trkpt>
      <trkpt lat="47.08329" lon="-0.76327">
        <ele>167.89</ele>
        <time>2012-08-28T13:34:14Z</time>
      </trkpt>
      <trkpt lat="47.0834" lon="-0.76249">
        <ele>168.37</ele>
        <time>2012-08-28T13:34:25Z</time>
      </trkpt>
      <trkpt lat="47.08341" lon="-0.76243">
        <ele>168.37</ele>
        <time>2012-08-28T13:34:26Z</time>
      </trkpt>
      <trkpt lat="47.08343" lon="-0.76237">
        <ele>168.37</ele>
        <time>2012-08-28T13:34:27Z</time>
      </trkpt>
      <trkpt lat="47.08355" lon="-0.76172">
        <ele>168.37</ele>
        <time>2012-08-28T13:34:37Z</time>
      </trkpt>
      <trkpt lat="47.08356" lon="-0.76166">
        <ele>168.37</ele>
        <time>2012-08-28T13:34:38Z</time>
      </trkpt>
      <trkpt lat="47.08369" lon="-0.76117">
        <ele>167.89</ele>
        <time>2012-08-28T13:34:46Z</time>
      </trkpt>
      <trkpt lat="47.08379" lon="-0.76097">
        <ele>168.37</ele>
        <time>2012-08-28T13:34:48Z</time>
      </trkpt>
      <trkpt lat="47.08384" lon="-0.76088">
        <ele>168.37</ele>
        <time>2012-08-28T13:34:49Z</time>
      </trkpt>
      <trkpt lat="47.08385" lon="-0.76082">
        <ele>168.37</ele>
        <time>2012-08-28T13:34:50Z</time>
      </trkpt>
      <trkpt lat="47.0839" lon="-0.76073">
        <ele>168.37</ele>
        <time>2012-08-28T13:34:51Z</time>
      </trkpt>
      <trkpt lat="47.08396" lon="-0.76063">
        <ele>168.37</ele>
        <time>2012-08-28T13:34:52Z</time>
      </trkpt>
      <trkpt lat="47.08402" lon="-0.76052">
        <ele>168.37</ele>
        <time>2012-08-28T13:34:53Z</time>
      </trkpt>
      <trkpt lat="47.08428" lon="-0.76005">
        <ele>168.37</ele>
        <time>2012-08-28T13:34:58Z</time>
      </trkpt>
      <trkpt lat="47.08431" lon="-0.75999">
        <ele>168.37</ele>
        <time>2012-08-28T13:34:59Z</time>
      </trkpt>
      <trkpt lat="47.08433" lon="-0.75994">
        <ele>168.85</ele>
        <time>2012-08-28T13:35:00Z</time>
      </trkpt>
      <trkpt lat="47.08435" lon="-0.75989">
        <ele>168.37</ele>
        <time>2012-08-28T13:35:01Z</time>
      </trkpt>
      <trkpt lat="47.08438" lon="-0.75984">
        <ele>168.37</ele>
        <time>2012-08-28T13:35:02Z</time>
      </trkpt>
      <trkpt lat="47.08472" lon="-0.75941">
        <ele>168.37</ele>
        <time>2012-08-28T13:35:14Z</time>
      </trkpt>
      <trkpt lat="47.0849" lon="-0.75908">
        <ele>167.89</ele>
        <time>2012-08-28T13:35:23Z</time>
      </trkpt>
      <trkpt lat="47.08503" lon="-0.75871">
        <ele>168.37</ele>
        <time>2012-08-28T13:35:33Z</time>
      </trkpt>
      <trkpt lat="47.08507" lon="-0.75866">
        <ele>168.85</ele>
        <time>2012-08-28T13:35:34Z</time>
      </trkpt>
      <trkpt lat="47.08509" lon="-0.75862">
        <ele>168.37</ele>
        <time>2012-08-28T13:35:35Z</time>
      </trkpt>
      <trkpt lat="47.08511" lon="-0.75857">
        <ele>168.85</ele>
        <time>2012-08-28T13:35:36Z</time>
      </trkpt>
      <trkpt lat="47.08513" lon="-0.75854">
        <ele>168.85</ele>
        <time>2012-08-28T13:35:37Z</time>
      </trkpt>
      <trkpt lat="47.08568" lon="-0.7578">
        <ele>169.81</ele>
        <time>2012-08-28T13:35:47Z</time>
      </trkpt>
      <trkpt lat="47.08581" lon="-0.75766">
        <ele>169.81</ele>
        <time>2012-08-28T13:35:49Z</time>
      </trkpt>
      <trkpt lat="47.08611" lon="-0.75716">
        <ele>170.29</ele>
        <time>2012-08-28T13:35:58Z</time>
      </trkpt>
      <trkpt lat="47.08627" lon="-0.75666">
        <ele>170.77</ele>
        <time>2012-08-28T13:36:07Z</time>
      </trkpt>
      <trkpt lat="47.08636" lon="-0.75621">
        <ele>171.73</ele>
        <time>2012-08-28T13:36:15Z</time>
      </trkpt>
      <trkpt lat="47.08635" lon="-0.75615">
        <ele>171.73</ele>
        <time>2012-08-28T13:36:16Z</time>
      </trkpt>
      <trkpt lat="47.08633" lon="-0.75609">
        <ele>171.73</ele>
        <time>2012-08-28T13:36:17Z</time>
      </trkpt>
      <trkpt lat="47.08617" lon="-0.75505">
        <ele>172.21</ele>
        <time>2012-08-28T13:36:33Z</time>
      </trkpt>
      <trkpt lat="47.08615" lon="-0.755">
        <ele>172.21</ele>
        <time>2012-08-28T13:36:34Z</time>
      </trkpt>
      <trkpt lat="47.08614" lon="-0.75494">
        <ele>172.69</ele>
        <time>2012-08-28T13:36:35Z</time>
      </trkpt>
      <trkpt lat="47.08599" lon="-0.75443">
        <ele>172.21</ele>
        <time>2012-08-28T13:36:45Z</time>
      </trkpt>
      <trkpt lat="47.08585" lon="-0.75375">
        <ele>171.73</ele>
        <time>2012-08-28T13:36:55Z</time>
      </trkpt>
      <trkpt lat="47.08581" lon="-0.75362">
        <ele>171.25</ele>
        <time>2012-08-28T13:36:57Z</time>
      </trkpt>
      <trkpt lat="47.08578" lon="-0.75348">
        <ele>171.73</ele>
        <time>2012-08-28T13:36:59Z</time>
      </trkpt>
      <trkpt lat="47.08576" lon="-0.75341">
        <ele>171.73</ele>
        <time>2012-08-28T13:37:00Z</time>
      </trkpt>
      <trkpt lat="47.08575" lon="-0.75334">
        <ele>171.25</ele>
        <time>2012-08-28T13:37:01Z</time>
      </trkpt>
      <trkpt lat="47.08567" lon="-0.75305">
        <ele>170.77</ele>
        <time>2012-08-28T13:37:05Z</time>
      </trkpt>
      <trkpt lat="47.08541" lon="-0.75234">
        <ele>169.33</ele>
        <time>2012-08-28T13:37:14Z</time>
      </trkpt>
      <trkpt lat="47.08503" lon="-0.75161">
        <ele>168.37</ele>
        <time>2012-08-28T13:37:24Z</time>
      </trkpt>
      <trkpt lat="47.08489" lon="-0.75131">
        <ele>168.37</ele>
        <time>2012-08-28T13:37:28Z</time>
      </trkpt>
      <trkpt lat="47.08466" lon="-0.75076">
        <ele>167.89</ele>
        <time>2012-08-28T13:37:35Z</time>
      </trkpt>
      <trkpt lat="47.08463" lon="-0.7507">
        <ele>167.89</ele>
        <time>2012-08-28T13:37:36Z</time>
      </trkpt>
      <trkpt lat="47.08461" lon="-0.75063">
        <ele>167.89</ele>
        <time>2012-08-28T13:37:37Z</time>
      </trkpt>
      <trkpt lat="47.08457" lon="-0.75057">
        <ele>167.89</ele>
        <time>2012-08-28T13:37:38Z</time>
      </trkpt>
      <trkpt lat="47.08454" lon="-0.75051">
        <ele>167.41</ele>
        <time>2012-08-28T13:37:39Z</time>
      </trkpt>
      <trkpt lat="47.0844" lon="-0.75024">
        <ele>167.41</ele>
        <time>2012-08-28T13:37:43Z</time>
      </trkpt>
      <trkpt lat="47.08437" lon="-0.75018">
        <ele>167.89</ele>
        <time>2012-08-28T13:37:44Z</time>
      </trkpt>
      <trkpt lat="47.08416" lon="-0.74976">
        <ele>167.89</ele>
        <time>2012-08-28T13:37:50Z</time>
      </trkpt>
      <trkpt lat="47.08409" lon="-0.74962">
        <ele>167.41</ele>
        <time>2012-08-28T13:37:52Z</time>
      </trkpt>
      <trkpt lat="47.08406" lon="-0.74954">
        <ele>167.41</ele>
        <time>2012-08-28T13:37:53Z</time>
      </trkpt>
      <trkpt lat="47.08358" lon="-0.74852">
        <ele>167.89</ele>
        <time>2012-08-28T13:38:08Z</time>
      </trkpt>
      <trkpt lat="47.08351" lon="-0.74832">
        <ele>167.89</ele>
        <time>2012-08-28T13:38:11Z</time>
      </trkpt>
      <trkpt lat="47.08348" lon="-0.74825">
        <ele>167.89</ele>
        <time>2012-08-28T13:38:12Z</time>
      </trkpt>
      <trkpt lat="47.08337" lon="-0.74798">
        <ele>167.89</ele>
        <time>2012-08-28T13:38:16Z</time>
      </trkpt>
      <trkpt lat="47.08334" lon="-0.74792">
        <ele>167.89</ele>
        <time>2012-08-28T13:38:17Z</time>
      </trkpt>
      <trkpt lat="47.08332" lon="-0.74785">
        <ele>167.89</ele>
        <time>2012-08-28T13:38:18Z</time>
      </trkpt>
      <trkpt lat="47.0833" lon="-0.74777">
        <ele>167.89</ele>
        <time>2012-08-28T13:38:19Z</time>
      </trkpt>
      <trkpt lat="47.08328" lon="-0.7477">
        <ele>168.37</ele>
        <time>2012-08-28T13:38:20Z</time>
      </trkpt>
      <trkpt lat="47.08326" lon="-0.74763">
        <ele>167.89</ele>
        <time>2012-08-28T13:38:21Z</time>
      </trkpt>
      <trkpt lat="47.08301" lon="-0.74692">
        <ele>168.37</ele>
        <time>2012-08-28T13:38:31Z</time>
      </trkpt>
      <trkpt lat="47.08284" lon="-0.74634">
        <ele>168.85</ele>
        <time>2012-08-28T13:38:40Z</time>
      </trkpt>
      <trkpt lat="47.08277" lon="-0.74614">
        <ele>168.85</ele>
        <time>2012-08-28T13:38:43Z</time>
      </trkpt>
      <trkpt lat="47.08269" lon="-0.74589">
        <ele>170.29</ele>
        <time>2012-08-28T13:38:47Z</time>
      </trkpt>
      <trkpt lat="47.0825" lon="-0.74522">
        <ele>170.77</ele>
        <time>2012-08-28T13:38:58Z</time>
      </trkpt>
      <trkpt lat="47.08245" lon="-0.74498">
        <ele>171.25</ele>
        <time>2012-08-28T13:39:01Z</time>
      </trkpt>
      <trkpt lat="47.0824" lon="-0.74483">
        <ele>171.25</ele>
        <time>2012-08-28T13:39:03Z</time>
      </trkpt>
      <trkpt lat="47.08238" lon="-0.74475">
        <ele>171.73</ele>
        <time>2012-08-28T13:39:04Z</time>
      </trkpt>
      <trkpt lat="47.08225" lon="-0.74417">
        <ele>172.21</ele>
        <time>2012-08-28T13:39:14Z</time>
      </trkpt>
      <trkpt lat="47.08205" lon="-0.74364">
        <ele>172.69</ele>
        <time>2012-08-28T13:39:24Z</time>
      </trkpt>
      <trkpt lat="47.08201" lon="-0.74359">
        <ele>173.17</ele>
        <time>2012-08-28T13:39:25Z</time>
      </trkpt>
      <trkpt lat="47.08199" lon="-0.74353">
        <ele>173.17</ele>
        <time>2012-08-28T13:39:26Z</time>
      </trkpt>
      <trkpt lat="47.08196" lon="-0.74347">
        <ele>173.17</ele>
        <time>2012-08-28T13:39:27Z</time>
      </trkpt>
      <trkpt lat="47.08193" lon="-0.74341">
        <ele>173.17</ele>
        <time>2012-08-28T13:39:28Z</time>
      </trkpt>
      <trkpt lat="47.0819" lon="-0.74336">
        <ele>173.66</ele>
        <time>2012-08-28T13:39:29Z</time>
      </trkpt>
      <trkpt lat="47.08169" lon="-0.74299">
        <ele>173.17</ele>
        <time>2012-08-28T13:39:36Z</time>
      </trkpt>
      <trkpt lat="47.08145" lon="-0.74266">
        <ele>173.66</ele>
        <time>2012-08-28T13:39:42Z</time>
      </trkpt>
      <trkpt lat="47.08142" lon="-0.7426">
        <ele>173.17</ele>
        <time>2012-08-28T13:39:43Z</time>
      </trkpt>
      <trkpt lat="47.08127" lon="-0.74225">
        <ele>173.17</ele>
        <time>2012-08-28T13:39:48Z</time>
      </trkpt>
      <trkpt lat="47.08121" lon="-0.74211">
        <ele>172.69</ele>
        <time>2012-08-28T13:39:50Z</time>
      </trkpt>
      <trkpt lat="47.08113" lon="-0.74184">
        <ele>172.21</ele>
        <time>2012-08-28T13:39:54Z</time>
      </trkpt>
      <trkpt lat="47.08108" lon="-0.7417">
        <ele>172.21</ele>
        <time>2012-08-28T13:39:56Z</time>
      </trkpt>
      <trkpt lat="47.08105" lon="-0.74163">
        <ele>172.69</ele>
        <time>2012-08-28T13:39:57Z</time>
      </trkpt>
      <trkpt lat="47.08102" lon="-0.74156">
        <ele>172.21</ele>
        <time>2012-08-28T13:39:58Z</time>
      </trkpt>
      <trkpt lat="47.08096" lon="-0.74143">
        <ele>171.73</ele>
        <time>2012-08-28T13:40:00Z</time>
      </trkpt>
      <trkpt lat="47.08093" lon="-0.74136">
        <ele>171.73</ele>
        <time>2012-08-28T13:40:01Z</time>
      </trkpt>
      <trkpt lat="47.0809" lon="-0.74129">
        <ele>171.73</ele>
        <time>2012-08-28T13:40:02Z</time>
      </trkpt>
      <trkpt lat="47.08087" lon="-0.74122">
        <ele>171.73</ele>
        <time>2012-08-28T13:40:03Z</time>
      </trkpt>
      <trkpt lat="47.08083" lon="-0.74115">
        <ele>171.73</ele>
        <time>2012-08-28T13:40:04Z</time>
      </trkpt>
      <trkpt lat="47.08054" lon="-0.7406">
        <ele>171.25</ele>
        <time>2012-08-28T13:40:12Z</time>
      </trkpt>
      <trkpt lat="47.0805" lon="-0.74055">
        <ele>171.25</ele>
        <time>2012-08-28T13:40:13Z</time>
      </trkpt>
      <trkpt lat="47.08041" lon="-0.74039">
        <ele>171.73</ele>
        <time>2012-08-28T13:40:16Z</time>
      </trkpt>
      <trkpt lat="47.08015" lon="-0.74007">
        <ele>172.69</ele>
        <time>2012-08-28T13:40:26Z</time>
      </trkpt>
      <trkpt lat="47.08013" lon="-0.74005">
        <ele>172.21</ele>
        <time>2012-08-28T13:40:28Z</time>
      </trkpt>
      <trkpt lat="47.08012" lon="-0.74003">
        <ele>172.21</ele>
        <time>2012-08-28T13:40:29Z</time>
      </trkpt>
      <trkpt lat="47.07985" lon="-0.73975">
        <ele>172.21</ele>
        <time>2012-08-28T13:40:39Z</time>
      </trkpt>
      <trkpt lat="47.07937" lon="-0.73925">
        <ele>173.17</ele>
        <time>2012-08-28T13:40:52Z</time>
      </trkpt>
      <trkpt lat="47.07934" lon="-0.7392">
        <ele>173.17</ele>
        <time>2012-08-28T13:40:53Z</time>
      </trkpt>
      <trkpt lat="47.0793" lon="-0.73916">
        <ele>173.17</ele>
        <time>2012-08-28T13:40:54Z</time>
      </trkpt>
      <trkpt lat="47.07915" lon="-0.739">
        <ele>173.66</ele>
        <time>2012-08-28T13:40:58Z</time>
      </trkpt>
      <trkpt lat="47.07912" lon="-0.73897">
        <ele>173.66</ele>
        <time>2012-08-28T13:40:59Z</time>
      </trkpt>
      <trkpt lat="47.07908" lon="-0.73893">
        <ele>173.66</ele>
        <time>2012-08-28T13:41:00Z</time>
      </trkpt>
      <trkpt lat="47.07865" lon="-0.73849">
        <ele>173.17</ele>
        <time>2012-08-28T13:41:11Z</time>
      </trkpt>
      <trkpt lat="47.0784" lon="-0.73811">
        <ele>173.66</ele>
        <time>2012-08-28T13:41:18Z</time>
      </trkpt>
      <trkpt lat="47.07836" lon="-0.73805">
        <ele>173.17</ele>
        <time>2012-08-28T13:41:19Z</time>
      </trkpt>
      <trkpt lat="47.07809" lon="-0.7377">
        <ele>173.17</ele>
        <time>2012-08-28T13:41:26Z</time>
      </trkpt>
      <trkpt lat="47.07807" lon="-0.73764">
        <ele>172.69</ele>
        <time>2012-08-28T13:41:27Z</time>
      </trkpt>
      <trkpt lat="47.07805" lon="-0.73758">
        <ele>172.69</ele>
        <time>2012-08-28T13:41:28Z</time>
      </trkpt>
      <trkpt lat="47.07799" lon="-0.73746">
        <ele>173.17</ele>
        <time>2012-08-28T13:41:30Z</time>
      </trkpt>
      <trkpt lat="47.07782" lon="-0.73712">
        <ele>172.69</ele>
        <time>2012-08-28T13:41:36Z</time>
      </trkpt>
      <trkpt lat="47.07759" lon="-0.73667">
        <ele>173.66</ele>
        <time>2012-08-28T13:41:44Z</time>
      </trkpt>
      <trkpt lat="47.07756" lon="-0.73661">
        <ele>173.66</ele>
        <time>2012-08-28T13:41:45Z</time>
      </trkpt>
      <trkpt lat="47.0772" lon="-0.73598">
        <ele>173.17</ele>
        <time>2012-08-28T13:41:56Z</time>
      </trkpt>
      <trkpt lat="47.07704" lon="-0.73567">
        <ele>172.69</ele>
        <time>2012-08-28T13:42:01Z</time>
      </trkpt>
      <trkpt lat="47.077" lon="-0.7356">
        <ele>172.69</ele>
        <time>2012-08-28T13:42:02Z</time>
      </trkpt>
      <trkpt lat="47.07695" lon="-0.73553">
        <ele>172.21</ele>
        <time>2012-08-28T13:42:03Z</time>
      </trkpt>
      <trkpt lat="47.07668" lon="-0.73492">
        <ele>172.69</ele>
        <time>2012-08-28T13:42:13Z</time>
      </trkpt>
      <trkpt lat="47.07661" lon="-0.73479">
        <ele>172.69</ele>
        <time>2012-08-28T13:42:15Z</time>
      </trkpt>
      <trkpt lat="47.07656" lon="-0.73473">
        <ele>173.17</ele>
        <time>2012-08-28T13:42:16Z</time>
      </trkpt>
      <trkpt lat="47.07648" lon="-0.7346">
        <ele>172.69</ele>
        <time>2012-08-28T13:42:18Z</time>
      </trkpt>
      <trkpt lat="47.07644" lon="-0.73454">
        <ele>172.69</ele>
        <time>2012-08-28T13:42:19Z</time>
      </trkpt>
      <trkpt lat="47.07599" lon="-0.7339">
        <ele>171.73</ele>
        <time>2012-08-28T13:42:30Z</time>
      </trkpt>
      <trkpt lat="47.07553" lon="-0.73333">
        <ele>170.29</ele>
        <time>2012-08-28T13:42:39Z</time>
      </trkpt>
      <trkpt lat="47.07547" lon="-0.73326">
        <ele>169.81</ele>
        <time>2012-08-28T13:42:40Z</time>
      </trkpt>
      <trkpt lat="47.07542" lon="-0.73319">
        <ele>170.29</ele>
        <time>2012-08-28T13:42:41Z</time>
      </trkpt>
      <trkpt lat="47.0752" lon="-0.7329">
        <ele>169.81</ele>
        <time>2012-08-28T13:42:45Z</time>
      </trkpt>
      <trkpt lat="47.07471" lon="-0.73235">
        <ele>168.37</ele>
        <time>2012-08-28T13:42:54Z</time>
      </trkpt>
      <trkpt lat="47.07465" lon="-0.73228">
        <ele>168.85</ele>
        <time>2012-08-28T13:42:55Z</time>
      </trkpt>
      <trkpt lat="47.07432" lon="-0.73185">
        <ele>167.89</ele>
        <time>2012-08-28T13:43:01Z</time>
      </trkpt>
      <trkpt lat="47.07411" lon="-0.73155">
        <ele>167.41</ele>
        <time>2012-08-28T13:43:05Z</time>
      </trkpt>
      <trkpt lat="47.0734" lon="-0.73066">
        <ele>165.96</ele>
        <time>2012-08-28T13:43:17Z</time>
      </trkpt>
      <trkpt lat="47.07275" lon="-0.72986">
        <ele>164.04</ele>
        <time>2012-08-28T13:43:28Z</time>
      </trkpt>
      <trkpt lat="47.07235" lon="-0.72937">
        <ele>163.08</ele>
        <time>2012-08-28T13:43:35Z</time>
      </trkpt>
      <trkpt lat="47.07184" lon="-0.72875">
        <ele>162.12</ele>
        <time>2012-08-28T13:43:45Z</time>
      </trkpt>
      <trkpt lat="47.07179" lon="-0.72868">
        <ele>162.12</ele>
        <time>2012-08-28T13:43:46Z</time>
      </trkpt>
      <trkpt lat="47.07176" lon="-0.7286">
        <ele>162.12</ele>
        <time>2012-08-28T13:43:47Z</time>
      </trkpt>
      <trkpt lat="47.07173" lon="-0.72852">
        <ele>162.12</ele>
        <time>2012-08-28T13:43:48Z</time>
      </trkpt>
      <trkpt lat="47.07171" lon="-0.72843">
        <ele>162.12</ele>
        <time>2012-08-28T13:43:49Z</time>
      </trkpt>
      <trkpt lat="47.07169" lon="-0.72835">
        <ele>161.64</ele>
        <time>2012-08-28T13:43:50Z</time>
      </trkpt>
      <trkpt lat="47.07167" lon="-0.72825">
        <ele>161.64</ele>
        <time>2012-08-28T13:43:51Z</time>
      </trkpt>
      <trkpt lat="47.07165" lon="-0.72816">
        <ele>161.64</ele>
        <time>2012-08-28T13:43:52Z</time>
      </trkpt>
      <trkpt lat="47.07165" lon="-0.72805">
        <ele>161.64</ele>
        <time>2012-08-28T13:43:53Z</time>
      </trkpt>
      <trkpt lat="47.07165" lon="-0.72796">
        <ele>161.64</ele>
        <time>2012-08-28T13:43:54Z</time>
      </trkpt>
      <trkpt lat="47.07163" lon="-0.72787">
        <ele>162.12</ele>
        <time>2012-08-28T13:43:55Z</time>
      </trkpt>
      <trkpt lat="47.07162" lon="-0.72777">
        <ele>162.12</ele>
        <time>2012-08-28T13:43:56Z</time>
      </trkpt>
      <trkpt lat="47.07158" lon="-0.7276">
        <ele>162.6</ele>
        <time>2012-08-28T13:43:58Z</time>
      </trkpt>
      <trkpt lat="47.07157" lon="-0.7275">
        <ele>162.12</ele>
        <time>2012-08-28T13:43:59Z</time>
      </trkpt>
      <trkpt lat="47.07157" lon="-0.72733">
        <ele>162.12</ele>
        <time>2012-08-28T13:44:01Z</time>
      </trkpt>
      <trkpt lat="47.07156" lon="-0.72715">
        <ele>161.64</ele>
        <time>2012-08-28T13:44:03Z</time>
      </trkpt>
      <trkpt lat="47.07152" lon="-0.72666">
        <ele>161.64</ele>
        <time>2012-08-28T13:44:09Z</time>
      </trkpt>
      <trkpt lat="47.07158" lon="-0.72538">
        <ele>160.68</ele>
        <time>2012-08-28T13:44:23Z</time>
      </trkpt>
      <trkpt lat="47.07161" lon="-0.72499">
        <ele>160.68</ele>
        <time>2012-08-28T13:44:27Z</time>
      </trkpt>
      <trkpt lat="47.07163" lon="-0.72489">
        <ele>161.16</ele>
        <time>2012-08-28T13:44:28Z</time>
      </trkpt>
      <trkpt lat="47.07164" lon="-0.7248">
        <ele>160.68</ele>
        <time>2012-08-28T13:44:29Z</time>
      </trkpt>
      <trkpt lat="47.07167" lon="-0.724">
        <ele>160.68</ele>
        <time>2012-08-28T13:44:38Z</time>
      </trkpt>
      <trkpt lat="47.07168" lon="-0.72392">
        <ele>160.2</ele>
        <time>2012-08-28T13:44:39Z</time>
      </trkpt>
      <trkpt lat="47.07168" lon="-0.72383">
        <ele>160.2</ele>
        <time>2012-08-28T13:44:40Z</time>
      </trkpt>
      <trkpt lat="47.07167" lon="-0.72375">
        <ele>159.72</ele>
        <time>2012-08-28T13:44:41Z</time>
      </trkpt>
      <trkpt lat="47.07165" lon="-0.72368">
        <ele>159.72</ele>
        <time>2012-08-28T13:44:42Z</time>
      </trkpt>
      <trkpt lat="47.07164" lon="-0.7236">
        <ele>160.2</ele>
        <time>2012-08-28T13:44:43Z</time>
      </trkpt>
      <trkpt lat="47.07163" lon="-0.72353">
        <ele>159.24</ele>
        <time>2012-08-28T13:44:44Z</time>
      </trkpt>
      <trkpt lat="47.07163" lon="-0.72345">
        <ele>159.72</ele>
        <time>2012-08-28T13:44:45Z</time>
      </trkpt>
      <trkpt lat="47.07162" lon="-0.72338">
        <ele>160.2</ele>
        <time>2012-08-28T13:44:46Z</time>
      </trkpt>
      <trkpt lat="47.07162" lon="-0.72317">
        <ele>160.2</ele>
        <time>2012-08-28T13:44:51Z</time>
      </trkpt>
      <trkpt lat="47.07163" lon="-0.72314">
        <ele>160.68</ele>
        <time>2012-08-28T13:44:52Z</time>
      </trkpt>
      <trkpt lat="47.07165" lon="-0.72311">
        <ele>160.2</ele>
        <time>2012-08-28T13:45:03Z</time>
      </trkpt>
      <trkpt lat="47.07172" lon="-0.72308">
        <ele>160.68</ele>
        <time>2012-08-28T13:45:08Z</time>
      </trkpt>
      <trkpt lat="47.07174" lon="-0.72306">
        <ele>160.68</ele>
        <time>2012-08-28T13:45:09Z</time>
      </trkpt>
      <trkpt lat="47.07199" lon="-0.72296">
        <ele>161.16</ele>
        <time>2012-08-28T13:45:17Z</time>
      </trkpt>
      <trkpt lat="47.07204" lon="-0.72294">
        <ele>161.64</ele>
        <time>2012-08-28T13:45:19Z</time>
      </trkpt>
      <trkpt lat="47.07206" lon="-0.72291">
        <ele>161.16</ele>
        <time>2012-08-28T13:45:20Z</time>
      </trkpt>
      <trkpt lat="47.07208" lon="-0.72286">
        <ele>161.16</ele>
        <time>2012-08-28T13:45:21Z</time>
      </trkpt>
      <trkpt lat="47.07208" lon="-0.7228">
        <ele>160.68</ele>
        <time>2012-08-28T13:45:22Z</time>
      </trkpt>
      <trkpt lat="47.07208" lon="-0.72275">
        <ele>160.68</ele>
        <time>2012-08-28T13:45:23Z</time>
      </trkpt>
      <trkpt lat="47.07208" lon="-0.72269">
        <ele>160.2</ele>
        <time>2012-08-28T13:45:24Z</time>
      </trkpt>
      <trkpt lat="47.07207" lon="-0.72262">
        <ele>159.72</ele>
        <time>2012-08-28T13:45:25Z</time>
      </trkpt>
      <trkpt lat="47.07206" lon="-0.72256">
        <ele>159.72</ele>
        <time>2012-08-28T13:45:26Z</time>
      </trkpt>
      <trkpt lat="47.07205" lon="-0.72249">
        <ele>159.72</ele>
        <time>2012-08-28T13:45:27Z</time>
      </trkpt>
      <trkpt lat="47.07204" lon="-0.72235">
        <ele>159.24</ele>
        <time>2012-08-28T13:45:29Z</time>
      </trkpt>
      <trkpt lat="47.07201" lon="-0.72221">
        <ele>159.24</ele>
        <time>2012-08-28T13:45:31Z</time>
      </trkpt>
      <trkpt lat="47.072" lon="-0.72214">
        <ele>159.24</ele>
        <time>2012-08-28T13:45:32Z</time>
      </trkpt>
      <trkpt lat="47.07198" lon="-0.72207">
        <ele>159.24</ele>
        <time>2012-08-28T13:45:33Z</time>
      </trkpt>
      <trkpt lat="47.07192" lon="-0.72166">
        <ele>158.27</ele>
        <time>2012-08-28T13:45:38Z</time>
      </trkpt>
      <trkpt lat="47.07184" lon="-0.72104">
        <ele>158.75</ele>
        <time>2012-08-28T13:45:45Z</time>
      </trkpt>
      <trkpt lat="47.07182" lon="-0.72078">
        <ele>158.27</ele>
        <time>2012-08-28T13:45:48Z</time>
      </trkpt>
      <trkpt lat="47.07181" lon="-0.7207">
        <ele>158.27</ele>
        <time>2012-08-28T13:45:49Z</time>
      </trkpt>
      <trkpt lat="47.07168" lon="-0.71969">
        <ele>157.79</ele>
        <time>2012-08-28T13:46:00Z</time>
      </trkpt>
      <trkpt lat="47.07166" lon="-0.7196">
        <ele>157.79</ele>
        <time>2012-08-28T13:46:01Z</time>
      </trkpt>
      <trkpt lat="47.07158" lon="-0.71915">
        <ele>157.31</ele>
        <time>2012-08-28T13:46:06Z</time>
      </trkpt>
      <trkpt lat="47.07156" lon="-0.71896">
        <ele>157.79</ele>
        <time>2012-08-28T13:46:08Z</time>
      </trkpt>
      <trkpt lat="47.07154" lon="-0.71876">
        <ele>157.79</ele>
        <time>2012-08-28T13:46:10Z</time>
      </trkpt>
      <trkpt lat="47.07152" lon="-0.71866">
        <ele>157.79</ele>
        <time>2012-08-28T13:46:11Z</time>
      </trkpt>
      <trkpt lat="47.07151" lon="-0.71848">
        <ele>157.31</ele>
        <time>2012-08-28T13:46:13Z</time>
      </trkpt>
      <trkpt lat="47.07163" lon="-0.71708">
        <ele>156.35</ele>
        <time>2012-08-28T13:46:26Z</time>
      </trkpt>
      <trkpt lat="47.07175" lon="-0.7156">
        <ele>156.35</ele>
        <time>2012-08-28T13:46:41Z</time>
      </trkpt>
      <trkpt lat="47.07196" lon="-0.71399">
        <ele>157.31</ele>
        <time>2012-08-28T13:46:58Z</time>
      </trkpt>
      <trkpt lat="47.07218" lon="-0.713">
        <ele>157.31</ele>
        <time>2012-08-28T13:47:11Z</time>
      </trkpt>
      <trkpt lat="47.07224" lon="-0.71278">
        <ele>158.27</ele>
        <time>2012-08-28T13:47:15Z</time>
      </trkpt>
      <trkpt lat="47.07226" lon="-0.71275">
        <ele>158.75</ele>
        <time>2012-08-28T13:47:16Z</time>
      </trkpt>
      <trkpt lat="47.07228" lon="-0.7127">
        <ele>158.75</ele>
        <time>2012-08-28T13:47:17Z</time>
      </trkpt>
      <trkpt lat="47.0723" lon="-0.71266">
        <ele>158.75</ele>
        <time>2012-08-28T13:47:18Z</time>
      </trkpt>
      <trkpt lat="47.07233" lon="-0.71261">
        <ele>159.24</ele>
        <time>2012-08-28T13:47:19Z</time>
      </trkpt>
      <trkpt lat="47.07236" lon="-0.71256">
        <ele>158.75</ele>
        <time>2012-08-28T13:47:20Z</time>
      </trkpt>
      <trkpt lat="47.07246" lon="-0.71235">
        <ele>158.27</ele>
        <time>2012-08-28T13:47:24Z</time>
      </trkpt>
      <trkpt lat="47.07246" lon="-0.71229">
        <ele>158.27</ele>
        <time>2012-08-28T13:47:25Z</time>
      </trkpt>
      <trkpt lat="47.07245" lon="-0.71224">
        <ele>159.24</ele>
        <time>2012-08-28T13:47:26Z</time>
      </trkpt>
      <trkpt lat="47.07244" lon="-0.7122">
        <ele>158.75</ele>
        <time>2012-08-28T13:47:27Z</time>
      </trkpt>
      <trkpt lat="47.07243" lon="-0.71216">
        <ele>158.75</ele>
        <time>2012-08-28T13:47:36Z</time>
      </trkpt>
      <trkpt lat="47.07241" lon="-0.71216">
        <ele>158.75</ele>
        <time>2012-08-28T13:47:56Z</time>
      </trkpt>
      <trkpt lat="47.07242" lon="-0.71218">
        <ele>158.27</ele>
        <time>2012-08-28T13:48:36Z</time>
      </trkpt>
      <trkpt lat="47.07243" lon="-0.71218">
        <ele>158.27</ele>
        <time>2012-08-28T13:49:15Z</time>
      </trkpt>
      <trkpt lat="47.07243" lon="-0.71219">
        <ele>158.75</ele>
        <time>2012-08-28T13:49:59Z</time>
      </trkpt>
      <trkpt lat="47.07242" lon="-0.71219">
        <ele>158.27</ele>
        <time>2012-08-28T13:50:45Z</time>
      </trkpt>
      <trkpt lat="47.07244" lon="-0.7122">
        <ele>158.27</ele>
        <time>2012-08-28T13:51:26Z</time>
      </trkpt>
      <trkpt lat="47.07242" lon="-0.71221">
        <ele>157.79</ele>
        <time>2012-08-28T13:52:00Z</time>
      </trkpt>
      <trkpt lat="47.07241" lon="-0.71219">
        <ele>158.27</ele>
        <time>2012-08-28T13:52:41Z</time>
      </trkpt>
      <trkpt lat="47.07241" lon="-0.7122">
        <ele>158.27</ele>
        <time>2012-08-28T13:53:02Z</time>
      </trkpt>
      <trkpt lat="47.07242" lon="-0.71221">
        <ele>158.27</ele>
        <time>2012-08-28T13:53:11Z</time>
      </trkpt>
      <trkpt lat="47.07242" lon="-0.71223">
        <ele>157.79</ele>
        <time>2012-08-28T13:53:12Z</time>
      </trkpt>
      <trkpt lat="47.07243" lon="-0.71225">
        <ele>157.79</ele>
        <time>2012-08-28T13:53:13Z</time>
      </trkpt>
      <trkpt lat="47.07243" lon="-0.71227">
        <ele>157.79</ele>
        <time>2012-08-28T13:53:14Z</time>
      </trkpt>
      <trkpt lat="47.07243" lon="-0.7123">
        <ele>157.79</ele>
        <time>2012-08-28T13:53:15Z</time>
      </trkpt>
      <trkpt lat="47.07243" lon="-0.71234">
        <ele>157.79</ele>
        <time>2012-08-28T13:53:16Z</time>
      </trkpt>
      <trkpt lat="47.07243" lon="-0.71237">
        <ele>157.31</ele>
        <time>2012-08-28T13:53:17Z</time>
      </trkpt>
      <trkpt lat="47.07241" lon="-0.71239">
        <ele>157.31</ele>
        <time>2012-08-28T13:53:18Z</time>
      </trkpt>
      <trkpt lat="47.07239" lon="-0.71241">
        <ele>157.79</ele>
        <time>2012-08-28T13:53:19Z</time>
      </trkpt>
      <trkpt lat="47.07236" lon="-0.71243">
        <ele>157.31</ele>
        <time>2012-08-28T13:53:20Z</time>
      </trkpt>
      <trkpt lat="47.07233" lon="-0.71244">
        <ele>157.31</ele>
        <time>2012-08-28T13:53:21Z</time>
      </trkpt>
      <trkpt lat="47.07229" lon="-0.71245">
        <ele>158.27</ele>
        <time>2012-08-28T13:53:22Z</time>
      </trkpt>
      <trkpt lat="47.07201" lon="-0.71228">
        <ele>158.27</ele>
        <time>2012-08-28T13:53:32Z</time>
      </trkpt>
      <trkpt lat="47.07194" lon="-0.71217">
        <ele>158.27</ele>
        <time>2012-08-28T13:53:35Z</time>
      </trkpt>
      <trkpt lat="47.07153" lon="-0.71168">
        <ele>158.27</ele>
        <time>2012-08-28T13:53:50Z</time>
      </trkpt>
      <trkpt lat="47.07126" lon="-0.71133">
        <ele>157.79</ele>
        <time>2012-08-28T13:54:04Z</time>
      </trkpt>
      <trkpt lat="47.07123" lon="-0.71131">
        <ele>158.27</ele>
        <time>2012-08-28T13:54:05Z</time>
      </trkpt>
      <trkpt lat="47.07121" lon="-0.71127">
        <ele>157.79</ele>
        <time>2012-08-28T13:54:06Z</time>
      </trkpt>
      <trkpt lat="47.07118" lon="-0.71123">
        <ele>157.79</ele>
        <time>2012-08-28T13:54:07Z</time>
      </trkpt>
      <trkpt lat="47.07115" lon="-0.7112">
        <ele>157.79</ele>
        <time>2012-08-28T13:54:08Z</time>
      </trkpt>
      <trkpt lat="47.07112" lon="-0.71117">
        <ele>158.27</ele>
        <time>2012-08-28T13:54:09Z</time>
      </trkpt>
      <trkpt lat="47.07086" lon="-0.71085">
        <ele>157.31</ele>
        <time>2012-08-28T13:54:17Z</time>
      </trkpt>
      <trkpt lat="47.07083" lon="-0.71081">
        <ele>157.79</ele>
        <time>2012-08-28T13:54:18Z</time>
      </trkpt>
      <trkpt lat="47.07061" lon="-0.71055">
        <ele>158.27</ele>
        <time>2012-08-28T13:54:25Z</time>
      </trkpt>
      <trkpt lat="47.07055" lon="-0.71049">
        <ele>158.27</ele>
        <time>2012-08-28T13:54:28Z</time>
      </trkpt>
      <trkpt lat="47.07054" lon="-0.71046">
        <ele>158.27</ele>
        <time>2012-08-28T13:54:29Z</time>
      </trkpt>
      <trkpt lat="47.07055" lon="-0.71042">
        <ele>158.75</ele>
        <time>2012-08-28T13:54:30Z</time>
      </trkpt>
      <trkpt lat="47.07077" lon="-0.71013">
        <ele>158.27</ele>
        <time>2012-08-28T13:54:39Z</time>
      </trkpt>
      <trkpt lat="47.07087" lon="-0.7099">
        <ele>157.31</ele>
        <time>2012-08-28T13:54:43Z</time>
      </trkpt>
      <trkpt lat="47.07089" lon="-0.70983">
        <ele>157.31</ele>
        <time>2012-08-28T13:54:44Z</time>
      </trkpt>
      <trkpt lat="47.0709" lon="-0.70976">
        <ele>157.31</ele>
        <time>2012-08-28T13:54:45Z</time>
      </trkpt>
      <trkpt lat="47.07099" lon="-0.70903">
        <ele>159.24</ele>
        <time>2012-08-28T13:54:57Z</time>
      </trkpt>
      <trkpt lat="47.07104" lon="-0.70881">
        <ele>159.24</ele>
        <time>2012-08-28T13:55:01Z</time>
      </trkpt>
      <trkpt lat="47.07106" lon="-0.70876">
        <ele>159.24</ele>
        <time>2012-08-28T13:55:02Z</time>
      </trkpt>
      <trkpt lat="47.0711" lon="-0.70872">
        <ele>159.24</ele>
        <time>2012-08-28T13:55:03Z</time>
      </trkpt>
      <trkpt lat="47.07113" lon="-0.70868">
        <ele>158.75</ele>
        <time>2012-08-28T13:55:04Z</time>
      </trkpt>
      <trkpt lat="47.07117" lon="-0.70865">
        <ele>158.27</ele>
        <time>2012-08-28T13:55:05Z</time>
      </trkpt>
      <trkpt lat="47.07121" lon="-0.70862">
        <ele>157.79</ele>
        <time>2012-08-28T13:55:06Z</time>
      </trkpt>
      <trkpt lat="47.07126" lon="-0.7086">
        <ele>157.31</ele>
        <time>2012-08-28T13:55:07Z</time>
      </trkpt>
      <trkpt lat="47.0713" lon="-0.70858">
        <ele>157.31</ele>
        <time>2012-08-28T13:55:08Z</time>
      </trkpt>
      <trkpt lat="47.0714" lon="-0.70851">
        <ele>156.83</ele>
        <time>2012-08-28T13:55:10Z</time>
      </trkpt>
      <trkpt lat="47.07144" lon="-0.70846">
        <ele>156.83</ele>
        <time>2012-08-28T13:55:11Z</time>
      </trkpt>
      <trkpt lat="47.07156" lon="-0.70829">
        <ele>156.83</ele>
        <time>2012-08-28T13:55:15Z</time>
      </trkpt>
      <trkpt lat="47.07159" lon="-0.70824">
        <ele>157.31</ele>
        <time>2012-08-28T13:55:16Z</time>
      </trkpt>
      <trkpt lat="47.07161" lon="-0.70818">
        <ele>157.31</ele>
        <time>2012-08-28T13:55:17Z</time>
      </trkpt>
      <trkpt lat="47.07164" lon="-0.70804">
        <ele>157.31</ele>
        <time>2012-08-28T13:55:19Z</time>
      </trkpt>
      <trkpt lat="47.0717" lon="-0.70775">
        <ele>156.83</ele>
        <time>2012-08-28T13:55:23Z</time>
      </trkpt>
      <trkpt lat="47.07172" lon="-0.70769">
        <ele>156.83</ele>
        <time>2012-08-28T13:55:24Z</time>
      </trkpt>
      <trkpt lat="47.07174" lon="-0.70763">
        <ele>156.83</ele>
        <time>2012-08-28T13:55:25Z</time>
      </trkpt>
      <trkpt lat="47.07205" lon="-0.70701">
        <ele>156.83</ele>
        <time>2012-08-28T13:55:35Z</time>
      </trkpt>
      <trkpt lat="47.07221" lon="-0.70669">
        <ele>157.31</ele>
        <time>2012-08-28T13:55:40Z</time>
      </trkpt>
      <trkpt lat="47.07231" lon="-0.7065">
        <ele>156.83</ele>
        <time>2012-08-28T13:55:43Z</time>
      </trkpt>
      <trkpt lat="47.07248" lon="-0.70614">
        <ele>156.83</ele>
        <time>2012-08-28T13:55:50Z</time>
      </trkpt>
      <trkpt lat="47.07251" lon="-0.70608">
        <ele>156.83</ele>
        <time>2012-08-28T13:55:51Z</time>
      </trkpt>
      <trkpt lat="47.07253" lon="-0.70603">
        <ele>156.83</ele>
        <time>2012-08-28T13:55:52Z</time>
      </trkpt>
      <trkpt lat="47.07257" lon="-0.70598">
        <ele>156.83</ele>
        <time>2012-08-28T13:55:53Z</time>
      </trkpt>
      <trkpt lat="47.07261" lon="-0.70595">
        <ele>156.83</ele>
        <time>2012-08-28T13:55:54Z</time>
      </trkpt>
      <trkpt lat="47.07266" lon="-0.70593">
        <ele>156.83</ele>
        <time>2012-08-28T13:55:55Z</time>
      </trkpt>
      <trkpt lat="47.07315" lon="-0.70572">
        <ele>156.83</ele>
        <time>2012-08-28T13:56:06Z</time>
      </trkpt>
      <trkpt lat="47.07348" lon="-0.70557">
        <ele>157.31</ele>
        <time>2012-08-28T13:56:14Z</time>
      </trkpt>
      <trkpt lat="47.07358" lon="-0.70552">
        <ele>156.83</ele>
        <time>2012-08-28T13:56:16Z</time>
      </trkpt>
      <trkpt lat="47.07362" lon="-0.70548">
        <ele>156.83</ele>
        <time>2012-08-28T13:56:17Z</time>
      </trkpt>
      <trkpt lat="47.07367" lon="-0.70543">
        <ele>156.83</ele>
        <time>2012-08-28T13:56:18Z</time>
      </trkpt>
      <trkpt lat="47.07372" lon="-0.7054">
        <ele>156.83</ele>
        <time>2012-08-28T13:56:19Z</time>
      </trkpt>
      <trkpt lat="47.07377" lon="-0.70537">
        <ele>156.35</ele>
        <time>2012-08-28T13:56:20Z</time>
      </trkpt>
      <trkpt lat="47.07382" lon="-0.70533">
        <ele>156.83</ele>
        <time>2012-08-28T13:56:21Z</time>
      </trkpt>
      <trkpt lat="47.07398" lon="-0.70521">
        <ele>156.83</ele>
        <time>2012-08-28T13:56:24Z</time>
      </trkpt>
      <trkpt lat="47.07407" lon="-0.70511">
        <ele>156.83</ele>
        <time>2012-08-28T13:56:26Z</time>
      </trkpt>
      <trkpt lat="47.07417" lon="-0.705">
        <ele>156.83</ele>
        <time>2012-08-28T13:56:28Z</time>
      </trkpt>
      <trkpt lat="47.07443" lon="-0.70471">
        <ele>156.83</ele>
        <time>2012-08-28T13:56:34Z</time>
      </trkpt>
      <trkpt lat="47.0745" lon="-0.70461">
        <ele>157.31</ele>
        <time>2012-08-28T13:56:36Z</time>
      </trkpt>
      <trkpt lat="47.07453" lon="-0.70456">
        <ele>157.31</ele>
        <time>2012-08-28T13:56:37Z</time>
      </trkpt>
      <trkpt lat="47.07461" lon="-0.70445">
        <ele>156.83</ele>
        <time>2012-08-28T13:56:39Z</time>
      </trkpt>
      <trkpt lat="47.07467" lon="-0.70432">
        <ele>157.31</ele>
        <time>2012-08-28T13:56:41Z</time>
      </trkpt>
      <trkpt lat="47.07472" lon="-0.70419">
        <ele>156.83</ele>
        <time>2012-08-28T13:56:43Z</time>
      </trkpt>
      <trkpt lat="47.07474" lon="-0.70412">
        <ele>157.31</ele>
        <time>2012-08-28T13:56:44Z</time>
      </trkpt>
      <trkpt lat="47.07475" lon="-0.70405">
        <ele>156.83</ele>
        <time>2012-08-28T13:56:45Z</time>
      </trkpt>
      <trkpt lat="47.07477" lon="-0.70399">
        <ele>156.83</ele>
        <time>2012-08-28T13:56:46Z</time>
      </trkpt>
      <trkpt lat="47.0748" lon="-0.70393">
        <ele>156.83</ele>
        <time>2012-08-28T13:56:47Z</time>
      </trkpt>
      <trkpt lat="47.07483" lon="-0.70387">
        <ele>157.31</ele>
        <time>2012-08-28T13:56:48Z</time>
      </trkpt>
      <trkpt lat="47.07486" lon="-0.70382">
        <ele>157.31</ele>
        <time>2012-08-28T13:56:49Z</time>
      </trkpt>
      <trkpt lat="47.0749" lon="-0.70377">
        <ele>156.83</ele>
        <time>2012-08-28T13:56:50Z</time>
      </trkpt>
      <trkpt lat="47.07509" lon="-0.70351">
        <ele>157.31</ele>
        <time>2012-08-28T13:56:55Z</time>
      </trkpt>
      <trkpt lat="47.07513" lon="-0.70348">
        <ele>156.83</ele>
        <time>2012-08-28T13:56:56Z</time>
      </trkpt>
      <trkpt lat="47.07518" lon="-0.70346">
        <ele>157.31</ele>
        <time>2012-08-28T13:56:57Z</time>
      </trkpt>
      <trkpt lat="47.07533" lon="-0.70338">
        <ele>157.79</ele>
        <time>2012-08-28T13:57:00Z</time>
      </trkpt>
      <trkpt lat="47.07536" lon="-0.70334">
        <ele>157.31</ele>
        <time>2012-08-28T13:57:01Z</time>
      </trkpt>
      <trkpt lat="47.0754" lon="-0.70329">
        <ele>157.79</ele>
        <time>2012-08-28T13:57:02Z</time>
      </trkpt>
      <trkpt lat="47.07553" lon="-0.70299">
        <ele>157.31</ele>
        <time>2012-08-28T13:57:07Z</time>
      </trkpt>
      <trkpt lat="47.07556" lon="-0.70293">
        <ele>157.31</ele>
        <time>2012-08-28T13:57:08Z</time>
      </trkpt>
      <trkpt lat="47.07587" lon="-0.70245">
        <ele>157.79</ele>
        <time>2012-08-28T13:57:20Z</time>
      </trkpt>
      <trkpt lat="47.07596" lon="-0.70242">
        <ele>158.27</ele>
        <time>2012-08-28T13:57:23Z</time>
      </trkpt>
      <trkpt lat="47.07598" lon="-0.70243">
        <ele>158.27</ele>
        <time>2012-08-28T13:57:24Z</time>
      </trkpt>
      <trkpt lat="47.076" lon="-0.70244">
        <ele>158.27</ele>
        <time>2012-08-28T13:57:25Z</time>
      </trkpt>
      <trkpt lat="47.07603" lon="-0.70246">
        <ele>158.27</ele>
        <time>2012-08-28T13:57:26Z</time>
      </trkpt>
      <trkpt lat="47.07605" lon="-0.70248">
        <ele>158.27</ele>
        <time>2012-08-28T13:57:27Z</time>
      </trkpt>
      <trkpt lat="47.07638" lon="-0.70285">
        <ele>158.27</ele>
        <time>2012-08-28T13:57:37Z</time>
      </trkpt>
      <trkpt lat="47.07641" lon="-0.70289">
        <ele>158.27</ele>
        <time>2012-08-28T13:57:38Z</time>
      </trkpt>
      <trkpt lat="47.07645" lon="-0.70294">
        <ele>158.27</ele>
        <time>2012-08-28T13:57:39Z</time>
      </trkpt>
      <trkpt lat="47.07664" lon="-0.70317">
        <ele>159.24</ele>
        <time>2012-08-28T13:57:47Z</time>
      </trkpt>
      <trkpt lat="47.07675" lon="-0.70332">
        <ele>158.27</ele>
        <time>2012-08-28T13:58:00Z</time>
      </trkpt>
      <trkpt lat="47.07678" lon="-0.70337">
        <ele>158.27</ele>
        <time>2012-08-28T13:58:01Z</time>
      </trkpt>
      <trkpt lat="47.07682" lon="-0.70348">
        <ele>158.27</ele>
        <time>2012-08-28T13:58:03Z</time>
      </trkpt>
      <trkpt lat="47.07684" lon="-0.70354">
        <ele>158.27</ele>
        <time>2012-08-28T13:58:04Z</time>
      </trkpt>
      <trkpt lat="47.07694" lon="-0.70399">
        <ele>158.27</ele>
        <time>2012-08-28T13:58:11Z</time>
      </trkpt>
      <trkpt lat="47.07695" lon="-0.70406">
        <ele>158.27</ele>
        <time>2012-08-28T13:58:12Z</time>
      </trkpt>
      <trkpt lat="47.07696" lon="-0.70413">
        <ele>157.79</ele>
        <time>2012-08-28T13:58:13Z</time>
      </trkpt>
      <trkpt lat="47.07697" lon="-0.7042">
        <ele>158.27</ele>
        <time>2012-08-28T13:58:14Z</time>
      </trkpt>
      <trkpt lat="47.07698" lon="-0.70427">
        <ele>158.27</ele>
        <time>2012-08-28T13:58:15Z</time>
      </trkpt>
      <trkpt lat="47.07708" lon="-0.70476">
        <ele>158.27</ele>
        <time>2012-08-28T13:58:22Z</time>
      </trkpt>
      <trkpt lat="47.07709" lon="-0.70483">
        <ele>157.79</ele>
        <time>2012-08-28T13:58:23Z</time>
      </trkpt>
      <trkpt lat="47.0772" lon="-0.70536">
        <ele>157.79</ele>
        <time>2012-08-28T13:58:30Z</time>
      </trkpt>
      <trkpt lat="47.07721" lon="-0.70543">
        <ele>158.27</ele>
        <time>2012-08-28T13:58:31Z</time>
      </trkpt>
      <trkpt lat="47.07723" lon="-0.7055">
        <ele>158.27</ele>
        <time>2012-08-28T13:58:32Z</time>
      </trkpt>
      <trkpt lat="47.07724" lon="-0.70558">
        <ele>158.27</ele>
        <time>2012-08-28T13:58:33Z</time>
      </trkpt>
      <trkpt lat="47.07724" lon="-0.70565">
        <ele>157.79</ele>
        <time>2012-08-28T13:58:34Z</time>
      </trkpt>
      <trkpt lat="47.07725" lon="-0.70572">
        <ele>157.79</ele>
        <time>2012-08-28T13:58:35Z</time>
      </trkpt>
      <trkpt lat="47.07731" lon="-0.70602">
        <ele>157.79</ele>
        <time>2012-08-28T13:58:39Z</time>
      </trkpt>
      <trkpt lat="47.07732" lon="-0.7061">
        <ele>158.27</ele>
        <time>2012-08-28T13:58:40Z</time>
      </trkpt>
      <trkpt lat="47.07738" lon="-0.70637">
        <ele>158.27</ele>
        <time>2012-08-28T13:58:44Z</time>
      </trkpt>
      <trkpt lat="47.0774" lon="-0.70644">
        <ele>158.75</ele>
        <time>2012-08-28T13:58:45Z</time>
      </trkpt>
      <trkpt lat="47.07743" lon="-0.70659">
        <ele>158.75</ele>
        <time>2012-08-28T13:58:47Z</time>
      </trkpt>
      <trkpt lat="47.07753" lon="-0.70717">
        <ele>159.24</ele>
        <time>2012-08-28T13:58:55Z</time>
      </trkpt>
      <trkpt lat="47.07756" lon="-0.70732">
        <ele>159.24</ele>
        <time>2012-08-28T13:58:57Z</time>
      </trkpt>
      <trkpt lat="47.07758" lon="-0.70739">
        <ele>159.72</ele>
        <time>2012-08-28T13:58:58Z</time>
      </trkpt>
      <trkpt lat="47.07759" lon="-0.70747">
        <ele>159.72</ele>
        <time>2012-08-28T13:58:59Z</time>
      </trkpt>
      <trkpt lat="47.0776" lon="-0.70754">
        <ele>159.72</ele>
        <time>2012-08-28T13:59:00Z</time>
      </trkpt>
      <trkpt lat="47.07762" lon="-0.70761">
        <ele>159.24</ele>
        <time>2012-08-28T13:59:01Z</time>
      </trkpt>
      <trkpt lat="47.07764" lon="-0.70768">
        <ele>159.72</ele>
        <time>2012-08-28T13:59:02Z</time>
      </trkpt>
      <trkpt lat="47.07769" lon="-0.70801">
        <ele>160.2</ele>
        <time>2012-08-28T13:59:06Z</time>
      </trkpt>
      <trkpt lat="47.0777" lon="-0.70809">
        <ele>159.72</ele>
        <time>2012-08-28T13:59:07Z</time>
      </trkpt>
      <trkpt lat="47.07772" lon="-0.70816">
        <ele>159.72</ele>
        <time>2012-08-28T13:59:08Z</time>
      </trkpt>
      <trkpt lat="47.07785" lon="-0.70867">
        <ele>160.2</ele>
        <time>2012-08-28T13:59:15Z</time>
      </trkpt>
      <trkpt lat="47.07786" lon="-0.70874">
        <ele>160.68</ele>
        <time>2012-08-28T13:59:16Z</time>
      </trkpt>
      <trkpt lat="47.07788" lon="-0.7089">
        <ele>160.68</ele>
        <time>2012-08-28T13:59:18Z</time>
      </trkpt>
      <trkpt lat="47.07789" lon="-0.70897">
        <ele>160.68</ele>
        <time>2012-08-28T13:59:19Z</time>
      </trkpt>
      <trkpt lat="47.07793" lon="-0.7092">
        <ele>161.16</ele>
        <time>2012-08-28T13:59:22Z</time>
      </trkpt>
      <trkpt lat="47.07801" lon="-0.70958">
        <ele>161.16</ele>
        <time>2012-08-28T13:59:27Z</time>
      </trkpt>
      <trkpt lat="47.07801" lon="-0.70966">
        <ele>161.16</ele>
        <time>2012-08-28T13:59:28Z</time>
      </trkpt>
      <trkpt lat="47.07802" lon="-0.70974">
        <ele>161.16</ele>
        <time>2012-08-28T13:59:29Z</time>
      </trkpt>
      <trkpt lat="47.07812" lon="-0.71028">
        <ele>161.64</ele>
        <time>2012-08-28T13:59:36Z</time>
      </trkpt>
      <trkpt lat="47.0782" lon="-0.71075">
        <ele>162.6</ele>
        <time>2012-08-28T13:59:42Z</time>
      </trkpt>
      <trkpt lat="47.07828" lon="-0.7112">
        <ele>162.6</ele>
        <time>2012-08-28T13:59:48Z</time>
      </trkpt>
      <trkpt lat="47.07829" lon="-0.71128">
        <ele>162.6</ele>
        <time>2012-08-28T13:59:49Z</time>
      </trkpt>
      <trkpt lat="47.07831" lon="-0.71136">
        <ele>163.08</ele>
        <time>2012-08-28T13:59:50Z</time>
      </trkpt>
      <trkpt lat="47.07837" lon="-0.71165">
        <ele>163.08</ele>
        <time>2012-08-28T13:59:54Z</time>
      </trkpt>
      <trkpt lat="47.07847" lon="-0.71207">
        <ele>163.56</ele>
        <time>2012-08-28T14:00:00Z</time>
      </trkpt>
      <trkpt lat="47.07847" lon="-0.71215">
        <ele>164.04</ele>
        <time>2012-08-28T14:00:01Z</time>
      </trkpt>
      <trkpt lat="47.07849" lon="-0.71222">
        <ele>164.04</ele>
        <time>2012-08-28T14:00:02Z</time>
      </trkpt>
      <trkpt lat="47.0785" lon="-0.71229">
        <ele>164.04</ele>
        <time>2012-08-28T14:00:03Z</time>
      </trkpt>
      <trkpt lat="47.07851" lon="-0.71236">
        <ele>164.04</ele>
        <time>2012-08-28T14:00:04Z</time>
      </trkpt>
      <trkpt lat="47.07858" lon="-0.71283">
        <ele>165</ele>
        <time>2012-08-28T14:00:11Z</time>
      </trkpt>
      <trkpt lat="47.0786" lon="-0.71289">
        <ele>165</ele>
        <time>2012-08-28T14:00:12Z</time>
      </trkpt>
      <trkpt lat="47.0787" lon="-0.7135">
        <ele>166.45</ele>
        <time>2012-08-28T14:00:21Z</time>
      </trkpt>
      <trkpt lat="47.07871" lon="-0.71356">
        <ele>166.45</ele>
        <time>2012-08-28T14:00:22Z</time>
      </trkpt>
      <trkpt lat="47.07874" lon="-0.71374">
        <ele>166.93</ele>
        <time>2012-08-28T14:00:25Z</time>
      </trkpt>
      <trkpt lat="47.07877" lon="-0.71414">
        <ele>167.41</ele>
        <time>2012-08-28T14:00:31Z</time>
      </trkpt>
      <trkpt lat="47.07878" lon="-0.71428">
        <ele>167.89</ele>
        <time>2012-08-28T14:00:33Z</time>
      </trkpt>
      <trkpt lat="47.07878" lon="-0.71435">
        <ele>167.41</ele>
        <time>2012-08-28T14:00:34Z</time>
      </trkpt>
      <trkpt lat="47.07882" lon="-0.71471">
        <ele>167.41</ele>
        <time>2012-08-28T14:00:39Z</time>
      </trkpt>
      <trkpt lat="47.07883" lon="-0.71484">
        <ele>167.89</ele>
        <time>2012-08-28T14:00:41Z</time>
      </trkpt>
      <trkpt lat="47.07883" lon="-0.71491">
        <ele>167.41</ele>
        <time>2012-08-28T14:00:42Z</time>
      </trkpt>
      <trkpt lat="47.07884" lon="-0.71513">
        <ele>167.89</ele>
        <time>2012-08-28T14:00:45Z</time>
      </trkpt>
      <trkpt lat="47.07889" lon="-0.71561">
        <ele>168.37</ele>
        <time>2012-08-28T14:00:52Z</time>
      </trkpt>
      <trkpt lat="47.07889" lon="-0.71568">
        <ele>168.85</ele>
        <time>2012-08-28T14:00:53Z</time>
      </trkpt>
      <trkpt lat="47.07889" lon="-0.71575">
        <ele>168.37</ele>
        <time>2012-08-28T14:00:54Z</time>
      </trkpt>
      <trkpt lat="47.0789" lon="-0.71588">
        <ele>168.85</ele>
        <time>2012-08-28T14:00:56Z</time>
      </trkpt>
      <trkpt lat="47.07895" lon="-0.71614">
        <ele>168.85</ele>
        <time>2012-08-28T14:01:00Z</time>
      </trkpt>
      <trkpt lat="47.07896" lon="-0.71621">
        <ele>169.33</ele>
        <time>2012-08-28T14:01:01Z</time>
      </trkpt>
      <trkpt lat="47.07897" lon="-0.71627">
        <ele>168.85</ele>
        <time>2012-08-28T14:01:02Z</time>
      </trkpt>
      <trkpt lat="47.07899" lon="-0.71634">
        <ele>169.33</ele>
        <time>2012-08-28T14:01:03Z</time>
      </trkpt>
      <trkpt lat="47.079" lon="-0.7164">
        <ele>168.85</ele>
        <time>2012-08-28T14:01:04Z</time>
      </trkpt>
      <trkpt lat="47.079" lon="-0.71646">
        <ele>169.33</ele>
        <time>2012-08-28T14:01:05Z</time>
      </trkpt>
      <trkpt lat="47.07901" lon="-0.71652">
        <ele>169.81</ele>
        <time>2012-08-28T14:01:06Z</time>
      </trkpt>
      <trkpt lat="47.07902" lon="-0.71659">
        <ele>169.81</ele>
        <time>2012-08-28T14:01:07Z</time>
      </trkpt>
      <trkpt lat="47.07903" lon="-0.71666">
        <ele>169.33</ele>
        <time>2012-08-28T14:01:08Z</time>
      </trkpt>
      <trkpt lat="47.07903" lon="-0.71673">
        <ele>169.81</ele>
        <time>2012-08-28T14:01:09Z</time>
      </trkpt>
      <trkpt lat="47.07904" lon="-0.71681">
        <ele>169.33</ele>
        <time>2012-08-28T14:01:10Z</time>
      </trkpt>
      <trkpt lat="47.0791" lon="-0.71745">
        <ele>170.29</ele>
        <time>2012-08-28T14:01:19Z</time>
      </trkpt>
      <trkpt lat="47.07911" lon="-0.71751">
        <ele>170.29</ele>
        <time>2012-08-28T14:01:20Z</time>
      </trkpt>
      <trkpt lat="47.07911" lon="-0.71756">
        <ele>170.77</ele>
        <time>2012-08-28T14:01:21Z</time>
      </trkpt>
      <trkpt lat="47.07912" lon="-0.71762">
        <ele>170.77</ele>
        <time>2012-08-28T14:01:22Z</time>
      </trkpt>
      <trkpt lat="47.07912" lon="-0.71767">
        <ele>170.77</ele>
        <time>2012-08-28T14:01:23Z</time>
      </trkpt>
      <trkpt lat="47.07912" lon="-0.71773">
        <ele>170.77</ele>
        <time>2012-08-28T14:01:24Z</time>
      </trkpt>
      <trkpt lat="47.07912" lon="-0.71779">
        <ele>170.77</ele>
        <time>2012-08-28T14:01:25Z</time>
      </trkpt>
      <trkpt lat="47.07912" lon="-0.71785">
        <ele>170.77</ele>
        <time>2012-08-28T14:01:26Z</time>
      </trkpt>
      <trkpt lat="47.07919" lon="-0.7185">
        <ele>171.73</ele>
        <time>2012-08-28T14:01:36Z</time>
      </trkpt>
      <trkpt lat="47.07925" lon="-0.71924">
        <ele>172.69</ele>
        <time>2012-08-28T14:01:47Z</time>
      </trkpt>
      <trkpt lat="47.07927" lon="-0.71945">
        <ele>172.21</ele>
        <time>2012-08-28T14:01:50Z</time>
      </trkpt>
      <trkpt lat="47.07927" lon="-0.71952">
        <ele>172.69</ele>
        <time>2012-08-28T14:01:51Z</time>
      </trkpt>
      <trkpt lat="47.07928" lon="-0.71959">
        <ele>173.17</ele>
        <time>2012-08-28T14:01:52Z</time>
      </trkpt>
      <trkpt lat="47.07932" lon="-0.72002">
        <ele>173.17</ele>
        <time>2012-08-28T14:01:58Z</time>
      </trkpt>
      <trkpt lat="47.07932" lon="-0.72009">
        <ele>173.17</ele>
        <time>2012-08-28T14:01:59Z</time>
      </trkpt>
      <trkpt lat="47.07932" lon="-0.72016">
        <ele>173.17</ele>
        <time>2012-08-28T14:02:00Z</time>
      </trkpt>
      <trkpt lat="47.07934" lon="-0.7203">
        <ele>173.66</ele>
        <time>2012-08-28T14:02:02Z</time>
      </trkpt>
      <trkpt lat="47.07935" lon="-0.72037">
        <ele>173.17</ele>
        <time>2012-08-28T14:02:03Z</time>
      </trkpt>
      <trkpt lat="47.07937" lon="-0.72058">
        <ele>174.14</ele>
        <time>2012-08-28T14:02:06Z</time>
      </trkpt>
      <trkpt lat="47.07938" lon="-0.72064">
        <ele>173.66</ele>
        <time>2012-08-28T14:02:07Z</time>
      </trkpt>
      <trkpt lat="47.07938" lon="-0.7207">
        <ele>173.66</ele>
        <time>2012-08-28T14:02:08Z</time>
      </trkpt>
      <trkpt lat="47.0794" lon="-0.72122">
        <ele>174.62</ele>
        <time>2012-08-28T14:02:17Z</time>
      </trkpt>
      <trkpt lat="47.07947" lon="-0.72157">
        <ele>175.1</ele>
        <time>2012-08-28T14:02:27Z</time>
      </trkpt>
      <trkpt lat="47.07948" lon="-0.72159">
        <ele>175.1</ele>
        <time>2012-08-28T14:02:28Z</time>
      </trkpt>
      <trkpt lat="47.0795" lon="-0.72161">
        <ele>175.1</ele>
        <time>2012-08-28T14:02:29Z</time>
      </trkpt>
      <trkpt lat="47.07951" lon="-0.72163">
        <ele>175.58</ele>
        <time>2012-08-28T14:02:30Z</time>
      </trkpt>
      <trkpt lat="47.07951" lon="-0.72166">
        <ele>175.1</ele>
        <time>2012-08-28T14:02:31Z</time>
      </trkpt>
      <trkpt lat="47.07952" lon="-0.72169">
        <ele>175.1</ele>
        <time>2012-08-28T14:02:32Z</time>
      </trkpt>
      <trkpt lat="47.07954" lon="-0.72173">
        <ele>175.1</ele>
        <time>2012-08-28T14:02:33Z</time>
      </trkpt>
      <trkpt lat="47.07955" lon="-0.72177">
        <ele>175.1</ele>
        <time>2012-08-28T14:02:34Z</time>
      </trkpt>
      <trkpt lat="47.07957" lon="-0.72181">
        <ele>175.58</ele>
        <time>2012-08-28T14:02:35Z</time>
      </trkpt>
      <trkpt lat="47.07959" lon="-0.72185">
        <ele>175.58</ele>
        <time>2012-08-28T14:02:36Z</time>
      </trkpt>
      <trkpt lat="47.07961" lon="-0.72189">
        <ele>175.58</ele>
        <time>2012-08-28T14:02:37Z</time>
      </trkpt>
      <trkpt lat="47.07964" lon="-0.72193">
        <ele>175.1</ele>
        <time>2012-08-28T14:02:38Z</time>
      </trkpt>
      <trkpt lat="47.07979" lon="-0.72221">
        <ele>175.1</ele>
        <time>2012-08-28T14:02:46Z</time>
      </trkpt>
      <trkpt lat="47.07982" lon="-0.72226">
        <ele>175.1</ele>
        <time>2012-08-28T14:02:47Z</time>
      </trkpt>
      <trkpt lat="47.07989" lon="-0.72241">
        <ele>175.1</ele>
        <time>2012-08-28T14:02:50Z</time>
      </trkpt>
      <trkpt lat="47.07998" lon="-0.72258">
        <ele>175.1</ele>
        <time>2012-08-28T14:02:53Z</time>
      </trkpt>
      <trkpt lat="47.08001" lon="-0.72264">
        <ele>175.1</ele>
        <time>2012-08-28T14:02:54Z</time>
      </trkpt>
      <trkpt lat="47.08004" lon="-0.72269">
        <ele>175.1</ele>
        <time>2012-08-28T14:02:55Z</time>
      </trkpt>
      <trkpt lat="47.08031" lon="-0.72302">
        <ele>175.58</ele>
        <time>2012-08-28T14:03:03Z</time>
      </trkpt>
      <trkpt lat="47.08034" lon="-0.72306">
        <ele>175.58</ele>
        <time>2012-08-28T14:03:04Z</time>
      </trkpt>
      <trkpt lat="47.08037" lon="-0.72309">
        <ele>175.58</ele>
        <time>2012-08-28T14:03:05Z</time>
      </trkpt>
      <trkpt lat="47.08066" lon="-0.72356">
        <ele>175.1</ele>
        <time>2012-08-28T14:03:15Z</time>
      </trkpt>
      <trkpt lat="47.08084" lon="-0.72385">
        <ele>175.1</ele>
        <time>2012-08-28T14:03:21Z</time>
      </trkpt>
      <trkpt lat="47.08087" lon="-0.7239">
        <ele>175.1</ele>
        <time>2012-08-28T14:03:22Z</time>
      </trkpt>
      <trkpt lat="47.0809" lon="-0.72395">
        <ele>175.1</ele>
        <time>2012-08-28T14:03:23Z</time>
      </trkpt>
      <trkpt lat="47.08093" lon="-0.72401">
        <ele>175.1</ele>
        <time>2012-08-28T14:03:24Z</time>
      </trkpt>
      <trkpt lat="47.08096" lon="-0.72407">
        <ele>175.1</ele>
        <time>2012-08-28T14:03:25Z</time>
      </trkpt>
      <trkpt lat="47.08107" lon="-0.72435">
        <ele>175.58</ele>
        <time>2012-08-28T14:03:30Z</time>
      </trkpt>
      <trkpt lat="47.08155" lon="-0.725">
        <ele>176.06</ele>
        <time>2012-08-28T14:03:41Z</time>
      </trkpt>
      <trkpt lat="47.08184" lon="-0.72549">
        <ele>176.54</ele>
        <time>2012-08-28T14:03:49Z</time>
      </trkpt>
      <trkpt lat="47.08186" lon="-0.72556">
        <ele>177.02</ele>
        <time>2012-08-28T14:03:50Z</time>
      </trkpt>
      <trkpt lat="47.0819" lon="-0.72562">
        <ele>177.02</ele>
        <time>2012-08-28T14:03:51Z</time>
      </trkpt>
      <trkpt lat="47.08209" lon="-0.72603">
        <ele>177.98</ele>
        <time>2012-08-28T14:03:59Z</time>
      </trkpt>
      <trkpt lat="47.08211" lon="-0.72609">
        <ele>177.98</ele>
        <time>2012-08-28T14:04:00Z</time>
      </trkpt>
      <trkpt lat="47.08213" lon="-0.72614">
        <ele>178.46</ele>
        <time>2012-08-28T14:04:01Z</time>
      </trkpt>
      <trkpt lat="47.08216" lon="-0.72619">
        <ele>178.46</ele>
        <time>2012-08-28T14:04:02Z</time>
      </trkpt>
      <trkpt lat="47.08218" lon="-0.72623">
        <ele>178.46</ele>
        <time>2012-08-28T14:04:03Z</time>
      </trkpt>
      <trkpt lat="47.08228" lon="-0.7264">
        <ele>178.94</ele>
        <time>2012-08-28T14:04:06Z</time>
      </trkpt>
      <trkpt lat="47.08231" lon="-0.72645">
        <ele>178.94</ele>
        <time>2012-08-28T14:04:07Z</time>
      </trkpt>
      <trkpt lat="47.08234" lon="-0.7265">
        <ele>178.94</ele>
        <time>2012-08-28T14:04:08Z</time>
      </trkpt>
      <trkpt lat="47.08237" lon="-0.72656">
        <ele>178.94</ele>
        <time>2012-08-28T14:04:09Z</time>
      </trkpt>
      <trkpt lat="47.08239" lon="-0.72661">
        <ele>178.94</ele>
        <time>2012-08-28T14:04:10Z</time>
      </trkpt>
      <trkpt lat="47.08242" lon="-0.72665">
        <ele>178.94</ele>
        <time>2012-08-28T14:04:11Z</time>
      </trkpt>
      <trkpt lat="47.0827" lon="-0.7271">
        <ele>179.9</ele>
        <time>2012-08-28T14:04:21Z</time>
      </trkpt>
      <trkpt lat="47.08297" lon="-0.72753">
        <ele>181.83</ele>
        <time>2012-08-28T14:04:31Z</time>
      </trkpt>
      <trkpt lat="47.08326" lon="-0.72803">
        <ele>183.27</ele>
        <time>2012-08-28T14:04:42Z</time>
      </trkpt>
      <trkpt lat="47.08358" lon="-0.72843">
        <ele>183.75</ele>
        <time>2012-08-28T14:04:52Z</time>
      </trkpt>
      <trkpt lat="47.08374" lon="-0.72871">
        <ele>185.19</ele>
        <time>2012-08-28T14:05:03Z</time>
      </trkpt>
      <trkpt lat="47.08378" lon="-0.72881">
        <ele>184.71</ele>
        <time>2012-08-28T14:05:07Z</time>
      </trkpt>
      <trkpt lat="47.08409" lon="-0.72934">
        <ele>185.19</ele>
        <time>2012-08-28T14:05:19Z</time>
      </trkpt>
      <trkpt lat="47.08429" lon="-0.72984">
        <ele>185.67</ele>
        <time>2012-08-28T14:05:28Z</time>
      </trkpt>
      <trkpt lat="47.0843" lon="-0.7299">
        <ele>185.67</ele>
        <time>2012-08-28T14:05:29Z</time>
      </trkpt>
      <trkpt lat="47.0843" lon="-0.72998">
        <ele>185.67</ele>
        <time>2012-08-28T14:05:30Z</time>
      </trkpt>
      <trkpt lat="47.08429" lon="-0.73006">
        <ele>185.19</ele>
        <time>2012-08-28T14:05:31Z</time>
      </trkpt>
      <trkpt lat="47.08434" lon="-0.73055">
        <ele>184.71</ele>
        <time>2012-08-28T14:05:38Z</time>
      </trkpt>
      <trkpt lat="47.08435" lon="-0.73089">
        <ele>184.23</ele>
        <time>2012-08-28T14:05:43Z</time>
      </trkpt>
      <trkpt lat="47.08435" lon="-0.73096">
        <ele>184.23</ele>
        <time>2012-08-28T14:05:44Z</time>
      </trkpt>
      <trkpt lat="47.08434" lon="-0.73101">
        <ele>183.75</ele>
        <time>2012-08-28T14:05:45Z</time>
      </trkpt>
      <trkpt lat="47.08433" lon="-0.73107">
        <ele>183.75</ele>
        <time>2012-08-28T14:05:46Z</time>
      </trkpt>
      <trkpt lat="47.08434" lon="-0.73112">
        <ele>183.75</ele>
        <time>2012-08-28T14:05:47Z</time>
      </trkpt>
      <trkpt lat="47.08435" lon="-0.73117">
        <ele>183.75</ele>
        <time>2012-08-28T14:05:48Z</time>
      </trkpt>
      <trkpt lat="47.08436" lon="-0.73122">
        <ele>183.75</ele>
        <time>2012-08-28T14:05:49Z</time>
      </trkpt>
      <trkpt lat="47.08438" lon="-0.73124">
        <ele>183.75</ele>
        <time>2012-08-28T14:05:50Z</time>
      </trkpt>
      <trkpt lat="47.08441" lon="-0.73125">
        <ele>184.71</ele>
        <time>2012-08-28T14:05:51Z</time>
      </trkpt>
      <trkpt lat="47.08443" lon="-0.73126">
        <ele>184.23</ele>
        <time>2012-08-28T14:05:52Z</time>
      </trkpt>
      <trkpt lat="47.08479" lon="-0.73147">
        <ele>184.71</ele>
        <time>2012-08-28T14:06:02Z</time>
      </trkpt>
      <trkpt lat="47.08523" lon="-0.73161">
        <ele>186.15</ele>
        <time>2012-08-28T14:06:12Z</time>
      </trkpt>
      <trkpt lat="47.08573" lon="-0.73174">
        <ele>188.08</ele>
        <time>2012-08-28T14:06:24Z</time>
      </trkpt>
      <trkpt lat="47.08577" lon="-0.73174">
        <ele>187.59</ele>
        <time>2012-08-28T14:06:25Z</time>
      </trkpt>
      <trkpt lat="47.08582" lon="-0.73175">
        <ele>188.08</ele>
        <time>2012-08-28T14:06:26Z</time>
      </trkpt>
      <trkpt lat="47.08586" lon="-0.73176">
        <ele>188.08</ele>
        <time>2012-08-28T14:06:27Z</time>
      </trkpt>
      <trkpt lat="47.0859" lon="-0.73178">
        <ele>188.56</ele>
        <time>2012-08-28T14:06:28Z</time>
      </trkpt>
      <trkpt lat="47.08594" lon="-0.7318">
        <ele>188.56</ele>
        <time>2012-08-28T14:06:29Z</time>
      </trkpt>
      <trkpt lat="47.08611" lon="-0.73187">
        <ele>189.04</ele>
        <time>2012-08-28T14:06:33Z</time>
      </trkpt>
      <trkpt lat="47.08615" lon="-0.73187">
        <ele>188.56</ele>
        <time>2012-08-28T14:06:34Z</time>
      </trkpt>
      <trkpt lat="47.08654" lon="-0.73196">
        <ele>189.52</ele>
        <time>2012-08-28T14:06:44Z</time>
      </trkpt>
      <trkpt lat="47.08697" lon="-0.73202">
        <ele>189.52</ele>
        <time>2012-08-28T14:06:54Z</time>
      </trkpt>
      <trkpt lat="47.08708" lon="-0.73202">
        <ele>189.04</ele>
        <time>2012-08-28T14:06:56Z</time>
      </trkpt>
      <trkpt lat="47.08714" lon="-0.73204">
        <ele>189.52</ele>
        <time>2012-08-28T14:06:57Z</time>
      </trkpt>
      <trkpt lat="47.0872" lon="-0.73204">
        <ele>189.52</ele>
        <time>2012-08-28T14:06:58Z</time>
      </trkpt>
      <trkpt lat="47.08725" lon="-0.73205">
        <ele>189.52</ele>
        <time>2012-08-28T14:06:59Z</time>
      </trkpt>
      <trkpt lat="47.0873" lon="-0.73207">
        <ele>189.52</ele>
        <time>2012-08-28T14:07:00Z</time>
      </trkpt>
      <trkpt lat="47.08735" lon="-0.73208">
        <ele>189.52</ele>
        <time>2012-08-28T14:07:01Z</time>
      </trkpt>
      <trkpt lat="47.0874" lon="-0.73209">
        <ele>190</ele>
        <time>2012-08-28T14:07:02Z</time>
      </trkpt>
      <trkpt lat="47.0877" lon="-0.73218">
        <ele>189.04</ele>
        <time>2012-08-28T14:07:09Z</time>
      </trkpt>
      <trkpt lat="47.08774" lon="-0.73219">
        <ele>189.52</ele>
        <time>2012-08-28T14:07:10Z</time>
      </trkpt>
      <trkpt lat="47.08791" lon="-0.7322">
        <ele>189.52</ele>
        <time>2012-08-28T14:07:15Z</time>
      </trkpt>
      <trkpt lat="47.0881" lon="-0.732">
        <ele>190</ele>
        <time>2012-08-28T14:07:21Z</time>
      </trkpt>
      <trkpt lat="47.08815" lon="-0.73197">
        <ele>190</ele>
        <time>2012-08-28T14:07:22Z</time>
      </trkpt>
      <trkpt lat="47.08819" lon="-0.73193">
        <ele>190</ele>
        <time>2012-08-28T14:07:23Z</time>
      </trkpt>
      <trkpt lat="47.08822" lon="-0.73188">
        <ele>190</ele>
        <time>2012-08-28T14:07:24Z</time>
      </trkpt>
      <trkpt lat="47.08826" lon="-0.73183">
        <ele>190</ele>
        <time>2012-08-28T14:07:25Z</time>
      </trkpt>
      <trkpt lat="47.08841" lon="-0.73166">
        <ele>190</ele>
        <time>2012-08-28T14:07:29Z</time>
      </trkpt>
      <trkpt lat="47.08896" lon="-0.73151">
        <ele>188.08</ele>
        <time>2012-08-28T14:07:40Z</time>
      </trkpt>
      <trkpt lat="47.08957" lon="-0.73139">
        <ele>187.11</ele>
        <time>2012-08-28T14:07:51Z</time>
      </trkpt>
      <trkpt lat="47.08974" lon="-0.73137">
        <ele>186.63</ele>
        <time>2012-08-28T14:07:54Z</time>
      </trkpt>
      <trkpt lat="47.09043" lon="-0.73126">
        <ele>184.71</ele>
        <time>2012-08-28T14:08:06Z</time>
      </trkpt>
      <trkpt lat="47.09061" lon="-0.73126">
        <ele>184.71</ele>
        <time>2012-08-28T14:08:09Z</time>
      </trkpt>
      <trkpt lat="47.09079" lon="-0.73123">
        <ele>183.75</ele>
        <time>2012-08-28T14:08:12Z</time>
      </trkpt>
      <trkpt lat="47.09095" lon="-0.73121">
        <ele>183.75</ele>
        <time>2012-08-28T14:08:15Z</time>
      </trkpt>
      <trkpt lat="47.091" lon="-0.73121">
        <ele>183.75</ele>
        <time>2012-08-28T14:08:16Z</time>
      </trkpt>
      <trkpt lat="47.09105" lon="-0.7312">
        <ele>183.75</ele>
        <time>2012-08-28T14:08:17Z</time>
      </trkpt>
      <trkpt lat="47.09158" lon="-0.73118">
        <ele>181.83</ele>
        <time>2012-08-28T14:08:27Z</time>
      </trkpt>
      <trkpt lat="47.0917" lon="-0.73118">
        <ele>181.83</ele>
        <time>2012-08-28T14:08:30Z</time>
      </trkpt>
      <trkpt lat="47.09173" lon="-0.7312">
        <ele>182.31</ele>
        <time>2012-08-28T14:08:31Z</time>
      </trkpt>
      <trkpt lat="47.09175" lon="-0.73122">
        <ele>182.31</ele>
        <time>2012-08-28T14:08:32Z</time>
      </trkpt>
      <trkpt lat="47.09177" lon="-0.73124">
        <ele>182.31</ele>
        <time>2012-08-28T14:08:33Z</time>
      </trkpt>
      <trkpt lat="47.09178" lon="-0.73127">
        <ele>182.31</ele>
        <time>2012-08-28T14:08:34Z</time>
      </trkpt>
      <trkpt lat="47.09179" lon="-0.73132">
        <ele>182.31</ele>
        <time>2012-08-28T14:08:35Z</time>
      </trkpt>
      <trkpt lat="47.09179" lon="-0.73137">
        <ele>182.79</ele>
        <time>2012-08-28T14:08:36Z</time>
      </trkpt>
      <trkpt lat="47.09178" lon="-0.73143">
        <ele>182.31</ele>
        <time>2012-08-28T14:08:37Z</time>
      </trkpt>
      <trkpt lat="47.09165" lon="-0.73244">
        <ele>182.79</ele>
        <time>2012-08-28T14:08:53Z</time>
      </trkpt>
      <trkpt lat="47.09164" lon="-0.73251">
        <ele>183.27</ele>
        <time>2012-08-28T14:08:54Z</time>
      </trkpt>
      <trkpt lat="47.09164" lon="-0.73258">
        <ele>183.27</ele>
        <time>2012-08-28T14:08:55Z</time>
      </trkpt>
      <trkpt lat="47.0918" lon="-0.73346">
        <ele>184.23</ele>
        <time>2012-08-28T14:09:08Z</time>
      </trkpt>
      <trkpt lat="47.09185" lon="-0.73408">
        <ele>184.23</ele>
        <time>2012-08-28T14:09:17Z</time>
      </trkpt>
      <trkpt lat="47.09186" lon="-0.73415">
        <ele>184.23</ele>
        <time>2012-08-28T14:09:18Z</time>
      </trkpt>
      <trkpt lat="47.0919" lon="-0.73428">
        <ele>184.23</ele>
        <time>2012-08-28T14:09:20Z</time>
      </trkpt>
      <trkpt lat="47.09204" lon="-0.73469">
        <ele>185.19</ele>
        <time>2012-08-28T14:09:27Z</time>
      </trkpt>
      <trkpt lat="47.09214" lon="-0.73488">
        <ele>185.19</ele>
        <time>2012-08-28T14:09:30Z</time>
      </trkpt>
      <trkpt lat="47.09224" lon="-0.73508">
        <ele>185.19</ele>
        <time>2012-08-28T14:09:34Z</time>
      </trkpt>
      <trkpt lat="47.09224" lon="-0.73514">
        <ele>185.19</ele>
        <time>2012-08-28T14:09:35Z</time>
      </trkpt>
      <trkpt lat="47.09222" lon="-0.7352">
        <ele>185.19</ele>
        <time>2012-08-28T14:09:36Z</time>
      </trkpt>
      <trkpt lat="47.09197" lon="-0.73557">
        <ele>185.19</ele>
        <time>2012-08-28T14:09:46Z</time>
      </trkpt>
      <trkpt lat="47.09174" lon="-0.73594">
        <ele>185.67</ele>
        <time>2012-08-28T14:09:56Z</time>
      </trkpt>
      <trkpt lat="47.09159" lon="-0.73618">
        <ele>185.67</ele>
        <time>2012-08-28T14:10:04Z</time>
      </trkpt>
      <trkpt lat="47.09157" lon="-0.7362">
        <ele>186.15</ele>
        <time>2012-08-28T14:10:05Z</time>
      </trkpt>
      <trkpt lat="47.09156" lon="-0.73623">
        <ele>185.67</ele>
        <time>2012-08-28T14:10:06Z</time>
      </trkpt>
      <trkpt lat="47.09155" lon="-0.73625">
        <ele>185.67</ele>
        <time>2012-08-28T14:10:07Z</time>
      </trkpt>
      <trkpt lat="47.09155" lon="-0.73629">
        <ele>186.15</ele>
        <time>2012-08-28T14:10:08Z</time>
      </trkpt>
      <trkpt lat="47.09154" lon="-0.73633">
        <ele>186.63</ele>
        <time>2012-08-28T14:10:09Z</time>
      </trkpt>
      <trkpt lat="47.09153" lon="-0.73638">
        <ele>186.15</ele>
        <time>2012-08-28T14:10:10Z</time>
      </trkpt>
      <trkpt lat="47.09151" lon="-0.73642">
        <ele>186.15</ele>
        <time>2012-08-28T14:10:11Z</time>
      </trkpt>
      <trkpt lat="47.09149" lon="-0.73646">
        <ele>186.15</ele>
        <time>2012-08-28T14:10:12Z</time>
      </trkpt>
      <trkpt lat="47.09127" lon="-0.73694">
        <ele>186.63</ele>
        <time>2012-08-28T14:10:21Z</time>
      </trkpt>
      <trkpt lat="47.09126" lon="-0.73699">
        <ele>186.15</ele>
        <time>2012-08-28T14:10:22Z</time>
      </trkpt>
      <trkpt lat="47.09101" lon="-0.73772">
        <ele>186.63</ele>
        <time>2012-08-28T14:10:34Z</time>
      </trkpt>
      <trkpt lat="47.0908" lon="-0.73818">
        <ele>186.63</ele>
        <time>2012-08-28T14:10:43Z</time>
      </trkpt>
      <trkpt lat="47.09048" lon="-0.73855">
        <ele>186.15</ele>
        <time>2012-08-28T14:10:50Z</time>
      </trkpt>
      <trkpt lat="47.09044" lon="-0.73858">
        <ele>186.63</ele>
        <time>2012-08-28T14:10:51Z</time>
      </trkpt>
      <trkpt lat="47.09033" lon="-0.73862">
        <ele>186.15</ele>
        <time>2012-08-28T14:10:53Z</time>
      </trkpt>
      <trkpt lat="47.09029" lon="-0.73863">
        <ele>186.15</ele>
        <time>2012-08-28T14:10:54Z</time>
      </trkpt>
      <trkpt lat="47.09024" lon="-0.73865">
        <ele>186.15</ele>
        <time>2012-08-28T14:10:55Z</time>
      </trkpt>
      <trkpt lat="47.09" lon="-0.73876">
        <ele>186.15</ele>
        <time>2012-08-28T14:11:00Z</time>
      </trkpt>
      <trkpt lat="47.08987" lon="-0.73879">
        <ele>185.67</ele>
        <time>2012-08-28T14:11:03Z</time>
      </trkpt>
      <trkpt lat="47.08983" lon="-0.7388">
        <ele>186.15</ele>
        <time>2012-08-28T14:11:04Z</time>
      </trkpt>
      <trkpt lat="47.08978" lon="-0.73881">
        <ele>186.15</ele>
        <time>2012-08-28T14:11:05Z</time>
      </trkpt>
      <trkpt lat="47.08967" lon="-0.73886">
        <ele>186.15</ele>
        <time>2012-08-28T14:11:07Z</time>
      </trkpt>
      <trkpt lat="47.08961" lon="-0.7389">
        <ele>186.15</ele>
        <time>2012-08-28T14:11:08Z</time>
      </trkpt>
      <trkpt lat="47.08914" lon="-0.73911">
        <ele>186.63</ele>
        <time>2012-08-28T14:11:19Z</time>
      </trkpt>
      <trkpt lat="47.08873" lon="-0.73928">
        <ele>185.67</ele>
        <time>2012-08-28T14:11:29Z</time>
      </trkpt>
      <trkpt lat="47.08854" lon="-0.7394">
        <ele>183.27</ele>
        <time>2012-08-28T14:11:35Z</time>
      </trkpt>
      <trkpt lat="47.0885" lon="-0.73942">
        <ele>183.27</ele>
        <time>2012-08-28T14:11:36Z</time>
      </trkpt>
      <trkpt lat="47.08847" lon="-0.73945">
        <ele>183.27</ele>
        <time>2012-08-28T14:11:37Z</time>
      </trkpt>
      <trkpt lat="47.08844" lon="-0.73947">
        <ele>182.79</ele>
        <time>2012-08-28T14:11:38Z</time>
      </trkpt>
      <trkpt lat="47.08841" lon="-0.7395">
        <ele>182.31</ele>
        <time>2012-08-28T14:11:39Z</time>
      </trkpt>
      <trkpt lat="47.08804" lon="-0.73963">
        <ele>180.87</ele>
        <time>2012-08-28T14:11:49Z</time>
      </trkpt>
      <trkpt lat="47.08796" lon="-0.73965">
        <ele>180.38</ele>
        <time>2012-08-28T14:11:51Z</time>
      </trkpt>
      <trkpt lat="47.08794" lon="-0.73965">
        <ele>179.9</ele>
        <time>2012-08-28T14:11:52Z</time>
      </trkpt>
      <trkpt lat="47.08721" lon="-0.7397">
        <ele>178.94</ele>
        <time>2012-08-28T14:12:02Z</time>
      </trkpt>
      <trkpt lat="47.0867" lon="-0.73974">
        <ele>177.5</ele>
        <time>2012-08-28T14:12:12Z</time>
      </trkpt>
      <trkpt lat="47.08612" lon="-0.7398">
        <ele>177.5</ele>
        <time>2012-08-28T14:12:22Z</time>
      </trkpt>
      <trkpt lat="47.08579" lon="-0.73981">
        <ele>177.5</ele>
        <time>2012-08-28T14:12:27Z</time>
      </trkpt>
      <trkpt lat="47.08572" lon="-0.73982">
        <ele>177.5</ele>
        <time>2012-08-28T14:12:28Z</time>
      </trkpt>
      <trkpt lat="47.08567" lon="-0.73982">
        <ele>177.98</ele>
        <time>2012-08-28T14:12:29Z</time>
      </trkpt>
      <trkpt lat="47.08563" lon="-0.73982">
        <ele>177.98</ele>
        <time>2012-08-28T14:12:30Z</time>
      </trkpt>
      <trkpt lat="47.08558" lon="-0.73983">
        <ele>177.5</ele>
        <time>2012-08-28T14:12:31Z</time>
      </trkpt>
      <trkpt lat="47.08553" lon="-0.73984">
        <ele>177.5</ele>
        <time>2012-08-28T14:12:32Z</time>
      </trkpt>
      <trkpt lat="47.08527" lon="-0.73983">
        <ele>178.46</ele>
        <time>2012-08-28T14:12:37Z</time>
      </trkpt>
      <trkpt lat="47.08522" lon="-0.73983">
        <ele>178.46</ele>
        <time>2012-08-28T14:12:38Z</time>
      </trkpt>
      <trkpt lat="47.08516" lon="-0.73985">
        <ele>178.94</ele>
        <time>2012-08-28T14:12:39Z</time>
      </trkpt>
      <trkpt lat="47.08511" lon="-0.73985">
        <ele>178.46</ele>
        <time>2012-08-28T14:12:40Z</time>
      </trkpt>
      <trkpt lat="47.08507" lon="-0.73984">
        <ele>178.46</ele>
        <time>2012-08-28T14:12:41Z</time>
      </trkpt>
      <trkpt lat="47.08502" lon="-0.73985">
        <ele>178.94</ele>
        <time>2012-08-28T14:12:42Z</time>
      </trkpt>
      <trkpt lat="47.08497" lon="-0.73986">
        <ele>178.94</ele>
        <time>2012-08-28T14:12:43Z</time>
      </trkpt>
      <trkpt lat="47.08492" lon="-0.73987">
        <ele>178.94</ele>
        <time>2012-08-28T14:12:44Z</time>
      </trkpt>
      <trkpt lat="47.08486" lon="-0.73988">
        <ele>179.42</ele>
        <time>2012-08-28T14:12:45Z</time>
      </trkpt>
      <trkpt lat="47.08479" lon="-0.73989">
        <ele>179.42</ele>
        <time>2012-08-28T14:12:46Z</time>
      </trkpt>
      <trkpt lat="47.08462" lon="-0.73993">
        <ele>179.9</ele>
        <time>2012-08-28T14:12:49Z</time>
      </trkpt>
      <trkpt lat="47.08456" lon="-0.73997">
        <ele>179.9</ele>
        <time>2012-08-28T14:12:50Z</time>
      </trkpt>
      <trkpt lat="47.08453" lon="-0.74002">
        <ele>179.9</ele>
        <time>2012-08-28T14:12:51Z</time>
      </trkpt>
      <trkpt lat="47.08453" lon="-0.74004">
        <ele>179.9</ele>
        <time>2012-08-28T14:12:52Z</time>
      </trkpt>
      <trkpt lat="47.08452" lon="-0.74007">
        <ele>179.9</ele>
        <time>2012-08-28T14:12:53Z</time>
      </trkpt>
      <trkpt lat="47.08454" lon="-0.7401">
        <ele>179.9</ele>
        <time>2012-08-28T14:12:54Z</time>
      </trkpt>
      <trkpt lat="47.08457" lon="-0.74014">
        <ele>179.9</ele>
        <time>2012-08-28T14:12:55Z</time>
      </trkpt>
      <trkpt lat="47.08458" lon="-0.7402">
        <ele>179.9</ele>
        <time>2012-08-28T14:12:56Z</time>
      </trkpt>
      <trkpt lat="47.08458" lon="-0.74025">
        <ele>179.42</ele>
        <time>2012-08-28T14:12:57Z</time>
      </trkpt>
      <trkpt lat="47.08458" lon="-0.74031">
        <ele>179.42</ele>
        <time>2012-08-28T14:12:58Z</time>
      </trkpt>
      <trkpt lat="47.08465" lon="-0.74064">
        <ele>179.42</ele>
        <time>2012-08-28T14:13:03Z</time>
      </trkpt>
      <trkpt lat="47.08471" lon="-0.74093">
        <ele>178.94</ele>
        <time>2012-08-28T14:13:07Z</time>
      </trkpt>
      <trkpt lat="47.08472" lon="-0.74101">
        <ele>178.94</ele>
        <time>2012-08-28T14:13:08Z</time>
      </trkpt>
      <trkpt lat="47.08473" lon="-0.74109">
        <ele>178.94</ele>
        <time>2012-08-28T14:13:09Z</time>
      </trkpt>
      <trkpt lat="47.08481" lon="-0.74156">
        <ele>179.42</ele>
        <time>2012-08-28T14:13:15Z</time>
      </trkpt>
      <trkpt lat="47.0848" lon="-0.74173">
        <ele>179.42</ele>
        <time>2012-08-28T14:13:17Z</time>
      </trkpt>
      <trkpt lat="47.08479" lon="-0.7418">
        <ele>179.42</ele>
        <time>2012-08-28T14:13:18Z</time>
      </trkpt>
      <trkpt lat="47.08476" lon="-0.74186">
        <ele>179.42</ele>
        <time>2012-08-28T14:13:19Z</time>
      </trkpt>
      <trkpt lat="47.08473" lon="-0.7419">
        <ele>179.42</ele>
        <time>2012-08-28T14:13:20Z</time>
      </trkpt>
      <trkpt lat="47.08469" lon="-0.74193">
        <ele>179.42</ele>
        <time>2012-08-28T14:13:21Z</time>
      </trkpt>
      <trkpt lat="47.08464" lon="-0.74198">
        <ele>179.9</ele>
        <time>2012-08-28T14:13:22Z</time>
      </trkpt>
      <trkpt lat="47.08461" lon="-0.74201">
        <ele>179.9</ele>
        <time>2012-08-28T14:13:23Z</time>
      </trkpt>
      <trkpt lat="47.08413" lon="-0.7424">
        <ele>179.9</ele>
        <time>2012-08-28T14:13:34Z</time>
      </trkpt>
      <trkpt lat="47.08402" lon="-0.74248">
        <ele>179.42</ele>
        <time>2012-08-28T14:13:36Z</time>
      </trkpt>
      <trkpt lat="47.08394" lon="-0.74257">
        <ele>179.42</ele>
        <time>2012-08-28T14:13:38Z</time>
      </trkpt>
      <trkpt lat="47.08373" lon="-0.74287">
        <ele>178.94</ele>
        <time>2012-08-28T14:13:44Z</time>
      </trkpt>
      <trkpt lat="47.0837" lon="-0.74292">
        <ele>178.94</ele>
        <time>2012-08-28T14:13:45Z</time>
      </trkpt>
      <trkpt lat="47.08367" lon="-0.74297">
        <ele>178.94</ele>
        <time>2012-08-28T14:13:46Z</time>
      </trkpt>
      <trkpt lat="47.08361" lon="-0.74309">
        <ele>177.98</ele>
        <time>2012-08-28T14:13:48Z</time>
      </trkpt>
      <trkpt lat="47.08356" lon="-0.74325">
        <ele>177.98</ele>
        <time>2012-08-28T14:13:50Z</time>
      </trkpt>
      <trkpt lat="47.08353" lon="-0.74334">
        <ele>177.5</ele>
        <time>2012-08-28T14:13:51Z</time>
      </trkpt>
      <trkpt lat="47.0835" lon="-0.74342">
        <ele>177.5</ele>
        <time>2012-08-28T14:13:52Z</time>
      </trkpt>
      <trkpt lat="47.08341" lon="-0.74364">
        <ele>177.02</ele>
        <time>2012-08-28T14:13:55Z</time>
      </trkpt>
      <trkpt lat="47.08337" lon="-0.74371">
        <ele>177.02</ele>
        <time>2012-08-28T14:13:56Z</time>
      </trkpt>
      <trkpt lat="47.08334" lon="-0.74379">
        <ele>177.02</ele>
        <time>2012-08-28T14:13:57Z</time>
      </trkpt>
      <trkpt lat="47.08331" lon="-0.74387">
        <ele>176.06</ele>
        <time>2012-08-28T14:13:58Z</time>
      </trkpt>
      <trkpt lat="47.08327" lon="-0.74396">
        <ele>176.06</ele>
        <time>2012-08-28T14:13:59Z</time>
      </trkpt>
      <trkpt lat="47.08313" lon="-0.74441">
        <ele>175.1</ele>
        <time>2012-08-28T14:14:04Z</time>
      </trkpt>
      <trkpt lat="47.0831" lon="-0.74449">
        <ele>174.62</ele>
        <time>2012-08-28T14:14:05Z</time>
      </trkpt>
      <trkpt lat="47.08284" lon="-0.7452">
        <ele>172.69</ele>
        <time>2012-08-28T14:14:13Z</time>
      </trkpt>
      <trkpt lat="47.08281" lon="-0.74527">
        <ele>172.69</ele>
        <time>2012-08-28T14:14:14Z</time>
      </trkpt>
      <trkpt lat="47.08278" lon="-0.74534">
        <ele>172.21</ele>
        <time>2012-08-28T14:14:15Z</time>
      </trkpt>
      <trkpt lat="47.08276" lon="-0.74542">
        <ele>172.21</ele>
        <time>2012-08-28T14:14:16Z</time>
      </trkpt>
      <trkpt lat="47.08274" lon="-0.74551">
        <ele>172.21</ele>
        <time>2012-08-28T14:14:17Z</time>
      </trkpt>
      <trkpt lat="47.08274" lon="-0.74559">
        <ele>172.21</ele>
        <time>2012-08-28T14:14:18Z</time>
      </trkpt>
      <trkpt lat="47.08275" lon="-0.74565">
        <ele>171.73</ele>
        <time>2012-08-28T14:14:19Z</time>
      </trkpt>
      <trkpt lat="47.08277" lon="-0.74573">
        <ele>171.73</ele>
        <time>2012-08-28T14:14:20Z</time>
      </trkpt>
      <trkpt lat="47.08283" lon="-0.74599">
        <ele>171.73</ele>
        <time>2012-08-28T14:14:23Z</time>
      </trkpt>
      <trkpt lat="47.08285" lon="-0.74608">
        <ele>171.25</ele>
        <time>2012-08-28T14:14:24Z</time>
      </trkpt>
      <trkpt lat="47.08308" lon="-0.74698">
        <ele>170.77</ele>
        <time>2012-08-28T14:14:34Z</time>
      </trkpt>
      <trkpt lat="47.08323" lon="-0.74751">
        <ele>170.29</ele>
        <time>2012-08-28T14:14:40Z</time>
      </trkpt>
      <trkpt lat="47.08325" lon="-0.74759">
        <ele>169.81</ele>
        <time>2012-08-28T14:14:41Z</time>
      </trkpt>
      <trkpt lat="47.08327" lon="-0.74767">
        <ele>170.29</ele>
        <time>2012-08-28T14:14:42Z</time>
      </trkpt>
      <trkpt lat="47.08336" lon="-0.74793">
        <ele>170.29</ele>
        <time>2012-08-28T14:14:45Z</time>
      </trkpt>
      <trkpt lat="47.08339" lon="-0.74801">
        <ele>170.29</ele>
        <time>2012-08-28T14:14:46Z</time>
      </trkpt>
      <trkpt lat="47.08345" lon="-0.74817">
        <ele>170.29</ele>
        <time>2012-08-28T14:14:48Z</time>
      </trkpt>
      <trkpt lat="47.08348" lon="-0.74825">
        <ele>170.29</ele>
        <time>2012-08-28T14:14:49Z</time>
      </trkpt>
      <trkpt lat="47.0835" lon="-0.74832">
        <ele>170.29</ele>
        <time>2012-08-28T14:14:50Z</time>
      </trkpt>
      <trkpt lat="47.08352" lon="-0.74839">
        <ele>170.29</ele>
        <time>2012-08-28T14:14:51Z</time>
      </trkpt>
      <trkpt lat="47.08355" lon="-0.74847">
        <ele>169.81</ele>
        <time>2012-08-28T14:14:52Z</time>
      </trkpt>
      <trkpt lat="47.08359" lon="-0.74854">
        <ele>170.29</ele>
        <time>2012-08-28T14:14:53Z</time>
      </trkpt>
      <trkpt lat="47.08399" lon="-0.74934">
        <ele>169.81</ele>
        <time>2012-08-28T14:15:04Z</time>
      </trkpt>
      <trkpt lat="47.08444" lon="-0.75019">
        <ele>170.29</ele>
        <time>2012-08-28T14:15:16Z</time>
      </trkpt>
      <trkpt lat="47.08465" lon="-0.75055">
        <ele>170.77</ele>
        <time>2012-08-28T14:15:21Z</time>
      </trkpt>
      <trkpt lat="47.08472" lon="-0.7507">
        <ele>170.77</ele>
        <time>2012-08-28T14:15:23Z</time>
      </trkpt>
      <trkpt lat="47.08474" lon="-0.75078">
        <ele>170.77</ele>
        <time>2012-08-28T14:15:24Z</time>
      </trkpt>
      <trkpt lat="47.08501" lon="-0.75135">
        <ele>171.25</ele>
        <time>2012-08-28T14:15:32Z</time>
      </trkpt>
      <trkpt lat="47.08534" lon="-0.75191">
        <ele>172.21</ele>
        <time>2012-08-28T14:15:41Z</time>
      </trkpt>
      <trkpt lat="47.08546" lon="-0.75215">
        <ele>172.21</ele>
        <time>2012-08-28T14:15:45Z</time>
      </trkpt>
      <trkpt lat="47.08578" lon="-0.75286">
        <ele>173.66</ele>
        <time>2012-08-28T14:15:58Z</time>
      </trkpt>
      <trkpt lat="47.08594" lon="-0.75367">
        <ele>174.62</ele>
        <time>2012-08-28T14:16:11Z</time>
      </trkpt>
      <trkpt lat="47.08597" lon="-0.7538">
        <ele>174.62</ele>
        <time>2012-08-28T14:16:13Z</time>
      </trkpt>
      <trkpt lat="47.08598" lon="-0.75388">
        <ele>174.14</ele>
        <time>2012-08-28T14:16:14Z</time>
      </trkpt>
      <trkpt lat="47.08599" lon="-0.75395">
        <ele>174.14</ele>
        <time>2012-08-28T14:16:15Z</time>
      </trkpt>
      <trkpt lat="47.08611" lon="-0.7544">
        <ele>174.62</ele>
        <time>2012-08-28T14:16:25Z</time>
      </trkpt>
      <trkpt lat="47.0862" lon="-0.75491">
        <ele>174.62</ele>
        <time>2012-08-28T14:16:36Z</time>
      </trkpt>
      <trkpt lat="47.08633" lon="-0.75562">
        <ele>174.62</ele>
        <time>2012-08-28T14:16:49Z</time>
      </trkpt>
      <trkpt lat="47.08644" lon="-0.75621">
        <ele>173.66</ele>
        <time>2012-08-28T14:17:03Z</time>
      </trkpt>
      <trkpt lat="47.08637" lon="-0.75658">
        <ele>172.69</ele>
        <time>2012-08-28T14:17:10Z</time>
      </trkpt>
      <trkpt lat="47.0863" lon="-0.75686">
        <ele>172.69</ele>
        <time>2012-08-28T14:17:14Z</time>
      </trkpt>
      <trkpt lat="47.08629" lon="-0.75693">
        <ele>172.21</ele>
        <time>2012-08-28T14:17:15Z</time>
      </trkpt>
      <trkpt lat="47.08627" lon="-0.75701">
        <ele>172.21</ele>
        <time>2012-08-28T14:17:16Z</time>
      </trkpt>
      <trkpt lat="47.08625" lon="-0.75708">
        <ele>172.21</ele>
        <time>2012-08-28T14:17:17Z</time>
      </trkpt>
      <trkpt lat="47.08623" lon="-0.75714">
        <ele>172.21</ele>
        <time>2012-08-28T14:17:18Z</time>
      </trkpt>
      <trkpt lat="47.0862" lon="-0.75721">
        <ele>172.21</ele>
        <time>2012-08-28T14:17:19Z</time>
      </trkpt>
      <trkpt lat="47.08618" lon="-0.75726">
        <ele>172.21</ele>
        <time>2012-08-28T14:17:20Z</time>
      </trkpt>
      <trkpt lat="47.08614" lon="-0.75731">
        <ele>171.73</ele>
        <time>2012-08-28T14:17:21Z</time>
      </trkpt>
      <trkpt lat="47.08611" lon="-0.75736">
        <ele>172.21</ele>
        <time>2012-08-28T14:17:22Z</time>
      </trkpt>
      <trkpt lat="47.08607" lon="-0.75742">
        <ele>171.73</ele>
        <time>2012-08-28T14:17:23Z</time>
      </trkpt>
      <trkpt lat="47.08579" lon="-0.75774">
        <ele>171.25</ele>
        <time>2012-08-28T14:17:29Z</time>
      </trkpt>
      <trkpt lat="47.08575" lon="-0.7578">
        <ele>171.25</ele>
        <time>2012-08-28T14:17:30Z</time>
      </trkpt>
      <trkpt lat="47.08564" lon="-0.758">
        <ele>170.77</ele>
        <time>2012-08-28T14:17:33Z</time>
      </trkpt>
      <trkpt lat="47.08551" lon="-0.75818">
        <ele>170.77</ele>
        <time>2012-08-28T14:17:36Z</time>
      </trkpt>
      <trkpt lat="47.08547" lon="-0.75825">
        <ele>170.29</ele>
        <time>2012-08-28T14:17:37Z</time>
      </trkpt>
      <trkpt lat="47.08544" lon="-0.75832">
        <ele>170.29</ele>
        <time>2012-08-28T14:17:38Z</time>
      </trkpt>
      <trkpt lat="47.08536" lon="-0.75848">
        <ele>169.81</ele>
        <time>2012-08-28T14:17:40Z</time>
      </trkpt>
      <trkpt lat="47.08509" lon="-0.75899">
        <ele>169.81</ele>
        <time>2012-08-28T14:17:50Z</time>
      </trkpt>
      <trkpt lat="47.08495" lon="-0.75919">
        <ele>169.81</ele>
        <time>2012-08-28T14:17:57Z</time>
      </trkpt>
      <trkpt lat="47.08491" lon="-0.75924">
        <ele>170.29</ele>
        <time>2012-08-28T14:17:58Z</time>
      </trkpt>
      <trkpt lat="47.08486" lon="-0.75929">
        <ele>170.29</ele>
        <time>2012-08-28T14:17:59Z</time>
      </trkpt>
      <trkpt lat="47.08471" lon="-0.75945">
        <ele>170.29</ele>
        <time>2012-08-28T14:18:02Z</time>
      </trkpt>
      <trkpt lat="47.08457" lon="-0.75962">
        <ele>170.29</ele>
        <time>2012-08-28T14:18:05Z</time>
      </trkpt>
      <trkpt lat="47.08448" lon="-0.75974">
        <ele>170.77</ele>
        <time>2012-08-28T14:18:07Z</time>
      </trkpt>
      <trkpt lat="47.08441" lon="-0.75988">
        <ele>170.77</ele>
        <time>2012-08-28T14:18:09Z</time>
      </trkpt>
      <trkpt lat="47.08434" lon="-0.76002">
        <ele>170.77</ele>
        <time>2012-08-28T14:18:11Z</time>
      </trkpt>
      <trkpt lat="47.0843" lon="-0.76008">
        <ele>170.77</ele>
        <time>2012-08-28T14:18:12Z</time>
      </trkpt>
      <trkpt lat="47.08424" lon="-0.76022">
        <ele>170.77</ele>
        <time>2012-08-28T14:18:14Z</time>
      </trkpt>
      <trkpt lat="47.08422" lon="-0.76029">
        <ele>170.77</ele>
        <time>2012-08-28T14:18:15Z</time>
      </trkpt>
      <trkpt lat="47.08395" lon="-0.76104">
        <ele>170.77</ele>
        <time>2012-08-28T14:18:24Z</time>
      </trkpt>
      <trkpt lat="47.08389" lon="-0.76121">
        <ele>170.29</ele>
        <time>2012-08-28T14:18:26Z</time>
      </trkpt>
      <trkpt lat="47.08362" lon="-0.76206">
        <ele>170.77</ele>
        <time>2012-08-28T14:18:36Z</time>
      </trkpt>
      <trkpt lat="47.08356" lon="-0.76231">
        <ele>170.77</ele>
        <time>2012-08-28T14:18:39Z</time>
      </trkpt>
      <trkpt lat="47.08353" lon="-0.7625">
        <ele>171.25</ele>
        <time>2012-08-28T14:18:41Z</time>
      </trkpt>
      <trkpt lat="47.08334" lon="-0.76337">
        <ele>169.81</ele>
        <time>2012-08-28T14:18:50Z</time>
      </trkpt>
      <trkpt lat="47.08333" lon="-0.76347">
        <ele>169.33</ele>
        <time>2012-08-28T14:18:51Z</time>
      </trkpt>
      <trkpt lat="47.08333" lon="-0.76356">
        <ele>168.85</ele>
        <time>2012-08-28T14:18:52Z</time>
      </trkpt>
      <trkpt lat="47.08333" lon="-0.76375">
        <ele>168.85</ele>
        <time>2012-08-28T14:18:54Z</time>
      </trkpt>
      <trkpt lat="47.08332" lon="-0.76385">
        <ele>168.85</ele>
        <time>2012-08-28T14:18:55Z</time>
      </trkpt>
      <trkpt lat="47.0833" lon="-0.76395">
        <ele>168.37</ele>
        <time>2012-08-28T14:18:56Z</time>
      </trkpt>
      <trkpt lat="47.08327" lon="-0.76405">
        <ele>168.85</ele>
        <time>2012-08-28T14:18:57Z</time>
      </trkpt>
      <trkpt lat="47.08325" lon="-0.76413">
        <ele>168.37</ele>
        <time>2012-08-28T14:18:58Z</time>
      </trkpt>
      <trkpt lat="47.08322" lon="-0.76422">
        <ele>168.37</ele>
        <time>2012-08-28T14:18:59Z</time>
      </trkpt>
      <trkpt lat="47.08321" lon="-0.76431">
        <ele>168.37</ele>
        <time>2012-08-28T14:19:00Z</time>
      </trkpt>
      <trkpt lat="47.08321" lon="-0.76441">
        <ele>167.89</ele>
        <time>2012-08-28T14:19:01Z</time>
      </trkpt>
      <trkpt lat="47.08321" lon="-0.7645">
        <ele>167.41</ele>
        <time>2012-08-28T14:19:02Z</time>
      </trkpt>
      <trkpt lat="47.08323" lon="-0.76481">
        <ele>166.93</ele>
        <time>2012-08-28T14:19:05Z</time>
      </trkpt>
      <trkpt lat="47.08324" lon="-0.765">
        <ele>166.93</ele>
        <time>2012-08-28T14:19:07Z</time>
      </trkpt>
      <trkpt lat="47.0833" lon="-0.76538">
        <ele>166.93</ele>
        <time>2012-08-28T14:19:11Z</time>
      </trkpt>
      <trkpt lat="47.08331" lon="-0.76548">
        <ele>166.45</ele>
        <time>2012-08-28T14:19:12Z</time>
      </trkpt>
      <trkpt lat="47.08331" lon="-0.76558">
        <ele>166.45</ele>
        <time>2012-08-28T14:19:13Z</time>
      </trkpt>
      <trkpt lat="47.08331" lon="-0.76568">
        <ele>166.45</ele>
        <time>2012-08-28T14:19:14Z</time>
      </trkpt>
      <trkpt lat="47.0833" lon="-0.76578">
        <ele>166.45</ele>
        <time>2012-08-28T14:19:15Z</time>
      </trkpt>
      <trkpt lat="47.08328" lon="-0.76588">
        <ele>165.96</ele>
        <time>2012-08-28T14:19:16Z</time>
      </trkpt>
      <trkpt lat="47.08328" lon="-0.76598">
        <ele>165.96</ele>
        <time>2012-08-28T14:19:17Z</time>
      </trkpt>
      <trkpt lat="47.08327" lon="-0.76618">
        <ele>165.96</ele>
        <time>2012-08-28T14:19:19Z</time>
      </trkpt>
      <trkpt lat="47.08327" lon="-0.76628">
        <ele>165.96</ele>
        <time>2012-08-28T14:19:20Z</time>
      </trkpt>
      <trkpt lat="47.08329" lon="-0.76714">
        <ele>165.96</ele>
        <time>2012-08-28T14:19:29Z</time>
      </trkpt>
      <trkpt lat="47.0833" lon="-0.76723">
        <ele>165.48</ele>
        <time>2012-08-28T14:19:30Z</time>
      </trkpt>
      <trkpt lat="47.08332" lon="-0.76732">
        <ele>165.48</ele>
        <time>2012-08-28T14:19:31Z</time>
      </trkpt>
      <trkpt lat="47.08335" lon="-0.7674">
        <ele>165.96</ele>
        <time>2012-08-28T14:19:32Z</time>
      </trkpt>
      <trkpt lat="47.08338" lon="-0.76749">
        <ele>165.96</ele>
        <time>2012-08-28T14:19:33Z</time>
      </trkpt>
      <trkpt lat="47.0834" lon="-0.76757">
        <ele>165.96</ele>
        <time>2012-08-28T14:19:34Z</time>
      </trkpt>
      <trkpt lat="47.08342" lon="-0.76765">
        <ele>165.48</ele>
        <time>2012-08-28T14:19:35Z</time>
      </trkpt>
      <trkpt lat="47.08346" lon="-0.76782">
        <ele>165.48</ele>
        <time>2012-08-28T14:19:37Z</time>
      </trkpt>
      <trkpt lat="47.08348" lon="-0.7682">
        <ele>165.48</ele>
        <time>2012-08-28T14:19:41Z</time>
      </trkpt>
      <trkpt lat="47.08346" lon="-0.76829">
        <ele>165</ele>
        <time>2012-08-28T14:19:42Z</time>
      </trkpt>
      <trkpt lat="47.08344" lon="-0.76838">
        <ele>165.48</ele>
        <time>2012-08-28T14:19:43Z</time>
      </trkpt>
      <trkpt lat="47.08341" lon="-0.76846">
        <ele>165</ele>
        <time>2012-08-28T14:19:44Z</time>
      </trkpt>
      <trkpt lat="47.08338" lon="-0.76853">
        <ele>165.48</ele>
        <time>2012-08-28T14:19:45Z</time>
      </trkpt>
      <trkpt lat="47.08326" lon="-0.76883">
        <ele>165.48</ele>
        <time>2012-08-28T14:19:50Z</time>
      </trkpt>
      <trkpt lat="47.08324" lon="-0.7689">
        <ele>165</ele>
        <time>2012-08-28T14:19:51Z</time>
      </trkpt>
      <trkpt lat="47.08323" lon="-0.76898">
        <ele>165</ele>
        <time>2012-08-28T14:19:52Z</time>
      </trkpt>
      <trkpt lat="47.08322" lon="-0.76906">
        <ele>165.48</ele>
        <time>2012-08-28T14:19:53Z</time>
      </trkpt>
      <trkpt lat="47.0832" lon="-0.76915">
        <ele>165.48</ele>
        <time>2012-08-28T14:19:54Z</time>
      </trkpt>
      <trkpt lat="47.08314" lon="-0.7694">
        <ele>165.48</ele>
        <time>2012-08-28T14:19:57Z</time>
      </trkpt>
      <trkpt lat="47.08313" lon="-0.76949">
        <ele>165.48</ele>
        <time>2012-08-28T14:19:58Z</time>
      </trkpt>
      <trkpt lat="47.08312" lon="-0.76959">
        <ele>165.96</ele>
        <time>2012-08-28T14:19:59Z</time>
      </trkpt>
      <trkpt lat="47.08311" lon="-0.76968">
        <ele>165.96</ele>
        <time>2012-08-28T14:20:00Z</time>
      </trkpt>
      <trkpt lat="47.08311" lon="-0.76976">
        <ele>165.96</ele>
        <time>2012-08-28T14:20:01Z</time>
      </trkpt>
      <trkpt lat="47.08305" lon="-0.77048">
        <ele>165</ele>
        <time>2012-08-28T14:20:09Z</time>
      </trkpt>
      <trkpt lat="47.08305" lon="-0.77058">
        <ele>165.48</ele>
        <time>2012-08-28T14:20:10Z</time>
      </trkpt>
      <trkpt lat="47.08306" lon="-0.77067">
        <ele>165.48</ele>
        <time>2012-08-28T14:20:11Z</time>
      </trkpt>
      <trkpt lat="47.08318" lon="-0.77117">
        <ele>164.52</ele>
        <time>2012-08-28T14:20:17Z</time>
      </trkpt>
      <trkpt lat="47.0832" lon="-0.77126">
        <ele>164.52</ele>
        <time>2012-08-28T14:20:18Z</time>
      </trkpt>
      <trkpt lat="47.08323" lon="-0.77135">
        <ele>164.04</ele>
        <time>2012-08-28T14:20:19Z</time>
      </trkpt>
      <trkpt lat="47.08332" lon="-0.77158">
        <ele>164.04</ele>
        <time>2012-08-28T14:20:22Z</time>
      </trkpt>
      <trkpt lat="47.08334" lon="-0.77167">
        <ele>164.04</ele>
        <time>2012-08-28T14:20:23Z</time>
      </trkpt>
      <trkpt lat="47.08335" lon="-0.77176">
        <ele>164.04</ele>
        <time>2012-08-28T14:20:24Z</time>
      </trkpt>
      <trkpt lat="47.08335" lon="-0.77185">
        <ele>163.08</ele>
        <time>2012-08-28T14:20:25Z</time>
      </trkpt>
      <trkpt lat="47.08334" lon="-0.77193">
        <ele>163.08</ele>
        <time>2012-08-28T14:20:26Z</time>
      </trkpt>
      <trkpt lat="47.08332" lon="-0.77226">
        <ele>162.12</ele>
        <time>2012-08-28T14:20:30Z</time>
      </trkpt>
      <trkpt lat="47.08329" lon="-0.77233">
        <ele>162.12</ele>
        <time>2012-08-28T14:20:31Z</time>
      </trkpt>
      <trkpt lat="47.08327" lon="-0.7724">
        <ele>162.12</ele>
        <time>2012-08-28T14:20:32Z</time>
      </trkpt>
      <trkpt lat="47.08325" lon="-0.77247">
        <ele>162.12</ele>
        <time>2012-08-28T14:20:33Z</time>
      </trkpt>
      <trkpt lat="47.08321" lon="-0.77255">
        <ele>161.64</ele>
        <time>2012-08-28T14:20:34Z</time>
      </trkpt>
      <trkpt lat="47.08317" lon="-0.77264">
        <ele>161.64</ele>
        <time>2012-08-28T14:20:35Z</time>
      </trkpt>
      <trkpt lat="47.08295" lon="-0.77306">
        <ele>162.12</ele>
        <time>2012-08-28T14:20:41Z</time>
      </trkpt>
      <trkpt lat="47.08285" lon="-0.77325">
        <ele>161.64</ele>
        <time>2012-08-28T14:20:44Z</time>
      </trkpt>
      <trkpt lat="47.08282" lon="-0.77331">
        <ele>161.64</ele>
        <time>2012-08-28T14:20:45Z</time>
      </trkpt>
      <trkpt lat="47.0828" lon="-0.77338">
        <ele>161.16</ele>
        <time>2012-08-28T14:20:46Z</time>
      </trkpt>
      <trkpt lat="47.0828" lon="-0.77344">
        <ele>161.16</ele>
        <time>2012-08-28T14:20:47Z</time>
      </trkpt>
      <trkpt lat="47.0828" lon="-0.77352">
        <ele>161.16</ele>
        <time>2012-08-28T14:20:48Z</time>
      </trkpt>
      <trkpt lat="47.08279" lon="-0.77359">
        <ele>160.68</ele>
        <time>2012-08-28T14:20:49Z</time>
      </trkpt>
      <trkpt lat="47.08276" lon="-0.77364">
        <ele>160.68</ele>
        <time>2012-08-28T14:20:50Z</time>
      </trkpt>
      <trkpt lat="47.08272" lon="-0.77367">
        <ele>160.68</ele>
        <time>2012-08-28T14:20:51Z</time>
      </trkpt>
      <trkpt lat="47.0827" lon="-0.7737">
        <ele>161.16</ele>
        <time>2012-08-28T14:20:52Z</time>
      </trkpt>
      <trkpt lat="47.08268" lon="-0.77375">
        <ele>161.16</ele>
        <time>2012-08-28T14:20:53Z</time>
      </trkpt>
      <trkpt lat="47.08266" lon="-0.7738">
        <ele>160.68</ele>
        <time>2012-08-28T14:20:54Z</time>
      </trkpt>
      <trkpt lat="47.08264" lon="-0.77386">
        <ele>160.68</ele>
        <time>2012-08-28T14:20:55Z</time>
      </trkpt>
      <trkpt lat="47.08262" lon="-0.77393">
        <ele>160.68</ele>
        <time>2012-08-28T14:20:56Z</time>
      </trkpt>
      <trkpt lat="47.0826" lon="-0.77399">
        <ele>160.68</ele>
        <time>2012-08-28T14:20:57Z</time>
      </trkpt>
      <trkpt lat="47.08253" lon="-0.77416">
        <ele>160.2</ele>
        <time>2012-08-28T14:21:01Z</time>
      </trkpt>
      <trkpt lat="47.08247" lon="-0.77422">
        <ele>160.2</ele>
        <time>2012-08-28T14:21:15Z</time>
      </trkpt>
      <trkpt lat="47.08246" lon="-0.77424">
        <ele>160.2</ele>
        <time>2012-08-28T14:21:16Z</time>
      </trkpt>
      <trkpt lat="47.08232" lon="-0.77465">
        <ele>159.72</ele>
        <time>2012-08-28T14:21:24Z</time>
      </trkpt>
      <trkpt lat="47.08205" lon="-0.77557">
        <ele>157.79</ele>
        <time>2012-08-28T14:21:35Z</time>
      </trkpt>
      <trkpt lat="47.08185" lon="-0.77624">
        <ele>156.83</ele>
        <time>2012-08-28T14:21:42Z</time>
      </trkpt>
      <trkpt lat="47.08168" lon="-0.77681">
        <ele>156.83</ele>
        <time>2012-08-28T14:21:48Z</time>
      </trkpt>
      <trkpt lat="47.08166" lon="-0.7769">
        <ele>156.83</ele>
        <time>2012-08-28T14:21:49Z</time>
      </trkpt>
      <trkpt lat="47.08164" lon="-0.77699">
        <ele>157.31</ele>
        <time>2012-08-28T14:21:50Z</time>
      </trkpt>
      <trkpt lat="47.08134" lon="-0.77792">
        <ele>156.83</ele>
        <time>2012-08-28T14:22:00Z</time>
      </trkpt>
      <trkpt lat="47.0813" lon="-0.77811">
        <ele>156.83</ele>
        <time>2012-08-28T14:22:02Z</time>
      </trkpt>
      <trkpt lat="47.08105" lon="-0.779">
        <ele>156.83</ele>
        <time>2012-08-28T14:22:12Z</time>
      </trkpt>
      <trkpt lat="47.08089" lon="-0.77959">
        <ele>157.31</ele>
        <time>2012-08-28T14:22:19Z</time>
      </trkpt>
      <trkpt lat="47.08086" lon="-0.77967">
        <ele>156.83</ele>
        <time>2012-08-28T14:22:20Z</time>
      </trkpt>
      <trkpt lat="47.08069" lon="-0.78017">
        <ele>157.31</ele>
        <time>2012-08-28T14:22:26Z</time>
      </trkpt>
      <trkpt lat="47.08059" lon="-0.78043">
        <ele>157.31</ele>
        <time>2012-08-28T14:22:29Z</time>
      </trkpt>
      <trkpt lat="47.08051" lon="-0.78069">
        <ele>157.31</ele>
        <time>2012-08-28T14:22:32Z</time>
      </trkpt>
      <trkpt lat="47.08046" lon="-0.78086">
        <ele>157.31</ele>
        <time>2012-08-28T14:22:34Z</time>
      </trkpt>
      <trkpt lat="47.08025" lon="-0.78145">
        <ele>157.31</ele>
        <time>2012-08-28T14:22:41Z</time>
      </trkpt>
      <trkpt lat="47.0801" lon="-0.78198">
        <ele>157.31</ele>
        <time>2012-08-28T14:22:47Z</time>
      </trkpt>
      <trkpt lat="47.08008" lon="-0.78207">
        <ele>157.31</ele>
        <time>2012-08-28T14:22:48Z</time>
      </trkpt>
      <trkpt lat="47.07992" lon="-0.78257">
        <ele>157.79</ele>
        <time>2012-08-28T14:22:54Z</time>
      </trkpt>
      <trkpt lat="47.0799" lon="-0.78266">
        <ele>157.31</ele>
        <time>2012-08-28T14:22:55Z</time>
      </trkpt>
      <trkpt lat="47.07975" lon="-0.78313">
        <ele>157.79</ele>
        <time>2012-08-28T14:23:01Z</time>
      </trkpt>
      <trkpt lat="47.07946" lon="-0.78403">
        <ele>158.27</ele>
        <time>2012-08-28T14:23:14Z</time>
      </trkpt>
      <trkpt lat="47.07939" lon="-0.78433">
        <ele>158.27</ele>
        <time>2012-08-28T14:23:23Z</time>
      </trkpt>
      <trkpt lat="47.07937" lon="-0.78435">
        <ele>157.79</ele>
        <time>2012-08-28T14:23:24Z</time>
      </trkpt>
      <trkpt lat="47.07934" lon="-0.78438">
        <ele>157.79</ele>
        <time>2012-08-28T14:23:25Z</time>
      </trkpt>
      <trkpt lat="47.07931" lon="-0.7844">
        <ele>157.79</ele>
        <time>2012-08-28T14:23:26Z</time>
      </trkpt>
      <trkpt lat="47.07928" lon="-0.78444">
        <ele>158.27</ele>
        <time>2012-08-28T14:23:27Z</time>
      </trkpt>
      <trkpt lat="47.07914" lon="-0.78471">
        <ele>157.79</ele>
        <time>2012-08-28T14:23:34Z</time>
      </trkpt>
      <trkpt lat="47.07914" lon="-0.78475">
        <ele>157.79</ele>
        <time>2012-08-28T14:23:35Z</time>
      </trkpt>
      <trkpt lat="47.0791" lon="-0.78481">
        <ele>158.27</ele>
        <time>2012-08-28T14:23:38Z</time>
      </trkpt>
      <trkpt lat="47.07909" lon="-0.78483">
        <ele>158.27</ele>
        <time>2012-08-28T14:23:40Z</time>
      </trkpt>
      <trkpt lat="47.07909" lon="-0.78486">
        <ele>158.27</ele>
        <time>2012-08-28T14:23:41Z</time>
      </trkpt>
      <trkpt lat="47.0791" lon="-0.78488">
        <ele>158.27</ele>
        <time>2012-08-28T14:23:42Z</time>
      </trkpt>
      <trkpt lat="47.07911" lon="-0.78491">
        <ele>158.27</ele>
        <time>2012-08-28T14:23:43Z</time>
      </trkpt>
      <trkpt lat="47.0791" lon="-0.78494">
        <ele>157.79</ele>
        <time>2012-08-28T14:23:44Z</time>
      </trkpt>
      <trkpt lat="47.07909" lon="-0.78498">
        <ele>157.79</ele>
        <time>2012-08-28T14:23:45Z</time>
      </trkpt>
      <trkpt lat="47.07908" lon="-0.78502">
        <ele>157.79</ele>
        <time>2012-08-28T14:23:46Z</time>
      </trkpt>
      <trkpt lat="47.07905" lon="-0.78506">
        <ele>158.27</ele>
        <time>2012-08-28T14:23:47Z</time>
      </trkpt>
      <trkpt lat="47.07889" lon="-0.78543">
        <ele>157.79</ele>
        <time>2012-08-28T14:23:55Z</time>
      </trkpt>
      <trkpt lat="47.07875" lon="-0.78566">
        <ele>157.79</ele>
        <time>2012-08-28T14:23:59Z</time>
      </trkpt>
      <trkpt lat="47.07873" lon="-0.78572">
        <ele>157.31</ele>
        <time>2012-08-28T14:24:00Z</time>
      </trkpt>
      <trkpt lat="47.0787" lon="-0.78579">
        <ele>157.79</ele>
        <time>2012-08-28T14:24:01Z</time>
      </trkpt>
      <trkpt lat="47.07867" lon="-0.78585">
        <ele>157.31</ele>
        <time>2012-08-28T14:24:02Z</time>
      </trkpt>
      <trkpt lat="47.07864" lon="-0.78591">
        <ele>157.31</ele>
        <time>2012-08-28T14:24:03Z</time>
      </trkpt>
      <trkpt lat="47.07862" lon="-0.78598">
        <ele>157.79</ele>
        <time>2012-08-28T14:24:04Z</time>
      </trkpt>
      <trkpt lat="47.0786" lon="-0.78605">
        <ele>156.83</ele>
        <time>2012-08-28T14:24:05Z</time>
      </trkpt>
      <trkpt lat="47.07857" lon="-0.78611">
        <ele>157.31</ele>
        <time>2012-08-28T14:24:06Z</time>
      </trkpt>
      <trkpt lat="47.07854" lon="-0.78616">
        <ele>157.31</ele>
        <time>2012-08-28T14:24:07Z</time>
      </trkpt>
      <trkpt lat="47.07847" lon="-0.78627">
        <ele>157.79</ele>
        <time>2012-08-28T14:24:09Z</time>
      </trkpt>
      <trkpt lat="47.07843" lon="-0.78632">
        <ele>157.31</ele>
        <time>2012-08-28T14:24:10Z</time>
      </trkpt>
      <trkpt lat="47.07835" lon="-0.7864">
        <ele>157.79</ele>
        <time>2012-08-28T14:24:12Z</time>
      </trkpt>
      <trkpt lat="47.07831" lon="-0.78644">
        <ele>157.31</ele>
        <time>2012-08-28T14:24:13Z</time>
      </trkpt>
      <trkpt lat="47.07827" lon="-0.7865">
        <ele>157.31</ele>
        <time>2012-08-28T14:24:14Z</time>
      </trkpt>
      <trkpt lat="47.07817" lon="-0.7867">
        <ele>157.31</ele>
        <time>2012-08-28T14:24:17Z</time>
      </trkpt>
      <trkpt lat="47.07813" lon="-0.78676">
        <ele>157.31</ele>
        <time>2012-08-28T14:24:18Z</time>
      </trkpt>
      <trkpt lat="47.07806" lon="-0.78687">
        <ele>157.31</ele>
        <time>2012-08-28T14:24:20Z</time>
      </trkpt>
      <trkpt lat="47.07803" lon="-0.78694">
        <ele>157.31</ele>
        <time>2012-08-28T14:24:21Z</time>
      </trkpt>
      <trkpt lat="47.078" lon="-0.78702">
        <ele>157.31</ele>
        <time>2012-08-28T14:24:22Z</time>
      </trkpt>
      <trkpt lat="47.07793" lon="-0.78717">
        <ele>157.79</ele>
        <time>2012-08-28T14:24:24Z</time>
      </trkpt>
      <trkpt lat="47.07792" lon="-0.78725">
        <ele>156.83</ele>
        <time>2012-08-28T14:24:25Z</time>
      </trkpt>
      <trkpt lat="47.0779" lon="-0.78732">
        <ele>156.83</ele>
        <time>2012-08-28T14:24:26Z</time>
      </trkpt>
      <trkpt lat="47.07787" lon="-0.78737">
        <ele>157.31</ele>
        <time>2012-08-28T14:24:27Z</time>
      </trkpt>
      <trkpt lat="47.07784" lon="-0.7874">
        <ele>157.79</ele>
        <time>2012-08-28T14:24:28Z</time>
      </trkpt>
      <trkpt lat="47.0778" lon="-0.78744">
        <ele>158.27</ele>
        <time>2012-08-28T14:24:29Z</time>
      </trkpt>
      <trkpt lat="47.07776" lon="-0.78746">
        <ele>157.79</ele>
        <time>2012-08-28T14:24:30Z</time>
      </trkpt>
      <trkpt lat="47.07773" lon="-0.78751">
        <ele>158.27</ele>
        <time>2012-08-28T14:24:31Z</time>
      </trkpt>
      <trkpt lat="47.07771" lon="-0.78757">
        <ele>158.27</ele>
        <time>2012-08-28T14:24:32Z</time>
      </trkpt>
      <trkpt lat="47.07769" lon="-0.78763">
        <ele>158.27</ele>
        <time>2012-08-28T14:24:33Z</time>
      </trkpt>
      <trkpt lat="47.07768" lon="-0.78769">
        <ele>158.27</ele>
        <time>2012-08-28T14:24:34Z</time>
      </trkpt>
      <trkpt lat="47.07766" lon="-0.78775">
        <ele>158.27</ele>
        <time>2012-08-28T14:24:35Z</time>
      </trkpt>
      <trkpt lat="47.07763" lon="-0.78781">
        <ele>157.79</ele>
        <time>2012-08-28T14:24:36Z</time>
      </trkpt>
      <trkpt lat="47.0776" lon="-0.78786">
        <ele>157.79</ele>
        <time>2012-08-28T14:24:37Z</time>
      </trkpt>
      <trkpt lat="47.07756" lon="-0.7879">
        <ele>157.31</ele>
        <time>2012-08-28T14:24:38Z</time>
      </trkpt>
      <trkpt lat="47.07751" lon="-0.78796">
        <ele>157.79</ele>
        <time>2012-08-28T14:24:39Z</time>
      </trkpt>
      <trkpt lat="47.07735" lon="-0.7882">
        <ele>157.79</ele>
        <time>2012-08-28T14:24:43Z</time>
      </trkpt>
      <trkpt lat="47.07731" lon="-0.78827">
        <ele>157.79</ele>
        <time>2012-08-28T14:24:44Z</time>
      </trkpt>
      <trkpt lat="47.07729" lon="-0.78834">
        <ele>157.79</ele>
        <time>2012-08-28T14:24:45Z</time>
      </trkpt>
      <trkpt lat="47.07728" lon="-0.78842">
        <ele>157.31</ele>
        <time>2012-08-28T14:24:46Z</time>
      </trkpt>
      <trkpt lat="47.07725" lon="-0.78847">
        <ele>156.83</ele>
        <time>2012-08-28T14:24:47Z</time>
      </trkpt>
      <trkpt lat="47.07722" lon="-0.78851">
        <ele>157.31</ele>
        <time>2012-08-28T14:24:48Z</time>
      </trkpt>
      <trkpt lat="47.07719" lon="-0.78855">
        <ele>157.31</ele>
        <time>2012-08-28T14:24:49Z</time>
      </trkpt>
      <trkpt lat="47.07718" lon="-0.78861">
        <ele>157.31</ele>
        <time>2012-08-28T14:24:50Z</time>
      </trkpt>
      <trkpt lat="47.07717" lon="-0.78867">
        <ele>157.31</ele>
        <time>2012-08-28T14:24:51Z</time>
      </trkpt>
      <trkpt lat="47.07715" lon="-0.78872">
        <ele>157.31</ele>
        <time>2012-08-28T14:24:52Z</time>
      </trkpt>
      <trkpt lat="47.07712" lon="-0.78878">
        <ele>156.83</ele>
        <time>2012-08-28T14:24:53Z</time>
      </trkpt>
      <trkpt lat="47.0771" lon="-0.78882">
        <ele>156.83</ele>
        <time>2012-08-28T14:24:54Z</time>
      </trkpt>
      <trkpt lat="47.07707" lon="-0.78886">
        <ele>156.35</ele>
        <time>2012-08-28T14:24:55Z</time>
      </trkpt>
      <trkpt lat="47.07703" lon="-0.78889">
        <ele>156.35</ele>
        <time>2012-08-28T14:24:56Z</time>
      </trkpt>
      <trkpt lat="47.07699" lon="-0.78893">
        <ele>156.83</ele>
        <time>2012-08-28T14:24:57Z</time>
      </trkpt>
      <trkpt lat="47.07696" lon="-0.78896">
        <ele>156.83</ele>
        <time>2012-08-28T14:24:58Z</time>
      </trkpt>
      <trkpt lat="47.07694" lon="-0.78901">
        <ele>156.83</ele>
        <time>2012-08-28T14:24:59Z</time>
      </trkpt>
      <trkpt lat="47.07692" lon="-0.78906">
        <ele>156.83</ele>
        <time>2012-08-28T14:25:00Z</time>
      </trkpt>
      <trkpt lat="47.07691" lon="-0.78909">
        <ele>156.35</ele>
        <time>2012-08-28T14:25:01Z</time>
      </trkpt>
      <trkpt lat="47.0769" lon="-0.78912">
        <ele>156.83</ele>
        <time>2012-08-28T14:25:02Z</time>
      </trkpt>
      <trkpt lat="47.07687" lon="-0.78916">
        <ele>156.35</ele>
        <time>2012-08-28T14:25:03Z</time>
      </trkpt>
      <trkpt lat="47.07685" lon="-0.7892">
        <ele>156.35</ele>
        <time>2012-08-28T14:25:04Z</time>
      </trkpt>
      <trkpt lat="47.07682" lon="-0.78926">
        <ele>156.35</ele>
        <time>2012-08-28T14:25:05Z</time>
      </trkpt>
      <trkpt lat="47.07677" lon="-0.78933">
        <ele>156.35</ele>
        <time>2012-08-28T14:25:06Z</time>
      </trkpt>
      <trkpt lat="47.07673" lon="-0.78939">
        <ele>156.35</ele>
        <time>2012-08-28T14:25:07Z</time>
      </trkpt>
      <trkpt lat="47.07669" lon="-0.78945">
        <ele>156.35</ele>
        <time>2012-08-28T14:25:08Z</time>
      </trkpt>
      <trkpt lat="47.07661" lon="-0.78959">
        <ele>156.35</ele>
        <time>2012-08-28T14:25:10Z</time>
      </trkpt>
      <trkpt lat="47.07654" lon="-0.78975">
        <ele>156.35</ele>
        <time>2012-08-28T14:25:12Z</time>
      </trkpt>
      <trkpt lat="47.07647" lon="-0.7899">
        <ele>156.35</ele>
        <time>2012-08-28T14:25:14Z</time>
      </trkpt>
      <trkpt lat="47.07644" lon="-0.78997">
        <ele>156.83</ele>
        <time>2012-08-28T14:25:15Z</time>
      </trkpt>
      <trkpt lat="47.0764" lon="-0.79002">
        <ele>156.35</ele>
        <time>2012-08-28T14:25:16Z</time>
      </trkpt>
      <trkpt lat="47.07629" lon="-0.79011">
        <ele>156.35</ele>
        <time>2012-08-28T14:25:18Z</time>
      </trkpt>
      <trkpt lat="47.07626" lon="-0.79016">
        <ele>156.83</ele>
        <time>2012-08-28T14:25:19Z</time>
      </trkpt>
      <trkpt lat="47.07622" lon="-0.79022">
        <ele>156.83</ele>
        <time>2012-08-28T14:25:20Z</time>
      </trkpt>
      <trkpt lat="47.07612" lon="-0.7904">
        <ele>156.83</ele>
        <time>2012-08-28T14:25:23Z</time>
      </trkpt>
      <trkpt lat="47.07609" lon="-0.79048">
        <ele>156.35</ele>
        <time>2012-08-28T14:25:24Z</time>
      </trkpt>
      <trkpt lat="47.07605" lon="-0.79055">
        <ele>156.35</ele>
        <time>2012-08-28T14:25:25Z</time>
      </trkpt>
      <trkpt lat="47.07595" lon="-0.79077">
        <ele>155.87</ele>
        <time>2012-08-28T14:25:28Z</time>
      </trkpt>
      <trkpt lat="47.07591" lon="-0.79084">
        <ele>155.87</ele>
        <time>2012-08-28T14:25:29Z</time>
      </trkpt>
      <trkpt lat="47.07588" lon="-0.79089">
        <ele>155.39</ele>
        <time>2012-08-28T14:25:30Z</time>
      </trkpt>
      <trkpt lat="47.07569" lon="-0.79118">
        <ele>155.39</ele>
        <time>2012-08-28T14:25:35Z</time>
      </trkpt>
      <trkpt lat="47.07565" lon="-0.79124">
        <ele>155.39</ele>
        <time>2012-08-28T14:25:36Z</time>
      </trkpt>
      <trkpt lat="47.07562" lon="-0.79131">
        <ele>155.87</ele>
        <time>2012-08-28T14:25:37Z</time>
      </trkpt>
      <trkpt lat="47.07556" lon="-0.79143">
        <ele>155.87</ele>
        <time>2012-08-28T14:25:39Z</time>
      </trkpt>
      <trkpt lat="47.07554" lon="-0.79148">
        <ele>155.87</ele>
        <time>2012-08-28T14:25:40Z</time>
      </trkpt>
      <trkpt lat="47.0755" lon="-0.79152">
        <ele>156.83</ele>
        <time>2012-08-28T14:25:41Z</time>
      </trkpt>
      <trkpt lat="47.07547" lon="-0.79157">
        <ele>156.35</ele>
        <time>2012-08-28T14:25:42Z</time>
      </trkpt>
      <trkpt lat="47.07546" lon="-0.79162">
        <ele>156.35</ele>
        <time>2012-08-28T14:25:43Z</time>
      </trkpt>
      <trkpt lat="47.07545" lon="-0.79168">
        <ele>156.35</ele>
        <time>2012-08-28T14:25:44Z</time>
      </trkpt>
      <trkpt lat="47.07545" lon="-0.79174">
        <ele>155.87</ele>
        <time>2012-08-28T14:25:45Z</time>
      </trkpt>
      <trkpt lat="47.07543" lon="-0.79179">
        <ele>155.87</ele>
        <time>2012-08-28T14:25:46Z</time>
      </trkpt>
      <trkpt lat="47.0754" lon="-0.79184">
        <ele>155.87</ele>
        <time>2012-08-28T14:25:47Z</time>
      </trkpt>
      <trkpt lat="47.07536" lon="-0.7919">
        <ele>156.35</ele>
        <time>2012-08-28T14:25:48Z</time>
      </trkpt>
      <trkpt lat="47.07532" lon="-0.79194">
        <ele>155.87</ele>
        <time>2012-08-28T14:25:49Z</time>
      </trkpt>
      <trkpt lat="47.07528" lon="-0.79199">
        <ele>155.87</ele>
        <time>2012-08-28T14:25:50Z</time>
      </trkpt>
      <trkpt lat="47.07507" lon="-0.79228">
        <ele>155.39</ele>
        <time>2012-08-28T14:25:56Z</time>
      </trkpt>
      <trkpt lat="47.07503" lon="-0.79233">
        <ele>155.39</ele>
        <time>2012-08-28T14:25:57Z</time>
      </trkpt>
      <trkpt lat="47.07483" lon="-0.79269">
        <ele>155.87</ele>
        <time>2012-08-28T14:26:03Z</time>
      </trkpt>
      <trkpt lat="47.07479" lon="-0.79275">
        <ele>155.87</ele>
        <time>2012-08-28T14:26:04Z</time>
      </trkpt>
      <trkpt lat="47.07467" lon="-0.79295">
        <ele>155.39</ele>
        <time>2012-08-28T14:26:08Z</time>
      </trkpt>
      <trkpt lat="47.07464" lon="-0.79301">
        <ele>155.39</ele>
        <time>2012-08-28T14:26:09Z</time>
      </trkpt>
      <trkpt lat="47.07461" lon="-0.79307">
        <ele>155.39</ele>
        <time>2012-08-28T14:26:10Z</time>
      </trkpt>
      <trkpt lat="47.07457" lon="-0.79313">
        <ele>155.39</ele>
        <time>2012-08-28T14:26:11Z</time>
      </trkpt>
      <trkpt lat="47.07454" lon="-0.79318">
        <ele>155.39</ele>
        <time>2012-08-28T14:26:12Z</time>
      </trkpt>
      <trkpt lat="47.07438" lon="-0.79346">
        <ele>155.39</ele>
        <time>2012-08-28T14:26:17Z</time>
      </trkpt>
      <trkpt lat="47.0743" lon="-0.79358">
        <ele>155.39</ele>
        <time>2012-08-28T14:26:19Z</time>
      </trkpt>
      <trkpt lat="47.07427" lon="-0.79365">
        <ele>155.39</ele>
        <time>2012-08-28T14:26:20Z</time>
      </trkpt>
      <trkpt lat="47.07424" lon="-0.7937">
        <ele>154.91</ele>
        <time>2012-08-28T14:26:21Z</time>
      </trkpt>
      <trkpt lat="47.07419" lon="-0.79383">
        <ele>154.91</ele>
        <time>2012-08-28T14:26:23Z</time>
      </trkpt>
      <trkpt lat="47.07415" lon="-0.79388">
        <ele>154.43</ele>
        <time>2012-08-28T14:26:24Z</time>
      </trkpt>
      <trkpt lat="47.07411" lon="-0.79393">
        <ele>153.95</ele>
        <time>2012-08-28T14:26:25Z</time>
      </trkpt>
      <trkpt lat="47.07408" lon="-0.79399">
        <ele>153.95</ele>
        <time>2012-08-28T14:26:26Z</time>
      </trkpt>
      <trkpt lat="47.07406" lon="-0.79404">
        <ele>154.43</ele>
        <time>2012-08-28T14:26:27Z</time>
      </trkpt>
      <trkpt lat="47.07404" lon="-0.79409">
        <ele>153.95</ele>
        <time>2012-08-28T14:26:28Z</time>
      </trkpt>
      <trkpt lat="47.07402" lon="-0.79415">
        <ele>153.95</ele>
        <time>2012-08-28T14:26:29Z</time>
      </trkpt>
      <trkpt lat="47.07402" lon="-0.79422">
        <ele>153.47</ele>
        <time>2012-08-28T14:26:30Z</time>
      </trkpt>
      <trkpt lat="47.074" lon="-0.7943">
        <ele>153.95</ele>
        <time>2012-08-28T14:26:31Z</time>
      </trkpt>
      <trkpt lat="47.07399" lon="-0.79438">
        <ele>153.95</ele>
        <time>2012-08-28T14:26:32Z</time>
      </trkpt>
      <trkpt lat="47.07398" lon="-0.79444">
        <ele>153.95</ele>
        <time>2012-08-28T14:26:33Z</time>
      </trkpt>
      <trkpt lat="47.07396" lon="-0.79451">
        <ele>153.95</ele>
        <time>2012-08-28T14:26:34Z</time>
      </trkpt>
      <trkpt lat="47.07393" lon="-0.79457">
        <ele>153.95</ele>
        <time>2012-08-28T14:26:35Z</time>
      </trkpt>
      <trkpt lat="47.0739" lon="-0.79462">
        <ele>153.47</ele>
        <time>2012-08-28T14:26:36Z</time>
      </trkpt>
      <trkpt lat="47.07387" lon="-0.79467">
        <ele>153.47</ele>
        <time>2012-08-28T14:26:37Z</time>
      </trkpt>
      <trkpt lat="47.07385" lon="-0.79473">
        <ele>153.47</ele>
        <time>2012-08-28T14:26:38Z</time>
      </trkpt>
      <trkpt lat="47.07382" lon="-0.7948">
        <ele>153.47</ele>
        <time>2012-08-28T14:26:39Z</time>
      </trkpt>
      <trkpt lat="47.0738" lon="-0.79487">
        <ele>153.47</ele>
        <time>2012-08-28T14:26:40Z</time>
      </trkpt>
      <trkpt lat="47.07377" lon="-0.79493">
        <ele>153.95</ele>
        <time>2012-08-28T14:26:41Z</time>
      </trkpt>
      <trkpt lat="47.07373" lon="-0.79497">
        <ele>152.99</ele>
        <time>2012-08-28T14:26:42Z</time>
      </trkpt>
      <trkpt lat="47.07368" lon="-0.795">
        <ele>152.99</ele>
        <time>2012-08-28T14:26:43Z</time>
      </trkpt>
      <trkpt lat="47.07337" lon="-0.7952">
        <ele>152.99</ele>
        <time>2012-08-28T14:26:51Z</time>
      </trkpt>
      <trkpt lat="47.0733" lon="-0.79531">
        <ele>152.03</ele>
        <time>2012-08-28T14:26:53Z</time>
      </trkpt>
      <trkpt lat="47.07316" lon="-0.79551">
        <ele>151.54</ele>
        <time>2012-08-28T14:26:58Z</time>
      </trkpt>
      <trkpt lat="47.07314" lon="-0.79557">
        <ele>152.03</ele>
        <time>2012-08-28T14:26:59Z</time>
      </trkpt>
      <trkpt lat="47.07312" lon="-0.79562">
        <ele>151.54</ele>
        <time>2012-08-28T14:27:00Z</time>
      </trkpt>
      <trkpt lat="47.07286" lon="-0.79608">
        <ele>150.58</ele>
        <time>2012-08-28T14:27:09Z</time>
      </trkpt>
      <trkpt lat="47.07282" lon="-0.79615">
        <ele>150.1</ele>
        <time>2012-08-28T14:27:10Z</time>
      </trkpt>
      <trkpt lat="47.07278" lon="-0.79622">
        <ele>150.1</ele>
        <time>2012-08-28T14:27:11Z</time>
      </trkpt>
      <trkpt lat="47.07274" lon="-0.79628">
        <ele>149.62</ele>
        <time>2012-08-28T14:27:12Z</time>
      </trkpt>
      <trkpt lat="47.07266" lon="-0.79641">
        <ele>149.62</ele>
        <time>2012-08-28T14:27:14Z</time>
      </trkpt>
      <trkpt lat="47.07258" lon="-0.79655">
        <ele>149.14</ele>
        <time>2012-08-28T14:27:16Z</time>
      </trkpt>
      <trkpt lat="47.07255" lon="-0.79663">
        <ele>148.66</ele>
        <time>2012-08-28T14:27:17Z</time>
      </trkpt>
      <trkpt lat="47.07253" lon="-0.79672">
        <ele>148.66</ele>
        <time>2012-08-28T14:27:18Z</time>
      </trkpt>
      <trkpt lat="47.07253" lon="-0.79681">
        <ele>148.66</ele>
        <time>2012-08-28T14:27:19Z</time>
      </trkpt>
      <trkpt lat="47.07251" lon="-0.79692">
        <ele>148.18</ele>
        <time>2012-08-28T14:27:20Z</time>
      </trkpt>
      <trkpt lat="47.0725" lon="-0.79703">
        <ele>148.18</ele>
        <time>2012-08-28T14:27:21Z</time>
      </trkpt>
      <trkpt lat="47.07243" lon="-0.79778">
        <ele>145.78</ele>
        <time>2012-08-28T14:27:28Z</time>
      </trkpt>
      <trkpt lat="47.07237" lon="-0.7986">
        <ele>144.34</ele>
        <time>2012-08-28T14:27:35Z</time>
      </trkpt>
      <trkpt lat="47.07232" lon="-0.79911">
        <ele>143.37</ele>
        <time>2012-08-28T14:27:39Z</time>
      </trkpt>
      <trkpt lat="47.07229" lon="-0.79923">
        <ele>142.89</ele>
        <time>2012-08-28T14:27:40Z</time>
      </trkpt>
      <trkpt lat="47.07212" lon="-0.80069">
        <ele>140.01</ele>
        <time>2012-08-28T14:27:51Z</time>
      </trkpt>
      <trkpt lat="47.07211" lon="-0.80081">
        <ele>139.05</ele>
        <time>2012-08-28T14:27:52Z</time>
      </trkpt>
      <trkpt lat="47.07211" lon="-0.80094">
        <ele>139.53</ele>
        <time>2012-08-28T14:27:53Z</time>
      </trkpt>
      <trkpt lat="47.07204" lon="-0.80208">
        <ele>136.64</ele>
        <time>2012-08-28T14:28:02Z</time>
      </trkpt>
      <trkpt lat="47.07203" lon="-0.80234">
        <ele>135.68</ele>
        <time>2012-08-28T14:28:04Z</time>
      </trkpt>
      <trkpt lat="47.07194" lon="-0.80382">
        <ele>132.32</ele>
        <time>2012-08-28T14:28:15Z</time>
      </trkpt>
      <trkpt lat="47.07192" lon="-0.80419">
        <ele>132.32</ele>
        <time>2012-08-28T14:28:18Z</time>
      </trkpt>
      <trkpt lat="47.07192" lon="-0.80452">
        <ele>131.84</ele>
        <time>2012-08-28T14:28:21Z</time>
      </trkpt>
      <trkpt lat="47.0719" lon="-0.80463">
        <ele>131.84</ele>
        <time>2012-08-28T14:28:22Z</time>
      </trkpt>
      <trkpt lat="47.07189" lon="-0.80472">
        <ele>131.84</ele>
        <time>2012-08-28T14:28:23Z</time>
      </trkpt>
      <trkpt lat="47.07188" lon="-0.8048">
        <ele>131.84</ele>
        <time>2012-08-28T14:28:24Z</time>
      </trkpt>
      <trkpt lat="47.07187" lon="-0.80486">
        <ele>131.84</ele>
        <time>2012-08-28T14:28:25Z</time>
      </trkpt>
      <trkpt lat="47.07186" lon="-0.8049">
        <ele>132.32</ele>
        <time>2012-08-28T14:28:26Z</time>
      </trkpt>
      <trkpt lat="47.07184" lon="-0.80493">
        <ele>132.32</ele>
        <time>2012-08-28T14:28:27Z</time>
      </trkpt>
      <trkpt lat="47.07182" lon="-0.80498">
        <ele>131.84</ele>
        <time>2012-08-28T14:28:28Z</time>
      </trkpt>
      <trkpt lat="47.07181" lon="-0.80503">
        <ele>131.84</ele>
        <time>2012-08-28T14:28:29Z</time>
      </trkpt>
      <trkpt lat="47.07171" lon="-0.80529">
        <ele>132.8</ele>
        <time>2012-08-28T14:28:33Z</time>
      </trkpt>
      <trkpt lat="47.07157" lon="-0.80552">
        <ele>133.76</ele>
        <time>2012-08-28T14:28:37Z</time>
      </trkpt>
      <trkpt lat="47.07153" lon="-0.80557">
        <ele>133.28</ele>
        <time>2012-08-28T14:28:38Z</time>
      </trkpt>
      <trkpt lat="47.07124" lon="-0.80602">
        <ele>133.76</ele>
        <time>2012-08-28T14:28:48Z</time>
      </trkpt>
      <trkpt lat="47.07092" lon="-0.80646">
        <ele>134.24</ele>
        <time>2012-08-28T14:28:59Z</time>
      </trkpt>
      <trkpt lat="47.07107" lon="-0.80654">
        <ele>133.28</ele>
        <time>2012-08-28T14:29:07Z</time>
      </trkpt>
      <trkpt lat="47.0711" lon="-0.80654">
        <ele>133.28</ele>
        <time>2012-08-28T14:29:08Z</time>
      </trkpt>
      <trkpt lat="47.07115" lon="-0.80653">
        <ele>132.8</ele>
        <time>2012-08-28T14:29:09Z</time>
      </trkpt>
      <trkpt lat="47.07119" lon="-0.80651">
        <ele>133.28</ele>
        <time>2012-08-28T14:29:10Z</time>
      </trkpt>
      <trkpt lat="47.07123" lon="-0.80649">
        <ele>133.28</ele>
        <time>2012-08-28T14:29:11Z</time>
      </trkpt>
      <trkpt lat="47.07127" lon="-0.80647">
        <ele>132.8</ele>
        <time>2012-08-28T14:29:12Z</time>
      </trkpt>
      <trkpt lat="47.07131" lon="-0.80646">
        <ele>132.8</ele>
        <time>2012-08-28T14:29:13Z</time>
      </trkpt>
      <trkpt lat="47.07135" lon="-0.80644">
        <ele>132.32</ele>
        <time>2012-08-28T14:29:14Z</time>
      </trkpt>
      <trkpt lat="47.0714" lon="-0.80643">
        <ele>132.32</ele>
        <time>2012-08-28T14:29:15Z</time>
      </trkpt>
      <trkpt lat="47.07145" lon="-0.80641">
        <ele>132.32</ele>
        <time>2012-08-28T14:29:16Z</time>
      </trkpt>
      <trkpt lat="47.0715" lon="-0.80641">
        <ele>131.84</ele>
        <time>2012-08-28T14:29:17Z</time>
      </trkpt>
      <trkpt lat="47.07156" lon="-0.80641">
        <ele>131.36</ele>
        <time>2012-08-28T14:29:18Z</time>
      </trkpt>
      <trkpt lat="47.07162" lon="-0.8064">
        <ele>130.88</ele>
        <time>2012-08-28T14:29:19Z</time>
      </trkpt>
      <trkpt lat="47.07214" lon="-0.80628">
        <ele>129.43</ele>
        <time>2012-08-28T14:29:27Z</time>
      </trkpt>
      <trkpt lat="47.07233" lon="-0.80622">
        <ele>130.4</ele>
        <time>2012-08-28T14:29:30Z</time>
      </trkpt>
      <trkpt lat="47.07264" lon="-0.80615">
        <ele>131.36</ele>
        <time>2012-08-28T14:29:35Z</time>
      </trkpt>
      <trkpt lat="47.07294" lon="-0.80618">
        <ele>131.84</ele>
        <time>2012-08-28T14:29:40Z</time>
      </trkpt>
      <trkpt lat="47.0735" lon="-0.80637">
        <ele>133.28</ele>
        <time>2012-08-28T14:29:50Z</time>
      </trkpt>
      <trkpt lat="47.07356" lon="-0.80639">
        <ele>132.8</ele>
        <time>2012-08-28T14:29:51Z</time>
      </trkpt>
      <trkpt lat="47.07361" lon="-0.80639">
        <ele>132.8</ele>
        <time>2012-08-28T14:29:52Z</time>
      </trkpt>
      <trkpt lat="47.07367" lon="-0.80639">
        <ele>132.8</ele>
        <time>2012-08-28T14:29:53Z</time>
      </trkpt>
      <trkpt lat="47.07373" lon="-0.80639">
        <ele>133.28</ele>
        <time>2012-08-28T14:29:54Z</time>
      </trkpt>
      <trkpt lat="47.07379" lon="-0.80639">
        <ele>133.28</ele>
        <time>2012-08-28T14:29:55Z</time>
      </trkpt>
      <trkpt lat="47.0739" lon="-0.8064">
        <ele>133.28</ele>
        <time>2012-08-28T14:29:57Z</time>
      </trkpt>
      <trkpt lat="47.07406" lon="-0.80645">
        <ele>132.8</ele>
        <time>2012-08-28T14:30:00Z</time>
      </trkpt>
      <trkpt lat="47.07411" lon="-0.80649">
        <ele>132.8</ele>
        <time>2012-08-28T14:30:01Z</time>
      </trkpt>
      <trkpt lat="47.07421" lon="-0.80657">
        <ele>132.8</ele>
        <time>2012-08-28T14:30:03Z</time>
      </trkpt>
      <trkpt lat="47.07425" lon="-0.80662">
        <ele>132.32</ele>
        <time>2012-08-28T14:30:04Z</time>
      </trkpt>
      <trkpt lat="47.07431" lon="-0.80674">
        <ele>131.84</ele>
        <time>2012-08-28T14:30:06Z</time>
      </trkpt>
      <trkpt lat="47.07433" lon="-0.80679">
        <ele>131.84</ele>
        <time>2012-08-28T14:30:07Z</time>
      </trkpt>
      <trkpt lat="47.07435" lon="-0.80684">
        <ele>131.84</ele>
        <time>2012-08-28T14:30:08Z</time>
      </trkpt>
      <trkpt lat="47.07437" lon="-0.80689">
        <ele>131.36</ele>
        <time>2012-08-28T14:30:09Z</time>
      </trkpt>
      <trkpt lat="47.07438" lon="-0.80693">
        <ele>131.84</ele>
        <time>2012-08-28T14:30:10Z</time>
      </trkpt>
      <trkpt lat="47.07438" lon="-0.80725">
        <ele>130.88</ele>
        <time>2012-08-28T14:30:20Z</time>
      </trkpt>
      <trkpt lat="47.07438" lon="-0.80729">
        <ele>130.88</ele>
        <time>2012-08-28T14:30:21Z</time>
      </trkpt>
      <trkpt lat="47.07438" lon="-0.80735">
        <ele>130.88</ele>
        <time>2012-08-28T14:30:22Z</time>
      </trkpt>
      <trkpt lat="47.07434" lon="-0.80807">
        <ele>130.4</ele>
        <time>2012-08-28T14:30:36Z</time>
      </trkpt>
      <trkpt lat="47.07433" lon="-0.80816">
        <ele>130.4</ele>
        <time>2012-08-28T14:30:38Z</time>
      </trkpt>
      <trkpt lat="47.07435" lon="-0.8083">
        <ele>130.4</ele>
        <time>2012-08-28T14:30:41Z</time>
      </trkpt>
      <trkpt lat="47.07434" lon="-0.80835">
        <ele>130.4</ele>
        <time>2012-08-28T14:30:42Z</time>
      </trkpt>
      <trkpt lat="47.07432" lon="-0.80854">
        <ele>130.4</ele>
        <time>2012-08-28T14:30:45Z</time>
      </trkpt>
      <trkpt lat="47.07422" lon="-0.8098">
        <ele>130.4</ele>
        <time>2012-08-28T14:31:00Z</time>
      </trkpt>
      <trkpt lat="47.07422" lon="-0.80988">
        <ele>130.4</ele>
        <time>2012-08-28T14:31:01Z</time>
      </trkpt>
      <trkpt lat="47.07421" lon="-0.80996">
        <ele>129.92</ele>
        <time>2012-08-28T14:31:02Z</time>
      </trkpt>
      <trkpt lat="47.07422" lon="-0.81004">
        <ele>130.4</ele>
        <time>2012-08-28T14:31:03Z</time>
      </trkpt>
      <trkpt lat="47.07425" lon="-0.81059">
        <ele>129.92</ele>
        <time>2012-08-28T14:31:10Z</time>
      </trkpt>
      <trkpt lat="47.07427" lon="-0.81082">
        <ele>130.4</ele>
        <time>2012-08-28T14:31:13Z</time>
      </trkpt>
      <trkpt lat="47.07428" lon="-0.81113">
        <ele>130.4</ele>
        <time>2012-08-28T14:31:17Z</time>
      </trkpt>
      <trkpt lat="47.07431" lon="-0.81152">
        <ele>130.4</ele>
        <time>2012-08-28T14:31:22Z</time>
      </trkpt>
      <trkpt lat="47.07432" lon="-0.81159">
        <ele>130.4</ele>
        <time>2012-08-28T14:31:23Z</time>
      </trkpt>
      <trkpt lat="47.07432" lon="-0.81166">
        <ele>130.4</ele>
        <time>2012-08-28T14:31:24Z</time>
      </trkpt>
      <trkpt lat="47.07434" lon="-0.81173">
        <ele>130.4</ele>
        <time>2012-08-28T14:31:25Z</time>
      </trkpt>
      <trkpt lat="47.07435" lon="-0.8118">
        <ele>130.4</ele>
        <time>2012-08-28T14:31:26Z</time>
      </trkpt>
      <trkpt lat="47.07437" lon="-0.81188">
        <ele>129.92</ele>
        <time>2012-08-28T14:31:27Z</time>
      </trkpt>
      <trkpt lat="47.0744" lon="-0.81215">
        <ele>129.92</ele>
        <time>2012-08-28T14:31:30Z</time>
      </trkpt>
      <trkpt lat="47.07446" lon="-0.81328">
        <ele>129.92</ele>
        <time>2012-08-28T14:31:42Z</time>
      </trkpt>
      <trkpt lat="47.07446" lon="-0.81337">
        <ele>130.4</ele>
        <time>2012-08-28T14:31:43Z</time>
      </trkpt>
      <trkpt lat="47.07448" lon="-0.81457">
        <ele>130.88</ele>
        <time>2012-08-28T14:31:57Z</time>
      </trkpt>
      <trkpt lat="47.07447" lon="-0.81464">
        <ele>130.4</ele>
        <time>2012-08-28T14:31:58Z</time>
      </trkpt>
      <trkpt lat="47.07445" lon="-0.8147">
        <ele>129.92</ele>
        <time>2012-08-28T14:31:59Z</time>
      </trkpt>
      <trkpt lat="47.07442" lon="-0.81475">
        <ele>129.92</ele>
        <time>2012-08-28T14:32:00Z</time>
      </trkpt>
      <trkpt lat="47.07439" lon="-0.81479">
        <ele>130.4</ele>
        <time>2012-08-28T14:32:01Z</time>
      </trkpt>
      <trkpt lat="47.07435" lon="-0.81482">
        <ele>129.92</ele>
        <time>2012-08-28T14:32:02Z</time>
      </trkpt>
      <trkpt lat="47.07421" lon="-0.81492">
        <ele>129.92</ele>
        <time>2012-08-28T14:32:05Z</time>
      </trkpt>
      <trkpt lat="47.07416" lon="-0.81493">
        <ele>129.92</ele>
        <time>2012-08-28T14:32:06Z</time>
      </trkpt>
      <trkpt lat="47.07406" lon="-0.81494">
        <ele>130.4</ele>
        <time>2012-08-28T14:32:08Z</time>
      </trkpt>
      <trkpt lat="47.07393" lon="-0.81492">
        <ele>130.88</ele>
        <time>2012-08-28T14:32:16Z</time>
      </trkpt>
      <trkpt lat="47.07391" lon="-0.81491">
        <ele>130.88</ele>
        <time>2012-08-28T14:32:24Z</time>
      </trkpt>
      <trkpt lat="47.0739" lon="-0.81492">
        <ele>130.88</ele>
        <time>2012-08-28T14:32:25Z</time>
      </trkpt>
      <trkpt lat="47.07359" lon="-0.81484">
        <ele>130.4</ele>
        <time>2012-08-28T14:32:35Z</time>
      </trkpt>
      <trkpt lat="47.07292" lon="-0.81475">
        <ele>129.92</ele>
        <time>2012-08-28T14:32:52Z</time>
      </trkpt>
      <trkpt lat="47.07267" lon="-0.81469">
        <ele>130.4</ele>
        <time>2012-08-28T14:32:59Z</time>
      </trkpt>
      <trkpt lat="47.07264" lon="-0.8147">
        <ele>129.92</ele>
        <time>2012-08-28T14:33:00Z</time>
      </trkpt>
      <trkpt lat="47.0726" lon="-0.81469">
        <ele>130.4</ele>
        <time>2012-08-28T14:33:01Z</time>
      </trkpt>
      <trkpt lat="47.07256" lon="-0.81469">
        <ele>129.92</ele>
        <time>2012-08-28T14:33:02Z</time>
      </trkpt>
      <trkpt lat="47.07252" lon="-0.81468">
        <ele>129.92</ele>
        <time>2012-08-28T14:33:03Z</time>
      </trkpt>
      <trkpt lat="47.07249" lon="-0.81467">
        <ele>129.92</ele>
        <time>2012-08-28T14:33:04Z</time>
      </trkpt>
      <trkpt lat="47.07181" lon="-0.81454">
        <ele>130.4</ele>
        <time>2012-08-28T14:33:19Z</time>
      </trkpt>
      <trkpt lat="47.07093" lon="-0.81441">
        <ele>130.88</ele>
        <time>2012-08-28T14:33:36Z</time>
      </trkpt>
      <trkpt lat="47.07073" lon="-0.81446">
        <ele>130.4</ele>
        <time>2012-08-28T14:33:40Z</time>
      </trkpt>
      <trkpt lat="47.07055" lon="-0.81457">
        <ele>130.88</ele>
        <time>2012-08-28T14:33:44Z</time>
      </trkpt>
      <trkpt lat="47.07036" lon="-0.81472">
        <ele>130.4</ele>
        <time>2012-08-28T14:33:49Z</time>
      </trkpt>
      <trkpt lat="47.07032" lon="-0.81474">
        <ele>130.88</ele>
        <time>2012-08-28T14:33:50Z</time>
      </trkpt>
      <trkpt lat="47.07028" lon="-0.81477">
        <ele>130.88</ele>
        <time>2012-08-28T14:33:51Z</time>
      </trkpt>
      <trkpt lat="47.07021" lon="-0.81484">
        <ele>131.36</ele>
        <time>2012-08-28T14:33:59Z</time>
      </trkpt>
      <trkpt lat="47.07019" lon="-0.81484">
        <ele>131.36</ele>
        <time>2012-08-28T14:34:05Z</time>
      </trkpt>
      <trkpt lat="47.07018" lon="-0.81485">
        <ele>131.36</ele>
        <time>2012-08-28T14:34:06Z</time>
      </trkpt>
      <trkpt lat="47.07016" lon="-0.81485">
        <ele>131.36</ele>
        <time>2012-08-28T14:34:07Z</time>
      </trkpt>
      <trkpt lat="47.07013" lon="-0.81486">
        <ele>131.36</ele>
        <time>2012-08-28T14:34:08Z</time>
      </trkpt>
      <trkpt lat="47.07011" lon="-0.81488">
        <ele>131.36</ele>
        <time>2012-08-28T14:34:09Z</time>
      </trkpt>
      <trkpt lat="47.06998" lon="-0.81499">
        <ele>130.88</ele>
        <time>2012-08-28T14:34:13Z</time>
      </trkpt>
      <trkpt lat="47.06995" lon="-0.81504">
        <ele>130.4</ele>
        <time>2012-08-28T14:34:14Z</time>
      </trkpt>
      <trkpt lat="47.06992" lon="-0.81508">
        <ele>130.4</ele>
        <time>2012-08-28T14:34:15Z</time>
      </trkpt>
      <trkpt lat="47.06988" lon="-0.81512">
        <ele>130.4</ele>
        <time>2012-08-28T14:34:16Z</time>
      </trkpt>
      <trkpt lat="47.06984" lon="-0.81514">
        <ele>130.88</ele>
        <time>2012-08-28T14:34:17Z</time>
      </trkpt>
      <trkpt lat="47.0698" lon="-0.81516">
        <ele>130.88</ele>
        <time>2012-08-28T14:34:18Z</time>
      </trkpt>
      <trkpt lat="47.06976" lon="-0.81518">
        <ele>130.4</ele>
        <time>2012-08-28T14:34:19Z</time>
      </trkpt>
      <trkpt lat="47.06951" lon="-0.81529">
        <ele>131.36</ele>
        <time>2012-08-28T14:34:25Z</time>
      </trkpt>
      <trkpt lat="47.06943" lon="-0.81531">
        <ele>131.36</ele>
        <time>2012-08-28T14:34:27Z</time>
      </trkpt>
      <trkpt lat="47.06939" lon="-0.81534">
        <ele>130.4</ele>
        <time>2012-08-28T14:34:28Z</time>
      </trkpt>
      <trkpt lat="47.06906" lon="-0.81557">
        <ele>130.4</ele>
        <time>2012-08-28T14:34:40Z</time>
      </trkpt>
      <trkpt lat="47.06876" lon="-0.81543">
        <ele>130.4</ele>
        <time>2012-08-28T14:34:49Z</time>
      </trkpt>
      <trkpt lat="47.06859" lon="-0.81525">
        <ele>130.4</ele>
        <time>2012-08-28T14:34:54Z</time>
      </trkpt>
      <trkpt lat="47.06793" lon="-0.81471">
        <ele>129.92</ele>
        <time>2012-08-28T14:35:10Z</time>
      </trkpt>
      <trkpt lat="47.06756" lon="-0.81442">
        <ele>130.88</ele>
        <time>2012-08-28T14:35:19Z</time>
      </trkpt>
      <trkpt lat="47.06735" lon="-0.81416">
        <ele>130.88</ele>
        <time>2012-08-28T14:35:25Z</time>
      </trkpt>
      <trkpt lat="47.06732" lon="-0.81411">
        <ele>131.36</ele>
        <time>2012-08-28T14:35:26Z</time>
      </trkpt>
      <trkpt lat="47.06717" lon="-0.81392">
        <ele>131.36</ele>
        <time>2012-08-28T14:35:31Z</time>
      </trkpt>
      <trkpt lat="47.06714" lon="-0.81392">
        <ele>131.84</ele>
        <time>2012-08-28T14:35:32Z</time>
      </trkpt>
      <trkpt lat="47.0671" lon="-0.81392">
        <ele>131.84</ele>
        <time>2012-08-28T14:35:33Z</time>
      </trkpt>
      <trkpt lat="47.06708" lon="-0.81389">
        <ele>132.32</ele>
        <time>2012-08-28T14:35:34Z</time>
      </trkpt>
      <trkpt lat="47.06706" lon="-0.81384">
        <ele>132.8</ele>
        <time>2012-08-28T14:35:35Z</time>
      </trkpt>
      <trkpt lat="47.06706" lon="-0.81378">
        <ele>132.8</ele>
        <time>2012-08-28T14:35:36Z</time>
      </trkpt>
      <trkpt lat="47.06705" lon="-0.81372">
        <ele>132.32</ele>
        <time>2012-08-28T14:35:37Z</time>
      </trkpt>
      <trkpt lat="47.06706" lon="-0.81366">
        <ele>132.32</ele>
        <time>2012-08-28T14:35:38Z</time>
      </trkpt>
      <trkpt lat="47.06706" lon="-0.8136">
        <ele>132.32</ele>
        <time>2012-08-28T14:35:39Z</time>
      </trkpt>
      <trkpt lat="47.06707" lon="-0.81354">
        <ele>132.32</ele>
        <time>2012-08-28T14:35:40Z</time>
      </trkpt>
      <trkpt lat="47.06708" lon="-0.81348">
        <ele>132.32</ele>
        <time>2012-08-28T14:35:41Z</time>
      </trkpt>
      <trkpt lat="47.06711" lon="-0.81343">
        <ele>132.32</ele>
        <time>2012-08-28T14:35:42Z</time>
      </trkpt>
      <trkpt lat="47.06715" lon="-0.81332">
        <ele>132.32</ele>
        <time>2012-08-28T14:35:44Z</time>
      </trkpt>
      <trkpt lat="47.06717" lon="-0.81326">
        <ele>131.84</ele>
        <time>2012-08-28T14:35:45Z</time>
      </trkpt>
      <trkpt lat="47.06719" lon="-0.8132">
        <ele>131.84</ele>
        <time>2012-08-28T14:35:46Z</time>
      </trkpt>
      <trkpt lat="47.0672" lon="-0.81314">
        <ele>131.84</ele>
        <time>2012-08-28T14:35:47Z</time>
      </trkpt>
      <trkpt lat="47.0672" lon="-0.81308">
        <ele>131.84</ele>
        <time>2012-08-28T14:35:48Z</time>
      </trkpt>
      <trkpt lat="47.0672" lon="-0.81301">
        <ele>131.36</ele>
        <time>2012-08-28T14:35:49Z</time>
      </trkpt>
      <trkpt lat="47.06719" lon="-0.81295">
        <ele>131.36</ele>
        <time>2012-08-28T14:35:50Z</time>
      </trkpt>
      <trkpt lat="47.06719" lon="-0.81289">
        <ele>131.36</ele>
        <time>2012-08-28T14:35:51Z</time>
      </trkpt>
      <trkpt lat="47.0672" lon="-0.81283">
        <ele>130.88</ele>
        <time>2012-08-28T14:35:52Z</time>
      </trkpt>
      <trkpt lat="47.06742" lon="-0.81226">
        <ele>131.36</ele>
        <time>2012-08-28T14:36:02Z</time>
      </trkpt>
      <trkpt lat="47.06742" lon="-0.8122">
        <ele>131.36</ele>
        <time>2012-08-28T14:36:03Z</time>
      </trkpt>
      <trkpt lat="47.0674" lon="-0.81216">
        <ele>130.88</ele>
        <time>2012-08-28T14:36:04Z</time>
      </trkpt>
      <trkpt lat="47.06738" lon="-0.81213">
        <ele>130.88</ele>
        <time>2012-08-28T14:36:05Z</time>
      </trkpt>
      <trkpt lat="47.06735" lon="-0.81212">
        <ele>130.88</ele>
        <time>2012-08-28T14:36:06Z</time>
      </trkpt>
      <trkpt lat="47.06731" lon="-0.81211">
        <ele>130.4</ele>
        <time>2012-08-28T14:36:07Z</time>
      </trkpt>
      <trkpt lat="47.06728" lon="-0.8121">
        <ele>130.88</ele>
        <time>2012-08-28T14:36:08Z</time>
      </trkpt>
      <trkpt lat="47.06724" lon="-0.8121">
        <ele>130.88</ele>
        <time>2012-08-28T14:36:09Z</time>
      </trkpt>
      <trkpt lat="47.0672" lon="-0.8121">
        <ele>130.88</ele>
        <time>2012-08-28T14:36:10Z</time>
      </trkpt>
      <trkpt lat="47.06716" lon="-0.81211">
        <ele>130.4</ele>
        <time>2012-08-28T14:36:11Z</time>
      </trkpt>
      <trkpt lat="47.06713" lon="-0.8121">
        <ele>130.4</ele>
        <time>2012-08-28T14:36:12Z</time>
      </trkpt>
      <trkpt lat="47.06696" lon="-0.8121">
        <ele>130.88</ele>
        <time>2012-08-28T14:36:16Z</time>
      </trkpt>
      <trkpt lat="47.06691" lon="-0.8121">
        <ele>130.88</ele>
        <time>2012-08-28T14:36:17Z</time>
      </trkpt>
      <trkpt lat="47.06687" lon="-0.8121">
        <ele>130.88</ele>
        <time>2012-08-28T14:36:18Z</time>
      </trkpt>
      <trkpt lat="47.06672" lon="-0.81212">
        <ele>130.88</ele>
        <time>2012-08-28T14:36:21Z</time>
      </trkpt>
      <trkpt lat="47.06667" lon="-0.81211">
        <ele>131.36</ele>
        <time>2012-08-28T14:36:22Z</time>
      </trkpt>
      <trkpt lat="47.06662" lon="-0.81211">
        <ele>131.84</ele>
        <time>2012-08-28T14:36:23Z</time>
      </trkpt>
      <trkpt lat="47.0661" lon="-0.8121">
        <ele>132.32</ele>
        <time>2012-08-28T14:36:34Z</time>
      </trkpt>
      <trkpt lat="47.06576" lon="-0.81212">
        <ele>132.8</ele>
        <time>2012-08-28T14:36:41Z</time>
      </trkpt>
      <trkpt lat="47.06572" lon="-0.81211">
        <ele>133.28</ele>
        <time>2012-08-28T14:36:42Z</time>
      </trkpt>
      <trkpt lat="47.06508" lon="-0.81214">
        <ele>133.76</ele>
        <time>2012-08-28T14:36:55Z</time>
      </trkpt>
      <trkpt lat="47.06503" lon="-0.81214">
        <ele>134.24</ele>
        <time>2012-08-28T14:36:56Z</time>
      </trkpt>
      <trkpt lat="47.06441" lon="-0.81213">
        <ele>136.16</ele>
        <time>2012-08-28T14:37:09Z</time>
      </trkpt>
      <trkpt lat="47.06401" lon="-0.81217">
        <ele>137.13</ele>
        <time>2012-08-28T14:37:18Z</time>
      </trkpt>
      <trkpt lat="47.06396" lon="-0.81217">
        <ele>136.64</ele>
        <time>2012-08-28T14:37:19Z</time>
      </trkpt>
      <trkpt lat="47.06345" lon="-0.81221">
        <ele>138.57</ele>
        <time>2012-08-28T14:37:32Z</time>
      </trkpt>
      <trkpt lat="47.06335" lon="-0.81226">
        <ele>139.05</ele>
        <time>2012-08-28T14:37:40Z</time>
      </trkpt>
      <trkpt lat="47.06334" lon="-0.81227">
        <ele>140.49</ele>
        <time>2012-08-28T14:37:42Z</time>
      </trkpt>
      <trkpt lat="47.06332" lon="-0.81228">
        <ele>139.53</ele>
        <time>2012-08-28T14:37:54Z</time>
      </trkpt>
      <trkpt lat="47.06331" lon="-0.81231">
        <ele>139.53</ele>
        <time>2012-08-28T14:37:55Z</time>
      </trkpt>
      <trkpt lat="47.06329" lon="-0.81234">
        <ele>139.53</ele>
        <time>2012-08-28T14:37:56Z</time>
      </trkpt>
      <trkpt lat="47.06328" lon="-0.81236">
        <ele>139.05</ele>
        <time>2012-08-28T14:37:57Z</time>
      </trkpt>
      <trkpt lat="47.06326" lon="-0.81238">
        <ele>139.05</ele>
        <time>2012-08-28T14:37:58Z</time>
      </trkpt>
      <trkpt lat="47.06323" lon="-0.8124">
        <ele>139.53</ele>
        <time>2012-08-28T14:37:59Z</time>
      </trkpt>
      <trkpt lat="47.06321" lon="-0.81241">
        <ele>139.05</ele>
        <time>2012-08-28T14:38:00Z</time>
      </trkpt>
      <trkpt lat="47.06318" lon="-0.81241">
        <ele>138.57</ele>
        <time>2012-08-28T14:38:01Z</time>
      </trkpt>
      <trkpt lat="47.06316" lon="-0.81241">
        <ele>138.57</ele>
        <time>2012-08-28T14:38:02Z</time>
      </trkpt>
      <trkpt lat="47.06313" lon="-0.81241">
        <ele>139.05</ele>
        <time>2012-08-28T14:38:03Z</time>
      </trkpt>
      <trkpt lat="47.0631" lon="-0.81242">
        <ele>139.05</ele>
        <time>2012-08-28T14:38:04Z</time>
      </trkpt>
      <trkpt lat="47.06307" lon="-0.81242">
        <ele>138.57</ele>
        <time>2012-08-28T14:38:05Z</time>
      </trkpt>
      <trkpt lat="47.06303" lon="-0.81241">
        <ele>138.57</ele>
        <time>2012-08-28T14:38:06Z</time>
      </trkpt>
      <trkpt lat="47.06265" lon="-0.8124">
        <ele>138.57</ele>
        <time>2012-08-28T14:38:15Z</time>
      </trkpt>
      <trkpt lat="47.06261" lon="-0.8124">
        <ele>139.05</ele>
        <time>2012-08-28T14:38:16Z</time>
      </trkpt>
      <trkpt lat="47.06198" lon="-0.8124">
        <ele>139.53</ele>
        <time>2012-08-28T14:38:29Z</time>
      </trkpt>
      <trkpt lat="47.06123" lon="-0.81237">
        <ele>140.49</ele>
        <time>2012-08-28T14:38:45Z</time>
      </trkpt>
      <trkpt lat="47.06058" lon="-0.81238">
        <ele>141.93</ele>
        <time>2012-08-28T14:38:59Z</time>
      </trkpt>
      <trkpt lat="47.06045" lon="-0.81238">
        <ele>141.93</ele>
        <time>2012-08-28T14:39:02Z</time>
      </trkpt>
      <trkpt lat="47.06041" lon="-0.81238">
        <ele>141.93</ele>
        <time>2012-08-28T14:39:03Z</time>
      </trkpt>
      <trkpt lat="47.06036" lon="-0.81238">
        <ele>141.93</ele>
        <time>2012-08-28T14:39:04Z</time>
      </trkpt>
      <trkpt lat="47.06032" lon="-0.81237">
        <ele>142.41</ele>
        <time>2012-08-28T14:39:05Z</time>
      </trkpt>
      <trkpt lat="47.06028" lon="-0.81236">
        <ele>142.41</ele>
        <time>2012-08-28T14:39:06Z</time>
      </trkpt>
      <trkpt lat="47.06023" lon="-0.81236">
        <ele>142.89</ele>
        <time>2012-08-28T14:39:07Z</time>
      </trkpt>
      <trkpt lat="47.05946" lon="-0.81237">
        <ele>144.82</ele>
        <time>2012-08-28T14:39:25Z</time>
      </trkpt>
      <trkpt lat="47.05878" lon="-0.81239">
        <ele>147.22</ele>
        <time>2012-08-28T14:39:41Z</time>
      </trkpt>
      <trkpt lat="47.05874" lon="-0.81239">
        <ele>147.22</ele>
        <time>2012-08-28T14:39:42Z</time>
      </trkpt>
      <trkpt lat="47.05861" lon="-0.81238">
        <ele>147.22</ele>
        <time>2012-08-28T14:39:45Z</time>
      </trkpt>
      <trkpt lat="47.05857" lon="-0.81235">
        <ele>147.7</ele>
        <time>2012-08-28T14:39:46Z</time>
      </trkpt>
      <trkpt lat="47.05854" lon="-0.81232">
        <ele>147.22</ele>
        <time>2012-08-28T14:39:47Z</time>
      </trkpt>
      <trkpt lat="47.05851" lon="-0.81227">
        <ele>147.7</ele>
        <time>2012-08-28T14:39:48Z</time>
      </trkpt>
      <trkpt lat="47.05849" lon="-0.81222">
        <ele>147.7</ele>
        <time>2012-08-28T14:39:49Z</time>
      </trkpt>
      <trkpt lat="47.05847" lon="-0.81217">
        <ele>148.18</ele>
        <time>2012-08-28T14:39:50Z</time>
      </trkpt>
      <trkpt lat="47.05844" lon="-0.81212">
        <ele>148.18</ele>
        <time>2012-08-28T14:39:51Z</time>
      </trkpt>
      <trkpt lat="47.05841" lon="-0.81207">
        <ele>148.18</ele>
        <time>2012-08-28T14:39:52Z</time>
      </trkpt>
      <trkpt lat="47.05839" lon="-0.81203">
        <ele>147.7</ele>
        <time>2012-08-28T14:39:53Z</time>
      </trkpt>
      <trkpt lat="47.05835" lon="-0.81201">
        <ele>148.18</ele>
        <time>2012-08-28T14:39:54Z</time>
      </trkpt>
      <trkpt lat="47.05831" lon="-0.812">
        <ele>148.18</ele>
        <time>2012-08-28T14:39:55Z</time>
      </trkpt>
      <trkpt lat="47.05826" lon="-0.812">
        <ele>148.18</ele>
        <time>2012-08-28T14:39:56Z</time>
      </trkpt>
      <trkpt lat="47.05822" lon="-0.81202">
        <ele>148.18</ele>
        <time>2012-08-28T14:39:57Z</time>
      </trkpt>
      <trkpt lat="47.05762" lon="-0.81228">
        <ele>149.62</ele>
        <time>2012-08-28T14:40:12Z</time>
      </trkpt>
      <trkpt lat="47.05717" lon="-0.81249">
        <ele>150.58</ele>
        <time>2012-08-28T14:40:25Z</time>
      </trkpt>
      <trkpt lat="47.05711" lon="-0.81266">
        <ele>151.06</ele>
        <time>2012-08-28T14:40:29Z</time>
      </trkpt>
      <trkpt lat="47.05708" lon="-0.81373">
        <ele>149.62</ele>
        <time>2012-08-28T14:40:44Z</time>
      </trkpt>
      <trkpt lat="47.05707" lon="-0.8138">
        <ele>150.1</ele>
        <time>2012-08-28T14:40:45Z</time>
      </trkpt>
      <trkpt lat="47.05707" lon="-0.81386">
        <ele>150.1</ele>
        <time>2012-08-28T14:40:46Z</time>
      </trkpt>
      <trkpt lat="47.05705" lon="-0.81407">
        <ele>150.58</ele>
        <time>2012-08-28T14:40:50Z</time>
      </trkpt>
      <trkpt lat="47.05704" lon="-0.81385">
        <ele>150.58</ele>
        <time>2012-08-28T14:40:56Z</time>
      </trkpt>
      <trkpt lat="47.05704" lon="-0.81379">
        <ele>150.58</ele>
        <time>2012-08-28T14:40:57Z</time>
      </trkpt>
      <trkpt lat="47.05708" lon="-0.81269">
        <ele>151.54</ele>
        <time>2012-08-28T14:41:11Z</time>
      </trkpt>
      <trkpt lat="47.05708" lon="-0.81136">
        <ele>151.54</ele>
        <time>2012-08-28T14:41:27Z</time>
      </trkpt>
      <trkpt lat="47.05712" lon="-0.81019">
        <ele>151.54</ele>
        <time>2012-08-28T14:41:42Z</time>
      </trkpt>
      <trkpt lat="47.05717" lon="-0.80924">
        <ele>151.54</ele>
        <time>2012-08-28T14:41:56Z</time>
      </trkpt>
      <trkpt lat="47.05725" lon="-0.80831">
        <ele>151.54</ele>
        <time>2012-08-28T14:42:08Z</time>
      </trkpt>
      <trkpt lat="47.05744" lon="-0.8072">
        <ele>151.06</ele>
        <time>2012-08-28T14:42:22Z</time>
      </trkpt>
      <trkpt lat="47.05745" lon="-0.80712">
        <ele>151.06</ele>
        <time>2012-08-28T14:42:23Z</time>
      </trkpt>
      <trkpt lat="47.05766" lon="-0.80593">
        <ele>151.54</ele>
        <time>2012-08-28T14:42:38Z</time>
      </trkpt>
      <trkpt lat="47.05787" lon="-0.80477">
        <ele>152.03</ele>
        <time>2012-08-28T14:42:53Z</time>
      </trkpt>
      <trkpt lat="47.05786" lon="-0.8047">
        <ele>151.54</ele>
        <time>2012-08-28T14:42:54Z</time>
      </trkpt>
      <trkpt lat="47.05784" lon="-0.80464">
        <ele>151.54</ele>
        <time>2012-08-28T14:42:55Z</time>
      </trkpt>
      <trkpt lat="47.0578" lon="-0.8046">
        <ele>152.03</ele>
        <time>2012-08-28T14:42:56Z</time>
      </trkpt>
      <trkpt lat="47.05775" lon="-0.80459">
        <ele>151.54</ele>
        <time>2012-08-28T14:42:57Z</time>
      </trkpt>
      <trkpt lat="47.05771" lon="-0.80461">
        <ele>151.06</ele>
        <time>2012-08-28T14:42:58Z</time>
      </trkpt>
      <trkpt lat="47.05768" lon="-0.80466">
        <ele>151.54</ele>
        <time>2012-08-28T14:42:59Z</time>
      </trkpt>
      <trkpt lat="47.05765" lon="-0.80472">
        <ele>151.06</ele>
        <time>2012-08-28T14:43:00Z</time>
      </trkpt>
      <trkpt lat="47.05763" lon="-0.80478">
        <ele>151.06</ele>
        <time>2012-08-28T14:43:01Z</time>
      </trkpt>
      <trkpt lat="47.05714" lon="-0.80567">
        <ele>150.1</ele>
        <time>2012-08-28T14:43:14Z</time>
      </trkpt>
      <trkpt lat="47.05637" lon="-0.80664">
        <ele>148.66</ele>
        <time>2012-08-28T14:43:30Z</time>
      </trkpt>
      <trkpt lat="47.0555" lon="-0.80753">
        <ele>146.26</ele>
        <time>2012-08-28T14:43:46Z</time>
      </trkpt>
      <trkpt lat="47.0547" lon="-0.80873">
        <ele>143.85</ele>
        <time>2012-08-28T14:44:03Z</time>
      </trkpt>
      <trkpt lat="47.05383" lon="-0.80981">
        <ele>144.34</ele>
        <time>2012-08-28T14:44:21Z</time>
      </trkpt>
      <trkpt lat="47.0528" lon="-0.81077">
        <ele>144.82</ele>
        <time>2012-08-28T14:44:39Z</time>
      </trkpt>
      <trkpt lat="47.05186" lon="-0.81164">
        <ele>143.37</ele>
        <time>2012-08-28T14:44:55Z</time>
      </trkpt>
      <trkpt lat="47.05089" lon="-0.81249">
        <ele>140.01</ele>
        <time>2012-08-28T14:45:11Z</time>
      </trkpt>
      <trkpt lat="47.05019" lon="-0.81291">
        <ele>137.13</ele>
        <time>2012-08-28T14:45:22Z</time>
      </trkpt>
      <trkpt lat="47.04959" lon="-0.81327">
        <ele>134.72</ele>
        <time>2012-08-28T14:45:31Z</time>
      </trkpt>
      <trkpt lat="47.04952" lon="-0.81333">
        <ele>133.76</ele>
        <time>2012-08-28T14:45:32Z</time>
      </trkpt>
      <trkpt lat="47.0491" lon="-0.81383">
        <ele>130.4</ele>
        <time>2012-08-28T14:45:39Z</time>
      </trkpt>
      <trkpt lat="47.04897" lon="-0.81414">
        <ele>128.95</ele>
        <time>2012-08-28T14:45:42Z</time>
      </trkpt>
      <trkpt lat="47.04896" lon="-0.81425">
        <ele>128.47</ele>
        <time>2012-08-28T14:45:43Z</time>
      </trkpt>
      <trkpt lat="47.04896" lon="-0.81445">
        <ele>128.95</ele>
        <time>2012-08-28T14:45:45Z</time>
      </trkpt>
      <trkpt lat="47.04894" lon="-0.81453">
        <ele>129.92</ele>
        <time>2012-08-28T14:45:46Z</time>
      </trkpt>
      <trkpt lat="47.0489" lon="-0.81458">
        <ele>130.4</ele>
        <time>2012-08-28T14:45:47Z</time>
      </trkpt>
      <trkpt lat="47.04885" lon="-0.81462">
        <ele>130.4</ele>
        <time>2012-08-28T14:45:48Z</time>
      </trkpt>
      <trkpt lat="47.04879" lon="-0.81462">
        <ele>129.92</ele>
        <time>2012-08-28T14:45:49Z</time>
      </trkpt>
      <trkpt lat="47.04873" lon="-0.81461">
        <ele>128.95</ele>
        <time>2012-08-28T14:45:50Z</time>
      </trkpt>
      <trkpt lat="47.04868" lon="-0.81458">
        <ele>128.95</ele>
        <time>2012-08-28T14:45:51Z</time>
      </trkpt>
      <trkpt lat="47.04862" lon="-0.81455">
        <ele>129.43</ele>
        <time>2012-08-28T14:45:52Z</time>
      </trkpt>
      <trkpt lat="47.04855" lon="-0.81455">
        <ele>128.47</ele>
        <time>2012-08-28T14:45:53Z</time>
      </trkpt>
      <trkpt lat="47.04849" lon="-0.81457">
        <ele>127.99</ele>
        <time>2012-08-28T14:45:54Z</time>
      </trkpt>
      <trkpt lat="47.04843" lon="-0.81462">
        <ele>127.51</ele>
        <time>2012-08-28T14:45:55Z</time>
      </trkpt>
      <trkpt lat="47.04838" lon="-0.81468">
        <ele>126.55</ele>
        <time>2012-08-28T14:45:56Z</time>
      </trkpt>
      <trkpt lat="47.04832" lon="-0.81474">
        <ele>126.55</ele>
        <time>2012-08-28T14:45:57Z</time>
      </trkpt>
      <trkpt lat="47.04826" lon="-0.8148">
        <ele>127.03</ele>
        <time>2012-08-28T14:45:58Z</time>
      </trkpt>
      <trkpt lat="47.0477" lon="-0.81526">
        <ele>124.15</ele>
        <time>2012-08-28T14:46:07Z</time>
      </trkpt>
      <trkpt lat="47.04675" lon="-0.816">
        <ele>121.26</ele>
        <time>2012-08-28T14:46:23Z</time>
      </trkpt>
      <trkpt lat="47.04646" lon="-0.81618">
        <ele>121.26</ele>
        <time>2012-08-28T14:46:28Z</time>
      </trkpt>
      <trkpt lat="47.04617" lon="-0.8164">
        <ele>120.78</ele>
        <time>2012-08-28T14:46:35Z</time>
      </trkpt>
      <trkpt lat="47.04613" lon="-0.81645">
        <ele>120.78</ele>
        <time>2012-08-28T14:46:36Z</time>
      </trkpt>
      <trkpt lat="47.04587" lon="-0.81689">
        <ele>121.26</ele>
        <time>2012-08-28T14:46:43Z</time>
      </trkpt>
      <trkpt lat="47.0458" lon="-0.81711">
        <ele>121.74</ele>
        <time>2012-08-28T14:46:46Z</time>
      </trkpt>
      <trkpt lat="47.04561" lon="-0.81767">
        <ele>120.78</ele>
        <time>2012-08-28T14:46:54Z</time>
      </trkpt>
      <trkpt lat="47.04558" lon="-0.81775">
        <ele>120.3</ele>
        <time>2012-08-28T14:46:55Z</time>
      </trkpt>
      <trkpt lat="47.04554" lon="-0.81782">
        <ele>120.3</ele>
        <time>2012-08-28T14:46:56Z</time>
      </trkpt>
      <trkpt lat="47.04551" lon="-0.81789">
        <ele>119.82</ele>
        <time>2012-08-28T14:46:57Z</time>
      </trkpt>
      <trkpt lat="47.04548" lon="-0.81797">
        <ele>119.82</ele>
        <time>2012-08-28T14:46:58Z</time>
      </trkpt>
      <trkpt lat="47.04546" lon="-0.81805">
        <ele>119.82</ele>
        <time>2012-08-28T14:46:59Z</time>
      </trkpt>
      <trkpt lat="47.04545" lon="-0.81815">
        <ele>119.82</ele>
        <time>2012-08-28T14:47:00Z</time>
      </trkpt>
      <trkpt lat="47.04545" lon="-0.81823">
        <ele>119.82</ele>
        <time>2012-08-28T14:47:01Z</time>
      </trkpt>
      <trkpt lat="47.04545" lon="-0.81832">
        <ele>119.82</ele>
        <time>2012-08-28T14:47:02Z</time>
      </trkpt>
      <trkpt lat="47.04544" lon="-0.8184">
        <ele>119.82</ele>
        <time>2012-08-28T14:47:03Z</time>
      </trkpt>
      <trkpt lat="47.0454" lon="-0.81914">
        <ele>119.82</ele>
        <time>2012-08-28T14:47:12Z</time>
      </trkpt>
      <trkpt lat="47.0454" lon="-0.81922">
        <ele>119.34</ele>
        <time>2012-08-28T14:47:13Z</time>
      </trkpt>
      <trkpt lat="47.04539" lon="-0.81976">
        <ele>117.9</ele>
        <time>2012-08-28T14:47:19Z</time>
      </trkpt>
      <trkpt lat="47.04541" lon="-0.81985">
        <ele>117.9</ele>
        <time>2012-08-28T14:47:20Z</time>
      </trkpt>
      <trkpt lat="47.04542" lon="-0.81994">
        <ele>117.9</ele>
        <time>2012-08-28T14:47:21Z</time>
      </trkpt>
      <trkpt lat="47.04544" lon="-0.82004">
        <ele>117.9</ele>
        <time>2012-08-28T14:47:22Z</time>
      </trkpt>
      <trkpt lat="47.04546" lon="-0.82013">
        <ele>117.42</ele>
        <time>2012-08-28T14:47:23Z</time>
      </trkpt>
      <trkpt lat="47.04581" lon="-0.82113">
        <ele>115.5</ele>
        <time>2012-08-28T14:47:35Z</time>
      </trkpt>
      <trkpt lat="47.0459" lon="-0.82142">
        <ele>116.46</ele>
        <time>2012-08-28T14:47:42Z</time>
      </trkpt>
      <trkpt lat="47.04589" lon="-0.82143">
        <ele>115.98</ele>
        <time>2012-08-28T14:47:43Z</time>
      </trkpt>
      <trkpt lat="47.04588" lon="-0.82142">
        <ele>115.98</ele>
        <time>2012-08-28T14:47:44Z</time>
      </trkpt>
      <trkpt lat="47.04587" lon="-0.82141">
        <ele>115.98</ele>
        <time>2012-08-28T14:47:45Z</time>
      </trkpt>
      <trkpt lat="47.04587" lon="-0.82138">
        <ele>115.98</ele>
        <time>2012-08-28T14:47:46Z</time>
      </trkpt>
      <trkpt lat="47.04587" lon="-0.82133">
        <ele>115.98</ele>
        <time>2012-08-28T14:47:47Z</time>
      </trkpt>
      <trkpt lat="47.04586" lon="-0.82129">
        <ele>115.98</ele>
        <time>2012-08-28T14:47:48Z</time>
      </trkpt>
      <trkpt lat="47.04585" lon="-0.82125">
        <ele>115.98</ele>
        <time>2012-08-28T14:47:49Z</time>
      </trkpt>
      <trkpt lat="47.04583" lon="-0.82122">
        <ele>115.98</ele>
        <time>2012-08-28T14:47:50Z</time>
      </trkpt>
      <trkpt lat="47.04573" lon="-0.82102">
        <ele>115.98</ele>
        <time>2012-08-28T14:47:56Z</time>
      </trkpt>
      <trkpt lat="47.04571" lon="-0.82101">
        <ele>115.98</ele>
        <time>2012-08-28T14:47:57Z</time>
      </trkpt>
      <trkpt lat="47.04568" lon="-0.82102">
        <ele>115.01</ele>
        <time>2012-08-28T14:47:58Z</time>
      </trkpt>
      <trkpt lat="47.04565" lon="-0.82104">
        <ele>114.05</ele>
        <time>2012-08-28T14:47:59Z</time>
      </trkpt>
      <trkpt lat="47.04561" lon="-0.82107">
        <ele>113.09</ele>
        <time>2012-08-28T14:48:00Z</time>
      </trkpt>
      <trkpt lat="47.04555" lon="-0.82109">
        <ele>111.65</ele>
        <time>2012-08-28T14:48:01Z</time>
      </trkpt>
      <trkpt lat="47.04533" lon="-0.82118">
        <ele>108.77</ele>
        <time>2012-08-28T14:48:04Z</time>
      </trkpt>
      <trkpt lat="47.04479" lon="-0.82142">
        <ele>104.92</ele>
        <time>2012-08-28T14:48:10Z</time>
      </trkpt>
      <trkpt lat="47.04447" lon="-0.82158">
        <ele>104.44</ele>
        <time>2012-08-28T14:48:14Z</time>
      </trkpt>
      <trkpt lat="47.04441" lon="-0.82165">
        <ele>103.48</ele>
        <time>2012-08-28T14:48:15Z</time>
      </trkpt>
      <trkpt lat="47.04436" lon="-0.82173">
        <ele>103.96</ele>
        <time>2012-08-28T14:48:16Z</time>
      </trkpt>
      <trkpt lat="47.04426" lon="-0.82188">
        <ele>103.48</ele>
        <time>2012-08-28T14:48:18Z</time>
      </trkpt>
      <trkpt lat="47.0441" lon="-0.82206">
        <ele>103</ele>
        <time>2012-08-28T14:48:21Z</time>
      </trkpt>
      <trkpt lat="47.04346" lon="-0.82265">
        <ele>103.48</ele>
        <time>2012-08-28T14:48:34Z</time>
      </trkpt>
      <trkpt lat="47.04331" lon="-0.82284">
        <ele>103.48</ele>
        <time>2012-08-28T14:48:38Z</time>
      </trkpt>
      <trkpt lat="47.04303" lon="-0.82339">
        <ele>105.4</ele>
        <time>2012-08-28T14:48:51Z</time>
      </trkpt>
      <trkpt lat="47.04301" lon="-0.8235">
        <ele>105.88</ele>
        <time>2012-08-28T14:49:01Z</time>
      </trkpt>
      <trkpt lat="47.04302" lon="-0.82381">
        <ele>106.84</ele>
        <time>2012-08-28T14:49:07Z</time>
      </trkpt>
      <trkpt lat="47.043" lon="-0.82386">
        <ele>106.84</ele>
        <time>2012-08-28T14:49:08Z</time>
      </trkpt>
      <trkpt lat="47.04298" lon="-0.82391">
        <ele>106.36</ele>
        <time>2012-08-28T14:49:09Z</time>
      </trkpt>
      <trkpt lat="47.04295" lon="-0.82396">
        <ele>106.84</ele>
        <time>2012-08-28T14:49:10Z</time>
      </trkpt>
      <trkpt lat="47.04293" lon="-0.824">
        <ele>106.84</ele>
        <time>2012-08-28T14:49:11Z</time>
      </trkpt>
      <trkpt lat="47.04264" lon="-0.8245">
        <ele>109.25</ele>
        <time>2012-08-28T14:49:22Z</time>
      </trkpt>
      <trkpt lat="47.04241" lon="-0.82491">
        <ele>111.17</ele>
        <time>2012-08-28T14:49:31Z</time>
      </trkpt>
      <trkpt lat="47.04225" lon="-0.8252">
        <ele>112.13</ele>
        <time>2012-08-28T14:49:37Z</time>
      </trkpt>
      <trkpt lat="47.04215" lon="-0.8254">
        <ele>113.09</ele>
        <time>2012-08-28T14:49:41Z</time>
      </trkpt>
      <trkpt lat="47.04206" lon="-0.82561">
        <ele>113.09</ele>
        <time>2012-08-28T14:49:45Z</time>
      </trkpt>
      <trkpt lat="47.04166" lon="-0.82619">
        <ele>114.05</ele>
        <time>2012-08-28T14:49:57Z</time>
      </trkpt>
      <trkpt lat="47.04146" lon="-0.82657">
        <ele>113.57</ele>
        <time>2012-08-28T14:50:04Z</time>
      </trkpt>
      <trkpt lat="47.0414" lon="-0.82677">
        <ele>113.57</ele>
        <time>2012-08-28T14:50:07Z</time>
      </trkpt>
      <trkpt lat="47.04125" lon="-0.8277">
        <ele>112.61</ele>
        <time>2012-08-28T14:50:20Z</time>
      </trkpt>
      <trkpt lat="47.04119" lon="-0.82788">
        <ele>111.65</ele>
        <time>2012-08-28T14:50:23Z</time>
      </trkpt>
      <trkpt lat="47.04111" lon="-0.82806">
        <ele>112.13</ele>
        <time>2012-08-28T14:50:26Z</time>
      </trkpt>
      <trkpt lat="47.04109" lon="-0.82813">
        <ele>112.13</ele>
        <time>2012-08-28T14:50:27Z</time>
      </trkpt>
      <trkpt lat="47.04107" lon="-0.82821">
        <ele>112.13</ele>
        <time>2012-08-28T14:50:28Z</time>
      </trkpt>
      <trkpt lat="47.04107" lon="-0.82828">
        <ele>112.13</ele>
        <time>2012-08-28T14:50:29Z</time>
      </trkpt>
      <trkpt lat="47.04106" lon="-0.82835">
        <ele>112.13</ele>
        <time>2012-08-28T14:50:30Z</time>
      </trkpt>
      <trkpt lat="47.04107" lon="-0.82842">
        <ele>112.13</ele>
        <time>2012-08-28T14:50:31Z</time>
      </trkpt>
      <trkpt lat="47.04108" lon="-0.8285">
        <ele>112.13</ele>
        <time>2012-08-28T14:50:32Z</time>
      </trkpt>
      <trkpt lat="47.04109" lon="-0.82856">
        <ele>112.61</ele>
        <time>2012-08-28T14:50:33Z</time>
      </trkpt>
      <trkpt lat="47.04126" lon="-0.82972">
        <ele>115.5</ele>
        <time>2012-08-28T14:50:51Z</time>
      </trkpt>
      <trkpt lat="47.04133" lon="-0.83059">
        <ele>115.01</ele>
        <time>2012-08-28T14:51:04Z</time>
      </trkpt>
      <trkpt lat="47.04136" lon="-0.83107">
        <ele>116.46</ele>
        <time>2012-08-28T14:51:11Z</time>
      </trkpt>
      <trkpt lat="47.04139" lon="-0.8313">
        <ele>117.42</ele>
        <time>2012-08-28T14:51:15Z</time>
      </trkpt>
      <trkpt lat="47.04142" lon="-0.83133">
        <ele>117.9</ele>
        <time>2012-08-28T14:51:16Z</time>
      </trkpt>
      <trkpt lat="47.04145" lon="-0.83134">
        <ele>118.38</ele>
        <time>2012-08-28T14:51:17Z</time>
      </trkpt>
      <trkpt lat="47.04152" lon="-0.83136">
        <ele>119.82</ele>
        <time>2012-08-28T14:51:20Z</time>
      </trkpt>
      <trkpt lat="47.04156" lon="-0.83134">
        <ele>119.82</ele>
        <time>2012-08-28T14:51:23Z</time>
      </trkpt>
      <trkpt lat="47.04157" lon="-0.83133">
        <ele>119.82</ele>
        <time>2012-08-28T14:51:24Z</time>
      </trkpt>
      <trkpt lat="47.04158" lon="-0.83131">
        <ele>120.3</ele>
        <time>2012-08-28T14:51:25Z</time>
      </trkpt>
      <trkpt lat="47.04163" lon="-0.83126">
        <ele>120.78</ele>
        <time>2012-08-28T14:51:28Z</time>
      </trkpt>
      <trkpt lat="47.04165" lon="-0.83126">
        <ele>121.26</ele>
        <time>2012-08-28T14:51:29Z</time>
      </trkpt>
      <trkpt lat="47.04167" lon="-0.83124">
        <ele>120.78</ele>
        <time>2012-08-28T14:51:30Z</time>
      </trkpt>
      <trkpt lat="47.04169" lon="-0.83122">
        <ele>120.78</ele>
        <time>2012-08-28T14:51:37Z</time>
      </trkpt>
      <trkpt lat="47.04167" lon="-0.83123">
        <ele>120.78</ele>
        <time>2012-08-28T14:51:38Z</time>
      </trkpt>
      <trkpt lat="47.04165" lon="-0.83127">
        <ele>120.3</ele>
        <time>2012-08-28T14:51:40Z</time>
      </trkpt>
      <trkpt lat="47.04143" lon="-0.83136">
        <ele>118.38</ele>
        <time>2012-08-28T14:51:49Z</time>
      </trkpt>
      <trkpt lat="47.04134" lon="-0.83115">
        <ele>116.94</ele>
        <time>2012-08-28T14:52:02Z</time>
      </trkpt>
      <trkpt lat="47.04133" lon="-0.8307">
        <ele>115.98</ele>
        <time>2012-08-28T14:52:13Z</time>
      </trkpt>
      <trkpt lat="47.04132" lon="-0.83059">
        <ele>105.4</ele>
        <time>2012-08-28T14:52:15Z</time>
      </trkpt>
      <trkpt lat="47.04132" lon="-0.83054">
        <ele>111.17</ele>
        <time>2012-08-28T14:52:16Z</time>
      </trkpt>
      <trkpt lat="47.04132" lon="-0.83049">
        <ele>124.15</ele>
        <time>2012-08-28T14:52:17Z</time>
      </trkpt>
      <trkpt lat="47.04131" lon="-0.83044">
        <ele>111.17</ele>
        <time>2012-08-28T14:52:18Z</time>
      </trkpt>
      <trkpt lat="47.04131" lon="-0.83039">
        <ele>116.46</ele>
        <time>2012-08-28T14:52:19Z</time>
      </trkpt>
      <trkpt lat="47.04126" lon="-0.8299">
        <ele>115.01</ele>
        <time>2012-08-28T14:52:28Z</time>
      </trkpt>
      <trkpt lat="47.04125" lon="-0.82983">
        <ele>115.98</ele>
        <time>2012-08-28T14:52:29Z</time>
      </trkpt>
      <trkpt lat="47.04123" lon="-0.82957">
        <ele>115.01</ele>
        <time>2012-08-28T14:52:33Z</time>
      </trkpt>
      <trkpt lat="47.04122" lon="-0.8295">
        <ele>114.53</ele>
        <time>2012-08-28T14:52:34Z</time>
      </trkpt>
      <trkpt lat="47.04117" lon="-0.82905">
        <ele>114.05</ele>
        <time>2012-08-28T14:52:40Z</time>
      </trkpt>
      <trkpt lat="47.04114" lon="-0.8289">
        <ele>113.57</ele>
        <time>2012-08-28T14:52:42Z</time>
      </trkpt>
      <trkpt lat="47.04106" lon="-0.82843">
        <ele>111.17</ele>
        <time>2012-08-28T14:52:48Z</time>
      </trkpt>
      <trkpt lat="47.04106" lon="-0.82835">
        <ele>111.65</ele>
        <time>2012-08-28T14:52:49Z</time>
      </trkpt>
      <trkpt lat="47.04103" lon="-0.82817">
        <ele>111.17</ele>
        <time>2012-08-28T14:52:52Z</time>
      </trkpt>
      <trkpt lat="47.041" lon="-0.82813">
        <ele>111.17</ele>
        <time>2012-08-28T14:52:53Z</time>
      </trkpt>
      <trkpt lat="47.04096" lon="-0.8281">
        <ele>111.17</ele>
        <time>2012-08-28T14:52:54Z</time>
      </trkpt>
      <trkpt lat="47.04092" lon="-0.82808">
        <ele>111.17</ele>
        <time>2012-08-28T14:52:55Z</time>
      </trkpt>
      <trkpt lat="47.04088" lon="-0.82809">
        <ele>111.17</ele>
        <time>2012-08-28T14:52:56Z</time>
      </trkpt>
      <trkpt lat="47.04084" lon="-0.82811">
        <ele>110.69</ele>
        <time>2012-08-28T14:52:57Z</time>
      </trkpt>
      <trkpt lat="47.04081" lon="-0.82816">
        <ele>110.69</ele>
        <time>2012-08-28T14:52:58Z</time>
      </trkpt>
      <trkpt lat="47.04078" lon="-0.82822">
        <ele>110.69</ele>
        <time>2012-08-28T14:52:59Z</time>
      </trkpt>
      <trkpt lat="47.04077" lon="-0.82828">
        <ele>110.69</ele>
        <time>2012-08-28T14:53:00Z</time>
      </trkpt>
      <trkpt lat="47.04078" lon="-0.82835">
        <ele>110.69</ele>
        <time>2012-08-28T14:53:01Z</time>
      </trkpt>
      <trkpt lat="47.0408" lon="-0.82841">
        <ele>110.69</ele>
        <time>2012-08-28T14:53:02Z</time>
      </trkpt>
      <trkpt lat="47.04081" lon="-0.82848">
        <ele>111.17</ele>
        <time>2012-08-28T14:53:03Z</time>
      </trkpt>
      <trkpt lat="47.04102" lon="-0.8296">
        <ele>111.65</ele>
        <time>2012-08-28T14:53:18Z</time>
      </trkpt>
      <trkpt lat="47.04112" lon="-0.83077">
        <ele>111.17</ele>
        <time>2012-08-28T14:53:33Z</time>
      </trkpt>
      <trkpt lat="47.04114" lon="-0.8312">
        <ele>111.65</ele>
        <time>2012-08-28T14:53:39Z</time>
      </trkpt>
      <trkpt lat="47.04116" lon="-0.83171">
        <ele>112.13</ele>
        <time>2012-08-28T14:53:48Z</time>
      </trkpt>
      <trkpt lat="47.04114" lon="-0.83182">
        <ele>111.17</ele>
        <time>2012-08-28T14:53:50Z</time>
      </trkpt>
      <trkpt lat="47.04112" lon="-0.83193">
        <ele>110.69</ele>
        <time>2012-08-28T14:53:52Z</time>
      </trkpt>
      <trkpt lat="47.04107" lon="-0.83212">
        <ele>110.69</ele>
        <time>2012-08-28T14:53:55Z</time>
      </trkpt>
      <trkpt lat="47.04085" lon="-0.83265">
        <ele>107.81</ele>
        <time>2012-08-28T14:54:02Z</time>
      </trkpt>
      <trkpt lat="47.0408" lon="-0.83271">
        <ele>107.32</ele>
        <time>2012-08-28T14:54:03Z</time>
      </trkpt>
      <trkpt lat="47.04075" lon="-0.83276">
        <ele>106.84</ele>
        <time>2012-08-28T14:54:04Z</time>
      </trkpt>
      <trkpt lat="47.04069" lon="-0.8328">
        <ele>106.84</ele>
        <time>2012-08-28T14:54:05Z</time>
      </trkpt>
      <trkpt lat="47.04063" lon="-0.83284">
        <ele>106.36</ele>
        <time>2012-08-28T14:54:06Z</time>
      </trkpt>
      <trkpt lat="47.04037" lon="-0.83303">
        <ele>104.92</ele>
        <time>2012-08-28T14:54:10Z</time>
      </trkpt>
      <trkpt lat="47.04004" lon="-0.83333">
        <ele>102.52</ele>
        <time>2012-08-28T14:54:15Z</time>
      </trkpt>
      <trkpt lat="47.03937" lon="-0.83382">
        <ele>99.63</ele>
        <time>2012-08-28T14:54:25Z</time>
      </trkpt>
      <trkpt lat="47.03912" lon="-0.83396">
        <ele>96.75</ele>
        <time>2012-08-28T14:54:29Z</time>
      </trkpt>
      <trkpt lat="47.03907" lon="-0.83399">
        <ele>96.75</ele>
        <time>2012-08-28T14:54:30Z</time>
      </trkpt>
      <trkpt lat="47.03903" lon="-0.83402">
        <ele>96.27</ele>
        <time>2012-08-28T14:54:31Z</time>
      </trkpt>
      <trkpt lat="47.03894" lon="-0.83405">
        <ele>94.83</ele>
        <time>2012-08-28T14:54:34Z</time>
      </trkpt>
      <trkpt lat="47.03872" lon="-0.83425">
        <ele>92.9</ele>
        <time>2012-08-28T14:54:42Z</time>
      </trkpt>
      <trkpt lat="47.03867" lon="-0.83419">
        <ele>92.42</ele>
        <time>2012-08-28T14:54:44Z</time>
      </trkpt>
      <trkpt lat="47.0386" lon="-0.8341">
        <ele>91.46</ele>
        <time>2012-08-28T14:54:46Z</time>
      </trkpt>
      <trkpt lat="47.03855" lon="-0.83408">
        <ele>90.5</ele>
        <time>2012-08-28T14:54:47Z</time>
      </trkpt>
      <trkpt lat="47.0385" lon="-0.83411">
        <ele>90.02</ele>
        <time>2012-08-28T14:54:48Z</time>
      </trkpt>
      <trkpt lat="47.03834" lon="-0.83426">
        <ele>89.54</ele>
        <time>2012-08-28T14:54:52Z</time>
      </trkpt>
      <trkpt lat="47.0383" lon="-0.83429">
        <ele>90.02</ele>
        <time>2012-08-28T14:54:53Z</time>
      </trkpt>
      <trkpt lat="47.03827" lon="-0.83432">
        <ele>90.02</ele>
        <time>2012-08-28T14:54:54Z</time>
      </trkpt>
      <trkpt lat="47.03817" lon="-0.83448">
        <ele>89.06</ele>
        <time>2012-08-28T14:54:58Z</time>
      </trkpt>
      <trkpt lat="47.03818" lon="-0.83454">
        <ele>89.54</ele>
        <time>2012-08-28T14:54:59Z</time>
      </trkpt>
      <trkpt lat="47.03819" lon="-0.8346">
        <ele>89.54</ele>
        <time>2012-08-28T14:55:00Z</time>
      </trkpt>
      <trkpt lat="47.0382" lon="-0.83466">
        <ele>89.54</ele>
        <time>2012-08-28T14:55:01Z</time>
      </trkpt>
      <trkpt lat="47.03821" lon="-0.83472">
        <ele>89.54</ele>
        <time>2012-08-28T14:55:02Z</time>
      </trkpt>
      <trkpt lat="47.03827" lon="-0.8351">
        <ele>90.5</ele>
        <time>2012-08-28T14:55:08Z</time>
      </trkpt>
      <trkpt lat="47.03828" lon="-0.83515">
        <ele>90.5</ele>
        <time>2012-08-28T14:55:09Z</time>
      </trkpt>
      <trkpt lat="47.03829" lon="-0.83521">
        <ele>90.98</ele>
        <time>2012-08-28T14:55:10Z</time>
      </trkpt>
      <trkpt lat="47.0383" lon="-0.83526">
        <ele>90.98</ele>
        <time>2012-08-28T14:55:11Z</time>
      </trkpt>
      <trkpt lat="47.03831" lon="-0.83532">
        <ele>90.98</ele>
        <time>2012-08-28T14:55:12Z</time>
      </trkpt>
      <trkpt lat="47.03832" lon="-0.83537">
        <ele>90.98</ele>
        <time>2012-08-28T14:55:13Z</time>
      </trkpt>
      <trkpt lat="47.03831" lon="-0.83543">
        <ele>90.98</ele>
        <time>2012-08-28T14:55:14Z</time>
      </trkpt>
      <trkpt lat="47.03829" lon="-0.83549">
        <ele>90.98</ele>
        <time>2012-08-28T14:55:15Z</time>
      </trkpt>
      <trkpt lat="47.03827" lon="-0.83554">
        <ele>90.98</ele>
        <time>2012-08-28T14:55:16Z</time>
      </trkpt>
      <trkpt lat="47.03824" lon="-0.83559">
        <ele>90.5</ele>
        <time>2012-08-28T14:55:17Z</time>
      </trkpt>
      <trkpt lat="47.03822" lon="-0.83563">
        <ele>90.98</ele>
        <time>2012-08-28T14:55:18Z</time>
      </trkpt>
      <trkpt lat="47.03818" lon="-0.83567">
        <ele>90.5</ele>
        <time>2012-08-28T14:55:19Z</time>
      </trkpt>
      <trkpt lat="47.03814" lon="-0.83569">
        <ele>90.5</ele>
        <time>2012-08-28T14:55:20Z</time>
      </trkpt>
      <trkpt lat="47.0381" lon="-0.83571">
        <ele>90.98</ele>
        <time>2012-08-28T14:55:21Z</time>
      </trkpt>
      <trkpt lat="47.03806" lon="-0.83572">
        <ele>90.98</ele>
        <time>2012-08-28T14:55:22Z</time>
      </trkpt>
      <trkpt lat="47.03802" lon="-0.83571">
        <ele>90.5</ele>
        <time>2012-08-28T14:55:23Z</time>
      </trkpt>
      <trkpt lat="47.03798" lon="-0.8357">
        <ele>90.5</ele>
        <time>2012-08-28T14:55:24Z</time>
      </trkpt>
      <trkpt lat="47.03794" lon="-0.83568">
        <ele>90.5</ele>
        <time>2012-08-28T14:55:25Z</time>
      </trkpt>
      <trkpt lat="47.0379" lon="-0.83567">
        <ele>90.5</ele>
        <time>2012-08-28T14:55:26Z</time>
      </trkpt>
      <trkpt lat="47.03787" lon="-0.83569">
        <ele>90.02</ele>
        <time>2012-08-28T14:55:27Z</time>
      </trkpt>
      <trkpt lat="47.03786" lon="-0.83573">
        <ele>90.5</ele>
        <time>2012-08-28T14:55:28Z</time>
      </trkpt>
      <trkpt lat="47.03786" lon="-0.83578">
        <ele>90.98</ele>
        <time>2012-08-28T14:55:29Z</time>
      </trkpt>
      <trkpt lat="47.03787" lon="-0.83581">
        <ele>90.98</ele>
        <time>2012-08-28T14:55:30Z</time>
      </trkpt>
      <trkpt lat="47.03789" lon="-0.83583">
        <ele>90.98</ele>
        <time>2012-08-28T14:55:31Z</time>
      </trkpt>
      <trkpt lat="47.03792" lon="-0.83583">
        <ele>91.46</ele>
        <time>2012-08-28T14:55:32Z</time>
      </trkpt>
      <trkpt lat="47.03795" lon="-0.83583">
        <ele>91.46</ele>
        <time>2012-08-28T14:55:33Z</time>
      </trkpt>
      <trkpt lat="47.03797" lon="-0.83583">
        <ele>91.94</ele>
        <time>2012-08-28T14:55:34Z</time>
      </trkpt>
      <trkpt lat="47.03799" lon="-0.83583">
        <ele>91.94</ele>
        <time>2012-08-28T14:55:35Z</time>
      </trkpt>
      <trkpt lat="47.03801" lon="-0.83584">
        <ele>91.94</ele>
        <time>2012-08-28T14:55:36Z</time>
      </trkpt>
      <trkpt lat="47.03812" lon="-0.83604">
        <ele>92.9</ele>
        <time>2012-08-28T14:55:44Z</time>
      </trkpt>
      <trkpt lat="47.03811" lon="-0.83607">
        <ele>93.39</ele>
        <time>2012-08-28T14:55:45Z</time>
      </trkpt>
      <trkpt lat="47.0381" lon="-0.83611">
        <ele>93.39</ele>
        <time>2012-08-28T14:55:46Z</time>
      </trkpt>
      <trkpt lat="47.03809" lon="-0.83614">
        <ele>93.39</ele>
        <time>2012-08-28T14:55:47Z</time>
      </trkpt>
      <trkpt lat="47.03808" lon="-0.83616">
        <ele>92.9</ele>
        <time>2012-08-28T14:55:48Z</time>
      </trkpt>
      <trkpt lat="47.03804" lon="-0.83625">
        <ele>92.9</ele>
        <time>2012-08-28T14:55:51Z</time>
      </trkpt>
      <trkpt lat="47.03803" lon="-0.83628">
        <ele>93.39</ele>
        <time>2012-08-28T14:55:52Z</time>
      </trkpt>
      <trkpt lat="47.03803" lon="-0.8363">
        <ele>93.87</ele>
        <time>2012-08-28T14:55:53Z</time>
      </trkpt>
      <trkpt lat="47.03801" lon="-0.83639">
        <ele>93.87</ele>
        <time>2012-08-28T14:56:04Z</time>
      </trkpt>
      <trkpt lat="47.03801" lon="-0.8364">
        <ele>93.39</ele>
        <time>2012-08-28T14:56:05Z</time>
      </trkpt>
      <trkpt lat="47.03792" lon="-0.83663">
        <ele>92.42</ele>
        <time>2012-08-28T14:56:18Z</time>
      </trkpt>
      <trkpt lat="47.03789" lon="-0.83664">
        <ele>92.42</ele>
        <time>2012-08-28T14:56:19Z</time>
      </trkpt>
      <trkpt lat="47.03786" lon="-0.83664">
        <ele>92.42</ele>
        <time>2012-08-28T14:56:20Z</time>
      </trkpt>
      <trkpt lat="47.03783" lon="-0.83664">
        <ele>92.9</ele>
        <time>2012-08-28T14:56:21Z</time>
      </trkpt>
      <trkpt lat="47.0378" lon="-0.83663">
        <ele>92.9</ele>
        <time>2012-08-28T14:56:22Z</time>
      </trkpt>
      <trkpt lat="47.03777" lon="-0.83663">
        <ele>92.42</ele>
        <time>2012-08-28T14:56:23Z</time>
      </trkpt>
      <trkpt lat="47.03774" lon="-0.83664">
        <ele>92.42</ele>
        <time>2012-08-28T14:56:24Z</time>
      </trkpt>
      <trkpt lat="47.0377" lon="-0.83666">
        <ele>91.94</ele>
        <time>2012-08-28T14:56:25Z</time>
      </trkpt>
      <trkpt lat="47.03767" lon="-0.83671">
        <ele>91.46</ele>
        <time>2012-08-28T14:56:26Z</time>
      </trkpt>
      <trkpt lat="47.03764" lon="-0.83678">
        <ele>91.46</ele>
        <time>2012-08-28T14:56:27Z</time>
      </trkpt>
      <trkpt lat="47.03762" lon="-0.83686">
        <ele>90.98</ele>
        <time>2012-08-28T14:56:28Z</time>
      </trkpt>
      <trkpt lat="47.0376" lon="-0.83694">
        <ele>90.5</ele>
        <time>2012-08-28T14:56:29Z</time>
      </trkpt>
      <trkpt lat="47.0375" lon="-0.83729">
        <ele>90.02</ele>
        <time>2012-08-28T14:56:34Z</time>
      </trkpt>
      <trkpt lat="47.03742" lon="-0.83756">
        <ele>89.54</ele>
        <time>2012-08-28T14:56:38Z</time>
      </trkpt>
      <trkpt lat="47.03741" lon="-0.83763">
        <ele>90.02</ele>
        <time>2012-08-28T14:56:39Z</time>
      </trkpt>
      <trkpt lat="47.0374" lon="-0.83768">
        <ele>90.5</ele>
        <time>2012-08-28T14:56:40Z</time>
      </trkpt>
      <trkpt lat="47.03738" lon="-0.8378">
        <ele>90.02</ele>
        <time>2012-08-28T14:56:42Z</time>
      </trkpt>
      <trkpt lat="47.03736" lon="-0.83785">
        <ele>90.5</ele>
        <time>2012-08-28T14:56:43Z</time>
      </trkpt>
      <trkpt lat="47.03733" lon="-0.83796">
        <ele>90.5</ele>
        <time>2012-08-28T14:56:45Z</time>
      </trkpt>
      <trkpt lat="47.03732" lon="-0.83802">
        <ele>90.98</ele>
        <time>2012-08-28T14:56:46Z</time>
      </trkpt>
      <trkpt lat="47.03731" lon="-0.83809">
        <ele>90.98</ele>
        <time>2012-08-28T14:56:47Z</time>
      </trkpt>
      <trkpt lat="47.03732" lon="-0.83815">
        <ele>91.94</ele>
        <time>2012-08-28T14:56:48Z</time>
      </trkpt>
      <trkpt lat="47.03734" lon="-0.8382">
        <ele>92.42</ele>
        <time>2012-08-28T14:56:49Z</time>
      </trkpt>
      <trkpt lat="47.03735" lon="-0.83824">
        <ele>92.9</ele>
        <time>2012-08-28T14:56:50Z</time>
      </trkpt>
      <trkpt lat="47.03735" lon="-0.83827">
        <ele>93.39</ele>
        <time>2012-08-28T14:56:51Z</time>
      </trkpt>
      <trkpt lat="47.03734" lon="-0.83829">
        <ele>93.39</ele>
        <time>2012-08-28T14:56:52Z</time>
      </trkpt>
      <trkpt lat="47.03732" lon="-0.83829">
        <ele>93.39</ele>
        <time>2012-08-28T14:56:53Z</time>
      </trkpt>
      <trkpt lat="47.03724" lon="-0.83833">
        <ele>94.83</ele>
        <time>2012-08-28T14:56:56Z</time>
      </trkpt>
      <trkpt lat="47.03721" lon="-0.83836">
        <ele>94.83</ele>
        <time>2012-08-28T14:56:57Z</time>
      </trkpt>
      <trkpt lat="47.03719" lon="-0.83839">
        <ele>94.83</ele>
        <time>2012-08-28T14:56:58Z</time>
      </trkpt>
      <trkpt lat="47.03718" lon="-0.83842">
        <ele>95.79</ele>
        <time>2012-08-28T14:56:59Z</time>
      </trkpt>
      <trkpt lat="47.03716" lon="-0.83844">
        <ele>95.79</ele>
        <time>2012-08-28T14:57:00Z</time>
      </trkpt>
      <trkpt lat="47.03715" lon="-0.83847">
        <ele>95.79</ele>
        <time>2012-08-28T14:57:01Z</time>
      </trkpt>
      <trkpt lat="47.03714" lon="-0.83849">
        <ele>95.79</ele>
        <time>2012-08-28T14:57:02Z</time>
      </trkpt>
      <trkpt lat="47.03689" lon="-0.83878">
        <ele>96.27</ele>
        <time>2012-08-28T14:57:12Z</time>
      </trkpt>
      <trkpt lat="47.03678" lon="-0.83886">
        <ele>97.71</ele>
        <time>2012-08-28T14:57:15Z</time>
      </trkpt>
      <trkpt lat="47.03638" lon="-0.83914">
        <ele>101.08</ele>
        <time>2012-08-28T14:57:28Z</time>
      </trkpt>
      <trkpt lat="47.036" lon="-0.83924">
        <ele>100.6</ele>
        <time>2012-08-28T14:57:38Z</time>
      </trkpt>
      <trkpt lat="47.03595" lon="-0.83925">
        <ele>100.11</ele>
        <time>2012-08-28T14:57:39Z</time>
      </trkpt>
      <trkpt lat="47.03591" lon="-0.83927">
        <ele>100.6</ele>
        <time>2012-08-28T14:57:40Z</time>
      </trkpt>
      <trkpt lat="47.03573" lon="-0.83934">
        <ele>97.71</ele>
        <time>2012-08-28T14:57:44Z</time>
      </trkpt>
      <trkpt lat="47.03567" lon="-0.83935">
        <ele>96.75</ele>
        <time>2012-08-28T14:57:45Z</time>
      </trkpt>
      <trkpt lat="47.03562" lon="-0.83938">
        <ele>95.31</ele>
        <time>2012-08-28T14:57:46Z</time>
      </trkpt>
      <trkpt lat="47.03557" lon="-0.83941">
        <ele>94.35</ele>
        <time>2012-08-28T14:57:47Z</time>
      </trkpt>
      <trkpt lat="47.03551" lon="-0.83944">
        <ele>95.31</ele>
        <time>2012-08-28T14:57:48Z</time>
      </trkpt>
      <trkpt lat="47.03546" lon="-0.83943">
        <ele>95.79</ele>
        <time>2012-08-28T14:57:49Z</time>
      </trkpt>
      <trkpt lat="47.03542" lon="-0.83943">
        <ele>96.75</ele>
        <time>2012-08-28T14:57:50Z</time>
      </trkpt>
      <trkpt lat="47.03538" lon="-0.83942">
        <ele>97.71</ele>
        <time>2012-08-28T14:57:51Z</time>
      </trkpt>
      <trkpt lat="47.03535" lon="-0.83941">
        <ele>97.71</ele>
        <time>2012-08-28T14:57:52Z</time>
      </trkpt>
      <trkpt lat="47.03497" lon="-0.83926">
        <ele>97.23</ele>
        <time>2012-08-28T14:58:03Z</time>
      </trkpt>
      <trkpt lat="47.03482" lon="-0.83932">
        <ele>96.27</ele>
        <time>2012-08-28T14:58:07Z</time>
      </trkpt>
      <trkpt lat="47.03479" lon="-0.83936">
        <ele>96.27</ele>
        <time>2012-08-28T14:58:08Z</time>
      </trkpt>
      <trkpt lat="47.03445" lon="-0.83973">
        <ele>93.87</ele>
        <time>2012-08-28T14:58:17Z</time>
      </trkpt>
      <trkpt lat="47.03441" lon="-0.83979">
        <ele>93.87</ele>
        <time>2012-08-28T14:58:18Z</time>
      </trkpt>
      <trkpt lat="47.03395" lon="-0.84055">
        <ele>94.35</ele>
        <time>2012-08-28T14:58:31Z</time>
      </trkpt>
      <trkpt lat="47.03375" lon="-0.84095">
        <ele>91.94</ele>
        <time>2012-08-28T14:58:37Z</time>
      </trkpt>
      <trkpt lat="47.03362" lon="-0.84128">
        <ele>90.5</ele>
        <time>2012-08-28T14:58:41Z</time>
      </trkpt>
      <trkpt lat="47.03352" lon="-0.84148">
        <ele>90.98</ele>
        <time>2012-08-28T14:58:44Z</time>
      </trkpt>
      <trkpt lat="47.03307" lon="-0.84241">
        <ele>90.98</ele>
        <time>2012-08-28T14:58:59Z</time>
      </trkpt>
      <trkpt lat="47.03271" lon="-0.84313">
        <ele>90.98</ele>
        <time>2012-08-28T14:59:09Z</time>
      </trkpt>
      <trkpt lat="47.03261" lon="-0.84326">
        <ele>91.94</ele>
        <time>2012-08-28T14:59:12Z</time>
      </trkpt>
      <trkpt lat="47.03258" lon="-0.84331">
        <ele>91.94</ele>
        <time>2012-08-28T14:59:13Z</time>
      </trkpt>
      <trkpt lat="47.03255" lon="-0.84336">
        <ele>91.94</ele>
        <time>2012-08-28T14:59:14Z</time>
      </trkpt>
      <trkpt lat="47.03232" lon="-0.84384">
        <ele>95.31</ele>
        <time>2012-08-28T14:59:24Z</time>
      </trkpt>
      <trkpt lat="47.0323" lon="-0.84389">
        <ele>95.79</ele>
        <time>2012-08-28T14:59:25Z</time>
      </trkpt>
      <trkpt lat="47.03228" lon="-0.84393">
        <ele>95.79</ele>
        <time>2012-08-28T14:59:26Z</time>
      </trkpt>
      <trkpt lat="47.03191" lon="-0.84456">
        <ele>95.31</ele>
        <time>2012-08-28T14:59:39Z</time>
      </trkpt>
      <trkpt lat="47.03188" lon="-0.8446">
        <ele>95.79</ele>
        <time>2012-08-28T14:59:40Z</time>
      </trkpt>
      <trkpt lat="47.03184" lon="-0.84464">
        <ele>95.31</ele>
        <time>2012-08-28T14:59:41Z</time>
      </trkpt>
      <trkpt lat="47.03178" lon="-0.84468">
        <ele>94.35</ele>
        <time>2012-08-28T14:59:42Z</time>
      </trkpt>
      <trkpt lat="47.03173" lon="-0.84471">
        <ele>93.87</ele>
        <time>2012-08-28T14:59:43Z</time>
      </trkpt>
      <trkpt lat="47.03167" lon="-0.84472">
        <ele>93.87</ele>
        <time>2012-08-28T14:59:44Z</time>
      </trkpt>
      <trkpt lat="47.03162" lon="-0.84473">
        <ele>92.9</ele>
        <time>2012-08-28T14:59:45Z</time>
      </trkpt>
      <trkpt lat="47.03157" lon="-0.84476">
        <ele>91.94</ele>
        <time>2012-08-28T14:59:46Z</time>
      </trkpt>
      <trkpt lat="47.03152" lon="-0.8448">
        <ele>92.42</ele>
        <time>2012-08-28T14:59:47Z</time>
      </trkpt>
      <trkpt lat="47.03148" lon="-0.84485">
        <ele>92.42</ele>
        <time>2012-08-28T14:59:48Z</time>
      </trkpt>
      <trkpt lat="47.03144" lon="-0.8449">
        <ele>92.42</ele>
        <time>2012-08-28T14:59:49Z</time>
      </trkpt>
      <trkpt lat="47.0314" lon="-0.84495">
        <ele>92.9</ele>
        <time>2012-08-28T14:59:50Z</time>
      </trkpt>
      <trkpt lat="47.03126" lon="-0.84511">
        <ele>92.9</ele>
        <time>2012-08-28T14:59:54Z</time>
      </trkpt>
      <trkpt lat="47.03106" lon="-0.84537">
        <ele>91.46</ele>
        <time>2012-08-28T14:59:59Z</time>
      </trkpt>
      <trkpt lat="47.03088" lon="-0.84558">
        <ele>91.94</ele>
        <time>2012-08-28T15:00:03Z</time>
      </trkpt>
      <trkpt lat="47.03087" lon="-0.84564">
        <ele>91.94</ele>
        <time>2012-08-28T15:00:04Z</time>
      </trkpt>
      <trkpt lat="47.03088" lon="-0.8457">
        <ele>92.42</ele>
        <time>2012-08-28T15:00:05Z</time>
      </trkpt>
      <trkpt lat="47.0309" lon="-0.84574">
        <ele>92.42</ele>
        <time>2012-08-28T15:00:06Z</time>
      </trkpt>
      <trkpt lat="47.03093" lon="-0.84577">
        <ele>92.9</ele>
        <time>2012-08-28T15:00:07Z</time>
      </trkpt>
      <trkpt lat="47.03096" lon="-0.8458">
        <ele>93.39</ele>
        <time>2012-08-28T15:00:08Z</time>
      </trkpt>
      <trkpt lat="47.03099" lon="-0.84584">
        <ele>94.35</ele>
        <time>2012-08-28T15:00:09Z</time>
      </trkpt>
      <trkpt lat="47.03101" lon="-0.84588">
        <ele>94.35</ele>
        <time>2012-08-28T15:00:10Z</time>
      </trkpt>
      <trkpt lat="47.03103" lon="-0.84592">
        <ele>94.35</ele>
        <time>2012-08-28T15:00:11Z</time>
      </trkpt>
      <trkpt lat="47.03104" lon="-0.84597">
        <ele>93.87</ele>
        <time>2012-08-28T15:00:12Z</time>
      </trkpt>
      <trkpt lat="47.03103" lon="-0.84602">
        <ele>93.39</ele>
        <time>2012-08-28T15:00:13Z</time>
      </trkpt>
      <trkpt lat="47.03101" lon="-0.84608">
        <ele>92.9</ele>
        <time>2012-08-28T15:00:14Z</time>
      </trkpt>
      <trkpt lat="47.03097" lon="-0.84614">
        <ele>91.46</ele>
        <time>2012-08-28T15:00:15Z</time>
      </trkpt>
      <trkpt lat="47.03091" lon="-0.8462">
        <ele>90.5</ele>
        <time>2012-08-28T15:00:16Z</time>
      </trkpt>
      <trkpt lat="47.03084" lon="-0.84624">
        <ele>90.02</ele>
        <time>2012-08-28T15:00:17Z</time>
      </trkpt>
      <trkpt lat="47.03076" lon="-0.84626">
        <ele>89.54</ele>
        <time>2012-08-28T15:00:18Z</time>
      </trkpt>
      <trkpt lat="47.03069" lon="-0.84626">
        <ele>90.5</ele>
        <time>2012-08-28T15:00:19Z</time>
      </trkpt>
      <trkpt lat="47.03063" lon="-0.84627">
        <ele>90.98</ele>
        <time>2012-08-28T15:00:20Z</time>
      </trkpt>
      <trkpt lat="47.03056" lon="-0.84628">
        <ele>90.98</ele>
        <time>2012-08-28T15:00:21Z</time>
      </trkpt>
      <trkpt lat="47.0305" lon="-0.84629">
        <ele>90.98</ele>
        <time>2012-08-28T15:00:22Z</time>
      </trkpt>
      <trkpt lat="47.03043" lon="-0.84631">
        <ele>90.98</ele>
        <time>2012-08-28T15:00:23Z</time>
      </trkpt>
      <trkpt lat="47.03038" lon="-0.84634">
        <ele>90.98</ele>
        <time>2012-08-28T15:00:24Z</time>
      </trkpt>
      <trkpt lat="47.03033" lon="-0.84638">
        <ele>91.46</ele>
        <time>2012-08-28T15:00:25Z</time>
      </trkpt>
      <trkpt lat="47.0303" lon="-0.84642">
        <ele>91.94</ele>
        <time>2012-08-28T15:00:26Z</time>
      </trkpt>
      <trkpt lat="47.03028" lon="-0.84648">
        <ele>92.42</ele>
        <time>2012-08-28T15:00:27Z</time>
      </trkpt>
      <trkpt lat="47.03026" lon="-0.84654">
        <ele>91.94</ele>
        <time>2012-08-28T15:00:28Z</time>
      </trkpt>
      <trkpt lat="47.03024" lon="-0.84661">
        <ele>91.94</ele>
        <time>2012-08-28T15:00:29Z</time>
      </trkpt>
      <trkpt lat="47.03018" lon="-0.84678">
        <ele>91.46</ele>
        <time>2012-08-28T15:00:32Z</time>
      </trkpt>
      <trkpt lat="47.03015" lon="-0.84684">
        <ele>90.98</ele>
        <time>2012-08-28T15:00:33Z</time>
      </trkpt>
      <trkpt lat="47.03012" lon="-0.84689">
        <ele>91.46</ele>
        <time>2012-08-28T15:00:34Z</time>
      </trkpt>
      <trkpt lat="47.03008" lon="-0.84694">
        <ele>91.46</ele>
        <time>2012-08-28T15:00:35Z</time>
      </trkpt>
      <trkpt lat="47.03004" lon="-0.84698">
        <ele>90.98</ele>
        <time>2012-08-28T15:00:36Z</time>
      </trkpt>
      <trkpt lat="47.03" lon="-0.84701">
        <ele>90.98</ele>
        <time>2012-08-28T15:00:37Z</time>
      </trkpt>
      <trkpt lat="47.02996" lon="-0.84704">
        <ele>90.98</ele>
        <time>2012-08-28T15:00:38Z</time>
      </trkpt>
      <trkpt lat="47.02991" lon="-0.84706">
        <ele>90.5</ele>
        <time>2012-08-28T15:00:39Z</time>
      </trkpt>
      <trkpt lat="47.02985" lon="-0.84708">
        <ele>90.5</ele>
        <time>2012-08-28T15:00:40Z</time>
      </trkpt>
      <trkpt lat="47.0298" lon="-0.84709">
        <ele>90.98</ele>
        <time>2012-08-28T15:00:41Z</time>
      </trkpt>
      <trkpt lat="47.02974" lon="-0.8471">
        <ele>90.02</ele>
        <time>2012-08-28T15:00:42Z</time>
      </trkpt>
      <trkpt lat="47.02956" lon="-0.84711">
        <ele>90.02</ele>
        <time>2012-08-28T15:00:45Z</time>
      </trkpt>
      <trkpt lat="47.02887" lon="-0.84695">
        <ele>90.02</ele>
        <time>2012-08-28T15:00:58Z</time>
      </trkpt>
      <trkpt lat="47.02882" lon="-0.84695">
        <ele>89.54</ele>
        <time>2012-08-28T15:00:59Z</time>
      </trkpt>
      <trkpt lat="47.02876" lon="-0.84695">
        <ele>89.54</ele>
        <time>2012-08-28T15:01:00Z</time>
      </trkpt>
      <trkpt lat="47.02871" lon="-0.84697">
        <ele>89.54</ele>
        <time>2012-08-28T15:01:01Z</time>
      </trkpt>
      <trkpt lat="47.02866" lon="-0.84699">
        <ele>89.54</ele>
        <time>2012-08-28T15:01:02Z</time>
      </trkpt>
      <trkpt lat="47.02861" lon="-0.84702">
        <ele>89.54</ele>
        <time>2012-08-28T15:01:03Z</time>
      </trkpt>
      <trkpt lat="47.02766" lon="-0.84735">
        <ele>90.5</ele>
        <time>2012-08-28T15:01:20Z</time>
      </trkpt>
      <trkpt lat="47.0269" lon="-0.84762">
        <ele>91.46</ele>
        <time>2012-08-28T15:01:35Z</time>
      </trkpt>
      <trkpt lat="47.02681" lon="-0.84767">
        <ele>92.42</ele>
        <time>2012-08-28T15:01:37Z</time>
      </trkpt>
      <trkpt lat="47.02676" lon="-0.8477">
        <ele>92.42</ele>
        <time>2012-08-28T15:01:38Z</time>
      </trkpt>
      <trkpt lat="47.02672" lon="-0.84774">
        <ele>92.42</ele>
        <time>2012-08-28T15:01:39Z</time>
      </trkpt>
      <trkpt lat="47.02669" lon="-0.84778">
        <ele>92.42</ele>
        <time>2012-08-28T15:01:40Z</time>
      </trkpt>
      <trkpt lat="47.02666" lon="-0.84782">
        <ele>93.39</ele>
        <time>2012-08-28T15:01:41Z</time>
      </trkpt>
      <trkpt lat="47.02663" lon="-0.84785">
        <ele>93.39</ele>
        <time>2012-08-28T15:01:42Z</time>
      </trkpt>
      <trkpt lat="47.0266" lon="-0.84786">
        <ele>93.87</ele>
        <time>2012-08-28T15:01:43Z</time>
      </trkpt>
      <trkpt lat="47.02656" lon="-0.84786">
        <ele>93.87</ele>
        <time>2012-08-28T15:01:44Z</time>
      </trkpt>
      <trkpt lat="47.02653" lon="-0.84787">
        <ele>93.87</ele>
        <time>2012-08-28T15:01:45Z</time>
      </trkpt>
      <trkpt lat="47.02649" lon="-0.84788">
        <ele>93.87</ele>
        <time>2012-08-28T15:01:46Z</time>
      </trkpt>
      <trkpt lat="47.02629" lon="-0.84786">
        <ele>93.87</ele>
        <time>2012-08-28T15:01:52Z</time>
      </trkpt>
      <trkpt lat="47.02626" lon="-0.84782">
        <ele>94.35</ele>
        <time>2012-08-28T15:01:53Z</time>
      </trkpt>
      <trkpt lat="47.02622" lon="-0.84779">
        <ele>93.87</ele>
        <time>2012-08-28T15:01:54Z</time>
      </trkpt>
      <trkpt lat="47.02586" lon="-0.84782">
        <ele>96.27</ele>
        <time>2012-08-28T15:02:04Z</time>
      </trkpt>
      <trkpt lat="47.02578" lon="-0.84784">
        <ele>97.23</ele>
        <time>2012-08-28T15:02:07Z</time>
      </trkpt>
      <trkpt lat="47.02576" lon="-0.84787">
        <ele>97.71</ele>
        <time>2012-08-28T15:02:08Z</time>
      </trkpt>
      <trkpt lat="47.02574" lon="-0.8479">
        <ele>98.19</ele>
        <time>2012-08-28T15:02:09Z</time>
      </trkpt>
      <trkpt lat="47.02572" lon="-0.84792">
        <ele>98.67</ele>
        <time>2012-08-28T15:02:10Z</time>
      </trkpt>
      <trkpt lat="47.02569" lon="-0.84793">
        <ele>99.15</ele>
        <time>2012-08-28T15:02:11Z</time>
      </trkpt>
      <trkpt lat="47.02563" lon="-0.84797">
        <ele>99.63</ele>
        <time>2012-08-28T15:02:14Z</time>
      </trkpt>
      <trkpt lat="47.02561" lon="-0.84799">
        <ele>100.11</ele>
        <time>2012-08-28T15:02:15Z</time>
      </trkpt>
      <trkpt lat="47.0256" lon="-0.84802">
        <ele>100.11</ele>
        <time>2012-08-28T15:02:16Z</time>
      </trkpt>
      <trkpt lat="47.02559" lon="-0.84804">
        <ele>100.6</ele>
        <time>2012-08-28T15:02:17Z</time>
      </trkpt>
      <trkpt lat="47.02558" lon="-0.84807">
        <ele>101.08</ele>
        <time>2012-08-28T15:02:18Z</time>
      </trkpt>
      <trkpt lat="47.02557" lon="-0.84815">
        <ele>102.04</ele>
        <time>2012-08-28T15:02:21Z</time>
      </trkpt>
      <trkpt lat="47.02556" lon="-0.84817">
        <ele>102.04</ele>
        <time>2012-08-28T15:02:22Z</time>
      </trkpt>
      <trkpt lat="47.02555" lon="-0.8482">
        <ele>102.04</ele>
        <time>2012-08-28T15:02:23Z</time>
      </trkpt>
      <trkpt lat="47.02554" lon="-0.84821">
        <ele>102.52</ele>
        <time>2012-08-28T15:02:24Z</time>
      </trkpt>
      <trkpt lat="47.02531" lon="-0.84831">
        <ele>100.11</ele>
        <time>2012-08-28T15:02:35Z</time>
      </trkpt>
      <trkpt lat="47.02528" lon="-0.84827">
        <ele>99.63</ele>
        <time>2012-08-28T15:02:36Z</time>
      </trkpt>
      <trkpt lat="47.02525" lon="-0.84822">
        <ele>99.63</ele>
        <time>2012-08-28T15:02:37Z</time>
      </trkpt>
      <trkpt lat="47.02514" lon="-0.84813">
        <ele>98.19</ele>
        <time>2012-08-28T15:02:40Z</time>
      </trkpt>
      <trkpt lat="47.02502" lon="-0.84809">
        <ele>97.23</ele>
        <time>2012-08-28T15:02:46Z</time>
      </trkpt>
      <trkpt lat="47.02492" lon="-0.84817">
        <ele>93.87</ele>
        <time>2012-08-28T15:02:50Z</time>
      </trkpt>
      <trkpt lat="47.02488" lon="-0.84819">
        <ele>92.42</ele>
        <time>2012-08-28T15:02:51Z</time>
      </trkpt>
      <trkpt lat="47.0248" lon="-0.84824">
        <ele>91.46</ele>
        <time>2012-08-28T15:02:53Z</time>
      </trkpt>
      <trkpt lat="47.02477" lon="-0.84827">
        <ele>90.02</ele>
        <time>2012-08-28T15:02:54Z</time>
      </trkpt>
      <trkpt lat="47.02475" lon="-0.84827">
        <ele>90.5</ele>
        <time>2012-08-28T15:02:55Z</time>
      </trkpt>
      <trkpt lat="47.02474" lon="-0.84825">
        <ele>90.02</ele>
        <time>2012-08-28T15:02:56Z</time>
      </trkpt>
      <trkpt lat="47.02473" lon="-0.84823">
        <ele>90.02</ele>
        <time>2012-08-28T15:02:57Z</time>
      </trkpt>
      <trkpt lat="47.02474" lon="-0.84821">
        <ele>90.02</ele>
        <time>2012-08-28T15:02:58Z</time>
      </trkpt>
      <trkpt lat="47.02474" lon="-0.84819">
        <ele>90.02</ele>
        <time>2012-08-28T15:02:59Z</time>
      </trkpt>
      <trkpt lat="47.02475" lon="-0.84818">
        <ele>90.02</ele>
        <time>2012-08-28T15:03:00Z</time>
      </trkpt>
      <trkpt lat="47.02476" lon="-0.84816">
        <ele>90.02</ele>
        <time>2012-08-28T15:03:01Z</time>
      </trkpt>
      <trkpt lat="47.02477" lon="-0.84815">
        <ele>90.5</ele>
        <time>2012-08-28T15:03:02Z</time>
      </trkpt>
      <trkpt lat="47.02478" lon="-0.84814">
        <ele>90.98</ele>
        <time>2012-08-28T15:03:03Z</time>
      </trkpt>
      <trkpt lat="47.02478" lon="-0.84811">
        <ele>90.02</ele>
        <time>2012-08-28T15:03:04Z</time>
      </trkpt>
      <trkpt lat="47.0248" lon="-0.84804">
        <ele>88.58</ele>
        <time>2012-08-28T15:03:07Z</time>
      </trkpt>
      <trkpt lat="47.02479" lon="-0.84802">
        <ele>88.58</ele>
        <time>2012-08-28T15:03:08Z</time>
      </trkpt>
      <trkpt lat="47.02478" lon="-0.84801">
        <ele>88.1</ele>
        <time>2012-08-28T15:03:09Z</time>
      </trkpt>
      <trkpt lat="47.02477" lon="-0.848">
        <ele>87.62</ele>
        <time>2012-08-28T15:03:10Z</time>
      </trkpt>
      <trkpt lat="47.02475" lon="-0.84799">
        <ele>86.66</ele>
        <time>2012-08-28T15:03:11Z</time>
      </trkpt>
      <trkpt lat="47.02474" lon="-0.84798">
        <ele>86.18</ele>
        <time>2012-08-28T15:03:12Z</time>
      </trkpt>
      <trkpt lat="47.02472" lon="-0.84798">
        <ele>86.18</ele>
        <time>2012-08-28T15:03:13Z</time>
      </trkpt>
      <trkpt lat="47.02469" lon="-0.84799">
        <ele>85.21</ele>
        <time>2012-08-28T15:03:14Z</time>
      </trkpt>
      <trkpt lat="47.02467" lon="-0.848">
        <ele>84.73</ele>
        <time>2012-08-28T15:03:15Z</time>
      </trkpt>
      <trkpt lat="47.02464" lon="-0.84798">
        <ele>84.25</ele>
        <time>2012-08-28T15:03:16Z</time>
      </trkpt>
      <trkpt lat="47.02461" lon="-0.84794">
        <ele>82.81</ele>
        <time>2012-08-28T15:03:17Z</time>
      </trkpt>
      <trkpt lat="47.02458" lon="-0.84791">
        <ele>81.85</ele>
        <time>2012-08-28T15:03:18Z</time>
      </trkpt>
      <trkpt lat="47.02457" lon="-0.84788">
        <ele>82.81</ele>
        <time>2012-08-28T15:03:19Z</time>
      </trkpt>
      <trkpt lat="47.02458" lon="-0.84784">
        <ele>82.33</ele>
        <time>2012-08-28T15:03:22Z</time>
      </trkpt>
      <trkpt lat="47.0246" lon="-0.84782">
        <ele>82.33</ele>
        <time>2012-08-28T15:03:23Z</time>
      </trkpt>
      <trkpt lat="47.02472" lon="-0.84772">
        <ele>82.81</ele>
        <time>2012-08-28T15:03:27Z</time>
      </trkpt>
      <trkpt lat="47.02473" lon="-0.84767">
        <ele>81.37</ele>
        <time>2012-08-28T15:03:28Z</time>
      </trkpt>
      <trkpt lat="47.02474" lon="-0.84761">
        <ele>81.37</ele>
        <time>2012-08-28T15:03:29Z</time>
      </trkpt>
      <trkpt lat="47.02473" lon="-0.84754">
        <ele>80.89</ele>
        <time>2012-08-28T15:03:30Z</time>
      </trkpt>
      <trkpt lat="47.02472" lon="-0.84749">
        <ele>81.37</ele>
        <time>2012-08-28T15:03:31Z</time>
      </trkpt>
      <trkpt lat="47.0246" lon="-0.84701">
        <ele>83.29</ele>
        <time>2012-08-28T15:03:42Z</time>
      </trkpt>
      <trkpt lat="47.0245" lon="-0.84675">
        <ele>86.66</ele>
        <time>2012-08-28T15:03:54Z</time>
      </trkpt>
      <trkpt lat="47.02451" lon="-0.84672">
        <ele>87.14</ele>
        <time>2012-08-28T15:03:55Z</time>
      </trkpt>
      <trkpt lat="47.02451" lon="-0.8467">
        <ele>88.1</ele>
        <time>2012-08-28T15:03:56Z</time>
      </trkpt>
      <trkpt lat="47.02452" lon="-0.84668">
        <ele>88.58</ele>
        <time>2012-08-28T15:03:57Z</time>
      </trkpt>
      <trkpt lat="47.02453" lon="-0.84667">
        <ele>88.58</ele>
        <time>2012-08-28T15:03:58Z</time>
      </trkpt>
      <trkpt lat="47.02455" lon="-0.84659">
        <ele>90.02</ele>
        <time>2012-08-28T15:04:03Z</time>
      </trkpt>
      <trkpt lat="47.02451" lon="-0.84657">
        <ele>90.02</ele>
        <time>2012-08-28T15:04:06Z</time>
      </trkpt>
      <trkpt lat="47.02449" lon="-0.84656">
        <ele>90.5</ele>
        <time>2012-08-28T15:04:08Z</time>
      </trkpt>
      <trkpt lat="47.02442" lon="-0.84651">
        <ele>93.39</ele>
        <time>2012-08-28T15:04:15Z</time>
      </trkpt>
      <trkpt lat="47.02456" lon="-0.84629">
        <ele>95.79</ele>
        <time>2012-08-28T15:04:27Z</time>
      </trkpt>
      <trkpt lat="47.02456" lon="-0.84624">
        <ele>96.27</ele>
        <time>2012-08-28T15:04:30Z</time>
      </trkpt>
      <trkpt lat="47.02448" lon="-0.84623">
        <ele>98.19</ele>
        <time>2012-08-28T15:04:41Z</time>
      </trkpt>
      <trkpt lat="47.02437" lon="-0.84625">
        <ele>99.63</ele>
        <time>2012-08-28T15:04:50Z</time>
      </trkpt>
      <trkpt lat="47.02424" lon="-0.84626">
        <ele>102.04</ele>
        <time>2012-08-28T15:04:58Z</time>
      </trkpt>
      <trkpt lat="47.0242" lon="-0.84625">
        <ele>102.04</ele>
        <time>2012-08-28T15:05:05Z</time>
      </trkpt>
      <trkpt lat="47.02418" lon="-0.84623">
        <ele>102.04</ele>
        <time>2012-08-28T15:05:07Z</time>
      </trkpt>
      <trkpt lat="47.02412" lon="-0.84617">
        <ele>104.44</ele>
        <time>2012-08-28T15:05:19Z</time>
      </trkpt>
      <trkpt lat="47.02411" lon="-0.84616">
        <ele>103.96</ele>
        <time>2012-08-28T15:05:20Z</time>
      </trkpt>
      <trkpt lat="47.02409" lon="-0.84608">
        <ele>104.92</ele>
        <time>2012-08-28T15:05:28Z</time>
      </trkpt>
      <trkpt lat="47.02399" lon="-0.84605">
        <ele>103.96</ele>
        <time>2012-08-28T15:05:34Z</time>
      </trkpt>
      <trkpt lat="47.02366" lon="-0.84599">
        <ele>106.84</ele>
        <time>2012-08-28T15:05:47Z</time>
      </trkpt>
      <trkpt lat="47.02338" lon="-0.84594">
        <ele>107.81</ele>
        <time>2012-08-28T15:05:59Z</time>
      </trkpt>
      <trkpt lat="47.02326" lon="-0.84591">
        <ele>108.77</ele>
        <time>2012-08-28T15:06:04Z</time>
      </trkpt>
      <trkpt lat="47.02322" lon="-0.84581">
        <ele>110.69</ele>
        <time>2012-08-28T15:06:08Z</time>
      </trkpt>
      <trkpt lat="47.02317" lon="-0.84544">
        <ele>112.13</ele>
        <time>2012-08-28T15:06:19Z</time>
      </trkpt>
      <trkpt lat="47.02315" lon="-0.84494">
        <ele>114.53</ele>
        <time>2012-08-28T15:06:32Z</time>
      </trkpt>
      <trkpt lat="47.02315" lon="-0.84441">
        <ele>115.98</ele>
        <time>2012-08-28T15:06:44Z</time>
      </trkpt>
      <trkpt lat="47.02312" lon="-0.84405">
        <ele>117.42</ele>
        <time>2012-08-28T15:06:53Z</time>
      </trkpt>
      <trkpt lat="47.02305" lon="-0.84341">
        <ele>117.42</ele>
        <time>2012-08-28T15:07:04Z</time>
      </trkpt>
      <trkpt lat="47.02309" lon="-0.84219">
        <ele>118.38</ele>
        <time>2012-08-28T15:07:21Z</time>
      </trkpt>
      <trkpt lat="47.02303" lon="-0.84099">
        <ele>118.86</ele>
        <time>2012-08-28T15:07:38Z</time>
      </trkpt>
      <trkpt lat="47.02277" lon="-0.84">
        <ele>118.86</ele>
        <time>2012-08-28T15:07:53Z</time>
      </trkpt>
      <trkpt lat="47.02256" lon="-0.83957">
        <ele>119.82</ele>
        <time>2012-08-28T15:08:01Z</time>
      </trkpt>
      <trkpt lat="47.02253" lon="-0.83951">
        <ele>118.86</ele>
        <time>2012-08-28T15:08:02Z</time>
      </trkpt>
      <trkpt lat="47.0225" lon="-0.83946">
        <ele>119.34</ele>
        <time>2012-08-28T15:08:03Z</time>
      </trkpt>
      <trkpt lat="47.02214" lon="-0.83868">
        <ele>118.86</ele>
        <time>2012-08-28T15:08:17Z</time>
      </trkpt>
      <trkpt lat="47.022" lon="-0.83831">
        <ele>118.86</ele>
        <time>2012-08-28T15:08:29Z</time>
      </trkpt>
      <trkpt lat="47.02192" lon="-0.83809">
        <ele>118.38</ele>
        <time>2012-08-28T15:08:43Z</time>
      </trkpt>
      <trkpt lat="47.02187" lon="-0.83794">
        <ele>117.9</ele>
        <time>2012-08-28T15:08:46Z</time>
      </trkpt>
      <trkpt lat="47.02185" lon="-0.83788">
        <ele>118.38</ele>
        <time>2012-08-28T15:08:47Z</time>
      </trkpt>
      <trkpt lat="47.02183" lon="-0.83782">
        <ele>118.38</ele>
        <time>2012-08-28T15:08:48Z</time>
      </trkpt>
      <trkpt lat="47.02157" lon="-0.83709">
        <ele>117.9</ele>
        <time>2012-08-28T15:09:00Z</time>
      </trkpt>
      <trkpt lat="47.02153" lon="-0.83695">
        <ele>116.94</ele>
        <time>2012-08-28T15:09:02Z</time>
      </trkpt>
      <trkpt lat="47.0215" lon="-0.83688">
        <ele>116.94</ele>
        <time>2012-08-28T15:09:03Z</time>
      </trkpt>
      <trkpt lat="47.02125" lon="-0.83611">
        <ele>117.42</ele>
        <time>2012-08-28T15:09:14Z</time>
      </trkpt>
      <trkpt lat="47.02123" lon="-0.83604">
        <ele>116.94</ele>
        <time>2012-08-28T15:09:15Z</time>
      </trkpt>
      <trkpt lat="47.02121" lon="-0.83597">
        <ele>117.42</ele>
        <time>2012-08-28T15:09:16Z</time>
      </trkpt>
      <trkpt lat="47.02114" lon="-0.83569">
        <ele>117.9</ele>
        <time>2012-08-28T15:09:20Z</time>
      </trkpt>
      <trkpt lat="47.0211" lon="-0.83564">
        <ele>117.42</ele>
        <time>2012-08-28T15:09:21Z</time>
      </trkpt>
      <trkpt lat="47.0206" lon="-0.8348">
        <ele>118.38</ele>
        <time>2012-08-28T15:09:36Z</time>
      </trkpt>
      <trkpt lat="47.0205" lon="-0.83451">
        <ele>118.86</ele>
        <time>2012-08-28T15:09:40Z</time>
      </trkpt>
      <trkpt lat="47.02047" lon="-0.83437">
        <ele>118.86</ele>
        <time>2012-08-28T15:09:42Z</time>
      </trkpt>
      <trkpt lat="47.02042" lon="-0.83398">
        <ele>119.82</ele>
        <time>2012-08-28T15:09:47Z</time>
      </trkpt>
      <trkpt lat="47.02033" lon="-0.83279">
        <ele>120.3</ele>
        <time>2012-08-28T15:10:02Z</time>
      </trkpt>
      <trkpt lat="47.02027" lon="-0.83237">
        <ele>119.34</ele>
        <time>2012-08-28T15:10:07Z</time>
      </trkpt>
      <trkpt lat="47.02024" lon="-0.83229">
        <ele>119.82</ele>
        <time>2012-08-28T15:10:08Z</time>
      </trkpt>
      <trkpt lat="47.02017" lon="-0.83206">
        <ele>119.82</ele>
        <time>2012-08-28T15:10:11Z</time>
      </trkpt>
      <trkpt lat="47.02009" lon="-0.83174">
        <ele>119.34</ele>
        <time>2012-08-28T15:10:15Z</time>
      </trkpt>
      <trkpt lat="47.01999" lon="-0.83145">
        <ele>119.34</ele>
        <time>2012-08-28T15:10:19Z</time>
      </trkpt>
      <trkpt lat="47.01968" lon="-0.83055">
        <ele>116.46</ele>
        <time>2012-08-28T15:10:31Z</time>
      </trkpt>
      <trkpt lat="47.01936" lon="-0.82972">
        <ele>114.05</ele>
        <time>2012-08-28T15:10:41Z</time>
      </trkpt>
      <trkpt lat="47.01934" lon="-0.82967">
        <ele>114.05</ele>
        <time>2012-08-28T15:10:42Z</time>
      </trkpt>
      <trkpt lat="47.01931" lon="-0.82963">
        <ele>114.05</ele>
        <time>2012-08-28T15:10:43Z</time>
      </trkpt>
      <trkpt lat="47.0193" lon="-0.82961">
        <ele>114.05</ele>
        <time>2012-08-28T15:10:44Z</time>
      </trkpt>
      <trkpt lat="47.0193" lon="-0.82959">
        <ele>113.57</ele>
        <time>2012-08-28T15:10:45Z</time>
      </trkpt>
      <trkpt lat="47.01929" lon="-0.82956">
        <ele>114.53</ele>
        <time>2012-08-28T15:10:46Z</time>
      </trkpt>
      <trkpt lat="47.01929" lon="-0.82952">
        <ele>113.57</ele>
        <time>2012-08-28T15:10:47Z</time>
      </trkpt>
      <trkpt lat="47.01929" lon="-0.82947">
        <ele>113.57</ele>
        <time>2012-08-28T15:10:48Z</time>
      </trkpt>
      <trkpt lat="47.01931" lon="-0.82942">
        <ele>114.05</ele>
        <time>2012-08-28T15:10:49Z</time>
      </trkpt>
      <trkpt lat="47.01948" lon="-0.8287">
        <ele>110.69</ele>
        <time>2012-08-28T15:10:59Z</time>
      </trkpt>
      <trkpt lat="47.01981" lon="-0.82795">
        <ele>110.21</ele>
        <time>2012-08-28T15:11:09Z</time>
      </trkpt>
      <trkpt lat="47.01986" lon="-0.8279">
        <ele>110.21</ele>
        <time>2012-08-28T15:11:10Z</time>
      </trkpt>
      <trkpt lat="47.02006" lon="-0.82771">
        <ele>110.69</ele>
        <time>2012-08-28T15:11:14Z</time>
      </trkpt>
      <trkpt lat="47.0205" lon="-0.82748">
        <ele>111.65</ele>
        <time>2012-08-28T15:11:23Z</time>
      </trkpt>
      <trkpt lat="47.02054" lon="-0.82745">
        <ele>112.13</ele>
        <time>2012-08-28T15:11:24Z</time>
      </trkpt>
      <trkpt lat="47.02057" lon="-0.82741">
        <ele>111.65</ele>
        <time>2012-08-28T15:11:25Z</time>
      </trkpt>
      <trkpt lat="47.02058" lon="-0.82736">
        <ele>111.17</ele>
        <time>2012-08-28T15:11:26Z</time>
      </trkpt>
      <trkpt lat="47.02058" lon="-0.8273">
        <ele>112.13</ele>
        <time>2012-08-28T15:11:27Z</time>
      </trkpt>
      <trkpt lat="47.02058" lon="-0.82723">
        <ele>110.69</ele>
        <time>2012-08-28T15:11:28Z</time>
      </trkpt>
      <trkpt lat="47.0206" lon="-0.82716">
        <ele>110.69</ele>
        <time>2012-08-28T15:11:29Z</time>
      </trkpt>
      <trkpt lat="47.02063" lon="-0.82712">
        <ele>110.69</ele>
        <time>2012-08-28T15:11:30Z</time>
      </trkpt>
      <trkpt lat="47.02067" lon="-0.8271">
        <ele>110.69</ele>
        <time>2012-08-28T15:11:31Z</time>
      </trkpt>
      <trkpt lat="47.02071" lon="-0.82709">
        <ele>111.17</ele>
        <time>2012-08-28T15:11:32Z</time>
      </trkpt>
      <trkpt lat="47.02131" lon="-0.82682">
        <ele>111.65</ele>
        <time>2012-08-28T15:11:47Z</time>
      </trkpt>
      <trkpt lat="47.02134" lon="-0.82678">
        <ele>111.17</ele>
        <time>2012-08-28T15:11:48Z</time>
      </trkpt>
      <trkpt lat="47.02138" lon="-0.82675">
        <ele>110.69</ele>
        <time>2012-08-28T15:11:49Z</time>
      </trkpt>
      <trkpt lat="47.02141" lon="-0.82671">
        <ele>110.69</ele>
        <time>2012-08-28T15:11:50Z</time>
      </trkpt>
      <trkpt lat="47.02141" lon="-0.82666">
        <ele>111.17</ele>
        <time>2012-08-28T15:11:51Z</time>
      </trkpt>
      <trkpt lat="47.02141" lon="-0.82661">
        <ele>110.21</ele>
        <time>2012-08-28T15:11:52Z</time>
      </trkpt>
      <trkpt lat="47.0214" lon="-0.82656">
        <ele>109.73</ele>
        <time>2012-08-28T15:11:53Z</time>
      </trkpt>
      <trkpt lat="47.02139" lon="-0.82652">
        <ele>109.73</ele>
        <time>2012-08-28T15:11:54Z</time>
      </trkpt>
      <trkpt lat="47.02139" lon="-0.82648">
        <ele>109.73</ele>
        <time>2012-08-28T15:11:55Z</time>
      </trkpt>
      <trkpt lat="47.02138" lon="-0.82644">
        <ele>109.73</ele>
        <time>2012-08-28T15:11:56Z</time>
      </trkpt>
      <trkpt lat="47.02137" lon="-0.82641">
        <ele>109.73</ele>
        <time>2012-08-28T15:11:57Z</time>
      </trkpt>
      <trkpt lat="47.02121" lon="-0.82593">
        <ele>109.73</ele>
        <time>2012-08-28T15:12:07Z</time>
      </trkpt>
      <trkpt lat="47.02097" lon="-0.82494">
        <ele>109.73</ele>
        <time>2012-08-28T15:12:24Z</time>
      </trkpt>
      <trkpt lat="47.02083" lon="-0.82437">
        <ele>109.25</ele>
        <time>2012-08-28T15:12:33Z</time>
      </trkpt>
      <trkpt lat="47.02082" lon="-0.82431">
        <ele>109.73</ele>
        <time>2012-08-28T15:12:34Z</time>
      </trkpt>
      <trkpt lat="47.0208" lon="-0.82426">
        <ele>109.25</ele>
        <time>2012-08-28T15:12:35Z</time>
      </trkpt>
      <trkpt lat="47.02058" lon="-0.82341">
        <ele>109.73</ele>
        <time>2012-08-28T15:12:51Z</time>
      </trkpt>
      <trkpt lat="47.02044" lon="-0.82288">
        <ele>109.73</ele>
        <time>2012-08-28T15:13:05Z</time>
      </trkpt>
      <trkpt lat="47.02042" lon="-0.82282">
        <ele>109.73</ele>
        <time>2012-08-28T15:13:14Z</time>
      </trkpt>
      <trkpt lat="47.02042" lon="-0.82284">
        <ele>110.21</ele>
        <time>2012-08-28T15:13:50Z</time>
      </trkpt>
      <trkpt lat="47.02042" lon="-0.82283">
        <ele>109.73</ele>
        <time>2012-08-28T15:14:28Z</time>
      </trkpt>
      <trkpt lat="47.02042" lon="-0.82283">
        <ele>109.25</ele>
        <time>2012-08-28T15:15:07Z</time>
      </trkpt>
      <trkpt lat="47.02042" lon="-0.82284">
        <ele>109.25</ele>
        <time>2012-08-28T15:15:49Z</time>
      </trkpt>
      <trkpt lat="47.02042" lon="-0.82283">
        <ele>109.73</ele>
        <time>2012-08-28T15:16:29Z</time>
      </trkpt>
      <trkpt lat="47.02042" lon="-0.82282">
        <ele>109.73</ele>
        <time>2012-08-28T15:17:07Z</time>
      </trkpt>
      <trkpt lat="47.02042" lon="-0.82283">
        <ele>108.77</ele>
        <time>2012-08-28T15:17:40Z</time>
      </trkpt>
      <trkpt lat="47.02042" lon="-0.82283">
        <ele>109.25</ele>
        <time>2012-08-28T15:18:18Z</time>
      </trkpt>
      <trkpt lat="47.02042" lon="-0.82283">
        <ele>109.25</ele>
        <time>2012-08-28T15:18:51Z</time>
      </trkpt>
      <trkpt lat="47.02043" lon="-0.82282">
        <ele>109.25</ele>
        <time>2012-08-28T15:19:07Z</time>
      </trkpt>
      <trkpt lat="47.02039" lon="-0.82259">
        <ele>109.25</ele>
        <time>2012-08-28T15:19:16Z</time>
      </trkpt>
      <trkpt lat="47.0204" lon="-0.82254">
        <ele>109.25</ele>
        <time>2012-08-28T15:19:17Z</time>
      </trkpt>
      <trkpt lat="47.0204" lon="-0.82249">
        <ele>108.77</ele>
        <time>2012-08-28T15:19:18Z</time>
      </trkpt>
      <trkpt lat="47.02042" lon="-0.82246">
        <ele>108.29</ele>
        <time>2012-08-28T15:19:19Z</time>
      </trkpt>
      <trkpt lat="47.02043" lon="-0.82241">
        <ele>107.81</ele>
        <time>2012-08-28T15:19:20Z</time>
      </trkpt>
      <trkpt lat="47.02046" lon="-0.82237">
        <ele>107.32</ele>
        <time>2012-08-28T15:19:21Z</time>
      </trkpt>
      <trkpt lat="47.02049" lon="-0.82233">
        <ele>105.4</ele>
        <time>2012-08-28T15:19:22Z</time>
      </trkpt>
      <trkpt lat="47.02055" lon="-0.82224">
        <ele>103.48</ele>
        <time>2012-08-28T15:19:24Z</time>
      </trkpt>
      <trkpt lat="47.02059" lon="-0.82221">
        <ele>101.56</ele>
        <time>2012-08-28T15:19:25Z</time>
      </trkpt>
      <trkpt lat="47.02063" lon="-0.82219">
        <ele>100.11</ele>
        <time>2012-08-28T15:19:26Z</time>
      </trkpt>
      <trkpt lat="47.02068" lon="-0.82218">
        <ele>98.67</ele>
        <time>2012-08-28T15:19:27Z</time>
      </trkpt>
      <trkpt lat="47.02074" lon="-0.82218">
        <ele>98.19</ele>
        <time>2012-08-28T15:19:28Z</time>
      </trkpt>
      <trkpt lat="47.02079" lon="-0.8222">
        <ele>98.67</ele>
        <time>2012-08-28T15:19:29Z</time>
      </trkpt>
      <trkpt lat="47.0213" lon="-0.82236">
        <ele>94.83</ele>
        <time>2012-08-28T15:19:38Z</time>
      </trkpt>
      <trkpt lat="47.02136" lon="-0.82239">
        <ele>95.31</ele>
        <time>2012-08-28T15:19:39Z</time>
      </trkpt>
      <trkpt lat="47.02142" lon="-0.82243">
        <ele>94.35</ele>
        <time>2012-08-28T15:19:40Z</time>
      </trkpt>
      <trkpt lat="47.02177" lon="-0.8226">
        <ele>94.35</ele>
        <time>2012-08-28T15:19:49Z</time>
      </trkpt>
      <trkpt lat="47.02184" lon="-0.8226">
        <ele>96.27</ele>
        <time>2012-08-28T15:20:00Z</time>
      </trkpt>
      <trkpt lat="47.02184" lon="-0.8226">
        <ele>95.79</ele>
        <time>2012-08-28T15:20:05Z</time>
      </trkpt>
      <trkpt lat="47.02188" lon="-0.82236">
        <ele>95.31</ele>
        <time>2012-08-28T15:20:13Z</time>
      </trkpt>
      <trkpt lat="47.02188" lon="-0.8223">
        <ele>95.31</ele>
        <time>2012-08-28T15:20:14Z</time>
      </trkpt>
      <trkpt lat="47.02191" lon="-0.82128">
        <ele>94.35</ele>
        <time>2012-08-28T15:20:30Z</time>
      </trkpt>
      <trkpt lat="47.0219" lon="-0.82107">
        <ele>94.35</ele>
        <time>2012-08-28T15:20:34Z</time>
      </trkpt>
      <trkpt lat="47.02187" lon="-0.82104">
        <ele>94.83</ele>
        <time>2012-08-28T15:20:35Z</time>
      </trkpt>
      <trkpt lat="47.02184" lon="-0.82101">
        <ele>94.83</ele>
        <time>2012-08-28T15:20:36Z</time>
      </trkpt>
      <trkpt lat="47.0218" lon="-0.82099">
        <ele>94.35</ele>
        <time>2012-08-28T15:20:37Z</time>
      </trkpt>
      <trkpt lat="47.02176" lon="-0.82097">
        <ele>94.35</ele>
        <time>2012-08-28T15:20:38Z</time>
      </trkpt>
      <trkpt lat="47.02172" lon="-0.82095">
        <ele>94.35</ele>
        <time>2012-08-28T15:20:39Z</time>
      </trkpt>
      <trkpt lat="47.02169" lon="-0.82092">
        <ele>94.35</ele>
        <time>2012-08-28T15:20:40Z</time>
      </trkpt>
      <trkpt lat="47.02165" lon="-0.8209">
        <ele>94.83</ele>
        <time>2012-08-28T15:20:41Z</time>
      </trkpt>
      <trkpt lat="47.02161" lon="-0.82088">
        <ele>94.83</ele>
        <time>2012-08-28T15:20:42Z</time>
      </trkpt>
      <trkpt lat="47.02158" lon="-0.82085">
        <ele>95.31</ele>
        <time>2012-08-28T15:20:43Z</time>
      </trkpt>
      <trkpt lat="47.02155" lon="-0.82083">
        <ele>95.79</ele>
        <time>2012-08-28T15:20:44Z</time>
      </trkpt>
      <trkpt lat="47.02145" lon="-0.82041">
        <ele>98.67</ele>
        <time>2012-08-28T15:20:54Z</time>
      </trkpt>
      <trkpt lat="47.02144" lon="-0.81994">
        <ele>100.6</ele>
        <time>2012-08-28T15:21:04Z</time>
      </trkpt>
      <trkpt lat="47.02133" lon="-0.81938">
        <ele>100.6</ele>
        <time>2012-08-28T15:21:15Z</time>
      </trkpt>
      <trkpt lat="47.02131" lon="-0.81873">
        <ele>101.08</ele>
        <time>2012-08-28T15:21:27Z</time>
      </trkpt>
      <trkpt lat="47.02132" lon="-0.81867">
        <ele>101.08</ele>
        <time>2012-08-28T15:21:28Z</time>
      </trkpt>
      <trkpt lat="47.02133" lon="-0.81862">
        <ele>101.56</ele>
        <time>2012-08-28T15:21:29Z</time>
      </trkpt>
      <trkpt lat="47.0215" lon="-0.81801">
        <ele>103.48</ele>
        <time>2012-08-28T15:21:42Z</time>
      </trkpt>
      <trkpt lat="47.02154" lon="-0.81742">
        <ele>105.88</ele>
        <time>2012-08-28T15:21:55Z</time>
      </trkpt>
      <trkpt lat="47.02154" lon="-0.81733">
        <ele>105.88</ele>
        <time>2012-08-28T15:21:57Z</time>
      </trkpt>
      <trkpt lat="47.02155" lon="-0.81729">
        <ele>106.84</ele>
        <time>2012-08-28T15:21:58Z</time>
      </trkpt>
      <trkpt lat="47.02156" lon="-0.81725">
        <ele>106.36</ele>
        <time>2012-08-28T15:21:59Z</time>
      </trkpt>
      <trkpt lat="47.02158" lon="-0.8172">
        <ele>106.36</ele>
        <time>2012-08-28T15:22:00Z</time>
      </trkpt>
      <trkpt lat="47.02159" lon="-0.81716">
        <ele>106.84</ele>
        <time>2012-08-28T15:22:01Z</time>
      </trkpt>
      <trkpt lat="47.02159" lon="-0.81711">
        <ele>106.84</ele>
        <time>2012-08-28T15:22:02Z</time>
      </trkpt>
      <trkpt lat="47.02157" lon="-0.81708">
        <ele>106.84</ele>
        <time>2012-08-28T15:22:03Z</time>
      </trkpt>
      <trkpt lat="47.02155" lon="-0.81704">
        <ele>107.32</ele>
        <time>2012-08-28T15:22:04Z</time>
      </trkpt>
      <trkpt lat="47.02152" lon="-0.817">
        <ele>107.32</ele>
        <time>2012-08-28T15:22:05Z</time>
      </trkpt>
      <trkpt lat="47.0215" lon="-0.81696">
        <ele>107.32</ele>
        <time>2012-08-28T15:22:06Z</time>
      </trkpt>
      <trkpt lat="47.02148" lon="-0.81691">
        <ele>107.32</ele>
        <time>2012-08-28T15:22:07Z</time>
      </trkpt>
      <trkpt lat="47.02147" lon="-0.81686">
        <ele>107.32</ele>
        <time>2012-08-28T15:22:08Z</time>
      </trkpt>
      <trkpt lat="47.02147" lon="-0.81681">
        <ele>107.32</ele>
        <time>2012-08-28T15:22:09Z</time>
      </trkpt>
      <trkpt lat="47.02147" lon="-0.81675">
        <ele>107.32</ele>
        <time>2012-08-28T15:22:10Z</time>
      </trkpt>
      <trkpt lat="47.02148" lon="-0.8167">
        <ele>107.81</ele>
        <time>2012-08-28T15:22:11Z</time>
      </trkpt>
      <trkpt lat="47.02148" lon="-0.81655">
        <ele>108.29</ele>
        <time>2012-08-28T15:22:14Z</time>
      </trkpt>
      <trkpt lat="47.02147" lon="-0.8165">
        <ele>108.29</ele>
        <time>2012-08-28T15:22:15Z</time>
      </trkpt>
      <trkpt lat="47.02144" lon="-0.81647">
        <ele>108.77</ele>
        <time>2012-08-28T15:22:16Z</time>
      </trkpt>
      <trkpt lat="47.02133" lon="-0.81639">
        <ele>109.73</ele>
        <time>2012-08-28T15:22:20Z</time>
      </trkpt>
      <trkpt lat="47.02131" lon="-0.81641">
        <ele>109.25</ele>
        <time>2012-08-28T15:22:21Z</time>
      </trkpt>
      <trkpt lat="47.0213" lon="-0.81645">
        <ele>109.25</ele>
        <time>2012-08-28T15:22:22Z</time>
      </trkpt>
      <trkpt lat="47.02128" lon="-0.81649">
        <ele>108.77</ele>
        <time>2012-08-28T15:22:23Z</time>
      </trkpt>
      <trkpt lat="47.02126" lon="-0.81654">
        <ele>108.29</ele>
        <time>2012-08-28T15:22:24Z</time>
      </trkpt>
      <trkpt lat="47.02124" lon="-0.8166">
        <ele>107.81</ele>
        <time>2012-08-28T15:22:25Z</time>
      </trkpt>
      <trkpt lat="47.02122" lon="-0.81666">
        <ele>107.81</ele>
        <time>2012-08-28T15:22:26Z</time>
      </trkpt>
      <trkpt lat="47.02117" lon="-0.81695">
        <ele>106.36</ele>
        <time>2012-08-28T15:22:30Z</time>
      </trkpt>
      <trkpt lat="47.02115" lon="-0.81702">
        <ele>106.36</ele>
        <time>2012-08-28T15:22:31Z</time>
      </trkpt>
      <trkpt lat="47.02112" lon="-0.81708">
        <ele>105.4</ele>
        <time>2012-08-28T15:22:32Z</time>
      </trkpt>
      <trkpt lat="47.02108" lon="-0.81712">
        <ele>105.4</ele>
        <time>2012-08-28T15:22:33Z</time>
      </trkpt>
      <trkpt lat="47.02103" lon="-0.81714">
        <ele>105.88</ele>
        <time>2012-08-28T15:22:34Z</time>
      </trkpt>
      <trkpt lat="47.02098" lon="-0.81713">
        <ele>105.88</ele>
        <time>2012-08-28T15:22:35Z</time>
      </trkpt>
      <trkpt lat="47.02093" lon="-0.81712">
        <ele>106.36</ele>
        <time>2012-08-28T15:22:36Z</time>
      </trkpt>
      <trkpt lat="47.02067" lon="-0.81711">
        <ele>106.36</ele>
        <time>2012-08-28T15:22:42Z</time>
      </trkpt>
      <trkpt lat="47.02063" lon="-0.81712">
        <ele>106.84</ele>
        <time>2012-08-28T15:22:43Z</time>
      </trkpt>
      <trkpt lat="47.02041" lon="-0.81719">
        <ele>106.36</ele>
        <time>2012-08-28T15:22:48Z</time>
      </trkpt>
      <trkpt lat="47.02033" lon="-0.81723">
        <ele>106.84</ele>
        <time>2012-08-28T15:22:50Z</time>
      </trkpt>
      <trkpt lat="47.02019" lon="-0.81727">
        <ele>106.36</ele>
        <time>2012-08-28T15:22:53Z</time>
      </trkpt>
      <trkpt lat="47.01959" lon="-0.81739">
        <ele>105.88</ele>
        <time>2012-08-28T15:23:06Z</time>
      </trkpt>
      <trkpt lat="47.01945" lon="-0.81744">
        <ele>105.88</ele>
        <time>2012-08-28T15:23:09Z</time>
      </trkpt>
      <trkpt lat="47.01913" lon="-0.81764">
        <ele>106.36</ele>
        <time>2012-08-28T15:23:17Z</time>
      </trkpt>
      <trkpt lat="47.01909" lon="-0.81768">
        <ele>106.36</ele>
        <time>2012-08-28T15:23:18Z</time>
      </trkpt>
      <trkpt lat="47.01907" lon="-0.81772">
        <ele>106.36</ele>
        <time>2012-08-28T15:23:19Z</time>
      </trkpt>
      <trkpt lat="47.01905" lon="-0.81778">
        <ele>106.36</ele>
        <time>2012-08-28T15:23:20Z</time>
      </trkpt>
      <trkpt lat="47.01904" lon="-0.81783">
        <ele>106.84</ele>
        <time>2012-08-28T15:23:21Z</time>
      </trkpt>
      <trkpt lat="47.01902" lon="-0.81789">
        <ele>106.36</ele>
        <time>2012-08-28T15:23:22Z</time>
      </trkpt>
      <trkpt lat="47.019" lon="-0.81795">
        <ele>106.36</ele>
        <time>2012-08-28T15:23:23Z</time>
      </trkpt>
      <trkpt lat="47.01898" lon="-0.818">
        <ele>106.36</ele>
        <time>2012-08-28T15:23:24Z</time>
      </trkpt>
      <trkpt lat="47.01892" lon="-0.81809">
        <ele>105.88</ele>
        <time>2012-08-28T15:23:26Z</time>
      </trkpt>
      <trkpt lat="47.01847" lon="-0.81863">
        <ele>105.88</ele>
        <time>2012-08-28T15:23:39Z</time>
      </trkpt>
      <trkpt lat="47.01844" lon="-0.81867">
        <ele>105.4</ele>
        <time>2012-08-28T15:23:40Z</time>
      </trkpt>
      <trkpt lat="47.0184" lon="-0.81871">
        <ele>105.88</ele>
        <time>2012-08-28T15:23:41Z</time>
      </trkpt>
      <trkpt lat="47.01836" lon="-0.81874">
        <ele>105.4</ele>
        <time>2012-08-28T15:23:42Z</time>
      </trkpt>
      <trkpt lat="47.01832" lon="-0.81877">
        <ele>104.92</ele>
        <time>2012-08-28T15:23:43Z</time>
      </trkpt>
      <trkpt lat="47.01828" lon="-0.81878">
        <ele>105.4</ele>
        <time>2012-08-28T15:23:44Z</time>
      </trkpt>
      <trkpt lat="47.01823" lon="-0.81878">
        <ele>105.4</ele>
        <time>2012-08-28T15:23:45Z</time>
      </trkpt>
      <trkpt lat="47.01818" lon="-0.81877">
        <ele>105.4</ele>
        <time>2012-08-28T15:23:46Z</time>
      </trkpt>
      <trkpt lat="47.01814" lon="-0.81874">
        <ele>105.4</ele>
        <time>2012-08-28T15:23:47Z</time>
      </trkpt>
      <trkpt lat="47.01809" lon="-0.81872">
        <ele>104.92</ele>
        <time>2012-08-28T15:23:48Z</time>
      </trkpt>
      <trkpt lat="47.01749" lon="-0.81842">
        <ele>105.4</ele>
        <time>2012-08-28T15:24:02Z</time>
      </trkpt>
      <trkpt lat="47.01736" lon="-0.81833">
        <ele>105.4</ele>
        <time>2012-08-28T15:24:05Z</time>
      </trkpt>
      <trkpt lat="47.01695" lon="-0.81793">
        <ele>105.88</ele>
        <time>2012-08-28T15:24:15Z</time>
      </trkpt>
      <trkpt lat="47.01692" lon="-0.81788">
        <ele>105.88</ele>
        <time>2012-08-28T15:24:16Z</time>
      </trkpt>
      <trkpt lat="47.01689" lon="-0.81782">
        <ele>105.4</ele>
        <time>2012-08-28T15:24:17Z</time>
      </trkpt>
      <trkpt lat="47.01661" lon="-0.81695">
        <ele>105.88</ele>
        <time>2012-08-28T15:24:31Z</time>
      </trkpt>
      <trkpt lat="47.01642" lon="-0.8165">
        <ele>105.4</ele>
        <time>2012-08-28T15:24:38Z</time>
      </trkpt>
      <trkpt lat="47.01638" lon="-0.81645">
        <ele>105.4</ele>
        <time>2012-08-28T15:24:39Z</time>
      </trkpt>
      <trkpt lat="47.01565" lon="-0.81575">
        <ele>105.88</ele>
        <time>2012-08-28T15:24:56Z</time>
      </trkpt>
      <trkpt lat="47.01534" lon="-0.8153">
        <ele>106.36</ele>
        <time>2012-08-28T15:25:05Z</time>
      </trkpt>
      <trkpt lat="47.01522" lon="-0.81499">
        <ele>106.36</ele>
        <time>2012-08-28T15:25:10Z</time>
      </trkpt>
      <trkpt lat="47.01493" lon="-0.81389">
        <ele>106.36</ele>
        <time>2012-08-28T15:25:27Z</time>
      </trkpt>
      <trkpt lat="47.01489" lon="-0.81377">
        <ele>107.32</ele>
        <time>2012-08-28T15:25:29Z</time>
      </trkpt>
      <trkpt lat="47.01487" lon="-0.81371">
        <ele>106.36</ele>
        <time>2012-08-28T15:25:30Z</time>
      </trkpt>
      <trkpt lat="47.01484" lon="-0.81365">
        <ele>106.36</ele>
        <time>2012-08-28T15:25:31Z</time>
      </trkpt>
      <trkpt lat="47.01477" lon="-0.81346">
        <ele>106.84</ele>
        <time>2012-08-28T15:25:34Z</time>
      </trkpt>
      <trkpt lat="47.01475" lon="-0.8134">
        <ele>106.36</ele>
        <time>2012-08-28T15:25:35Z</time>
      </trkpt>
      <trkpt lat="47.01456" lon="-0.81303">
        <ele>106.84</ele>
        <time>2012-08-28T15:25:42Z</time>
      </trkpt>
      <trkpt lat="47.01453" lon="-0.81298">
        <ele>106.84</ele>
        <time>2012-08-28T15:25:43Z</time>
      </trkpt>
      <trkpt lat="47.0145" lon="-0.81293">
        <ele>106.84</ele>
        <time>2012-08-28T15:25:44Z</time>
      </trkpt>
      <trkpt lat="47.01416" lon="-0.81213">
        <ele>106.84</ele>
        <time>2012-08-28T15:26:00Z</time>
      </trkpt>
      <trkpt lat="47.01405" lon="-0.81209">
        <ele>106.84</ele>
        <time>2012-08-28T15:26:03Z</time>
      </trkpt>
      <trkpt lat="47.01396" lon="-0.81209">
        <ele>105.88</ele>
        <time>2012-08-28T15:26:05Z</time>
      </trkpt>
      <trkpt lat="47.01386" lon="-0.81212">
        <ele>105.4</ele>
        <time>2012-08-28T15:26:07Z</time>
      </trkpt>
      <trkpt lat="47.01361" lon="-0.81214">
        <ele>105.4</ele>
        <time>2012-08-28T15:26:12Z</time>
      </trkpt>
      <trkpt lat="47.01329" lon="-0.81214">
        <ele>105.4</ele>
        <time>2012-08-28T15:26:19Z</time>
      </trkpt>
      <trkpt lat="47.01325" lon="-0.81214">
        <ele>105.4</ele>
        <time>2012-08-28T15:26:20Z</time>
      </trkpt>
      <trkpt lat="47.0132" lon="-0.81214">
        <ele>105.4</ele>
        <time>2012-08-28T15:26:21Z</time>
      </trkpt>
      <trkpt lat="47.01316" lon="-0.81215">
        <ele>104.92</ele>
        <time>2012-08-28T15:26:22Z</time>
      </trkpt>
      <trkpt lat="47.01311" lon="-0.81215">
        <ele>104.92</ele>
        <time>2012-08-28T15:26:23Z</time>
      </trkpt>
      <trkpt lat="47.01265" lon="-0.81228">
        <ele>105.4</ele>
        <time>2012-08-28T15:26:33Z</time>
      </trkpt>
      <trkpt lat="47.01261" lon="-0.81228">
        <ele>105.88</ele>
        <time>2012-08-28T15:26:34Z</time>
      </trkpt>
      <trkpt lat="47.01256" lon="-0.81229">
        <ele>105.4</ele>
        <time>2012-08-28T15:26:35Z</time>
      </trkpt>
      <trkpt lat="47.01228" lon="-0.81227">
        <ele>105.4</ele>
        <time>2012-08-28T15:26:41Z</time>
      </trkpt>
      <trkpt lat="47.01219" lon="-0.81225">
        <ele>105.88</ele>
        <time>2012-08-28T15:26:43Z</time>
      </trkpt>
      <trkpt lat="47.01215" lon="-0.81223">
        <ele>105.88</ele>
        <time>2012-08-28T15:26:44Z</time>
      </trkpt>
      <trkpt lat="47.01208" lon="-0.81218">
        <ele>106.36</ele>
        <time>2012-08-28T15:26:46Z</time>
      </trkpt>
      <trkpt lat="47.01204" lon="-0.81215">
        <ele>106.36</ele>
        <time>2012-08-28T15:26:47Z</time>
      </trkpt>
      <trkpt lat="47.01197" lon="-0.81208">
        <ele>106.36</ele>
        <time>2012-08-28T15:26:49Z</time>
      </trkpt>
      <trkpt lat="47.01194" lon="-0.81204">
        <ele>106.36</ele>
        <time>2012-08-28T15:26:50Z</time>
      </trkpt>
      <trkpt lat="47.01192" lon="-0.81199">
        <ele>106.36</ele>
        <time>2012-08-28T15:26:51Z</time>
      </trkpt>
      <trkpt lat="47.01186" lon="-0.81182">
        <ele>106.36</ele>
        <time>2012-08-28T15:26:54Z</time>
      </trkpt>
      <trkpt lat="47.01186" lon="-0.81175">
        <ele>105.88</ele>
        <time>2012-08-28T15:26:55Z</time>
      </trkpt>
      <trkpt lat="47.01182" lon="-0.81115">
        <ele>105.88</ele>
        <time>2012-08-28T15:27:03Z</time>
      </trkpt>
      <trkpt lat="47.01182" lon="-0.81101">
        <ele>105.88</ele>
        <time>2012-08-28T15:27:05Z</time>
      </trkpt>
      <trkpt lat="47.01182" lon="-0.81094">
        <ele>105.88</ele>
        <time>2012-08-28T15:27:06Z</time>
      </trkpt>
      <trkpt lat="47.0118" lon="-0.81087">
        <ele>106.36</ele>
        <time>2012-08-28T15:27:07Z</time>
      </trkpt>
      <trkpt lat="47.01179" lon="-0.8108">
        <ele>106.36</ele>
        <time>2012-08-28T15:27:08Z</time>
      </trkpt>
      <trkpt lat="47.01178" lon="-0.81073">
        <ele>106.36</ele>
        <time>2012-08-28T15:27:09Z</time>
      </trkpt>
      <trkpt lat="47.01171" lon="-0.81045">
        <ele>106.36</ele>
        <time>2012-08-28T15:27:13Z</time>
      </trkpt>
      <trkpt lat="47.0117" lon="-0.81037">
        <ele>105.88</ele>
        <time>2012-08-28T15:27:14Z</time>
      </trkpt>
      <trkpt lat="47.01169" lon="-0.8103">
        <ele>106.36</ele>
        <time>2012-08-28T15:27:15Z</time>
      </trkpt>
      <trkpt lat="47.01168" lon="-0.81016">
        <ele>106.36</ele>
        <time>2012-08-28T15:27:17Z</time>
      </trkpt>
      <trkpt lat="47.01165" lon="-0.80994">
        <ele>105.88</ele>
        <time>2012-08-28T15:27:20Z</time>
      </trkpt>
      <trkpt lat="47.01164" lon="-0.80987">
        <ele>105.4</ele>
        <time>2012-08-28T15:27:21Z</time>
      </trkpt>
      <trkpt lat="47.01164" lon="-0.80973">
        <ele>106.36</ele>
        <time>2012-08-28T15:27:23Z</time>
      </trkpt>
      <trkpt lat="47.01164" lon="-0.80966">
        <ele>106.84</ele>
        <time>2012-08-28T15:27:24Z</time>
      </trkpt>
      <trkpt lat="47.01166" lon="-0.80952">
        <ele>106.36</ele>
        <time>2012-08-28T15:27:26Z</time>
      </trkpt>
      <trkpt lat="47.01167" lon="-0.80945">
        <ele>106.36</ele>
        <time>2012-08-28T15:27:27Z</time>
      </trkpt>
      <trkpt lat="47.0117" lon="-0.80923">
        <ele>105.88</ele>
        <time>2012-08-28T15:27:30Z</time>
      </trkpt>
      <trkpt lat="47.01171" lon="-0.80916">
        <ele>105.4</ele>
        <time>2012-08-28T15:27:31Z</time>
      </trkpt>
      <trkpt lat="47.01172" lon="-0.80909">
        <ele>105.88</ele>
        <time>2012-08-28T15:27:32Z</time>
      </trkpt>
      <trkpt lat="47.01172" lon="-0.80902">
        <ele>105.88</ele>
        <time>2012-08-28T15:27:33Z</time>
      </trkpt>
      <trkpt lat="47.01173" lon="-0.80895">
        <ele>105.88</ele>
        <time>2012-08-28T15:27:34Z</time>
      </trkpt>
      <trkpt lat="47.01173" lon="-0.80887">
        <ele>106.36</ele>
        <time>2012-08-28T15:27:35Z</time>
      </trkpt>
      <trkpt lat="47.01172" lon="-0.8088">
        <ele>106.36</ele>
        <time>2012-08-28T15:27:36Z</time>
      </trkpt>
      <trkpt lat="47.0117" lon="-0.80873">
        <ele>106.36</ele>
        <time>2012-08-28T15:27:37Z</time>
      </trkpt>
      <trkpt lat="47.01168" lon="-0.80867">
        <ele>106.36</ele>
        <time>2012-08-28T15:27:38Z</time>
      </trkpt>
      <trkpt lat="47.01165" lon="-0.80861">
        <ele>105.88</ele>
        <time>2012-08-28T15:27:39Z</time>
      </trkpt>
      <trkpt lat="47.01162" lon="-0.80855">
        <ele>105.88</ele>
        <time>2012-08-28T15:27:40Z</time>
      </trkpt>
      <trkpt lat="47.01158" lon="-0.8085">
        <ele>106.36</ele>
        <time>2012-08-28T15:27:41Z</time>
      </trkpt>
      <trkpt lat="47.01154" lon="-0.80846">
        <ele>106.36</ele>
        <time>2012-08-28T15:27:42Z</time>
      </trkpt>
      <trkpt lat="47.01101" lon="-0.80765">
        <ele>106.84</ele>
        <time>2012-08-28T15:27:58Z</time>
      </trkpt>
      <trkpt lat="47.01096" lon="-0.80753">
        <ele>106.84</ele>
        <time>2012-08-28T15:28:00Z</time>
      </trkpt>
      <trkpt lat="47.0109" lon="-0.80732">
        <ele>106.36</ele>
        <time>2012-08-28T15:28:03Z</time>
      </trkpt>
      <trkpt lat="47.01085" lon="-0.8071">
        <ele>106.84</ele>
        <time>2012-08-28T15:28:06Z</time>
      </trkpt>
      <trkpt lat="47.01083" lon="-0.80665">
        <ele>106.84</ele>
        <time>2012-08-28T15:28:12Z</time>
      </trkpt>
      <trkpt lat="47.01083" lon="-0.80659">
        <ele>107.32</ele>
        <time>2012-08-28T15:28:13Z</time>
      </trkpt>
      <trkpt lat="47.01085" lon="-0.80646">
        <ele>107.32</ele>
        <time>2012-08-28T15:28:15Z</time>
      </trkpt>
      <trkpt lat="47.01087" lon="-0.80634">
        <ele>107.81</ele>
        <time>2012-08-28T15:28:17Z</time>
      </trkpt>
      <trkpt lat="47.01093" lon="-0.80599">
        <ele>106.84</ele>
        <time>2012-08-28T15:28:22Z</time>
      </trkpt>
      <trkpt lat="47.01095" lon="-0.80592">
        <ele>106.36</ele>
        <time>2012-08-28T15:28:23Z</time>
      </trkpt>
      <trkpt lat="47.01098" lon="-0.80585">
        <ele>106.36</ele>
        <time>2012-08-28T15:28:24Z</time>
      </trkpt>
      <trkpt lat="47.01121" lon="-0.80498">
        <ele>106.36</ele>
        <time>2012-08-28T15:28:36Z</time>
      </trkpt>
      <trkpt lat="47.01121" lon="-0.8049">
        <ele>106.36</ele>
        <time>2012-08-28T15:28:37Z</time>
      </trkpt>
      <trkpt lat="47.01121" lon="-0.80482">
        <ele>105.4</ele>
        <time>2012-08-28T15:28:38Z</time>
      </trkpt>
      <trkpt lat="47.01119" lon="-0.80475">
        <ele>105.88</ele>
        <time>2012-08-28T15:28:39Z</time>
      </trkpt>
      <trkpt lat="47.01117" lon="-0.80467">
        <ele>105.88</ele>
        <time>2012-08-28T15:28:40Z</time>
      </trkpt>
      <trkpt lat="47.01115" lon="-0.80461">
        <ele>106.84</ele>
        <time>2012-08-28T15:28:41Z</time>
      </trkpt>
      <trkpt lat="47.01112" lon="-0.80456">
        <ele>106.36</ele>
        <time>2012-08-28T15:28:42Z</time>
      </trkpt>
      <trkpt lat="47.01108" lon="-0.80451">
        <ele>106.36</ele>
        <time>2012-08-28T15:28:43Z</time>
      </trkpt>
      <trkpt lat="47.01104" lon="-0.80447">
        <ele>106.84</ele>
        <time>2012-08-28T15:28:44Z</time>
      </trkpt>
      <trkpt lat="47.01101" lon="-0.80442">
        <ele>106.36</ele>
        <time>2012-08-28T15:28:45Z</time>
      </trkpt>
      <trkpt lat="47.01098" lon="-0.80436">
        <ele>106.36</ele>
        <time>2012-08-28T15:28:46Z</time>
      </trkpt>
      <trkpt lat="47.01096" lon="-0.8043">
        <ele>106.36</ele>
        <time>2012-08-28T15:28:47Z</time>
      </trkpt>
      <trkpt lat="47.01094" lon="-0.80423">
        <ele>106.84</ele>
        <time>2012-08-28T15:28:48Z</time>
      </trkpt>
      <trkpt lat="47.01094" lon="-0.80415">
        <ele>106.36</ele>
        <time>2012-08-28T15:28:49Z</time>
      </trkpt>
      <trkpt lat="47.01093" lon="-0.80408">
        <ele>106.84</ele>
        <time>2012-08-28T15:28:50Z</time>
      </trkpt>
      <trkpt lat="47.01101" lon="-0.80329">
        <ele>107.32</ele>
        <time>2012-08-28T15:29:01Z</time>
      </trkpt>
      <trkpt lat="47.01102" lon="-0.80322">
        <ele>107.32</ele>
        <time>2012-08-28T15:29:02Z</time>
      </trkpt>
      <trkpt lat="47.0111" lon="-0.80278">
        <ele>107.32</ele>
        <time>2012-08-28T15:29:08Z</time>
      </trkpt>
      <trkpt lat="47.01117" lon="-0.8026">
        <ele>106.84</ele>
        <time>2012-08-28T15:29:11Z</time>
      </trkpt>
      <trkpt lat="47.01121" lon="-0.80254">
        <ele>106.84</ele>
        <time>2012-08-28T15:29:12Z</time>
      </trkpt>
      <trkpt lat="47.01129" lon="-0.80245">
        <ele>107.32</ele>
        <time>2012-08-28T15:29:14Z</time>
      </trkpt>
      <trkpt lat="47.01134" lon="-0.80242">
        <ele>106.84</ele>
        <time>2012-08-28T15:29:15Z</time>
      </trkpt>
      <trkpt lat="47.01138" lon="-0.8024">
        <ele>106.84</ele>
        <time>2012-08-28T15:29:16Z</time>
      </trkpt>
      <trkpt lat="47.01143" lon="-0.80239">
        <ele>106.84</ele>
        <time>2012-08-28T15:29:17Z</time>
      </trkpt>
      <trkpt lat="47.01148" lon="-0.8024">
        <ele>106.84</ele>
        <time>2012-08-28T15:29:18Z</time>
      </trkpt>
      <trkpt lat="47.01153" lon="-0.80241">
        <ele>106.84</ele>
        <time>2012-08-28T15:29:19Z</time>
      </trkpt>
      <trkpt lat="47.01158" lon="-0.80243">
        <ele>105.88</ele>
        <time>2012-08-28T15:29:20Z</time>
      </trkpt>
      <trkpt lat="47.0121" lon="-0.8027">
        <ele>105.88</ele>
        <time>2012-08-28T15:29:31Z</time>
      </trkpt>
      <trkpt lat="47.01219" lon="-0.80274">
        <ele>105.88</ele>
        <time>2012-08-28T15:29:33Z</time>
      </trkpt>
      <trkpt lat="47.01233" lon="-0.80276">
        <ele>105.88</ele>
        <time>2012-08-28T15:29:36Z</time>
      </trkpt>
      <trkpt lat="47.01275" lon="-0.80272">
        <ele>108.29</ele>
        <time>2012-08-28T15:29:47Z</time>
      </trkpt>
      <trkpt lat="47.01277" lon="-0.80269">
        <ele>107.81</ele>
        <time>2012-08-28T15:29:48Z</time>
      </trkpt>
      <trkpt lat="47.01278" lon="-0.80264">
        <ele>107.81</ele>
        <time>2012-08-28T15:29:49Z</time>
      </trkpt>
      <trkpt lat="47.01278" lon="-0.80258">
        <ele>107.32</ele>
        <time>2012-08-28T15:29:50Z</time>
      </trkpt>
      <trkpt lat="47.01278" lon="-0.80251">
        <ele>107.32</ele>
        <time>2012-08-28T15:29:51Z</time>
      </trkpt>
      <trkpt lat="47.01278" lon="-0.8022">
        <ele>107.81</ele>
        <time>2012-08-28T15:29:57Z</time>
      </trkpt>
      <trkpt lat="47.01275" lon="-0.80217">
        <ele>107.32</ele>
        <time>2012-08-28T15:29:58Z</time>
      </trkpt>
      <trkpt lat="47.01272" lon="-0.80215">
        <ele>107.32</ele>
        <time>2012-08-28T15:29:59Z</time>
      </trkpt>
      <trkpt lat="47.01268" lon="-0.80215">
        <ele>107.81</ele>
        <time>2012-08-28T15:30:00Z</time>
      </trkpt>
      <trkpt lat="47.01265" lon="-0.80214">
        <ele>107.81</ele>
        <time>2012-08-28T15:30:01Z</time>
      </trkpt>
      <trkpt lat="47.01261" lon="-0.80213">
        <ele>107.81</ele>
        <time>2012-08-28T15:30:02Z</time>
      </trkpt>
      <trkpt lat="47.01257" lon="-0.80211">
        <ele>107.32</ele>
        <time>2012-08-28T15:30:03Z</time>
      </trkpt>
      <trkpt lat="47.01222" lon="-0.80201">
        <ele>105.88</ele>
        <time>2012-08-28T15:30:15Z</time>
      </trkpt>
      <trkpt lat="47.01189" lon="-0.80161">
        <ele>106.36</ele>
        <time>2012-08-28T15:30:27Z</time>
      </trkpt>
      <trkpt lat="47.01154" lon="-0.80121">
        <ele>105.88</ele>
        <time>2012-08-28T15:30:36Z</time>
      </trkpt>
      <trkpt lat="47.01151" lon="-0.80116">
        <ele>105.88</ele>
        <time>2012-08-28T15:30:37Z</time>
      </trkpt>
      <trkpt lat="47.01135" lon="-0.80096">
        <ele>106.84</ele>
        <time>2012-08-28T15:30:41Z</time>
      </trkpt>
      <trkpt lat="47.01131" lon="-0.80092">
        <ele>106.36</ele>
        <time>2012-08-28T15:30:42Z</time>
      </trkpt>
      <trkpt lat="47.01127" lon="-0.80088">
        <ele>105.88</ele>
        <time>2012-08-28T15:30:43Z</time>
      </trkpt>
      <trkpt lat="47.01123" lon="-0.80083">
        <ele>105.88</ele>
        <time>2012-08-28T15:30:44Z</time>
      </trkpt>
      <trkpt lat="47.0112" lon="-0.80078">
        <ele>106.36</ele>
        <time>2012-08-28T15:30:45Z</time>
      </trkpt>
      <trkpt lat="47.01118" lon="-0.80071">
        <ele>106.84</ele>
        <time>2012-08-28T15:30:46Z</time>
      </trkpt>
      <trkpt lat="47.01117" lon="-0.80064">
        <ele>106.84</ele>
        <time>2012-08-28T15:30:47Z</time>
      </trkpt>
      <trkpt lat="47.01117" lon="-0.80058">
        <ele>106.84</ele>
        <time>2012-08-28T15:30:48Z</time>
      </trkpt>
      <trkpt lat="47.01113" lon="-0.79999">
        <ele>106.36</ele>
        <time>2012-08-28T15:30:57Z</time>
      </trkpt>
      <trkpt lat="47.01112" lon="-0.79993">
        <ele>106.36</ele>
        <time>2012-08-28T15:30:58Z</time>
      </trkpt>
      <trkpt lat="47.01111" lon="-0.79988">
        <ele>106.36</ele>
        <time>2012-08-28T15:30:59Z</time>
      </trkpt>
      <trkpt lat="47.0111" lon="-0.79982">
        <ele>106.84</ele>
        <time>2012-08-28T15:31:00Z</time>
      </trkpt>
      <trkpt lat="47.01107" lon="-0.79977">
        <ele>106.84</ele>
        <time>2012-08-28T15:31:01Z</time>
      </trkpt>
      <trkpt lat="47.01105" lon="-0.79973">
        <ele>106.84</ele>
        <time>2012-08-28T15:31:02Z</time>
      </trkpt>
      <trkpt lat="47.01102" lon="-0.79969">
        <ele>106.36</ele>
        <time>2012-08-28T15:31:03Z</time>
      </trkpt>
      <trkpt lat="47.01099" lon="-0.79967">
        <ele>106.84</ele>
        <time>2012-08-28T15:31:04Z</time>
      </trkpt>
      <trkpt lat="47.01096" lon="-0.79965">
        <ele>106.84</ele>
        <time>2012-08-28T15:31:05Z</time>
      </trkpt>
      <trkpt lat="47.01066" lon="-0.79941">
        <ele>106.84</ele>
        <time>2012-08-28T15:31:15Z</time>
      </trkpt>
      <trkpt lat="47.0105" lon="-0.79932">
        <ele>106.36</ele>
        <time>2012-08-28T15:31:19Z</time>
      </trkpt>
      <trkpt lat="47.01046" lon="-0.79929">
        <ele>106.36</ele>
        <time>2012-08-28T15:31:20Z</time>
      </trkpt>
      <trkpt lat="47.01039" lon="-0.79922">
        <ele>106.36</ele>
        <time>2012-08-28T15:31:22Z</time>
      </trkpt>
      <trkpt lat="47.01029" lon="-0.79909">
        <ele>106.84</ele>
        <time>2012-08-28T15:31:25Z</time>
      </trkpt>
      <trkpt lat="47.01011" lon="-0.79879">
        <ele>106.84</ele>
        <time>2012-08-28T15:31:31Z</time>
      </trkpt>
      <trkpt lat="47.00992" lon="-0.79807">
        <ele>106.36</ele>
        <time>2012-08-28T15:31:41Z</time>
      </trkpt>
      <trkpt lat="47.00991" lon="-0.79799">
        <ele>106.84</ele>
        <time>2012-08-28T15:31:42Z</time>
      </trkpt>
      <trkpt lat="47.00979" lon="-0.79692">
        <ele>106.36</ele>
        <time>2012-08-28T15:31:56Z</time>
      </trkpt>
      <trkpt lat="47.0098" lon="-0.79684">
        <ele>106.84</ele>
        <time>2012-08-28T15:31:57Z</time>
      </trkpt>
      <trkpt lat="47.00981" lon="-0.79677">
        <ele>107.32</ele>
        <time>2012-08-28T15:31:58Z</time>
      </trkpt>
      <trkpt lat="47.00986" lon="-0.79655">
        <ele>106.36</ele>
        <time>2012-08-28T15:32:01Z</time>
      </trkpt>
      <trkpt lat="47.00989" lon="-0.7965">
        <ele>106.36</ele>
        <time>2012-08-28T15:32:02Z</time>
      </trkpt>
      <trkpt lat="47.01007" lon="-0.79622">
        <ele>107.32</ele>
        <time>2012-08-28T15:32:07Z</time>
      </trkpt>
      <trkpt lat="47.0101" lon="-0.79617">
        <ele>106.84</ele>
        <time>2012-08-28T15:32:08Z</time>
      </trkpt>
      <trkpt lat="47.01013" lon="-0.79611">
        <ele>106.84</ele>
        <time>2012-08-28T15:32:09Z</time>
      </trkpt>
      <trkpt lat="47.01033" lon="-0.79584">
        <ele>106.36</ele>
        <time>2012-08-28T15:32:14Z</time>
      </trkpt>
      <trkpt lat="47.01038" lon="-0.7958">
        <ele>106.36</ele>
        <time>2012-08-28T15:32:15Z</time>
      </trkpt>
      <trkpt lat="47.01042" lon="-0.79576">
        <ele>106.84</ele>
        <time>2012-08-28T15:32:16Z</time>
      </trkpt>
      <trkpt lat="47.01045" lon="-0.79572">
        <ele>106.84</ele>
        <time>2012-08-28T15:32:17Z</time>
      </trkpt>
      <trkpt lat="47.01049" lon="-0.79568">
        <ele>107.32</ele>
        <time>2012-08-28T15:32:18Z</time>
      </trkpt>
      <trkpt lat="47.01053" lon="-0.79565">
        <ele>107.32</ele>
        <time>2012-08-28T15:32:19Z</time>
      </trkpt>
      <trkpt lat="47.01058" lon="-0.79563">
        <ele>106.84</ele>
        <time>2012-08-28T15:32:20Z</time>
      </trkpt>
      <trkpt lat="47.01063" lon="-0.79561">
        <ele>106.36</ele>
        <time>2012-08-28T15:32:21Z</time>
      </trkpt>
      <trkpt lat="47.01067" lon="-0.7956">
        <ele>106.36</ele>
        <time>2012-08-28T15:32:22Z</time>
      </trkpt>
      <trkpt lat="47.01072" lon="-0.7956">
        <ele>106.84</ele>
        <time>2012-08-28T15:32:23Z</time>
      </trkpt>
      <trkpt lat="47.01076" lon="-0.79558">
        <ele>106.84</ele>
        <time>2012-08-28T15:32:24Z</time>
      </trkpt>
      <trkpt lat="47.01081" lon="-0.79556">
        <ele>106.36</ele>
        <time>2012-08-28T15:32:25Z</time>
      </trkpt>
      <trkpt lat="47.01085" lon="-0.79553">
        <ele>106.36</ele>
        <time>2012-08-28T15:32:26Z</time>
      </trkpt>
      <trkpt lat="47.01088" lon="-0.79549">
        <ele>106.36</ele>
        <time>2012-08-28T15:32:27Z</time>
      </trkpt>
      <trkpt lat="47.01091" lon="-0.79544">
        <ele>106.36</ele>
        <time>2012-08-28T15:32:28Z</time>
      </trkpt>
      <trkpt lat="47.01093" lon="-0.79538">
        <ele>106.36</ele>
        <time>2012-08-28T15:32:29Z</time>
      </trkpt>
      <trkpt lat="47.01095" lon="-0.79533">
        <ele>106.84</ele>
        <time>2012-08-28T15:32:30Z</time>
      </trkpt>
      <trkpt lat="47.01097" lon="-0.79527">
        <ele>106.36</ele>
        <time>2012-08-28T15:32:31Z</time>
      </trkpt>
      <trkpt lat="47.01099" lon="-0.79522">
        <ele>106.36</ele>
        <time>2012-08-28T15:32:32Z</time>
      </trkpt>
      <trkpt lat="47.01109" lon="-0.79497">
        <ele>105.88</ele>
        <time>2012-08-28T15:32:37Z</time>
      </trkpt>
      <trkpt lat="47.0111" lon="-0.79492">
        <ele>106.36</ele>
        <time>2012-08-28T15:32:38Z</time>
      </trkpt>
      <trkpt lat="47.0111" lon="-0.79487">
        <ele>105.88</ele>
        <time>2012-08-28T15:32:39Z</time>
      </trkpt>
      <trkpt lat="47.01111" lon="-0.79484">
        <ele>105.4</ele>
        <time>2012-08-28T15:32:40Z</time>
      </trkpt>
      <trkpt lat="47.01112" lon="-0.79481">
        <ele>105.4</ele>
        <time>2012-08-28T15:32:41Z</time>
      </trkpt>
      <trkpt lat="47.01114" lon="-0.7948">
        <ele>105.88</ele>
        <time>2012-08-28T15:32:42Z</time>
      </trkpt>
      <trkpt lat="47.01116" lon="-0.7948">
        <ele>105.88</ele>
        <time>2012-08-28T15:32:43Z</time>
      </trkpt>
      <trkpt lat="47.01118" lon="-0.79481">
        <ele>105.88</ele>
        <time>2012-08-28T15:32:44Z</time>
      </trkpt>
      <trkpt lat="47.0112" lon="-0.79482">
        <ele>106.36</ele>
        <time>2012-08-28T15:32:45Z</time>
      </trkpt>
      <trkpt lat="47.01122" lon="-0.79482">
        <ele>106.84</ele>
        <time>2012-08-28T15:32:46Z</time>
      </trkpt>
      <trkpt lat="47.01124" lon="-0.79482">
        <ele>107.32</ele>
        <time>2012-08-28T15:32:47Z</time>
      </trkpt>
      <trkpt lat="47.01126" lon="-0.7948">
        <ele>107.32</ele>
        <time>2012-08-28T15:32:48Z</time>
      </trkpt>
      <trkpt lat="47.01128" lon="-0.79478">
        <ele>107.32</ele>
        <time>2012-08-28T15:32:49Z</time>
      </trkpt>
      <trkpt lat="47.01129" lon="-0.79474">
        <ele>106.84</ele>
        <time>2012-08-28T15:32:50Z</time>
      </trkpt>
      <trkpt lat="47.0113" lon="-0.79469">
        <ele>106.84</ele>
        <time>2012-08-28T15:32:51Z</time>
      </trkpt>
      <trkpt lat="47.01135" lon="-0.7946">
        <ele>106.84</ele>
        <time>2012-08-28T15:32:53Z</time>
      </trkpt>
      <trkpt lat="47.01138" lon="-0.79457">
        <ele>106.84</ele>
        <time>2012-08-28T15:32:54Z</time>
      </trkpt>
      <trkpt lat="47.01158" lon="-0.7944">
        <ele>108.77</ele>
        <time>2012-08-28T15:33:02Z</time>
      </trkpt>
      <trkpt lat="47.01159" lon="-0.79438">
        <ele>109.25</ele>
        <time>2012-08-28T15:33:03Z</time>
      </trkpt>
      <trkpt lat="47.01182" lon="-0.79413">
        <ele>109.25</ele>
        <time>2012-08-28T15:33:12Z</time>
      </trkpt>
      <trkpt lat="47.01185" lon="-0.79409">
        <ele>109.25</ele>
        <time>2012-08-28T15:33:13Z</time>
      </trkpt>
      <trkpt lat="47.01187" lon="-0.79404">
        <ele>109.25</ele>
        <time>2012-08-28T15:33:14Z</time>
      </trkpt>
      <trkpt lat="47.01189" lon="-0.794">
        <ele>108.77</ele>
        <time>2012-08-28T15:33:15Z</time>
      </trkpt>
      <trkpt lat="47.01191" lon="-0.79395">
        <ele>109.25</ele>
        <time>2012-08-28T15:33:16Z</time>
      </trkpt>
      <trkpt lat="47.01194" lon="-0.79391">
        <ele>108.77</ele>
        <time>2012-08-28T15:33:17Z</time>
      </trkpt>
      <trkpt lat="47.01196" lon="-0.79387">
        <ele>109.25</ele>
        <time>2012-08-28T15:33:18Z</time>
      </trkpt>
      <trkpt lat="47.01222" lon="-0.79346">
        <ele>108.77</ele>
        <time>2012-08-28T15:33:28Z</time>
      </trkpt>
      <trkpt lat="47.01225" lon="-0.79341">
        <ele>108.77</ele>
        <time>2012-08-28T15:33:29Z</time>
      </trkpt>
      <trkpt lat="47.01228" lon="-0.79337">
        <ele>108.77</ele>
        <time>2012-08-28T15:33:30Z</time>
      </trkpt>
      <trkpt lat="47.01233" lon="-0.79329">
        <ele>108.77</ele>
        <time>2012-08-28T15:33:32Z</time>
      </trkpt>
      <trkpt lat="47.01219" lon="-0.79318">
        <ele>106.84</ele>
        <time>2012-08-28T15:33:40Z</time>
      </trkpt>
      <trkpt lat="47.01216" lon="-0.79323">
        <ele>106.36</ele>
        <time>2012-08-28T15:33:41Z</time>
      </trkpt>
      <trkpt lat="47.01213" lon="-0.79328">
        <ele>106.84</ele>
        <time>2012-08-28T15:33:42Z</time>
      </trkpt>
      <trkpt lat="47.0121" lon="-0.79332">
        <ele>106.84</ele>
        <time>2012-08-28T15:33:43Z</time>
      </trkpt>
      <trkpt lat="47.01206" lon="-0.79334">
        <ele>107.32</ele>
        <time>2012-08-28T15:33:44Z</time>
      </trkpt>
      <trkpt lat="47.01202" lon="-0.79335">
        <ele>106.84</ele>
        <time>2012-08-28T15:33:45Z</time>
      </trkpt>
      <trkpt lat="47.01198" lon="-0.79337">
        <ele>106.36</ele>
        <time>2012-08-28T15:33:46Z</time>
      </trkpt>
      <trkpt lat="47.01194" lon="-0.7934">
        <ele>106.36</ele>
        <time>2012-08-28T15:33:47Z</time>
      </trkpt>
      <trkpt lat="47.01191" lon="-0.79344">
        <ele>106.84</ele>
        <time>2012-08-28T15:33:48Z</time>
      </trkpt>
      <trkpt lat="47.01184" lon="-0.7935">
        <ele>106.84</ele>
        <time>2012-08-28T15:33:50Z</time>
      </trkpt>
      <trkpt lat="47.01181" lon="-0.79354">
        <ele>106.84</ele>
        <time>2012-08-28T15:33:51Z</time>
      </trkpt>
      <trkpt lat="47.01177" lon="-0.79357">
        <ele>106.84</ele>
        <time>2012-08-28T15:33:52Z</time>
      </trkpt>
      <trkpt lat="47.01167" lon="-0.79369">
        <ele>106.36</ele>
        <time>2012-08-28T15:33:55Z</time>
      </trkpt>
      <trkpt lat="47.01164" lon="-0.79373">
        <ele>106.36</ele>
        <time>2012-08-28T15:33:56Z</time>
      </trkpt>
      <trkpt lat="47.0116" lon="-0.79376">
        <ele>105.88</ele>
        <time>2012-08-28T15:33:57Z</time>
      </trkpt>
      <trkpt lat="47.01157" lon="-0.7938">
        <ele>105.88</ele>
        <time>2012-08-28T15:33:58Z</time>
      </trkpt>
      <trkpt lat="47.01153" lon="-0.79383">
        <ele>105.88</ele>
        <time>2012-08-28T15:33:59Z</time>
      </trkpt>
      <trkpt lat="47.01124" lon="-0.79414">
        <ele>105.4</ele>
        <time>2012-08-28T15:34:09Z</time>
      </trkpt>
      <trkpt lat="47.01106" lon="-0.79424">
        <ele>104.92</ele>
        <time>2012-08-28T15:34:14Z</time>
      </trkpt>
      <trkpt lat="47.01065" lon="-0.79449">
        <ele>105.88</ele>
        <time>2012-08-28T15:34:26Z</time>
      </trkpt>
      <trkpt lat="47.01016" lon="-0.79478">
        <ele>105.88</ele>
        <time>2012-08-28T15:34:40Z</time>
      </trkpt>
      <trkpt lat="47.00995" lon="-0.79491">
        <ele>105.88</ele>
        <time>2012-08-28T15:34:46Z</time>
      </trkpt>
      <trkpt lat="47.00991" lon="-0.79493">
        <ele>106.36</ele>
        <time>2012-08-28T15:34:47Z</time>
      </trkpt>
      <trkpt lat="47.00964" lon="-0.79503">
        <ele>105.88</ele>
        <time>2012-08-28T15:34:54Z</time>
      </trkpt>
      <trkpt lat="47.0096" lon="-0.79502">
        <ele>106.36</ele>
        <time>2012-08-28T15:34:55Z</time>
      </trkpt>
      <trkpt lat="47.00924" lon="-0.79495">
        <ele>107.32</ele>
        <time>2012-08-28T15:35:05Z</time>
      </trkpt>
      <trkpt lat="47.00893" lon="-0.79472">
        <ele>105.88</ele>
        <time>2012-08-28T15:35:15Z</time>
      </trkpt>
      <trkpt lat="47.00887" lon="-0.79464">
        <ele>106.36</ele>
        <time>2012-08-28T15:35:17Z</time>
      </trkpt>
      <trkpt lat="47.00882" lon="-0.79453">
        <ele>106.36</ele>
        <time>2012-08-28T15:35:19Z</time>
      </trkpt>
      <trkpt lat="47.00879" lon="-0.79447">
        <ele>105.88</ele>
        <time>2012-08-28T15:35:20Z</time>
      </trkpt>
      <trkpt lat="47.00877" lon="-0.79442">
        <ele>105.88</ele>
        <time>2012-08-28T15:35:21Z</time>
      </trkpt>
      <trkpt lat="47.00874" lon="-0.79436">
        <ele>106.36</ele>
        <time>2012-08-28T15:35:22Z</time>
      </trkpt>
      <trkpt lat="47.00871" lon="-0.79431">
        <ele>106.36</ele>
        <time>2012-08-28T15:35:23Z</time>
      </trkpt>
      <trkpt lat="47.00869" lon="-0.79425">
        <ele>105.88</ele>
        <time>2012-08-28T15:35:24Z</time>
      </trkpt>
      <trkpt lat="47.00857" lon="-0.7939">
        <ele>105.88</ele>
        <time>2012-08-28T15:35:30Z</time>
      </trkpt>
      <trkpt lat="47.00848" lon="-0.79326">
        <ele>106.36</ele>
        <time>2012-08-28T15:35:39Z</time>
      </trkpt>
      <trkpt lat="47.00849" lon="-0.7932">
        <ele>107.32</ele>
        <time>2012-08-28T15:35:40Z</time>
      </trkpt>
      <trkpt lat="47.0085" lon="-0.79315">
        <ele>108.29</ele>
        <time>2012-08-28T15:35:41Z</time>
      </trkpt>
      <trkpt lat="47.00852" lon="-0.7931">
        <ele>109.25</ele>
        <time>2012-08-28T15:35:42Z</time>
      </trkpt>
      <trkpt lat="47.00853" lon="-0.79306">
        <ele>109.25</ele>
        <time>2012-08-28T15:35:43Z</time>
      </trkpt>
      <trkpt lat="47.00854" lon="-0.79303">
        <ele>109.73</ele>
        <time>2012-08-28T15:35:44Z</time>
      </trkpt>
      <trkpt lat="47.00855" lon="-0.79299">
        <ele>110.21</ele>
        <time>2012-08-28T15:35:45Z</time>
      </trkpt>
      <trkpt lat="47.00855" lon="-0.79296">
        <ele>110.21</ele>
        <time>2012-08-28T15:35:46Z</time>
      </trkpt>
      <trkpt lat="47.00856" lon="-0.79291">
        <ele>110.69</ele>
        <time>2012-08-28T15:35:47Z</time>
      </trkpt>
      <trkpt lat="47.00856" lon="-0.79287">
        <ele>110.69</ele>
        <time>2012-08-28T15:35:48Z</time>
      </trkpt>
      <trkpt lat="47.00857" lon="-0.79283">
        <ele>110.69</ele>
        <time>2012-08-28T15:35:49Z</time>
      </trkpt>
      <trkpt lat="47.00858" lon="-0.79233">
        <ele>110.21</ele>
        <time>2012-08-28T15:35:59Z</time>
      </trkpt>
      <trkpt lat="47.00865" lon="-0.79178">
        <ele>111.17</ele>
        <time>2012-08-28T15:36:10Z</time>
      </trkpt>
      <trkpt lat="47.00872" lon="-0.79113">
        <ele>113.09</ele>
        <time>2012-08-28T15:36:24Z</time>
      </trkpt>
      <trkpt lat="47.00873" lon="-0.7907">
        <ele>111.65</ele>
        <time>2012-08-28T15:36:34Z</time>
      </trkpt>
      <trkpt lat="47.00874" lon="-0.79048">
        <ele>113.09</ele>
        <time>2012-08-28T15:36:39Z</time>
      </trkpt>
      <trkpt lat="47.00874" lon="-0.79046">
        <ele>114.05</ele>
        <time>2012-08-28T15:36:40Z</time>
      </trkpt>
      <trkpt lat="47.00874" lon="-0.79044">
        <ele>114.53</ele>
        <time>2012-08-28T15:36:41Z</time>
      </trkpt>
      <trkpt lat="47.00873" lon="-0.7904">
        <ele>114.53</ele>
        <time>2012-08-28T15:36:43Z</time>
      </trkpt>
      <trkpt lat="47.00874" lon="-0.79038">
        <ele>115.01</ele>
        <time>2012-08-28T15:36:44Z</time>
      </trkpt>
      <trkpt lat="47.00874" lon="-0.79035">
        <ele>115.5</ele>
        <time>2012-08-28T15:36:45Z</time>
      </trkpt>
      <trkpt lat="47.00875" lon="-0.79032">
        <ele>115.5</ele>
        <time>2012-08-28T15:36:46Z</time>
      </trkpt>
      <trkpt lat="47.00875" lon="-0.7903">
        <ele>115.98</ele>
        <time>2012-08-28T15:36:47Z</time>
      </trkpt>
      <trkpt lat="47.00875" lon="-0.79027">
        <ele>116.94</ele>
        <time>2012-08-28T15:36:48Z</time>
      </trkpt>
      <trkpt lat="47.00876" lon="-0.79025">
        <ele>116.46</ele>
        <time>2012-08-28T15:36:49Z</time>
      </trkpt>
      <trkpt lat="47.00876" lon="-0.79022">
        <ele>116.46</ele>
        <time>2012-08-28T15:36:50Z</time>
      </trkpt>
      <trkpt lat="47.00875" lon="-0.79019">
        <ele>115.5</ele>
        <time>2012-08-28T15:36:51Z</time>
      </trkpt>
      <trkpt lat="47.00873" lon="-0.79008">
        <ele>114.05</ele>
        <time>2012-08-28T15:36:54Z</time>
      </trkpt>
      <trkpt lat="47.00872" lon="-0.79004">
        <ele>112.61</ele>
        <time>2012-08-28T15:36:55Z</time>
      </trkpt>
      <trkpt lat="47.00871" lon="-0.78998">
        <ele>112.13</ele>
        <time>2012-08-28T15:36:56Z</time>
      </trkpt>
      <trkpt lat="47.00871" lon="-0.78992">
        <ele>111.65</ele>
        <time>2012-08-28T15:36:57Z</time>
      </trkpt>
      <trkpt lat="47.00871" lon="-0.78986">
        <ele>112.13</ele>
        <time>2012-08-28T15:36:58Z</time>
      </trkpt>
      <trkpt lat="47.00871" lon="-0.78982">
        <ele>112.13</ele>
        <time>2012-08-28T15:36:59Z</time>
      </trkpt>
      <trkpt lat="47.00872" lon="-0.7895">
        <ele>112.61</ele>
        <time>2012-08-28T15:37:06Z</time>
      </trkpt>
      <trkpt lat="47.00873" lon="-0.78946">
        <ele>112.61</ele>
        <time>2012-08-28T15:37:07Z</time>
      </trkpt>
      <trkpt lat="47.00874" lon="-0.78941">
        <ele>113.09</ele>
        <time>2012-08-28T15:37:09Z</time>
      </trkpt>
      <trkpt lat="47.00874" lon="-0.78939">
        <ele>113.09</ele>
        <time>2012-08-28T15:37:10Z</time>
      </trkpt>
      <trkpt lat="47.00874" lon="-0.78936">
        <ele>113.09</ele>
        <time>2012-08-28T15:37:11Z</time>
      </trkpt>
      <trkpt lat="47.00874" lon="-0.78923">
        <ele>111.65</ele>
        <time>2012-08-28T15:37:14Z</time>
      </trkpt>
      <trkpt lat="47.00877" lon="-0.78904">
        <ele>107.81</ele>
        <time>2012-08-28T15:37:19Z</time>
      </trkpt>
      <trkpt lat="47.00877" lon="-0.78898">
        <ele>106.84</ele>
        <time>2012-08-28T15:37:20Z</time>
      </trkpt>
      <trkpt lat="47.00878" lon="-0.78893">
        <ele>106.84</ele>
        <time>2012-08-28T15:37:21Z</time>
      </trkpt>
      <trkpt lat="47.00879" lon="-0.7889">
        <ele>106.84</ele>
        <time>2012-08-28T15:37:22Z</time>
      </trkpt>
      <trkpt lat="47.00879" lon="-0.78887">
        <ele>107.32</ele>
        <time>2012-08-28T15:37:23Z</time>
      </trkpt>
      <trkpt lat="47.00878" lon="-0.78885">
        <ele>106.84</ele>
        <time>2012-08-28T15:37:24Z</time>
      </trkpt>
      <trkpt lat="47.00875" lon="-0.78882">
        <ele>106.84</ele>
        <time>2012-08-28T15:37:25Z</time>
      </trkpt>
      <trkpt lat="47.00873" lon="-0.78879">
        <ele>106.36</ele>
        <time>2012-08-28T15:37:26Z</time>
      </trkpt>
      <trkpt lat="47.00846" lon="-0.78836">
        <ele>105.88</ele>
        <time>2012-08-28T15:37:38Z</time>
      </trkpt>
      <trkpt lat="47.00843" lon="-0.78825">
        <ele>106.36</ele>
        <time>2012-08-28T15:37:40Z</time>
      </trkpt>
      <trkpt lat="47.00843" lon="-0.78818">
        <ele>105.88</ele>
        <time>2012-08-28T15:37:41Z</time>
      </trkpt>
      <trkpt lat="47.00842" lon="-0.78812">
        <ele>105.4</ele>
        <time>2012-08-28T15:37:42Z</time>
      </trkpt>
      <trkpt lat="47.0084" lon="-0.78807">
        <ele>105.88</ele>
        <time>2012-08-28T15:37:43Z</time>
      </trkpt>
      <trkpt lat="47.00838" lon="-0.78802">
        <ele>105.88</ele>
        <time>2012-08-28T15:37:44Z</time>
      </trkpt>
      <trkpt lat="47.00835" lon="-0.78799">
        <ele>105.4</ele>
        <time>2012-08-28T15:37:45Z</time>
      </trkpt>
      <trkpt lat="47.00832" lon="-0.78796">
        <ele>105.88</ele>
        <time>2012-08-28T15:37:46Z</time>
      </trkpt>
      <trkpt lat="47.00825" lon="-0.7879">
        <ele>105.88</ele>
        <time>2012-08-28T15:37:48Z</time>
      </trkpt>
      <trkpt lat="47.0081" lon="-0.78778">
        <ele>105.88</ele>
        <time>2012-08-28T15:37:52Z</time>
      </trkpt>
      <trkpt lat="47.00807" lon="-0.78777">
        <ele>106.36</ele>
        <time>2012-08-28T15:37:53Z</time>
      </trkpt>
      <trkpt lat="47.00803" lon="-0.78777">
        <ele>106.36</ele>
        <time>2012-08-28T15:37:54Z</time>
      </trkpt>
      <trkpt lat="47.00799" lon="-0.78777">
        <ele>107.32</ele>
        <time>2012-08-28T15:37:55Z</time>
      </trkpt>
      <trkpt lat="47.00797" lon="-0.78778">
        <ele>107.32</ele>
        <time>2012-08-28T15:37:56Z</time>
      </trkpt>
      <trkpt lat="47.00748" lon="-0.78778">
        <ele>106.36</ele>
        <time>2012-08-28T15:38:10Z</time>
      </trkpt>
      <trkpt lat="47.00711" lon="-0.78756">
        <ele>105.88</ele>
        <time>2012-08-28T15:38:22Z</time>
      </trkpt>
      <trkpt lat="47.00686" lon="-0.78727">
        <ele>105.88</ele>
        <time>2012-08-28T15:38:30Z</time>
      </trkpt>
      <trkpt lat="47.00683" lon="-0.78722">
        <ele>105.88</ele>
        <time>2012-08-28T15:38:31Z</time>
      </trkpt>
      <trkpt lat="47.0065" lon="-0.78671">
        <ele>105.88</ele>
        <time>2012-08-28T15:38:42Z</time>
      </trkpt>
      <trkpt lat="47.00648" lon="-0.78665">
        <ele>105.88</ele>
        <time>2012-08-28T15:38:43Z</time>
      </trkpt>
      <trkpt lat="47.00646" lon="-0.78659">
        <ele>105.88</ele>
        <time>2012-08-28T15:38:44Z</time>
      </trkpt>
      <trkpt lat="47.00644" lon="-0.78653">
        <ele>105.88</ele>
        <time>2012-08-28T15:38:45Z</time>
      </trkpt>
      <trkpt lat="47.00642" lon="-0.78646">
        <ele>105.4</ele>
        <time>2012-08-28T15:38:46Z</time>
      </trkpt>
      <trkpt lat="47.00616" lon="-0.78543">
        <ele>106.36</ele>
        <time>2012-08-28T15:39:02Z</time>
      </trkpt>
      <trkpt lat="47.00615" lon="-0.78537">
        <ele>106.36</ele>
        <time>2012-08-28T15:39:03Z</time>
      </trkpt>
      <trkpt lat="47.00614" lon="-0.78532">
        <ele>106.84</ele>
        <time>2012-08-28T15:39:04Z</time>
      </trkpt>
      <trkpt lat="47.00613" lon="-0.78527">
        <ele>106.84</ele>
        <time>2012-08-28T15:39:05Z</time>
      </trkpt>
      <trkpt lat="47.00611" lon="-0.78523">
        <ele>106.84</ele>
        <time>2012-08-28T15:39:06Z</time>
      </trkpt>
      <trkpt lat="47.0061" lon="-0.78518">
        <ele>106.84</ele>
        <time>2012-08-28T15:39:07Z</time>
      </trkpt>
      <trkpt lat="47.00609" lon="-0.78514">
        <ele>107.32</ele>
        <time>2012-08-28T15:39:08Z</time>
      </trkpt>
      <trkpt lat="47.00607" lon="-0.78511">
        <ele>107.32</ele>
        <time>2012-08-28T15:39:09Z</time>
      </trkpt>
      <trkpt lat="47.00604" lon="-0.78509">
        <ele>106.84</ele>
        <time>2012-08-28T15:39:10Z</time>
      </trkpt>
      <trkpt lat="47.006" lon="-0.78509">
        <ele>105.88</ele>
        <time>2012-08-28T15:39:11Z</time>
      </trkpt>
      <trkpt lat="47.00596" lon="-0.7851">
        <ele>105.88</ele>
        <time>2012-08-28T15:39:12Z</time>
      </trkpt>
      <trkpt lat="47.00588" lon="-0.78512">
        <ele>106.36</ele>
        <time>2012-08-28T15:39:15Z</time>
      </trkpt>
      <trkpt lat="47.00585" lon="-0.78511">
        <ele>106.84</ele>
        <time>2012-08-28T15:39:16Z</time>
      </trkpt>
      <trkpt lat="47.00583" lon="-0.78511">
        <ele>106.84</ele>
        <time>2012-08-28T15:39:17Z</time>
      </trkpt>
      <trkpt lat="47.00579" lon="-0.78512">
        <ele>106.36</ele>
        <time>2012-08-28T15:39:18Z</time>
      </trkpt>
      <trkpt lat="47.00576" lon="-0.78513">
        <ele>106.36</ele>
        <time>2012-08-28T15:39:19Z</time>
      </trkpt>
      <trkpt lat="47.00561" lon="-0.78511">
        <ele>106.36</ele>
        <time>2012-08-28T15:39:23Z</time>
      </trkpt>
      <trkpt lat="47.00557" lon="-0.78508">
        <ele>106.36</ele>
        <time>2012-08-28T15:39:24Z</time>
      </trkpt>
      <trkpt lat="47.00554" lon="-0.78503">
        <ele>106.84</ele>
        <time>2012-08-28T15:39:25Z</time>
      </trkpt>
      <trkpt lat="47.00553" lon="-0.78497">
        <ele>106.36</ele>
        <time>2012-08-28T15:39:26Z</time>
      </trkpt>
      <trkpt lat="47.00551" lon="-0.78491">
        <ele>106.36</ele>
        <time>2012-08-28T15:39:27Z</time>
      </trkpt>
      <trkpt lat="47.00548" lon="-0.78485">
        <ele>105.88</ele>
        <time>2012-08-28T15:39:28Z</time>
      </trkpt>
      <trkpt lat="47.00545" lon="-0.7848">
        <ele>105.4</ele>
        <time>2012-08-28T15:39:29Z</time>
      </trkpt>
      <trkpt lat="47.0054" lon="-0.78474">
        <ele>104.92</ele>
        <time>2012-08-28T15:39:30Z</time>
      </trkpt>
      <trkpt lat="47.00536" lon="-0.7847">
        <ele>105.4</ele>
        <time>2012-08-28T15:39:31Z</time>
      </trkpt>
      <trkpt lat="47.00531" lon="-0.78468">
        <ele>105.88</ele>
        <time>2012-08-28T15:39:32Z</time>
      </trkpt>
      <trkpt lat="47.00526" lon="-0.78466">
        <ele>106.36</ele>
        <time>2012-08-28T15:39:33Z</time>
      </trkpt>
      <trkpt lat="47.00504" lon="-0.78459">
        <ele>106.36</ele>
        <time>2012-08-28T15:39:38Z</time>
      </trkpt>
      <trkpt lat="47.00499" lon="-0.78456">
        <ele>105.88</ele>
        <time>2012-08-28T15:39:39Z</time>
      </trkpt>
      <trkpt lat="47.00447" lon="-0.78402">
        <ele>106.36</ele>
        <time>2012-08-28T15:39:54Z</time>
      </trkpt>
      <trkpt lat="47.00435" lon="-0.78382">
        <ele>106.84</ele>
        <time>2012-08-28T15:39:58Z</time>
      </trkpt>
      <trkpt lat="47.00431" lon="-0.78378">
        <ele>106.36</ele>
        <time>2012-08-28T15:39:59Z</time>
      </trkpt>
      <trkpt lat="47.0042" lon="-0.78364">
        <ele>106.36</ele>
        <time>2012-08-28T15:40:02Z</time>
      </trkpt>
      <trkpt lat="47.00408" lon="-0.78342">
        <ele>106.36</ele>
        <time>2012-08-28T15:40:06Z</time>
      </trkpt>
      <trkpt lat="47.00401" lon="-0.78332">
        <ele>106.84</ele>
        <time>2012-08-28T15:40:08Z</time>
      </trkpt>
      <trkpt lat="47.00382" lon="-0.78307">
        <ele>107.32</ele>
        <time>2012-08-28T15:40:14Z</time>
      </trkpt>
      <trkpt lat="47.00378" lon="-0.78302">
        <ele>106.84</ele>
        <time>2012-08-28T15:40:15Z</time>
      </trkpt>
      <trkpt lat="47.00369" lon="-0.7829">
        <ele>105.4</ele>
        <time>2012-08-28T15:40:17Z</time>
      </trkpt>
      <trkpt lat="47.00314" lon="-0.78225">
        <ele>105.88</ele>
        <time>2012-08-28T15:40:30Z</time>
      </trkpt>
      <trkpt lat="47.0031" lon="-0.78218">
        <ele>105.88</ele>
        <time>2012-08-28T15:40:31Z</time>
      </trkpt>
      <trkpt lat="47.00308" lon="-0.7821">
        <ele>105.88</ele>
        <time>2012-08-28T15:40:32Z</time>
      </trkpt>
      <trkpt lat="47.00308" lon="-0.78202">
        <ele>106.36</ele>
        <time>2012-08-28T15:40:33Z</time>
      </trkpt>
      <trkpt lat="47.00308" lon="-0.78194">
        <ele>106.84</ele>
        <time>2012-08-28T15:40:34Z</time>
      </trkpt>
      <trkpt lat="47.00309" lon="-0.78187">
        <ele>106.84</ele>
        <time>2012-08-28T15:40:35Z</time>
      </trkpt>
      <trkpt lat="47.00311" lon="-0.78179">
        <ele>106.84</ele>
        <time>2012-08-28T15:40:36Z</time>
      </trkpt>
      <trkpt lat="47.00318" lon="-0.78149">
        <ele>106.36</ele>
        <time>2012-08-28T15:40:40Z</time>
      </trkpt>
      <trkpt lat="47.00321" lon="-0.78141">
        <ele>105.88</ele>
        <time>2012-08-28T15:40:41Z</time>
      </trkpt>
      <trkpt lat="47.00325" lon="-0.78134">
        <ele>105.88</ele>
        <time>2012-08-28T15:40:42Z</time>
      </trkpt>
      <trkpt lat="47.00329" lon="-0.78128">
        <ele>105.4</ele>
        <time>2012-08-28T15:40:43Z</time>
      </trkpt>
      <trkpt lat="47.00335" lon="-0.78123">
        <ele>105.4</ele>
        <time>2012-08-28T15:40:44Z</time>
      </trkpt>
      <trkpt lat="47.0034" lon="-0.78118">
        <ele>105.4</ele>
        <time>2012-08-28T15:40:45Z</time>
      </trkpt>
      <trkpt lat="47.00345" lon="-0.78114">
        <ele>105.88</ele>
        <time>2012-08-28T15:40:46Z</time>
      </trkpt>
      <trkpt lat="47.00351" lon="-0.7811">
        <ele>105.4</ele>
        <time>2012-08-28T15:40:47Z</time>
      </trkpt>
      <trkpt lat="47.00422" lon="-0.78027">
        <ele>105.4</ele>
        <time>2012-08-28T15:41:02Z</time>
      </trkpt>
      <trkpt lat="47.00441" lon="-0.77994">
        <ele>105.4</ele>
        <time>2012-08-28T15:41:07Z</time>
      </trkpt>
      <trkpt lat="47.00446" lon="-0.77989">
        <ele>105.4</ele>
        <time>2012-08-28T15:41:08Z</time>
      </trkpt>
      <trkpt lat="47.00451" lon="-0.77986">
        <ele>105.4</ele>
        <time>2012-08-28T15:41:09Z</time>
      </trkpt>
      <trkpt lat="47.00456" lon="-0.77985">
        <ele>105.4</ele>
        <time>2012-08-28T15:41:10Z</time>
      </trkpt>
      <trkpt lat="47.00462" lon="-0.77984">
        <ele>105.88</ele>
        <time>2012-08-28T15:41:11Z</time>
      </trkpt>
      <trkpt lat="47.00467" lon="-0.77982">
        <ele>105.88</ele>
        <time>2012-08-28T15:41:12Z</time>
      </trkpt>
      <trkpt lat="47.00477" lon="-0.77978">
        <ele>105.88</ele>
        <time>2012-08-28T15:41:14Z</time>
      </trkpt>
      <trkpt lat="47.0048" lon="-0.77974">
        <ele>105.4</ele>
        <time>2012-08-28T15:41:15Z</time>
      </trkpt>
      <trkpt lat="47.00483" lon="-0.77969">
        <ele>105.4</ele>
        <time>2012-08-28T15:41:16Z</time>
      </trkpt>
      <trkpt lat="47.00483" lon="-0.77964">
        <ele>105.88</ele>
        <time>2012-08-28T15:41:17Z</time>
      </trkpt>
      <trkpt lat="47.00482" lon="-0.77958">
        <ele>105.88</ele>
        <time>2012-08-28T15:41:18Z</time>
      </trkpt>
      <trkpt lat="47.0048" lon="-0.77953">
        <ele>105.88</ele>
        <time>2012-08-28T15:41:19Z</time>
      </trkpt>
      <trkpt lat="47.00477" lon="-0.77948">
        <ele>106.36</ele>
        <time>2012-08-28T15:41:20Z</time>
      </trkpt>
      <trkpt lat="47.0047" lon="-0.77929">
        <ele>105.4</ele>
        <time>2012-08-28T15:41:23Z</time>
      </trkpt>
      <trkpt lat="47.00468" lon="-0.77922">
        <ele>105.4</ele>
        <time>2012-08-28T15:41:24Z</time>
      </trkpt>
      <trkpt lat="47.00467" lon="-0.77914">
        <ele>105.4</ele>
        <time>2012-08-28T15:41:25Z</time>
      </trkpt>
      <trkpt lat="47.00464" lon="-0.77828">
        <ele>105.4</ele>
        <time>2012-08-28T15:41:36Z</time>
      </trkpt>
      <trkpt lat="47.00453" lon="-0.77712">
        <ele>105.4</ele>
        <time>2012-08-28T15:41:51Z</time>
      </trkpt>
      <trkpt lat="47.00425" lon="-0.77593">
        <ele>104.92</ele>
        <time>2012-08-28T15:42:06Z</time>
      </trkpt>
      <trkpt lat="47.00424" lon="-0.77584">
        <ele>104.92</ele>
        <time>2012-08-28T15:42:07Z</time>
      </trkpt>
      <trkpt lat="47.00425" lon="-0.77575">
        <ele>105.4</ele>
        <time>2012-08-28T15:42:08Z</time>
      </trkpt>
      <trkpt lat="47.00427" lon="-0.7756">
        <ele>108.29</ele>
        <time>2012-08-28T15:42:10Z</time>
      </trkpt>
      <trkpt lat="47.00429" lon="-0.77547">
        <ele>108.29</ele>
        <time>2012-08-28T15:42:12Z</time>
      </trkpt>
      <trkpt lat="47.00432" lon="-0.7754">
        <ele>108.29</ele>
        <time>2012-08-28T15:42:13Z</time>
      </trkpt>
      <trkpt lat="47.00434" lon="-0.77533">
        <ele>107.81</ele>
        <time>2012-08-28T15:42:14Z</time>
      </trkpt>
      <trkpt lat="47.0044" lon="-0.77521">
        <ele>107.81</ele>
        <time>2012-08-28T15:42:16Z</time>
      </trkpt>
      <trkpt lat="47.00443" lon="-0.77517">
        <ele>108.29</ele>
        <time>2012-08-28T15:42:17Z</time>
      </trkpt>
      <trkpt lat="47.00462" lon="-0.77491">
        <ele>107.32</ele>
        <time>2012-08-28T15:42:23Z</time>
      </trkpt>
      <trkpt lat="47.00491" lon="-0.77424">
        <ele>106.36</ele>
        <time>2012-08-28T15:42:33Z</time>
      </trkpt>
      <trkpt lat="47.00492" lon="-0.77416">
        <ele>106.84</ele>
        <time>2012-08-28T15:42:34Z</time>
      </trkpt>
      <trkpt lat="47.00492" lon="-0.77408">
        <ele>107.32</ele>
        <time>2012-08-28T15:42:35Z</time>
      </trkpt>
      <trkpt lat="47.00493" lon="-0.774">
        <ele>106.84</ele>
        <time>2012-08-28T15:42:36Z</time>
      </trkpt>
      <trkpt lat="47.00493" lon="-0.77392">
        <ele>106.36</ele>
        <time>2012-08-28T15:42:37Z</time>
      </trkpt>
      <trkpt lat="47.00492" lon="-0.77376">
        <ele>106.84</ele>
        <time>2012-08-28T15:42:39Z</time>
      </trkpt>
      <trkpt lat="47.00489" lon="-0.77352">
        <ele>106.84</ele>
        <time>2012-08-28T15:42:42Z</time>
      </trkpt>
      <trkpt lat="47.00472" lon="-0.77244">
        <ele>104.92</ele>
        <time>2012-08-28T15:42:55Z</time>
      </trkpt>
      <trkpt lat="47.00466" lon="-0.77201">
        <ele>105.4</ele>
        <time>2012-08-28T15:43:00Z</time>
      </trkpt>
      <trkpt lat="47.00464" lon="-0.77193">
        <ele>105.4</ele>
        <time>2012-08-28T15:43:01Z</time>
      </trkpt>
      <trkpt lat="47.00463" lon="-0.77185">
        <ele>104.92</ele>
        <time>2012-08-28T15:43:02Z</time>
      </trkpt>
      <trkpt lat="47.00463" lon="-0.77177">
        <ele>105.4</ele>
        <time>2012-08-28T15:43:03Z</time>
      </trkpt>
      <trkpt lat="47.00463" lon="-0.77169">
        <ele>105.4</ele>
        <time>2012-08-28T15:43:04Z</time>
      </trkpt>
      <trkpt lat="47.00463" lon="-0.77162">
        <ele>105.4</ele>
        <time>2012-08-28T15:43:05Z</time>
      </trkpt>
      <trkpt lat="47.00464" lon="-0.77139">
        <ele>106.36</ele>
        <time>2012-08-28T15:43:08Z</time>
      </trkpt>
      <trkpt lat="47.00467" lon="-0.77124">
        <ele>105.88</ele>
        <time>2012-08-28T15:43:10Z</time>
      </trkpt>
      <trkpt lat="47.0047" lon="-0.77117">
        <ele>105.88</ele>
        <time>2012-08-28T15:43:11Z</time>
      </trkpt>
      <trkpt lat="47.00473" lon="-0.77111">
        <ele>105.88</ele>
        <time>2012-08-28T15:43:12Z</time>
      </trkpt>
      <trkpt lat="47.0048" lon="-0.77099">
        <ele>105.88</ele>
        <time>2012-08-28T15:43:14Z</time>
      </trkpt>
      <trkpt lat="47.00485" lon="-0.77094">
        <ele>105.88</ele>
        <time>2012-08-28T15:43:15Z</time>
      </trkpt>
      <trkpt lat="47.00497" lon="-0.7708">
        <ele>105.88</ele>
        <time>2012-08-28T15:43:18Z</time>
      </trkpt>
      <trkpt lat="47.00518" lon="-0.77057">
        <ele>106.36</ele>
        <time>2012-08-28T15:43:24Z</time>
      </trkpt>
      <trkpt lat="47.00522" lon="-0.77054">
        <ele>106.36</ele>
        <time>2012-08-28T15:43:25Z</time>
      </trkpt>
      <trkpt lat="47.00538" lon="-0.77039">
        <ele>105.88</ele>
        <time>2012-08-28T15:43:29Z</time>
      </trkpt>
      <trkpt lat="47.00541" lon="-0.77036">
        <ele>106.36</ele>
        <time>2012-08-28T15:43:30Z</time>
      </trkpt>
      <trkpt lat="47.00558" lon="-0.77017">
        <ele>106.36</ele>
        <time>2012-08-28T15:43:35Z</time>
      </trkpt>
      <trkpt lat="47.00561" lon="-0.77012">
        <ele>106.84</ele>
        <time>2012-08-28T15:43:36Z</time>
      </trkpt>
      <trkpt lat="47.00562" lon="-0.77007">
        <ele>106.84</ele>
        <time>2012-08-28T15:43:37Z</time>
      </trkpt>
      <trkpt lat="47.00563" lon="-0.76996">
        <ele>106.36</ele>
        <time>2012-08-28T15:43:39Z</time>
      </trkpt>
      <trkpt lat="47.00562" lon="-0.7699">
        <ele>106.36</ele>
        <time>2012-08-28T15:43:40Z</time>
      </trkpt>
      <trkpt lat="47.00561" lon="-0.76984">
        <ele>106.36</ele>
        <time>2012-08-28T15:43:41Z</time>
      </trkpt>
      <trkpt lat="47.0056" lon="-0.76979">
        <ele>105.88</ele>
        <time>2012-08-28T15:43:42Z</time>
      </trkpt>
      <trkpt lat="47.00558" lon="-0.76973">
        <ele>105.88</ele>
        <time>2012-08-28T15:43:43Z</time>
      </trkpt>
      <trkpt lat="47.00557" lon="-0.76967">
        <ele>105.88</ele>
        <time>2012-08-28T15:43:44Z</time>
      </trkpt>
      <trkpt lat="47.00548" lon="-0.7695">
        <ele>105.88</ele>
        <time>2012-08-28T15:43:49Z</time>
      </trkpt>
      <trkpt lat="47.00545" lon="-0.76951">
        <ele>105.88</ele>
        <time>2012-08-28T15:43:50Z</time>
      </trkpt>
      <trkpt lat="47.00541" lon="-0.76952">
        <ele>105.88</ele>
        <time>2012-08-28T15:43:51Z</time>
      </trkpt>
      <trkpt lat="47.00533" lon="-0.76955">
        <ele>105.4</ele>
        <time>2012-08-28T15:43:53Z</time>
      </trkpt>
      <trkpt lat="47.00529" lon="-0.76956">
        <ele>105.4</ele>
        <time>2012-08-28T15:43:54Z</time>
      </trkpt>
      <trkpt lat="47.00525" lon="-0.76958">
        <ele>105.88</ele>
        <time>2012-08-28T15:43:55Z</time>
      </trkpt>
      <trkpt lat="47.00521" lon="-0.7696">
        <ele>105.88</ele>
        <time>2012-08-28T15:43:56Z</time>
      </trkpt>
      <trkpt lat="47.00517" lon="-0.76963">
        <ele>105.88</ele>
        <time>2012-08-28T15:43:57Z</time>
      </trkpt>
      <trkpt lat="47.00504" lon="-0.76976">
        <ele>105.88</ele>
        <time>2012-08-28T15:44:01Z</time>
      </trkpt>
      <trkpt lat="47.005" lon="-0.76979">
        <ele>105.4</ele>
        <time>2012-08-28T15:44:02Z</time>
      </trkpt>
      <trkpt lat="47.00497" lon="-0.76983">
        <ele>105.4</ele>
        <time>2012-08-28T15:44:03Z</time>
      </trkpt>
      <trkpt lat="47.00494" lon="-0.76987">
        <ele>105.88</ele>
        <time>2012-08-28T15:44:04Z</time>
      </trkpt>
      <trkpt lat="47.00491" lon="-0.7699">
        <ele>105.88</ele>
        <time>2012-08-28T15:44:05Z</time>
      </trkpt>
      <trkpt lat="47.00487" lon="-0.76994">
        <ele>105.88</ele>
        <time>2012-08-28T15:44:06Z</time>
      </trkpt>
      <trkpt lat="47.00477" lon="-0.77006">
        <ele>104.92</ele>
        <time>2012-08-28T15:44:09Z</time>
      </trkpt>
      <trkpt lat="47.00442" lon="-0.77046">
        <ele>104.92</ele>
        <time>2012-08-28T15:44:20Z</time>
      </trkpt>
      <trkpt lat="47.00432" lon="-0.77056">
        <ele>104.92</ele>
        <time>2012-08-28T15:44:23Z</time>
      </trkpt>
      <trkpt lat="47.00409" lon="-0.77061">
        <ele>104.92</ele>
        <time>2012-08-28T15:44:29Z</time>
      </trkpt>
      <trkpt lat="47.00393" lon="-0.77056">
        <ele>103.96</ele>
        <time>2012-08-28T15:44:33Z</time>
      </trkpt>
      <trkpt lat="47.00389" lon="-0.77053">
        <ele>103.96</ele>
        <time>2012-08-28T15:44:34Z</time>
      </trkpt>
      <trkpt lat="47.00366" lon="-0.7702">
        <ele>104.92</ele>
        <time>2012-08-28T15:44:43Z</time>
      </trkpt>
      <trkpt lat="47.00364" lon="-0.77015">
        <ele>104.44</ele>
        <time>2012-08-28T15:44:44Z</time>
      </trkpt>
      <trkpt lat="47.00352" lon="-0.76969">
        <ele>105.88</ele>
        <time>2012-08-28T15:44:54Z</time>
      </trkpt>
      <trkpt lat="47.00351" lon="-0.76963">
        <ele>105.4</ele>
        <time>2012-08-28T15:44:55Z</time>
      </trkpt>
      <trkpt lat="47.00349" lon="-0.76956">
        <ele>104.92</ele>
        <time>2012-08-28T15:44:56Z</time>
      </trkpt>
      <trkpt lat="47.00346" lon="-0.76941">
        <ele>106.84</ele>
        <time>2012-08-28T15:44:59Z</time>
      </trkpt>
      <trkpt lat="47.00343" lon="-0.7693">
        <ele>105.4</ele>
        <time>2012-08-28T15:45:01Z</time>
      </trkpt>
      <trkpt lat="47.0034" lon="-0.76923">
        <ele>105.4</ele>
        <time>2012-08-28T15:45:02Z</time>
      </trkpt>
      <trkpt lat="47.00338" lon="-0.76917">
        <ele>105.4</ele>
        <time>2012-08-28T15:45:03Z</time>
      </trkpt>
      <trkpt lat="47.00336" lon="-0.7691">
        <ele>104.92</ele>
        <time>2012-08-28T15:45:04Z</time>
      </trkpt>
      <trkpt lat="47.00334" lon="-0.76904">
        <ele>105.4</ele>
        <time>2012-08-28T15:45:05Z</time>
      </trkpt>
      <trkpt lat="47.00333" lon="-0.76897">
        <ele>107.32</ele>
        <time>2012-08-28T15:45:08Z</time>
      </trkpt>
      <trkpt lat="47.00331" lon="-0.7689">
        <ele>108.29</ele>
        <time>2012-08-28T15:45:16Z</time>
      </trkpt>
      <trkpt lat="47.00332" lon="-0.76887">
        <ele>109.25</ele>
        <time>2012-08-28T15:45:18Z</time>
      </trkpt>
      <trkpt lat="47.00331" lon="-0.76885">
        <ele>109.73</ele>
        <time>2012-08-28T15:45:20Z</time>
      </trkpt>
      <trkpt lat="47.00328" lon="-0.76877">
        <ele>108.77</ele>
        <time>2012-08-28T15:45:26Z</time>
      </trkpt>
      <trkpt lat="47.00323" lon="-0.76846">
        <ele>106.36</ele>
        <time>2012-08-28T15:45:37Z</time>
      </trkpt>
      <trkpt lat="47.00323" lon="-0.7684">
        <ele>105.4</ele>
        <time>2012-08-28T15:45:38Z</time>
      </trkpt>
      <trkpt lat="47.00323" lon="-0.76834">
        <ele>105.88</ele>
        <time>2012-08-28T15:45:39Z</time>
      </trkpt>
      <trkpt lat="47.00324" lon="-0.76828">
        <ele>106.36</ele>
        <time>2012-08-28T15:45:40Z</time>
      </trkpt>
      <trkpt lat="47.00326" lon="-0.76823">
        <ele>105.88</ele>
        <time>2012-08-28T15:45:41Z</time>
      </trkpt>
      <trkpt lat="47.00326" lon="-0.76818">
        <ele>105.88</ele>
        <time>2012-08-28T15:45:42Z</time>
      </trkpt>
      <trkpt lat="47.00327" lon="-0.76813">
        <ele>105.88</ele>
        <time>2012-08-28T15:45:43Z</time>
      </trkpt>
      <trkpt lat="47.0033" lon="-0.76793">
        <ele>107.81</ele>
        <time>2012-08-28T15:45:52Z</time>
      </trkpt>
      <trkpt lat="47.00331" lon="-0.7679">
        <ele>107.81</ele>
        <time>2012-08-28T15:46:05Z</time>
      </trkpt>
      <trkpt lat="47.00329" lon="-0.76784">
        <ele>109.73</ele>
        <time>2012-08-28T15:46:16Z</time>
      </trkpt>
      <trkpt lat="47.00328" lon="-0.76787">
        <ele>109.73</ele>
        <time>2012-08-28T15:46:20Z</time>
      </trkpt>
      <trkpt lat="47.0031" lon="-0.76824">
        <ele>108.29</ele>
        <time>2012-08-28T15:46:31Z</time>
      </trkpt>
      <trkpt lat="47.00264" lon="-0.76898">
        <ele>107.32</ele>
        <time>2012-08-28T15:46:46Z</time>
      </trkpt>
      <trkpt lat="47.00236" lon="-0.76938">
        <ele>106.84</ele>
        <time>2012-08-28T15:46:56Z</time>
      </trkpt>
      <trkpt lat="47.00236" lon="-0.76942">
        <ele>107.32</ele>
        <time>2012-08-28T15:46:57Z</time>
      </trkpt>
      <trkpt lat="47.00237" lon="-0.76946">
        <ele>107.32</ele>
        <time>2012-08-28T15:46:58Z</time>
      </trkpt>
      <trkpt lat="47.00239" lon="-0.76946">
        <ele>106.84</ele>
        <time>2012-08-28T15:46:59Z</time>
      </trkpt>
      <trkpt lat="47.00241" lon="-0.76945">
        <ele>106.84</ele>
        <time>2012-08-28T15:47:00Z</time>
      </trkpt>
      <trkpt lat="47.00244" lon="-0.76943">
        <ele>106.36</ele>
        <time>2012-08-28T15:47:01Z</time>
      </trkpt>
      <trkpt lat="47.00247" lon="-0.7694">
        <ele>106.36</ele>
        <time>2012-08-28T15:47:02Z</time>
      </trkpt>
      <trkpt lat="47.00251" lon="-0.7694">
        <ele>106.36</ele>
        <time>2012-08-28T15:47:03Z</time>
      </trkpt>
      <trkpt lat="47.00254" lon="-0.76941">
        <ele>106.84</ele>
        <time>2012-08-28T15:47:04Z</time>
      </trkpt>
      <trkpt lat="47.00258" lon="-0.76943">
        <ele>106.36</ele>
        <time>2012-08-28T15:47:05Z</time>
      </trkpt>
      <trkpt lat="47.00262" lon="-0.76945">
        <ele>106.36</ele>
        <time>2012-08-28T15:47:06Z</time>
      </trkpt>
      <trkpt lat="47.00266" lon="-0.76949">
        <ele>106.36</ele>
        <time>2012-08-28T15:47:07Z</time>
      </trkpt>
      <trkpt lat="47.00269" lon="-0.76952">
        <ele>106.36</ele>
        <time>2012-08-28T15:47:08Z</time>
      </trkpt>
      <trkpt lat="47.00272" lon="-0.76956">
        <ele>106.36</ele>
        <time>2012-08-28T15:47:09Z</time>
      </trkpt>
      <trkpt lat="47.00275" lon="-0.7696">
        <ele>106.84</ele>
        <time>2012-08-28T15:47:10Z</time>
      </trkpt>
      <trkpt lat="47.00277" lon="-0.76965">
        <ele>106.36</ele>
        <time>2012-08-28T15:47:11Z</time>
      </trkpt>
      <trkpt lat="47.00283" lon="-0.76986">
        <ele>106.84</ele>
        <time>2012-08-28T15:47:15Z</time>
      </trkpt>
      <trkpt lat="47.00285" lon="-0.76992">
        <ele>106.84</ele>
        <time>2012-08-28T15:47:16Z</time>
      </trkpt>
      <trkpt lat="47.00286" lon="-0.76999">
        <ele>106.84</ele>
        <time>2012-08-28T15:47:17Z</time>
      </trkpt>
      <trkpt lat="47.00289" lon="-0.77013">
        <ele>107.32</ele>
        <time>2012-08-28T15:47:19Z</time>
      </trkpt>
      <trkpt lat="47.00299" lon="-0.77057">
        <ele>105.88</ele>
        <time>2012-08-28T15:47:25Z</time>
      </trkpt>
      <trkpt lat="47.003" lon="-0.77065">
        <ele>105.4</ele>
        <time>2012-08-28T15:47:26Z</time>
      </trkpt>
      <trkpt lat="47.00302" lon="-0.77073">
        <ele>104.92</ele>
        <time>2012-08-28T15:47:27Z</time>
      </trkpt>
      <trkpt lat="47.00304" lon="-0.77082">
        <ele>105.4</ele>
        <time>2012-08-28T15:47:28Z</time>
      </trkpt>
      <trkpt lat="47.00305" lon="-0.7709">
        <ele>105.4</ele>
        <time>2012-08-28T15:47:29Z</time>
      </trkpt>
      <trkpt lat="47.00308" lon="-0.77097">
        <ele>105.88</ele>
        <time>2012-08-28T15:47:30Z</time>
      </trkpt>
      <trkpt lat="47.00309" lon="-0.77104">
        <ele>105.88</ele>
        <time>2012-08-28T15:47:31Z</time>
      </trkpt>
      <trkpt lat="47.00313" lon="-0.77116">
        <ele>105.88</ele>
        <time>2012-08-28T15:47:33Z</time>
      </trkpt>
      <trkpt lat="47.00315" lon="-0.77122">
        <ele>106.84</ele>
        <time>2012-08-28T15:47:34Z</time>
      </trkpt>
      <trkpt lat="47.00316" lon="-0.77129">
        <ele>106.36</ele>
        <time>2012-08-28T15:47:35Z</time>
      </trkpt>
      <trkpt lat="47.00317" lon="-0.77137">
        <ele>106.36</ele>
        <time>2012-08-28T15:47:36Z</time>
      </trkpt>
      <trkpt lat="47.00319" lon="-0.77144">
        <ele>106.36</ele>
        <time>2012-08-28T15:47:37Z</time>
      </trkpt>
      <trkpt lat="47.0032" lon="-0.77152">
        <ele>105.88</ele>
        <time>2012-08-28T15:47:38Z</time>
      </trkpt>
      <trkpt lat="47.00321" lon="-0.77161">
        <ele>105.88</ele>
        <time>2012-08-28T15:47:39Z</time>
      </trkpt>
      <trkpt lat="47.00323" lon="-0.7717">
        <ele>105.4</ele>
        <time>2012-08-28T15:47:40Z</time>
      </trkpt>
      <trkpt lat="47.00326" lon="-0.77188">
        <ele>105.88</ele>
        <time>2012-08-28T15:47:42Z</time>
      </trkpt>
      <trkpt lat="47.00331" lon="-0.77221">
        <ele>105.4</ele>
        <time>2012-08-28T15:47:46Z</time>
      </trkpt>
      <trkpt lat="47.0035" lon="-0.77307">
        <ele>105.88</ele>
        <time>2012-08-28T15:47:57Z</time>
      </trkpt>
      <trkpt lat="47.00377" lon="-0.77406">
        <ele>105.88</ele>
        <time>2012-08-28T15:48:11Z</time>
      </trkpt>
      <trkpt lat="47.00376" lon="-0.77412">
        <ele>105.88</ele>
        <time>2012-08-28T15:48:12Z</time>
      </trkpt>
      <trkpt lat="47.00373" lon="-0.77418">
        <ele>105.88</ele>
        <time>2012-08-28T15:48:13Z</time>
      </trkpt>
      <trkpt lat="47.00371" lon="-0.77423">
        <ele>105.88</ele>
        <time>2012-08-28T15:48:14Z</time>
      </trkpt>
      <trkpt lat="47.00368" lon="-0.77429">
        <ele>105.88</ele>
        <time>2012-08-28T15:48:15Z</time>
      </trkpt>
      <trkpt lat="47.00365" lon="-0.77434">
        <ele>106.36</ele>
        <time>2012-08-28T15:48:16Z</time>
      </trkpt>
      <trkpt lat="47.00363" lon="-0.7744">
        <ele>106.36</ele>
        <time>2012-08-28T15:48:17Z</time>
      </trkpt>
      <trkpt lat="47.00358" lon="-0.77453">
        <ele>105.88</ele>
        <time>2012-08-28T15:48:19Z</time>
      </trkpt>
      <trkpt lat="47.00353" lon="-0.77467">
        <ele>105.88</ele>
        <time>2012-08-28T15:48:21Z</time>
      </trkpt>
      <trkpt lat="47.0035" lon="-0.77473">
        <ele>105.4</ele>
        <time>2012-08-28T15:48:22Z</time>
      </trkpt>
      <trkpt lat="47.00347" lon="-0.77479">
        <ele>105.88</ele>
        <time>2012-08-28T15:48:23Z</time>
      </trkpt>
      <trkpt lat="47.00344" lon="-0.77485">
        <ele>106.36</ele>
        <time>2012-08-28T15:48:24Z</time>
      </trkpt>
      <trkpt lat="47.00343" lon="-0.77492">
        <ele>106.36</ele>
        <time>2012-08-28T15:48:25Z</time>
      </trkpt>
      <trkpt lat="47.00342" lon="-0.77499">
        <ele>106.36</ele>
        <time>2012-08-28T15:48:26Z</time>
      </trkpt>
      <trkpt lat="47.00342" lon="-0.77507">
        <ele>106.36</ele>
        <time>2012-08-28T15:48:27Z</time>
      </trkpt>
      <trkpt lat="47.00341" lon="-0.77515">
        <ele>106.36</ele>
        <time>2012-08-28T15:48:28Z</time>
      </trkpt>
      <trkpt lat="47.0034" lon="-0.77522">
        <ele>105.4</ele>
        <time>2012-08-28T15:48:29Z</time>
      </trkpt>
      <trkpt lat="47.00338" lon="-0.77529">
        <ele>104.92</ele>
        <time>2012-08-28T15:48:30Z</time>
      </trkpt>
      <trkpt lat="47.00335" lon="-0.77535">
        <ele>104.92</ele>
        <time>2012-08-28T15:48:31Z</time>
      </trkpt>
      <trkpt lat="47.00332" lon="-0.77541">
        <ele>105.4</ele>
        <time>2012-08-28T15:48:32Z</time>
      </trkpt>
      <trkpt lat="47.00328" lon="-0.77546">
        <ele>105.4</ele>
        <time>2012-08-28T15:48:33Z</time>
      </trkpt>
      <trkpt lat="47.00324" lon="-0.77551">
        <ele>105.4</ele>
        <time>2012-08-28T15:48:34Z</time>
      </trkpt>
      <trkpt lat="47.00304" lon="-0.77582">
        <ele>104.92</ele>
        <time>2012-08-28T15:48:40Z</time>
      </trkpt>
      <trkpt lat="47.00301" lon="-0.77588">
        <ele>105.4</ele>
        <time>2012-08-28T15:48:41Z</time>
      </trkpt>
      <trkpt lat="47.00296" lon="-0.77601">
        <ele>104.92</ele>
        <time>2012-08-28T15:48:43Z</time>
      </trkpt>
      <trkpt lat="47.00255" lon="-0.77683">
        <ele>104.92</ele>
        <time>2012-08-28T15:48:57Z</time>
      </trkpt>
      <trkpt lat="47.00248" lon="-0.77702">
        <ele>104.92</ele>
        <time>2012-08-28T15:49:00Z</time>
      </trkpt>
      <trkpt lat="47.00248" lon="-0.77709">
        <ele>105.4</ele>
        <time>2012-08-28T15:49:01Z</time>
      </trkpt>
      <trkpt lat="47.00248" lon="-0.77716">
        <ele>105.88</ele>
        <time>2012-08-28T15:49:02Z</time>
      </trkpt>
      <trkpt lat="47.00249" lon="-0.77722">
        <ele>105.88</ele>
        <time>2012-08-28T15:49:03Z</time>
      </trkpt>
      <trkpt lat="47.00251" lon="-0.77729">
        <ele>106.36</ele>
        <time>2012-08-28T15:49:04Z</time>
      </trkpt>
      <trkpt lat="47.00261" lon="-0.77769">
        <ele>105.4</ele>
        <time>2012-08-28T15:49:10Z</time>
      </trkpt>
      <trkpt lat="47.00261" lon="-0.77776">
        <ele>105.4</ele>
        <time>2012-08-28T15:49:11Z</time>
      </trkpt>
      <trkpt lat="47.00262" lon="-0.77783">
        <ele>105.88</ele>
        <time>2012-08-28T15:49:12Z</time>
      </trkpt>
      <trkpt lat="47.00263" lon="-0.77811">
        <ele>105.88</ele>
        <time>2012-08-28T15:49:16Z</time>
      </trkpt>
      <trkpt lat="47.00262" lon="-0.77818">
        <ele>106.36</ele>
        <time>2012-08-28T15:49:17Z</time>
      </trkpt>
      <trkpt lat="47.00261" lon="-0.77824">
        <ele>105.88</ele>
        <time>2012-08-28T15:49:18Z</time>
      </trkpt>
      <trkpt lat="47.00259" lon="-0.77831">
        <ele>105.88</ele>
        <time>2012-08-28T15:49:19Z</time>
      </trkpt>
      <trkpt lat="47.00257" lon="-0.77837">
        <ele>105.88</ele>
        <time>2012-08-28T15:49:20Z</time>
      </trkpt>
      <trkpt lat="47.00254" lon="-0.77843">
        <ele>105.88</ele>
        <time>2012-08-28T15:49:21Z</time>
      </trkpt>
      <trkpt lat="47.00252" lon="-0.77849">
        <ele>105.88</ele>
        <time>2012-08-28T15:49:22Z</time>
      </trkpt>
      <trkpt lat="47.00248" lon="-0.77855">
        <ele>105.88</ele>
        <time>2012-08-28T15:49:23Z</time>
      </trkpt>
      <trkpt lat="47.00245" lon="-0.7786">
        <ele>105.88</ele>
        <time>2012-08-28T15:49:24Z</time>
      </trkpt>
      <trkpt lat="47.00242" lon="-0.77864">
        <ele>106.36</ele>
        <time>2012-08-28T15:49:25Z</time>
      </trkpt>
      <trkpt lat="47.00239" lon="-0.77868">
        <ele>106.36</ele>
        <time>2012-08-28T15:49:26Z</time>
      </trkpt>
      <trkpt lat="47.00235" lon="-0.77872">
        <ele>105.88</ele>
        <time>2012-08-28T15:49:27Z</time>
      </trkpt>
      <trkpt lat="47.00232" lon="-0.77874">
        <ele>105.88</ele>
        <time>2012-08-28T15:49:28Z</time>
      </trkpt>
      <trkpt lat="47.00229" lon="-0.77877">
        <ele>106.36</ele>
        <time>2012-08-28T15:49:29Z</time>
      </trkpt>
      <trkpt lat="47.00226" lon="-0.7788">
        <ele>105.88</ele>
        <time>2012-08-28T15:49:30Z</time>
      </trkpt>
      <trkpt lat="47.00223" lon="-0.77883">
        <ele>105.88</ele>
        <time>2012-08-28T15:49:31Z</time>
      </trkpt>
      <trkpt lat="47.00219" lon="-0.77885">
        <ele>105.88</ele>
        <time>2012-08-28T15:49:32Z</time>
      </trkpt>
      <trkpt lat="47.00215" lon="-0.77888">
        <ele>105.88</ele>
        <time>2012-08-28T15:49:33Z</time>
      </trkpt>
      <trkpt lat="47.00183" lon="-0.77916">
        <ele>106.84</ele>
        <time>2012-08-28T15:49:43Z</time>
      </trkpt>
      <trkpt lat="47.00179" lon="-0.77926">
        <ele>106.36</ele>
        <time>2012-08-28T15:49:45Z</time>
      </trkpt>
      <trkpt lat="47.00174" lon="-0.77938">
        <ele>106.84</ele>
        <time>2012-08-28T15:49:47Z</time>
      </trkpt>
      <trkpt lat="47.00141" lon="-0.78014">
        <ele>106.36</ele>
        <time>2012-08-28T15:50:01Z</time>
      </trkpt>
      <trkpt lat="47.00136" lon="-0.7803">
        <ele>106.84</ele>
        <time>2012-08-28T15:50:04Z</time>
      </trkpt>
      <trkpt lat="47.00135" lon="-0.78037">
        <ele>106.84</ele>
        <time>2012-08-28T15:50:05Z</time>
      </trkpt>
      <trkpt lat="47.00134" lon="-0.78043">
        <ele>106.84</ele>
        <time>2012-08-28T15:50:06Z</time>
      </trkpt>
      <trkpt lat="47.00134" lon="-0.7805">
        <ele>106.84</ele>
        <time>2012-08-28T15:50:07Z</time>
      </trkpt>
      <trkpt lat="47.00135" lon="-0.78056">
        <ele>106.36</ele>
        <time>2012-08-28T15:50:08Z</time>
      </trkpt>
      <trkpt lat="47.00135" lon="-0.78063">
        <ele>106.36</ele>
        <time>2012-08-28T15:50:09Z</time>
      </trkpt>
      <trkpt lat="47.00136" lon="-0.7807">
        <ele>106.36</ele>
        <time>2012-08-28T15:50:10Z</time>
      </trkpt>
      <trkpt lat="47.00136" lon="-0.78077">
        <ele>106.36</ele>
        <time>2012-08-28T15:50:11Z</time>
      </trkpt>
      <trkpt lat="47.00135" lon="-0.78084">
        <ele>105.88</ele>
        <time>2012-08-28T15:50:12Z</time>
      </trkpt>
      <trkpt lat="47.00133" lon="-0.78091">
        <ele>105.4</ele>
        <time>2012-08-28T15:50:13Z</time>
      </trkpt>
      <trkpt lat="47.0013" lon="-0.78105">
        <ele>105.4</ele>
        <time>2012-08-28T15:50:15Z</time>
      </trkpt>
      <trkpt lat="47.0013" lon="-0.78112">
        <ele>105.4</ele>
        <time>2012-08-28T15:50:16Z</time>
      </trkpt>
      <trkpt lat="47.00129" lon="-0.78127">
        <ele>105.4</ele>
        <time>2012-08-28T15:50:18Z</time>
      </trkpt>
      <trkpt lat="47.00128" lon="-0.78134">
        <ele>105.88</ele>
        <time>2012-08-28T15:50:19Z</time>
      </trkpt>
      <trkpt lat="47.00127" lon="-0.7814">
        <ele>105.88</ele>
        <time>2012-08-28T15:50:20Z</time>
      </trkpt>
      <trkpt lat="47.00126" lon="-0.78147">
        <ele>106.36</ele>
        <time>2012-08-28T15:50:21Z</time>
      </trkpt>
      <trkpt lat="47.00126" lon="-0.78153">
        <ele>106.84</ele>
        <time>2012-08-28T15:50:22Z</time>
      </trkpt>
      <trkpt lat="47.00125" lon="-0.78159">
        <ele>106.84</ele>
        <time>2012-08-28T15:50:23Z</time>
      </trkpt>
      <trkpt lat="47.00122" lon="-0.78184">
        <ele>107.32</ele>
        <time>2012-08-28T15:50:27Z</time>
      </trkpt>
      <trkpt lat="47.00122" lon="-0.78191">
        <ele>107.81</ele>
        <time>2012-08-28T15:50:28Z</time>
      </trkpt>
      <trkpt lat="47.00124" lon="-0.78253">
        <ele>109.25</ele>
        <time>2012-08-28T15:50:41Z</time>
      </trkpt>
      <trkpt lat="47.00126" lon="-0.78259">
        <ele>109.73</ele>
        <time>2012-08-28T15:50:42Z</time>
      </trkpt>
      <trkpt lat="47.00129" lon="-0.78266">
        <ele>108.77</ele>
        <time>2012-08-28T15:50:43Z</time>
      </trkpt>
      <trkpt lat="47.0013" lon="-0.78273">
        <ele>108.29</ele>
        <time>2012-08-28T15:50:44Z</time>
      </trkpt>
      <trkpt lat="47.00133" lon="-0.78281">
        <ele>107.81</ele>
        <time>2012-08-28T15:50:45Z</time>
      </trkpt>
      <trkpt lat="47.00135" lon="-0.78288">
        <ele>107.81</ele>
        <time>2012-08-28T15:50:46Z</time>
      </trkpt>
      <trkpt lat="47.00138" lon="-0.78295">
        <ele>107.81</ele>
        <time>2012-08-28T15:50:47Z</time>
      </trkpt>
      <trkpt lat="47.00141" lon="-0.78301">
        <ele>107.81</ele>
        <time>2012-08-28T15:50:48Z</time>
      </trkpt>
      <trkpt lat="47.00144" lon="-0.78307">
        <ele>108.29</ele>
        <time>2012-08-28T15:50:49Z</time>
      </trkpt>
      <trkpt lat="47.00154" lon="-0.78324">
        <ele>107.81</ele>
        <time>2012-08-28T15:50:52Z</time>
      </trkpt>
      <trkpt lat="47.00157" lon="-0.78329">
        <ele>108.29</ele>
        <time>2012-08-28T15:50:53Z</time>
      </trkpt>
      <trkpt lat="47.00168" lon="-0.78344">
        <ele>107.81</ele>
        <time>2012-08-28T15:50:56Z</time>
      </trkpt>
      <trkpt lat="47.0017" lon="-0.7835">
        <ele>107.81</ele>
        <time>2012-08-28T15:50:57Z</time>
      </trkpt>
      <trkpt lat="47.00172" lon="-0.78356">
        <ele>107.81</ele>
        <time>2012-08-28T15:50:58Z</time>
      </trkpt>
      <trkpt lat="47.00173" lon="-0.78363">
        <ele>107.81</ele>
        <time>2012-08-28T15:50:59Z</time>
      </trkpt>
      <trkpt lat="47.00173" lon="-0.78372">
        <ele>106.84</ele>
        <time>2012-08-28T15:51:00Z</time>
      </trkpt>
      <trkpt lat="47.00174" lon="-0.7838">
        <ele>106.84</ele>
        <time>2012-08-28T15:51:01Z</time>
      </trkpt>
      <trkpt lat="47.00177" lon="-0.78388">
        <ele>106.36</ele>
        <time>2012-08-28T15:51:02Z</time>
      </trkpt>
      <trkpt lat="47.00181" lon="-0.78395">
        <ele>106.36</ele>
        <time>2012-08-28T15:51:03Z</time>
      </trkpt>
      <trkpt lat="47.00185" lon="-0.78399">
        <ele>106.36</ele>
        <time>2012-08-28T15:51:04Z</time>
      </trkpt>
      <trkpt lat="47.0019" lon="-0.78402">
        <ele>106.84</ele>
        <time>2012-08-28T15:51:05Z</time>
      </trkpt>
      <trkpt lat="47.00194" lon="-0.78404">
        <ele>107.32</ele>
        <time>2012-08-28T15:51:06Z</time>
      </trkpt>
      <trkpt lat="47.00204" lon="-0.78409">
        <ele>107.32</ele>
        <time>2012-08-28T15:51:08Z</time>
      </trkpt>
      <trkpt lat="47.00208" lon="-0.78413">
        <ele>107.32</ele>
        <time>2012-08-28T15:51:09Z</time>
      </trkpt>
      <trkpt lat="47.00212" lon="-0.78419">
        <ele>106.36</ele>
        <time>2012-08-28T15:51:10Z</time>
      </trkpt>
      <trkpt lat="47.00216" lon="-0.78425">
        <ele>106.36</ele>
        <time>2012-08-28T15:51:11Z</time>
      </trkpt>
      <trkpt lat="47.00219" lon="-0.78433">
        <ele>105.4</ele>
        <time>2012-08-28T15:51:12Z</time>
      </trkpt>
      <trkpt lat="47.00269" lon="-0.78521">
        <ele>105.4</ele>
        <time>2012-08-28T15:51:26Z</time>
      </trkpt>
      <trkpt lat="47.00314" lon="-0.78603">
        <ele>105.4</ele>
        <time>2012-08-28T15:51:39Z</time>
      </trkpt>
      <trkpt lat="47.00321" lon="-0.78616">
        <ele>104.92</ele>
        <time>2012-08-28T15:51:41Z</time>
      </trkpt>
      <trkpt lat="47.00336" lon="-0.78639">
        <ele>104.92</ele>
        <time>2012-08-28T15:51:45Z</time>
      </trkpt>
      <trkpt lat="47.00346" lon="-0.78658">
        <ele>105.88</ele>
        <time>2012-08-28T15:51:48Z</time>
      </trkpt>
      <trkpt lat="47.00348" lon="-0.78666">
        <ele>105.4</ele>
        <time>2012-08-28T15:51:49Z</time>
      </trkpt>
      <trkpt lat="47.0035" lon="-0.78674">
        <ele>105.4</ele>
        <time>2012-08-28T15:51:50Z</time>
      </trkpt>
      <trkpt lat="47.00377" lon="-0.78777">
        <ele>105.88</ele>
        <time>2012-08-28T15:52:04Z</time>
      </trkpt>
      <trkpt lat="47.00387" lon="-0.7882">
        <ele>106.36</ele>
        <time>2012-08-28T15:52:10Z</time>
      </trkpt>
      <trkpt lat="47.00393" lon="-0.78862">
        <ele>106.36</ele>
        <time>2012-08-28T15:52:16Z</time>
      </trkpt>
      <trkpt lat="47.00393" lon="-0.78869">
        <ele>105.88</ele>
        <time>2012-08-28T15:52:17Z</time>
      </trkpt>
      <trkpt lat="47.00392" lon="-0.78875">
        <ele>106.36</ele>
        <time>2012-08-28T15:52:18Z</time>
      </trkpt>
      <trkpt lat="47.0039" lon="-0.78881">
        <ele>105.88</ele>
        <time>2012-08-28T15:52:19Z</time>
      </trkpt>
      <trkpt lat="47.00389" lon="-0.78886">
        <ele>105.88</ele>
        <time>2012-08-28T15:52:20Z</time>
      </trkpt>
      <trkpt lat="47.00387" lon="-0.78892">
        <ele>106.36</ele>
        <time>2012-08-28T15:52:21Z</time>
      </trkpt>
      <trkpt lat="47.00385" lon="-0.78898">
        <ele>105.88</ele>
        <time>2012-08-28T15:52:22Z</time>
      </trkpt>
      <trkpt lat="47.00379" lon="-0.7891">
        <ele>106.36</ele>
        <time>2012-08-28T15:52:24Z</time>
      </trkpt>
      <trkpt lat="47.00375" lon="-0.78915">
        <ele>106.36</ele>
        <time>2012-08-28T15:52:25Z</time>
      </trkpt>
      <trkpt lat="47.00364" lon="-0.78929">
        <ele>106.36</ele>
        <time>2012-08-28T15:52:28Z</time>
      </trkpt>
      <trkpt lat="47.00345" lon="-0.78941">
        <ele>105.88</ele>
        <time>2012-08-28T15:52:32Z</time>
      </trkpt>
      <trkpt lat="47.00328" lon="-0.78946">
        <ele>105.88</ele>
        <time>2012-08-28T15:52:36Z</time>
      </trkpt>
      <trkpt lat="47.00323" lon="-0.78946">
        <ele>106.84</ele>
        <time>2012-08-28T15:52:37Z</time>
      </trkpt>
      <trkpt lat="47.00319" lon="-0.78945">
        <ele>106.36</ele>
        <time>2012-08-28T15:52:38Z</time>
      </trkpt>
      <trkpt lat="47.00315" lon="-0.78944">
        <ele>106.36</ele>
        <time>2012-08-28T15:52:39Z</time>
      </trkpt>
      <trkpt lat="47.0031" lon="-0.78942">
        <ele>106.36</ele>
        <time>2012-08-28T15:52:40Z</time>
      </trkpt>
      <trkpt lat="47.00302" lon="-0.78939">
        <ele>106.84</ele>
        <time>2012-08-28T15:52:42Z</time>
      </trkpt>
      <trkpt lat="47.00248" lon="-0.78923">
        <ele>107.81</ele>
        <time>2012-08-28T15:52:55Z</time>
      </trkpt>
      <trkpt lat="47.00246" lon="-0.78927">
        <ele>107.32</ele>
        <time>2012-08-28T15:52:56Z</time>
      </trkpt>
      <trkpt lat="47.00248" lon="-0.78941">
        <ele>106.84</ele>
        <time>2012-08-28T15:52:59Z</time>
      </trkpt>
      <trkpt lat="47.0025" lon="-0.78947">
        <ele>106.84</ele>
        <time>2012-08-28T15:53:00Z</time>
      </trkpt>
      <trkpt lat="47.00281" lon="-0.79031">
        <ele>106.84</ele>
        <time>2012-08-28T15:53:14Z</time>
      </trkpt>
      <trkpt lat="47.00296" lon="-0.79069">
        <ele>107.81</ele>
        <time>2012-08-28T15:53:22Z</time>
      </trkpt>
      <trkpt lat="47.00299" lon="-0.79069">
        <ele>108.29</ele>
        <time>2012-08-28T15:53:23Z</time>
      </trkpt>
      <trkpt lat="47.00302" lon="-0.79066">
        <ele>107.32</ele>
        <time>2012-08-28T15:53:24Z</time>
      </trkpt>
      <trkpt lat="47.00307" lon="-0.79065">
        <ele>107.32</ele>
        <time>2012-08-28T15:53:25Z</time>
      </trkpt>
      <trkpt lat="47.00311" lon="-0.79064">
        <ele>107.32</ele>
        <time>2012-08-28T15:53:26Z</time>
      </trkpt>
      <trkpt lat="47.00319" lon="-0.79061">
        <ele>106.36</ele>
        <time>2012-08-28T15:53:28Z</time>
      </trkpt>
      <trkpt lat="47.00354" lon="-0.79025">
        <ele>106.84</ele>
        <time>2012-08-28T15:53:38Z</time>
      </trkpt>
      <trkpt lat="47.00363" lon="-0.7902">
        <ele>106.84</ele>
        <time>2012-08-28T15:53:40Z</time>
      </trkpt>
      <trkpt lat="47.00367" lon="-0.79017">
        <ele>106.84</ele>
        <time>2012-08-28T15:53:41Z</time>
      </trkpt>
      <trkpt lat="47.00411" lon="-0.78996">
        <ele>106.84</ele>
        <time>2012-08-28T15:53:50Z</time>
      </trkpt>
      <trkpt lat="47.00463" lon="-0.78954">
        <ele>106.84</ele>
        <time>2012-08-28T15:54:01Z</time>
      </trkpt>
      <trkpt lat="47.00467" lon="-0.78952">
        <ele>107.32</ele>
        <time>2012-08-28T15:54:02Z</time>
      </trkpt>
      <trkpt lat="47.00472" lon="-0.78951">
        <ele>107.32</ele>
        <time>2012-08-28T15:54:03Z</time>
      </trkpt>
      <trkpt lat="47.00476" lon="-0.78951">
        <ele>106.84</ele>
        <time>2012-08-28T15:54:04Z</time>
      </trkpt>
      <trkpt lat="47.00481" lon="-0.78951">
        <ele>107.32</ele>
        <time>2012-08-28T15:54:05Z</time>
      </trkpt>
      <trkpt lat="47.0049" lon="-0.78952">
        <ele>106.36</ele>
        <time>2012-08-28T15:54:07Z</time>
      </trkpt>
      <trkpt lat="47.00495" lon="-0.78953">
        <ele>106.36</ele>
        <time>2012-08-28T15:54:08Z</time>
      </trkpt>
      <trkpt lat="47.005" lon="-0.78954">
        <ele>106.36</ele>
        <time>2012-08-28T15:54:09Z</time>
      </trkpt>
      <trkpt lat="47.00504" lon="-0.78957">
        <ele>106.36</ele>
        <time>2012-08-28T15:54:10Z</time>
      </trkpt>
      <trkpt lat="47.00508" lon="-0.7896">
        <ele>106.36</ele>
        <time>2012-08-28T15:54:11Z</time>
      </trkpt>
      <trkpt lat="47.00516" lon="-0.78967">
        <ele>106.36</ele>
        <time>2012-08-28T15:54:13Z</time>
      </trkpt>
      <trkpt lat="47.00529" lon="-0.78984">
        <ele>106.36</ele>
        <time>2012-08-28T15:54:17Z</time>
      </trkpt>
      <trkpt lat="47.00541" lon="-0.79005">
        <ele>106.36</ele>
        <time>2012-08-28T15:54:21Z</time>
      </trkpt>
      <trkpt lat="47.00543" lon="-0.79011">
        <ele>106.36</ele>
        <time>2012-08-28T15:54:22Z</time>
      </trkpt>
      <trkpt lat="47.00544" lon="-0.79017">
        <ele>106.36</ele>
        <time>2012-08-28T15:54:23Z</time>
      </trkpt>
      <trkpt lat="47.00545" lon="-0.79023">
        <ele>106.84</ele>
        <time>2012-08-28T15:54:24Z</time>
      </trkpt>
      <trkpt lat="47.00546" lon="-0.79029">
        <ele>107.32</ele>
        <time>2012-08-28T15:54:25Z</time>
      </trkpt>
      <trkpt lat="47.00548" lon="-0.79035">
        <ele>106.84</ele>
        <time>2012-08-28T15:54:26Z</time>
      </trkpt>
      <trkpt lat="47.00551" lon="-0.7904">
        <ele>106.84</ele>
        <time>2012-08-28T15:54:27Z</time>
      </trkpt>
      <trkpt lat="47.00553" lon="-0.79047">
        <ele>106.36</ele>
        <time>2012-08-28T15:54:28Z</time>
      </trkpt>
      <trkpt lat="47.00562" lon="-0.79068">
        <ele>105.88</ele>
        <time>2012-08-28T15:54:31Z</time>
      </trkpt>
      <trkpt lat="47.00566" lon="-0.79074">
        <ele>105.88</ele>
        <time>2012-08-28T15:54:32Z</time>
      </trkpt>
      <trkpt lat="47.0057" lon="-0.7908">
        <ele>105.88</ele>
        <time>2012-08-28T15:54:33Z</time>
      </trkpt>
      <trkpt lat="47.00575" lon="-0.79084">
        <ele>105.88</ele>
        <time>2012-08-28T15:54:34Z</time>
      </trkpt>
      <trkpt lat="47.0058" lon="-0.79088">
        <ele>106.36</ele>
        <time>2012-08-28T15:54:35Z</time>
      </trkpt>
      <trkpt lat="47.00585" lon="-0.79089">
        <ele>106.36</ele>
        <time>2012-08-28T15:54:36Z</time>
      </trkpt>
      <trkpt lat="47.00591" lon="-0.79089">
        <ele>106.36</ele>
        <time>2012-08-28T15:54:37Z</time>
      </trkpt>
      <trkpt lat="47.00611" lon="-0.79093">
        <ele>106.36</ele>
        <time>2012-08-28T15:54:41Z</time>
      </trkpt>
      <trkpt lat="47.00617" lon="-0.79095">
        <ele>106.36</ele>
        <time>2012-08-28T15:54:42Z</time>
      </trkpt>
      <trkpt lat="47.00642" lon="-0.79106">
        <ele>106.36</ele>
        <time>2012-08-28T15:54:47Z</time>
      </trkpt>
      <trkpt lat="47.00665" lon="-0.7911">
        <ele>105.88</ele>
        <time>2012-08-28T15:54:51Z</time>
      </trkpt>
      <trkpt lat="47.00669" lon="-0.79114">
        <ele>105.88</ele>
        <time>2012-08-28T15:54:52Z</time>
      </trkpt>
      <trkpt lat="47.00672" lon="-0.79119">
        <ele>105.4</ele>
        <time>2012-08-28T15:54:53Z</time>
      </trkpt>
      <trkpt lat="47.00675" lon="-0.79125">
        <ele>105.88</ele>
        <time>2012-08-28T15:54:54Z</time>
      </trkpt>
      <trkpt lat="47.00676" lon="-0.79131">
        <ele>105.4</ele>
        <time>2012-08-28T15:54:55Z</time>
      </trkpt>
      <trkpt lat="47.00676" lon="-0.79138">
        <ele>105.4</ele>
        <time>2012-08-28T15:54:56Z</time>
      </trkpt>
      <trkpt lat="47.00675" lon="-0.79145">
        <ele>105.4</ele>
        <time>2012-08-28T15:54:57Z</time>
      </trkpt>
      <trkpt lat="47.00673" lon="-0.79196">
        <ele>105.88</ele>
        <time>2012-08-28T15:55:04Z</time>
      </trkpt>
      <trkpt lat="47.00675" lon="-0.79209">
        <ele>105.4</ele>
        <time>2012-08-28T15:55:06Z</time>
      </trkpt>
      <trkpt lat="47.00677" lon="-0.79216">
        <ele>105.4</ele>
        <time>2012-08-28T15:55:07Z</time>
      </trkpt>
      <trkpt lat="47.00695" lon="-0.79256">
        <ele>106.36</ele>
        <time>2012-08-28T15:55:14Z</time>
      </trkpt>
      <trkpt lat="47.00697" lon="-0.79263">
        <ele>105.88</ele>
        <time>2012-08-28T15:55:15Z</time>
      </trkpt>
      <trkpt lat="47.007" lon="-0.79269">
        <ele>105.88</ele>
        <time>2012-08-28T15:55:16Z</time>
      </trkpt>
      <trkpt lat="47.00701" lon="-0.79276">
        <ele>105.88</ele>
        <time>2012-08-28T15:55:17Z</time>
      </trkpt>
      <trkpt lat="47.00701" lon="-0.79283">
        <ele>105.88</ele>
        <time>2012-08-28T15:55:18Z</time>
      </trkpt>
      <trkpt lat="47.00699" lon="-0.79289">
        <ele>105.4</ele>
        <time>2012-08-28T15:55:19Z</time>
      </trkpt>
      <trkpt lat="47.00697" lon="-0.79296">
        <ele>105.88</ele>
        <time>2012-08-28T15:55:20Z</time>
      </trkpt>
      <trkpt lat="47.00695" lon="-0.79302">
        <ele>105.88</ele>
        <time>2012-08-28T15:55:21Z</time>
      </trkpt>
      <trkpt lat="47.00692" lon="-0.79308">
        <ele>106.36</ele>
        <time>2012-08-28T15:55:22Z</time>
      </trkpt>
      <trkpt lat="47.00676" lon="-0.79335">
        <ele>106.36</ele>
        <time>2012-08-28T15:55:27Z</time>
      </trkpt>
      <trkpt lat="47.00655" lon="-0.79374">
        <ele>105.88</ele>
        <time>2012-08-28T15:55:34Z</time>
      </trkpt>
      <trkpt lat="47.00649" lon="-0.79386">
        <ele>105.88</ele>
        <time>2012-08-28T15:55:36Z</time>
      </trkpt>
      <trkpt lat="47.00646" lon="-0.7939">
        <ele>105.88</ele>
        <time>2012-08-28T15:55:37Z</time>
      </trkpt>
      <trkpt lat="47.00641" lon="-0.79394">
        <ele>106.36</ele>
        <time>2012-08-28T15:55:38Z</time>
      </trkpt>
      <trkpt lat="47.00637" lon="-0.79396">
        <ele>105.88</ele>
        <time>2012-08-28T15:55:39Z</time>
      </trkpt>
      <trkpt lat="47.00632" lon="-0.79399">
        <ele>105.88</ele>
        <time>2012-08-28T15:55:40Z</time>
      </trkpt>
      <trkpt lat="47.00627" lon="-0.79402">
        <ele>105.88</ele>
        <time>2012-08-28T15:55:41Z</time>
      </trkpt>
      <trkpt lat="47.00623" lon="-0.79405">
        <ele>105.88</ele>
        <time>2012-08-28T15:55:42Z</time>
      </trkpt>
      <trkpt lat="47.00598" lon="-0.79429">
        <ele>105.4</ele>
        <time>2012-08-28T15:55:48Z</time>
      </trkpt>
      <trkpt lat="47.00596" lon="-0.79434">
        <ele>105.88</ele>
        <time>2012-08-28T15:55:49Z</time>
      </trkpt>
      <trkpt lat="47.00595" lon="-0.79441">
        <ele>105.4</ele>
        <time>2012-08-28T15:55:50Z</time>
      </trkpt>
      <trkpt lat="47.00596" lon="-0.79449">
        <ele>104.44</ele>
        <time>2012-08-28T15:55:51Z</time>
      </trkpt>
      <trkpt lat="47.006" lon="-0.79462">
        <ele>104.92</ele>
        <time>2012-08-28T15:55:53Z</time>
      </trkpt>
      <trkpt lat="47.00603" lon="-0.79467">
        <ele>104.92</ele>
        <time>2012-08-28T15:55:54Z</time>
      </trkpt>
      <trkpt lat="47.00607" lon="-0.79471">
        <ele>105.4</ele>
        <time>2012-08-28T15:55:55Z</time>
      </trkpt>
      <trkpt lat="47.0061" lon="-0.79473">
        <ele>106.36</ele>
        <time>2012-08-28T15:55:56Z</time>
      </trkpt>
      <trkpt lat="47.00613" lon="-0.79475">
        <ele>106.36</ele>
        <time>2012-08-28T15:55:57Z</time>
      </trkpt>
      <trkpt lat="47.00616" lon="-0.79475">
        <ele>106.84</ele>
        <time>2012-08-28T15:55:58Z</time>
      </trkpt>
      <trkpt lat="47.00619" lon="-0.79475">
        <ele>106.84</ele>
        <time>2012-08-28T15:55:59Z</time>
      </trkpt>
      <trkpt lat="47.00677" lon="-0.7948">
        <ele>105.88</ele>
        <time>2012-08-28T15:56:11Z</time>
      </trkpt>
      <trkpt lat="47.00682" lon="-0.79483">
        <ele>106.36</ele>
        <time>2012-08-28T15:56:12Z</time>
      </trkpt>
      <trkpt lat="47.00687" lon="-0.79485">
        <ele>106.36</ele>
        <time>2012-08-28T15:56:13Z</time>
      </trkpt>
      <trkpt lat="47.00691" lon="-0.7949">
        <ele>106.36</ele>
        <time>2012-08-28T15:56:14Z</time>
      </trkpt>
      <trkpt lat="47.00694" lon="-0.79495">
        <ele>106.36</ele>
        <time>2012-08-28T15:56:15Z</time>
      </trkpt>
      <trkpt lat="47.00697" lon="-0.79501">
        <ele>105.88</ele>
        <time>2012-08-28T15:56:16Z</time>
      </trkpt>
      <trkpt lat="47.00698" lon="-0.79508">
        <ele>106.36</ele>
        <time>2012-08-28T15:56:17Z</time>
      </trkpt>
      <trkpt lat="47.00699" lon="-0.79515">
        <ele>105.88</ele>
        <time>2012-08-28T15:56:18Z</time>
      </trkpt>
      <trkpt lat="47.007" lon="-0.79522">
        <ele>105.88</ele>
        <time>2012-08-28T15:56:19Z</time>
      </trkpt>
      <trkpt lat="47.00704" lon="-0.79566">
        <ele>105.88</ele>
        <time>2012-08-28T15:56:25Z</time>
      </trkpt>
      <trkpt lat="47.00704" lon="-0.79573">
        <ele>105.88</ele>
        <time>2012-08-28T15:56:26Z</time>
      </trkpt>
      <trkpt lat="47.00702" lon="-0.79581">
        <ele>106.36</ele>
        <time>2012-08-28T15:56:27Z</time>
      </trkpt>
      <trkpt lat="47.00699" lon="-0.79587">
        <ele>105.4</ele>
        <time>2012-08-28T15:56:28Z</time>
      </trkpt>
      <trkpt lat="47.00696" lon="-0.79592">
        <ele>105.4</ele>
        <time>2012-08-28T15:56:29Z</time>
      </trkpt>
      <trkpt lat="47.00691" lon="-0.79596">
        <ele>105.4</ele>
        <time>2012-08-28T15:56:30Z</time>
      </trkpt>
      <trkpt lat="47.00672" lon="-0.79625">
        <ele>105.88</ele>
        <time>2012-08-28T15:56:35Z</time>
      </trkpt>
      <trkpt lat="47.00671" lon="-0.79632">
        <ele>105.88</ele>
        <time>2012-08-28T15:56:36Z</time>
      </trkpt>
      <trkpt lat="47.00671" lon="-0.79639">
        <ele>105.88</ele>
        <time>2012-08-28T15:56:37Z</time>
      </trkpt>
      <trkpt lat="47.00671" lon="-0.79646">
        <ele>106.36</ele>
        <time>2012-08-28T15:56:38Z</time>
      </trkpt>
      <trkpt lat="47.00673" lon="-0.79653">
        <ele>105.88</ele>
        <time>2012-08-28T15:56:39Z</time>
      </trkpt>
      <trkpt lat="47.00677" lon="-0.79657">
        <ele>106.36</ele>
        <time>2012-08-28T15:56:40Z</time>
      </trkpt>
      <trkpt lat="47.00681" lon="-0.79661">
        <ele>105.88</ele>
        <time>2012-08-28T15:56:41Z</time>
      </trkpt>
      <trkpt lat="47.00685" lon="-0.79664">
        <ele>106.36</ele>
        <time>2012-08-28T15:56:42Z</time>
      </trkpt>
      <trkpt lat="47.00689" lon="-0.79667">
        <ele>106.36</ele>
        <time>2012-08-28T15:56:43Z</time>
      </trkpt>
      <trkpt lat="47.00698" lon="-0.79674">
        <ele>106.84</ele>
        <time>2012-08-28T15:56:45Z</time>
      </trkpt>
      <trkpt lat="47.00702" lon="-0.79678">
        <ele>106.84</ele>
        <time>2012-08-28T15:56:46Z</time>
      </trkpt>
      <trkpt lat="47.00705" lon="-0.79683">
        <ele>105.88</ele>
        <time>2012-08-28T15:56:47Z</time>
      </trkpt>
      <trkpt lat="47.00708" lon="-0.79689">
        <ele>105.88</ele>
        <time>2012-08-28T15:56:48Z</time>
      </trkpt>
      <trkpt lat="47.00711" lon="-0.79696">
        <ele>105.88</ele>
        <time>2012-08-28T15:56:49Z</time>
      </trkpt>
      <trkpt lat="47.00713" lon="-0.79703">
        <ele>105.88</ele>
        <time>2012-08-28T15:56:50Z</time>
      </trkpt>
      <trkpt lat="47.00715" lon="-0.79709">
        <ele>105.88</ele>
        <time>2012-08-28T15:56:51Z</time>
      </trkpt>
      <trkpt lat="47.00719" lon="-0.79738">
        <ele>105.88</ele>
        <time>2012-08-28T15:56:55Z</time>
      </trkpt>
      <trkpt lat="47.00718" lon="-0.79746">
        <ele>105.88</ele>
        <time>2012-08-28T15:56:56Z</time>
      </trkpt>
      <trkpt lat="47.00718" lon="-0.79753">
        <ele>105.88</ele>
        <time>2012-08-28T15:56:57Z</time>
      </trkpt>
      <trkpt lat="47.00716" lon="-0.79768">
        <ele>105.88</ele>
        <time>2012-08-28T15:56:59Z</time>
      </trkpt>
      <trkpt lat="47.00716" lon="-0.79776">
        <ele>105.4</ele>
        <time>2012-08-28T15:57:00Z</time>
      </trkpt>
      <trkpt lat="47.00716" lon="-0.79783">
        <ele>106.36</ele>
        <time>2012-08-28T15:57:01Z</time>
      </trkpt>
      <trkpt lat="47.00717" lon="-0.7979">
        <ele>105.88</ele>
        <time>2012-08-28T15:57:02Z</time>
      </trkpt>
      <trkpt lat="47.0072" lon="-0.79797">
        <ele>105.88</ele>
        <time>2012-08-28T15:57:03Z</time>
      </trkpt>
      <trkpt lat="47.00723" lon="-0.79803">
        <ele>106.36</ele>
        <time>2012-08-28T15:57:04Z</time>
      </trkpt>
      <trkpt lat="47.00727" lon="-0.79808">
        <ele>106.36</ele>
        <time>2012-08-28T15:57:05Z</time>
      </trkpt>
      <trkpt lat="47.00735" lon="-0.79819">
        <ele>106.84</ele>
        <time>2012-08-28T15:57:07Z</time>
      </trkpt>
      <trkpt lat="47.00749" lon="-0.79841">
        <ele>107.81</ele>
        <time>2012-08-28T15:57:11Z</time>
      </trkpt>
      <trkpt lat="47.00752" lon="-0.79847">
        <ele>108.29</ele>
        <time>2012-08-28T15:57:12Z</time>
      </trkpt>
      <trkpt lat="47.00754" lon="-0.79854">
        <ele>108.77</ele>
        <time>2012-08-28T15:57:13Z</time>
      </trkpt>
      <trkpt lat="47.00755" lon="-0.7986">
        <ele>108.77</ele>
        <time>2012-08-28T15:57:14Z</time>
      </trkpt>
      <trkpt lat="47.00757" lon="-0.79867">
        <ele>108.77</ele>
        <time>2012-08-28T15:57:15Z</time>
      </trkpt>
      <trkpt lat="47.00758" lon="-0.79872">
        <ele>109.25</ele>
        <time>2012-08-28T15:57:16Z</time>
      </trkpt>
      <trkpt lat="47.0076" lon="-0.79878">
        <ele>109.25</ele>
        <time>2012-08-28T15:57:17Z</time>
      </trkpt>
      <trkpt lat="47.00781" lon="-0.79929">
        <ele>108.77</ele>
        <time>2012-08-28T15:57:28Z</time>
      </trkpt>
      <trkpt lat="47.00784" lon="-0.79933">
        <ele>108.29</ele>
        <time>2012-08-28T15:57:29Z</time>
      </trkpt>
      <trkpt lat="47.00787" lon="-0.79938">
        <ele>107.81</ele>
        <time>2012-08-28T15:57:30Z</time>
      </trkpt>
      <trkpt lat="47.00796" lon="-0.79957">
        <ele>106.84</ele>
        <time>2012-08-28T15:57:33Z</time>
      </trkpt>
      <trkpt lat="47.00798" lon="-0.79965">
        <ele>106.36</ele>
        <time>2012-08-28T15:57:34Z</time>
      </trkpt>
      <trkpt lat="47.00798" lon="-0.79973">
        <ele>105.88</ele>
        <time>2012-08-28T15:57:35Z</time>
      </trkpt>
      <trkpt lat="47.00798" lon="-0.79982">
        <ele>105.88</ele>
        <time>2012-08-28T15:57:36Z</time>
      </trkpt>
      <trkpt lat="47.00797" lon="-0.7999">
        <ele>106.36</ele>
        <time>2012-08-28T15:57:37Z</time>
      </trkpt>
      <trkpt lat="47.00796" lon="-0.79998">
        <ele>106.36</ele>
        <time>2012-08-28T15:57:38Z</time>
      </trkpt>
      <trkpt lat="47.00794" lon="-0.80005">
        <ele>105.88</ele>
        <time>2012-08-28T15:57:39Z</time>
      </trkpt>
      <trkpt lat="47.00792" lon="-0.80012">
        <ele>105.88</ele>
        <time>2012-08-28T15:57:40Z</time>
      </trkpt>
      <trkpt lat="47.00789" lon="-0.80018">
        <ele>105.88</ele>
        <time>2012-08-28T15:57:41Z</time>
      </trkpt>
      <trkpt lat="47.00786" lon="-0.80024">
        <ele>105.4</ele>
        <time>2012-08-28T15:57:42Z</time>
      </trkpt>
      <trkpt lat="47.00783" lon="-0.80028">
        <ele>105.4</ele>
        <time>2012-08-28T15:57:43Z</time>
      </trkpt>
      <trkpt lat="47.00779" lon="-0.80032">
        <ele>105.88</ele>
        <time>2012-08-28T15:57:44Z</time>
      </trkpt>
      <trkpt lat="47.00774" lon="-0.80035">
        <ele>105.88</ele>
        <time>2012-08-28T15:57:45Z</time>
      </trkpt>
      <trkpt lat="47.00754" lon="-0.80051">
        <ele>105.88</ele>
        <time>2012-08-28T15:57:50Z</time>
      </trkpt>
      <trkpt lat="47.00749" lon="-0.80054">
        <ele>105.88</ele>
        <time>2012-08-28T15:57:51Z</time>
      </trkpt>
      <trkpt lat="47.00745" lon="-0.80055">
        <ele>105.88</ele>
        <time>2012-08-28T15:57:52Z</time>
      </trkpt>
      <trkpt lat="47.00706" lon="-0.80083">
        <ele>105.4</ele>
        <time>2012-08-28T15:58:01Z</time>
      </trkpt>
      <trkpt lat="47.00664" lon="-0.80124">
        <ele>105.88</ele>
        <time>2012-08-28T15:58:12Z</time>
      </trkpt>
      <trkpt lat="47.0066" lon="-0.80129">
        <ele>105.4</ele>
        <time>2012-08-28T15:58:13Z</time>
      </trkpt>
      <trkpt lat="47.00657" lon="-0.80134">
        <ele>105.88</ele>
        <time>2012-08-28T15:58:14Z</time>
      </trkpt>
      <trkpt lat="47.00654" lon="-0.80139">
        <ele>105.4</ele>
        <time>2012-08-28T15:58:15Z</time>
      </trkpt>
      <trkpt lat="47.00651" lon="-0.80144">
        <ele>106.36</ele>
        <time>2012-08-28T15:58:16Z</time>
      </trkpt>
      <trkpt lat="47.00648" lon="-0.80149">
        <ele>106.36</ele>
        <time>2012-08-28T15:58:17Z</time>
      </trkpt>
      <trkpt lat="47.00637" lon="-0.80171">
        <ele>104.92</ele>
        <time>2012-08-28T15:58:21Z</time>
      </trkpt>
      <trkpt lat="47.00627" lon="-0.80197">
        <ele>105.4</ele>
        <time>2012-08-28T15:58:25Z</time>
      </trkpt>
      <trkpt lat="47.00626" lon="-0.80203">
        <ele>105.88</ele>
        <time>2012-08-28T15:58:26Z</time>
      </trkpt>
      <trkpt lat="47.00624" lon="-0.8021">
        <ele>105.88</ele>
        <time>2012-08-28T15:58:27Z</time>
      </trkpt>
      <trkpt lat="47.00622" lon="-0.80216">
        <ele>105.4</ele>
        <time>2012-08-28T15:58:28Z</time>
      </trkpt>
      <trkpt lat="47.0062" lon="-0.80222">
        <ele>105.4</ele>
        <time>2012-08-28T15:58:29Z</time>
      </trkpt>
      <trkpt lat="47.0061" lon="-0.80246">
        <ele>105.88</ele>
        <time>2012-08-28T15:58:33Z</time>
      </trkpt>
      <trkpt lat="47.00607" lon="-0.80252">
        <ele>105.88</ele>
        <time>2012-08-28T15:58:34Z</time>
      </trkpt>
      <trkpt lat="47.00562" lon="-0.80299">
        <ele>105.4</ele>
        <time>2012-08-28T15:58:45Z</time>
      </trkpt>
      <trkpt lat="47.00559" lon="-0.80304">
        <ele>105.4</ele>
        <time>2012-08-28T15:58:46Z</time>
      </trkpt>
      <trkpt lat="47.00557" lon="-0.80311">
        <ele>104.92</ele>
        <time>2012-08-28T15:58:47Z</time>
      </trkpt>
      <trkpt lat="47.00556" lon="-0.80318">
        <ele>105.4</ele>
        <time>2012-08-28T15:58:48Z</time>
      </trkpt>
      <trkpt lat="47.00555" lon="-0.80325">
        <ele>105.4</ele>
        <time>2012-08-28T15:58:49Z</time>
      </trkpt>
      <trkpt lat="47.0055" lon="-0.80352">
        <ele>104.92</ele>
        <time>2012-08-28T15:58:53Z</time>
      </trkpt>
      <trkpt lat="47.00547" lon="-0.80358">
        <ele>104.92</ele>
        <time>2012-08-28T15:58:54Z</time>
      </trkpt>
      <trkpt lat="47.00484" lon="-0.80425">
        <ele>105.88</ele>
        <time>2012-08-28T15:59:10Z</time>
      </trkpt>
      <trkpt lat="47.00431" lon="-0.80461">
        <ele>105.4</ele>
        <time>2012-08-28T15:59:22Z</time>
      </trkpt>
      <trkpt lat="47.00426" lon="-0.80462">
        <ele>105.4</ele>
        <time>2012-08-28T15:59:23Z</time>
      </trkpt>
      <trkpt lat="47.00378" lon="-0.80464">
        <ele>105.88</ele>
        <time>2012-08-28T15:59:33Z</time>
      </trkpt>
      <trkpt lat="47.00374" lon="-0.80463">
        <ele>105.4</ele>
        <time>2012-08-28T15:59:34Z</time>
      </trkpt>
      <trkpt lat="47.0037" lon="-0.80461">
        <ele>106.84</ele>
        <time>2012-08-28T15:59:35Z</time>
      </trkpt>
      <trkpt lat="47.00325" lon="-0.8046">
        <ele>108.77</ele>
        <time>2012-08-28T15:59:49Z</time>
      </trkpt>
      <trkpt lat="47.00323" lon="-0.80463">
        <ele>108.77</ele>
        <time>2012-08-28T15:59:50Z</time>
      </trkpt>
      <trkpt lat="47.00302" lon="-0.80513">
        <ele>106.84</ele>
        <time>2012-08-28T16:00:01Z</time>
      </trkpt>
      <trkpt lat="47.00283" lon="-0.8059">
        <ele>106.84</ele>
        <time>2012-08-28T16:00:13Z</time>
      </trkpt>
      <trkpt lat="47.00283" lon="-0.80596">
        <ele>106.36</ele>
        <time>2012-08-28T16:00:14Z</time>
      </trkpt>
      <trkpt lat="47.00282" lon="-0.80603">
        <ele>105.88</ele>
        <time>2012-08-28T16:00:15Z</time>
      </trkpt>
      <trkpt lat="47.00276" lon="-0.80695">
        <ele>106.84</ele>
        <time>2012-08-28T16:00:30Z</time>
      </trkpt>
      <trkpt lat="47.00286" lon="-0.80711">
        <ele>106.36</ele>
        <time>2012-08-28T16:00:34Z</time>
      </trkpt>
      <trkpt lat="47.00294" lon="-0.80716">
        <ele>106.36</ele>
        <time>2012-08-28T16:00:36Z</time>
      </trkpt>
      <trkpt lat="47.00299" lon="-0.80718">
        <ele>105.88</ele>
        <time>2012-08-28T16:00:37Z</time>
      </trkpt>
      <trkpt lat="47.00303" lon="-0.80718">
        <ele>105.4</ele>
        <time>2012-08-28T16:00:38Z</time>
      </trkpt>
      <trkpt lat="47.00308" lon="-0.80717">
        <ele>105.88</ele>
        <time>2012-08-28T16:00:39Z</time>
      </trkpt>
      <trkpt lat="47.00313" lon="-0.80716">
        <ele>106.36</ele>
        <time>2012-08-28T16:00:40Z</time>
      </trkpt>
      <trkpt lat="47.00342" lon="-0.8071">
        <ele>105.88</ele>
        <time>2012-08-28T16:00:46Z</time>
      </trkpt>
      <trkpt lat="47.00381" lon="-0.80691">
        <ele>105.88</ele>
        <time>2012-08-28T16:00:54Z</time>
      </trkpt>
      <trkpt lat="47.00386" lon="-0.8069">
        <ele>105.88</ele>
        <time>2012-08-28T16:00:55Z</time>
      </trkpt>
      <trkpt lat="47.00402" lon="-0.80689">
        <ele>106.36</ele>
        <time>2012-08-28T16:00:58Z</time>
      </trkpt>
      <trkpt lat="47.00407" lon="-0.80687">
        <ele>106.36</ele>
        <time>2012-08-28T16:00:59Z</time>
      </trkpt>
      <trkpt lat="47.00411" lon="-0.80685">
        <ele>105.88</ele>
        <time>2012-08-28T16:01:00Z</time>
      </trkpt>
      <trkpt lat="47.00416" lon="-0.80681">
        <ele>106.36</ele>
        <time>2012-08-28T16:01:01Z</time>
      </trkpt>
      <trkpt lat="47.0042" lon="-0.80676">
        <ele>105.88</ele>
        <time>2012-08-28T16:01:02Z</time>
      </trkpt>
      <trkpt lat="47.00424" lon="-0.80671">
        <ele>105.88</ele>
        <time>2012-08-28T16:01:03Z</time>
      </trkpt>
      <trkpt lat="47.00428" lon="-0.80666">
        <ele>106.36</ele>
        <time>2012-08-28T16:01:04Z</time>
      </trkpt>
      <trkpt lat="47.00432" lon="-0.80662">
        <ele>106.36</ele>
        <time>2012-08-28T16:01:05Z</time>
      </trkpt>
      <trkpt lat="47.00436" lon="-0.80659">
        <ele>105.4</ele>
        <time>2012-08-28T16:01:06Z</time>
      </trkpt>
      <trkpt lat="47.00441" lon="-0.80657">
        <ele>106.36</ele>
        <time>2012-08-28T16:01:07Z</time>
      </trkpt>
      <trkpt lat="47.00445" lon="-0.80657">
        <ele>105.88</ele>
        <time>2012-08-28T16:01:08Z</time>
      </trkpt>
      <trkpt lat="47.0045" lon="-0.80657">
        <ele>105.88</ele>
        <time>2012-08-28T16:01:09Z</time>
      </trkpt>
      <trkpt lat="47.00455" lon="-0.80659">
        <ele>105.88</ele>
        <time>2012-08-28T16:01:10Z</time>
      </trkpt>
      <trkpt lat="47.00459" lon="-0.80661">
        <ele>106.36</ele>
        <time>2012-08-28T16:01:11Z</time>
      </trkpt>
      <trkpt lat="47.00463" lon="-0.80664">
        <ele>105.88</ele>
        <time>2012-08-28T16:01:12Z</time>
      </trkpt>
      <trkpt lat="47.00468" lon="-0.80668">
        <ele>105.4</ele>
        <time>2012-08-28T16:01:13Z</time>
      </trkpt>
      <trkpt lat="47.00471" lon="-0.80672">
        <ele>105.88</ele>
        <time>2012-08-28T16:01:14Z</time>
      </trkpt>
      <trkpt lat="47.00475" lon="-0.80678">
        <ele>105.4</ele>
        <time>2012-08-28T16:01:15Z</time>
      </trkpt>
      <trkpt lat="47.00478" lon="-0.80684">
        <ele>105.4</ele>
        <time>2012-08-28T16:01:16Z</time>
      </trkpt>
      <trkpt lat="47.00481" lon="-0.8069">
        <ele>105.4</ele>
        <time>2012-08-28T16:01:17Z</time>
      </trkpt>
      <trkpt lat="47.00483" lon="-0.80697">
        <ele>105.4</ele>
        <time>2012-08-28T16:01:18Z</time>
      </trkpt>
      <trkpt lat="47.00485" lon="-0.80703">
        <ele>105.4</ele>
        <time>2012-08-28T16:01:19Z</time>
      </trkpt>
      <trkpt lat="47.00486" lon="-0.8071">
        <ele>105.4</ele>
        <time>2012-08-28T16:01:20Z</time>
      </trkpt>
      <trkpt lat="47.00487" lon="-0.80718">
        <ele>105.4</ele>
        <time>2012-08-28T16:01:21Z</time>
      </trkpt>
      <trkpt lat="47.00488" lon="-0.80725">
        <ele>105.4</ele>
        <time>2012-08-28T16:01:22Z</time>
      </trkpt>
      <trkpt lat="47.00489" lon="-0.8076">
        <ele>105.4</ele>
        <time>2012-08-28T16:01:27Z</time>
      </trkpt>
      <trkpt lat="47.00491" lon="-0.80774">
        <ele>105.4</ele>
        <time>2012-08-28T16:01:29Z</time>
      </trkpt>
      <trkpt lat="47.00493" lon="-0.80781">
        <ele>105.4</ele>
        <time>2012-08-28T16:01:30Z</time>
      </trkpt>
      <trkpt lat="47.00495" lon="-0.80787">
        <ele>105.4</ele>
        <time>2012-08-28T16:01:31Z</time>
      </trkpt>
      <trkpt lat="47.00498" lon="-0.80792">
        <ele>104.92</ele>
        <time>2012-08-28T16:01:32Z</time>
      </trkpt>
      <trkpt lat="47.00502" lon="-0.80796">
        <ele>104.92</ele>
        <time>2012-08-28T16:01:33Z</time>
      </trkpt>
      <trkpt lat="47.00507" lon="-0.80798">
        <ele>104.44</ele>
        <time>2012-08-28T16:01:34Z</time>
      </trkpt>
      <trkpt lat="47.00511" lon="-0.80799">
        <ele>104.92</ele>
        <time>2012-08-28T16:01:35Z</time>
      </trkpt>
      <trkpt lat="47.00515" lon="-0.80796">
        <ele>104.92</ele>
        <time>2012-08-28T16:01:36Z</time>
      </trkpt>
      <trkpt lat="47.00519" lon="-0.80793">
        <ele>105.4</ele>
        <time>2012-08-28T16:01:37Z</time>
      </trkpt>
      <trkpt lat="47.00521" lon="-0.80789">
        <ele>105.88</ele>
        <time>2012-08-28T16:01:38Z</time>
      </trkpt>
      <trkpt lat="47.00524" lon="-0.80783">
        <ele>105.4</ele>
        <time>2012-08-28T16:01:39Z</time>
      </trkpt>
      <trkpt lat="47.00525" lon="-0.80777">
        <ele>105.4</ele>
        <time>2012-08-28T16:01:40Z</time>
      </trkpt>
      <trkpt lat="47.00527" lon="-0.8077">
        <ele>105.4</ele>
        <time>2012-08-28T16:01:41Z</time>
      </trkpt>
      <trkpt lat="47.00543" lon="-0.80701">
        <ele>104.92</ele>
        <time>2012-08-28T16:01:50Z</time>
      </trkpt>
      <trkpt lat="47.00557" lon="-0.80566">
        <ele>105.4</ele>
        <time>2012-08-28T16:02:06Z</time>
      </trkpt>
      <trkpt lat="47.00562" lon="-0.80509">
        <ele>105.88</ele>
        <time>2012-08-28T16:02:13Z</time>
      </trkpt>
      <trkpt lat="47.00564" lon="-0.80501">
        <ele>105.88</ele>
        <time>2012-08-28T16:02:14Z</time>
      </trkpt>
      <trkpt lat="47.00567" lon="-0.80495">
        <ele>105.88</ele>
        <time>2012-08-28T16:02:15Z</time>
      </trkpt>
      <trkpt lat="47.00571" lon="-0.80489">
        <ele>105.88</ele>
        <time>2012-08-28T16:02:16Z</time>
      </trkpt>
      <trkpt lat="47.00576" lon="-0.80484">
        <ele>105.88</ele>
        <time>2012-08-28T16:02:17Z</time>
      </trkpt>
      <trkpt lat="47.00581" lon="-0.80479">
        <ele>105.4</ele>
        <time>2012-08-28T16:02:18Z</time>
      </trkpt>
      <trkpt lat="47.00646" lon="-0.80395">
        <ele>105.4</ele>
        <time>2012-08-28T16:02:33Z</time>
      </trkpt>
      <trkpt lat="47.00694" lon="-0.80333">
        <ele>105.4</ele>
        <time>2012-08-28T16:02:44Z</time>
      </trkpt>
      <trkpt lat="47.00718" lon="-0.80309">
        <ele>105.4</ele>
        <time>2012-08-28T16:02:49Z</time>
      </trkpt>
      <trkpt lat="47.00723" lon="-0.80305">
        <ele>105.4</ele>
        <time>2012-08-28T16:02:50Z</time>
      </trkpt>
      <trkpt lat="47.00729" lon="-0.80302">
        <ele>105.4</ele>
        <time>2012-08-28T16:02:51Z</time>
      </trkpt>
      <trkpt lat="47.00734" lon="-0.803">
        <ele>105.4</ele>
        <time>2012-08-28T16:02:52Z</time>
      </trkpt>
      <trkpt lat="47.00739" lon="-0.80299">
        <ele>105.88</ele>
        <time>2012-08-28T16:02:53Z</time>
      </trkpt>
      <trkpt lat="47.00745" lon="-0.80298">
        <ele>105.4</ele>
        <time>2012-08-28T16:02:54Z</time>
      </trkpt>
      <trkpt lat="47.00779" lon="-0.80286">
        <ele>105.4</ele>
        <time>2012-08-28T16:03:01Z</time>
      </trkpt>
      <trkpt lat="47.00783" lon="-0.80286">
        <ele>104.92</ele>
        <time>2012-08-28T16:03:02Z</time>
      </trkpt>
      <trkpt lat="47.00787" lon="-0.80289">
        <ele>105.4</ele>
        <time>2012-08-28T16:03:03Z</time>
      </trkpt>
      <trkpt lat="47.00791" lon="-0.80293">
        <ele>105.4</ele>
        <time>2012-08-28T16:03:04Z</time>
      </trkpt>
      <trkpt lat="47.00794" lon="-0.80298">
        <ele>104.92</ele>
        <time>2012-08-28T16:03:05Z</time>
      </trkpt>
      <trkpt lat="47.00796" lon="-0.80303">
        <ele>105.4</ele>
        <time>2012-08-28T16:03:06Z</time>
      </trkpt>
      <trkpt lat="47.00797" lon="-0.80309">
        <ele>105.4</ele>
        <time>2012-08-28T16:03:07Z</time>
      </trkpt>
      <trkpt lat="47.00797" lon="-0.80314">
        <ele>105.4</ele>
        <time>2012-08-28T16:03:08Z</time>
      </trkpt>
      <trkpt lat="47.00797" lon="-0.80318">
        <ele>105.88</ele>
        <time>2012-08-28T16:03:09Z</time>
      </trkpt>
      <trkpt lat="47.00797" lon="-0.80322">
        <ele>105.88</ele>
        <time>2012-08-28T16:03:10Z</time>
      </trkpt>
      <trkpt lat="47.00796" lon="-0.80326">
        <ele>105.88</ele>
        <time>2012-08-28T16:03:17Z</time>
      </trkpt>
      <trkpt lat="47.00795" lon="-0.80328">
        <ele>105.88</ele>
        <time>2012-08-28T16:03:44Z</time>
      </trkpt>
      <trkpt lat="47.00796" lon="-0.80328">
        <ele>105.88</ele>
        <time>2012-08-28T16:04:14Z</time>
      </trkpt>
      <trkpt lat="47.00796" lon="-0.80327">
        <ele>106.36</ele>
        <time>2012-08-28T16:04:36Z</time>
      </trkpt>
      <trkpt lat="47.00796" lon="-0.80326">
        <ele>106.36</ele>
        <time>2012-08-28T16:04:37Z</time>
      </trkpt>
      <trkpt lat="47.00796" lon="-0.80325">
        <ele>106.36</ele>
        <time>2012-08-28T16:04:39Z</time>
      </trkpt>
      <trkpt lat="47.00796" lon="-0.80325">
        <ele>106.36</ele>
        <time>2012-08-28T16:04:46Z</time>
      </trkpt>
      <trkpt lat="47.00799" lon="-0.80323">
        <ele>105.88</ele>
        <time>2012-08-28T16:04:48Z</time>
      </trkpt>
      <trkpt lat="47.00801" lon="-0.80323">
        <ele>106.36</ele>
        <time>2012-08-28T16:04:49Z</time>
      </trkpt>
      <trkpt lat="47.00803" lon="-0.80326">
        <ele>106.36</ele>
        <time>2012-08-28T16:04:51Z</time>
      </trkpt>
      <trkpt lat="47.00804" lon="-0.80337">
        <ele>106.36</ele>
        <time>2012-08-28T16:04:55Z</time>
      </trkpt>
      <trkpt lat="47.00806" lon="-0.8039">
        <ele>107.32</ele>
        <time>2012-08-28T16:05:07Z</time>
      </trkpt>
      <trkpt lat="47.0081" lon="-0.80403">
        <ele>107.32</ele>
        <time>2012-08-28T16:05:10Z</time>
      </trkpt>
      <trkpt lat="47.00842" lon="-0.80451">
        <ele>106.36</ele>
        <time>2012-08-28T16:05:22Z</time>
      </trkpt>
      <trkpt lat="47.00863" lon="-0.80473">
        <ele>105.88</ele>
        <time>2012-08-28T16:05:27Z</time>
      </trkpt>
      <trkpt lat="47.00867" lon="-0.80479">
        <ele>104.92</ele>
        <time>2012-08-28T16:05:28Z</time>
      </trkpt>
      <trkpt lat="47.0087" lon="-0.80486">
        <ele>104.92</ele>
        <time>2012-08-28T16:05:29Z</time>
      </trkpt>
      <trkpt lat="47.00873" lon="-0.80493">
        <ele>105.4</ele>
        <time>2012-08-28T16:05:30Z</time>
      </trkpt>
      <trkpt lat="47.00875" lon="-0.805">
        <ele>105.4</ele>
        <time>2012-08-28T16:05:31Z</time>
      </trkpt>
      <trkpt lat="47.00877" lon="-0.80509">
        <ele>104.92</ele>
        <time>2012-08-28T16:05:32Z</time>
      </trkpt>
      <trkpt lat="47.00878" lon="-0.80517">
        <ele>104.92</ele>
        <time>2012-08-28T16:05:33Z</time>
      </trkpt>
      <trkpt lat="47.00879" lon="-0.8054">
        <ele>104.92</ele>
        <time>2012-08-28T16:05:36Z</time>
      </trkpt>
      <trkpt lat="47.00878" lon="-0.80548">
        <ele>104.92</ele>
        <time>2012-08-28T16:05:37Z</time>
      </trkpt>
      <trkpt lat="47.00875" lon="-0.80563">
        <ele>104.92</ele>
        <time>2012-08-28T16:05:39Z</time>
      </trkpt>
      <trkpt lat="47.00859" lon="-0.80638">
        <ele>105.88</ele>
        <time>2012-08-28T16:05:50Z</time>
      </trkpt>
      <trkpt lat="47.0086" lon="-0.80645">
        <ele>105.88</ele>
        <time>2012-08-28T16:05:51Z</time>
      </trkpt>
      <trkpt lat="47.00857" lon="-0.80688">
        <ele>104.92</ele>
        <time>2012-08-28T16:05:57Z</time>
      </trkpt>
      <trkpt lat="47.00852" lon="-0.80708">
        <ele>105.4</ele>
        <time>2012-08-28T16:06:00Z</time>
      </trkpt>
      <trkpt lat="47.0085" lon="-0.80714">
        <ele>104.92</ele>
        <time>2012-08-28T16:06:01Z</time>
      </trkpt>
      <trkpt lat="47.00848" lon="-0.80721">
        <ele>105.4</ele>
        <time>2012-08-28T16:06:02Z</time>
      </trkpt>
      <trkpt lat="47.00846" lon="-0.80727">
        <ele>105.4</ele>
        <time>2012-08-28T16:06:03Z</time>
      </trkpt>
      <trkpt lat="47.00844" lon="-0.80734">
        <ele>105.4</ele>
        <time>2012-08-28T16:06:04Z</time>
      </trkpt>
      <trkpt lat="47.00841" lon="-0.8074">
        <ele>105.4</ele>
        <time>2012-08-28T16:06:05Z</time>
      </trkpt>
      <trkpt lat="47.00832" lon="-0.80765">
        <ele>105.4</ele>
        <time>2012-08-28T16:06:09Z</time>
      </trkpt>
      <trkpt lat="47.00831" lon="-0.80773">
        <ele>105.4</ele>
        <time>2012-08-28T16:06:10Z</time>
      </trkpt>
      <trkpt lat="47.0083" lon="-0.8078">
        <ele>105.88</ele>
        <time>2012-08-28T16:06:11Z</time>
      </trkpt>
      <trkpt lat="47.00831" lon="-0.80787">
        <ele>105.4</ele>
        <time>2012-08-28T16:06:12Z</time>
      </trkpt>
      <trkpt lat="47.00833" lon="-0.80795">
        <ele>105.4</ele>
        <time>2012-08-28T16:06:13Z</time>
      </trkpt>
      <trkpt lat="47.0084" lon="-0.80823">
        <ele>105.88</ele>
        <time>2012-08-28T16:06:17Z</time>
      </trkpt>
      <trkpt lat="47.00841" lon="-0.80831">
        <ele>105.4</ele>
        <time>2012-08-28T16:06:18Z</time>
      </trkpt>
      <trkpt lat="47.00842" lon="-0.80839">
        <ele>105.4</ele>
        <time>2012-08-28T16:06:19Z</time>
      </trkpt>
      <trkpt lat="47.00844" lon="-0.80928">
        <ele>104.92</ele>
        <time>2012-08-28T16:06:31Z</time>
      </trkpt>
      <trkpt lat="47.00842" lon="-0.80934">
        <ele>105.4</ele>
        <time>2012-08-28T16:06:32Z</time>
      </trkpt>
      <trkpt lat="47.00838" lon="-0.8094">
        <ele>104.92</ele>
        <time>2012-08-28T16:06:33Z</time>
      </trkpt>
      <trkpt lat="47.00832" lon="-0.8095">
        <ele>104.92</ele>
        <time>2012-08-28T16:06:35Z</time>
      </trkpt>
      <trkpt lat="47.00829" lon="-0.80956">
        <ele>105.4</ele>
        <time>2012-08-28T16:06:36Z</time>
      </trkpt>
      <trkpt lat="47.00827" lon="-0.80963">
        <ele>105.4</ele>
        <time>2012-08-28T16:06:37Z</time>
      </trkpt>
      <trkpt lat="47.00826" lon="-0.8097">
        <ele>105.4</ele>
        <time>2012-08-28T16:06:38Z</time>
      </trkpt>
      <trkpt lat="47.00826" lon="-0.80977">
        <ele>105.88</ele>
        <time>2012-08-28T16:06:39Z</time>
      </trkpt>
      <trkpt lat="47.00828" lon="-0.80985">
        <ele>105.4</ele>
        <time>2012-08-28T16:06:40Z</time>
      </trkpt>
      <trkpt lat="47.0083" lon="-0.80993">
        <ele>105.4</ele>
        <time>2012-08-28T16:06:41Z</time>
      </trkpt>
      <trkpt lat="47.00833" lon="-0.81">
        <ele>105.4</ele>
        <time>2012-08-28T16:06:42Z</time>
      </trkpt>
      <trkpt lat="47.00836" lon="-0.81006">
        <ele>104.92</ele>
        <time>2012-08-28T16:06:43Z</time>
      </trkpt>
      <trkpt lat="47.00843" lon="-0.81017">
        <ele>105.4</ele>
        <time>2012-08-28T16:06:45Z</time>
      </trkpt>
      <trkpt lat="47.0085" lon="-0.81026">
        <ele>104.44</ele>
        <time>2012-08-28T16:06:47Z</time>
      </trkpt>
      <trkpt lat="47.00851" lon="-0.81032">
        <ele>104.92</ele>
        <time>2012-08-28T16:06:48Z</time>
      </trkpt>
      <trkpt lat="47.00851" lon="-0.81039">
        <ele>104.92</ele>
        <time>2012-08-28T16:06:49Z</time>
      </trkpt>
      <trkpt lat="47.0085" lon="-0.81047">
        <ele>104.92</ele>
        <time>2012-08-28T16:06:50Z</time>
      </trkpt>
      <trkpt lat="47.00848" lon="-0.81055">
        <ele>104.92</ele>
        <time>2012-08-28T16:06:51Z</time>
      </trkpt>
      <trkpt lat="47.00846" lon="-0.8107">
        <ele>104.92</ele>
        <time>2012-08-28T16:06:53Z</time>
      </trkpt>
      <trkpt lat="47.00846" lon="-0.81078">
        <ele>105.4</ele>
        <time>2012-08-28T16:06:54Z</time>
      </trkpt>
      <trkpt lat="47.00847" lon="-0.81093">
        <ele>105.88</ele>
        <time>2012-08-28T16:06:56Z</time>
      </trkpt>
      <trkpt lat="47.00849" lon="-0.81099">
        <ele>105.4</ele>
        <time>2012-08-28T16:06:57Z</time>
      </trkpt>
      <trkpt lat="47.00852" lon="-0.81106">
        <ele>105.4</ele>
        <time>2012-08-28T16:06:58Z</time>
      </trkpt>
      <trkpt lat="47.00854" lon="-0.81112">
        <ele>105.88</ele>
        <time>2012-08-28T16:06:59Z</time>
      </trkpt>
      <trkpt lat="47.00857" lon="-0.81119">
        <ele>105.88</ele>
        <time>2012-08-28T16:07:00Z</time>
      </trkpt>
      <trkpt lat="47.00859" lon="-0.81126">
        <ele>105.88</ele>
        <time>2012-08-28T16:07:01Z</time>
      </trkpt>
      <trkpt lat="47.00862" lon="-0.8114">
        <ele>105.88</ele>
        <time>2012-08-28T16:07:03Z</time>
      </trkpt>
      <trkpt lat="47.00862" lon="-0.81148">
        <ele>105.88</ele>
        <time>2012-08-28T16:07:04Z</time>
      </trkpt>
      <trkpt lat="47.00863" lon="-0.81156">
        <ele>105.4</ele>
        <time>2012-08-28T16:07:05Z</time>
      </trkpt>
      <trkpt lat="47.00863" lon="-0.81202">
        <ele>106.36</ele>
        <time>2012-08-28T16:07:11Z</time>
      </trkpt>
      <trkpt lat="47.00864" lon="-0.81242">
        <ele>105.88</ele>
        <time>2012-08-28T16:07:17Z</time>
      </trkpt>
      <trkpt lat="47.00869" lon="-0.81264">
        <ele>105.4</ele>
        <time>2012-08-28T16:07:20Z</time>
      </trkpt>
      <trkpt lat="47.00879" lon="-0.81292">
        <ele>105.4</ele>
        <time>2012-08-28T16:07:24Z</time>
      </trkpt>
      <trkpt lat="47.00881" lon="-0.81299">
        <ele>105.4</ele>
        <time>2012-08-28T16:07:25Z</time>
      </trkpt>
      <trkpt lat="47.00882" lon="-0.81306">
        <ele>105.88</ele>
        <time>2012-08-28T16:07:26Z</time>
      </trkpt>
      <trkpt lat="47.00881" lon="-0.81313">
        <ele>106.36</ele>
        <time>2012-08-28T16:07:27Z</time>
      </trkpt>
      <trkpt lat="47.0088" lon="-0.8132">
        <ele>106.84</ele>
        <time>2012-08-28T16:07:28Z</time>
      </trkpt>
      <trkpt lat="47.00877" lon="-0.81325">
        <ele>106.84</ele>
        <time>2012-08-28T16:07:29Z</time>
      </trkpt>
      <trkpt lat="47.00874" lon="-0.8133">
        <ele>106.84</ele>
        <time>2012-08-28T16:07:30Z</time>
      </trkpt>
      <trkpt lat="47.00867" lon="-0.81345">
        <ele>106.36</ele>
        <time>2012-08-28T16:07:33Z</time>
      </trkpt>
      <trkpt lat="47.00867" lon="-0.81352">
        <ele>106.84</ele>
        <time>2012-08-28T16:07:34Z</time>
      </trkpt>
      <trkpt lat="47.00868" lon="-0.81358">
        <ele>106.36</ele>
        <time>2012-08-28T16:07:35Z</time>
      </trkpt>
      <trkpt lat="47.00871" lon="-0.81364">
        <ele>105.88</ele>
        <time>2012-08-28T16:07:36Z</time>
      </trkpt>
      <trkpt lat="47.00874" lon="-0.8137">
        <ele>106.36</ele>
        <time>2012-08-28T16:07:37Z</time>
      </trkpt>
      <trkpt lat="47.00907" lon="-0.81422">
        <ele>105.4</ele>
        <time>2012-08-28T16:07:46Z</time>
      </trkpt>
      <trkpt lat="47.0091" lon="-0.81429">
        <ele>105.88</ele>
        <time>2012-08-28T16:07:47Z</time>
      </trkpt>
      <trkpt lat="47.00912" lon="-0.81435">
        <ele>105.4</ele>
        <time>2012-08-28T16:07:48Z</time>
      </trkpt>
      <trkpt lat="47.00916" lon="-0.81449">
        <ele>104.92</ele>
        <time>2012-08-28T16:07:50Z</time>
      </trkpt>
      <trkpt lat="47.00918" lon="-0.81456">
        <ele>105.4</ele>
        <time>2012-08-28T16:07:51Z</time>
      </trkpt>
      <trkpt lat="47.00924" lon="-0.81469">
        <ele>104.92</ele>
        <time>2012-08-28T16:07:53Z</time>
      </trkpt>
      <trkpt lat="47.00927" lon="-0.81475">
        <ele>105.4</ele>
        <time>2012-08-28T16:07:54Z</time>
      </trkpt>
      <trkpt lat="47.00941" lon="-0.81496">
        <ele>104.92</ele>
        <time>2012-08-28T16:07:58Z</time>
      </trkpt>
      <trkpt lat="47.00952" lon="-0.81518">
        <ele>105.88</ele>
        <time>2012-08-28T16:08:02Z</time>
      </trkpt>
      <trkpt lat="47.00954" lon="-0.81525">
        <ele>105.4</ele>
        <time>2012-08-28T16:08:03Z</time>
      </trkpt>
      <trkpt lat="47.00956" lon="-0.81532">
        <ele>104.92</ele>
        <time>2012-08-28T16:08:04Z</time>
      </trkpt>
      <trkpt lat="47.00957" lon="-0.81539">
        <ele>105.4</ele>
        <time>2012-08-28T16:08:05Z</time>
      </trkpt>
      <trkpt lat="47.00957" lon="-0.81546">
        <ele>104.92</ele>
        <time>2012-08-28T16:08:06Z</time>
      </trkpt>
      <trkpt lat="47.00958" lon="-0.81553">
        <ele>104.44</ele>
        <time>2012-08-28T16:08:07Z</time>
      </trkpt>
      <trkpt lat="47.00958" lon="-0.8156">
        <ele>105.4</ele>
        <time>2012-08-28T16:08:08Z</time>
      </trkpt>
      <trkpt lat="47.00957" lon="-0.81567">
        <ele>105.4</ele>
        <time>2012-08-28T16:08:09Z</time>
      </trkpt>
      <trkpt lat="47.00957" lon="-0.81574">
        <ele>104.92</ele>
        <time>2012-08-28T16:08:10Z</time>
      </trkpt>
      <trkpt lat="47.00955" lon="-0.81664">
        <ele>105.4</ele>
        <time>2012-08-28T16:08:23Z</time>
      </trkpt>
      <trkpt lat="47.00954" lon="-0.8167">
        <ele>105.88</ele>
        <time>2012-08-28T16:08:24Z</time>
      </trkpt>
      <trkpt lat="47.00952" lon="-0.81676">
        <ele>105.88</ele>
        <time>2012-08-28T16:08:25Z</time>
      </trkpt>
      <trkpt lat="47.00945" lon="-0.81695">
        <ele>105.4</ele>
        <time>2012-08-28T16:08:28Z</time>
      </trkpt>
      <trkpt lat="47.00942" lon="-0.817">
        <ele>105.88</ele>
        <time>2012-08-28T16:08:29Z</time>
      </trkpt>
      <trkpt lat="47.00931" lon="-0.81714">
        <ele>105.88</ele>
        <time>2012-08-28T16:08:32Z</time>
      </trkpt>
      <trkpt lat="47.00925" lon="-0.81721">
        <ele>105.88</ele>
        <time>2012-08-28T16:08:34Z</time>
      </trkpt>
      <trkpt lat="47.00923" lon="-0.81726">
        <ele>105.88</ele>
        <time>2012-08-28T16:08:35Z</time>
      </trkpt>
      <trkpt lat="47.00923" lon="-0.81733">
        <ele>105.4</ele>
        <time>2012-08-28T16:08:36Z</time>
      </trkpt>
      <trkpt lat="47.00924" lon="-0.81739">
        <ele>105.4</ele>
        <time>2012-08-28T16:08:37Z</time>
      </trkpt>
      <trkpt lat="47.00925" lon="-0.81746">
        <ele>105.88</ele>
        <time>2012-08-28T16:08:38Z</time>
      </trkpt>
      <trkpt lat="47.00927" lon="-0.8176">
        <ele>105.88</ele>
        <time>2012-08-28T16:08:40Z</time>
      </trkpt>
      <trkpt lat="47.00929" lon="-0.81766">
        <ele>105.88</ele>
        <time>2012-08-28T16:08:41Z</time>
      </trkpt>
      <trkpt lat="47.00931" lon="-0.81772">
        <ele>105.88</ele>
        <time>2012-08-28T16:08:42Z</time>
      </trkpt>
      <trkpt lat="47.00934" lon="-0.81778">
        <ele>105.4</ele>
        <time>2012-08-28T16:08:43Z</time>
      </trkpt>
      <trkpt lat="47.00937" lon="-0.81782">
        <ele>105.88</ele>
        <time>2012-08-28T16:08:44Z</time>
      </trkpt>
      <trkpt lat="47.0094" lon="-0.81787">
        <ele>105.88</ele>
        <time>2012-08-28T16:08:45Z</time>
      </trkpt>
      <trkpt lat="47.00966" lon="-0.81825">
        <ele>105.88</ele>
        <time>2012-08-28T16:08:54Z</time>
      </trkpt>
      <trkpt lat="47.00968" lon="-0.81831">
        <ele>105.4</ele>
        <time>2012-08-28T16:08:55Z</time>
      </trkpt>
      <trkpt lat="47.00968" lon="-0.81838">
        <ele>105.88</ele>
        <time>2012-08-28T16:08:56Z</time>
      </trkpt>
      <trkpt lat="47.00968" lon="-0.81844">
        <ele>105.88</ele>
        <time>2012-08-28T16:08:57Z</time>
      </trkpt>
      <trkpt lat="47.00967" lon="-0.81851">
        <ele>105.88</ele>
        <time>2012-08-28T16:08:58Z</time>
      </trkpt>
      <trkpt lat="47.00965" lon="-0.81857">
        <ele>105.88</ele>
        <time>2012-08-28T16:08:59Z</time>
      </trkpt>
      <trkpt lat="47.00963" lon="-0.81863">
        <ele>105.4</ele>
        <time>2012-08-28T16:09:00Z</time>
      </trkpt>
      <trkpt lat="47.00959" lon="-0.81868">
        <ele>105.88</ele>
        <time>2012-08-28T16:09:01Z</time>
      </trkpt>
      <trkpt lat="47.00956" lon="-0.81873">
        <ele>105.4</ele>
        <time>2012-08-28T16:09:02Z</time>
      </trkpt>
      <trkpt lat="47.00952" lon="-0.81878">
        <ele>105.4</ele>
        <time>2012-08-28T16:09:03Z</time>
      </trkpt>
      <trkpt lat="47.00948" lon="-0.81883">
        <ele>105.4</ele>
        <time>2012-08-28T16:09:04Z</time>
      </trkpt>
      <trkpt lat="47.00944" lon="-0.81887">
        <ele>105.4</ele>
        <time>2012-08-28T16:09:05Z</time>
      </trkpt>
      <trkpt lat="47.0093" lon="-0.81905">
        <ele>105.4</ele>
        <time>2012-08-28T16:09:09Z</time>
      </trkpt>
      <trkpt lat="47.00869" lon="-0.81976">
        <ele>105.4</ele>
        <time>2012-08-28T16:09:25Z</time>
      </trkpt>
      <trkpt lat="47.00824" lon="-0.82032">
        <ele>104.92</ele>
        <time>2012-08-28T16:09:37Z</time>
      </trkpt>
      <trkpt lat="47.0082" lon="-0.82037">
        <ele>104.92</ele>
        <time>2012-08-28T16:09:38Z</time>
      </trkpt>
      <trkpt lat="47.00818" lon="-0.82043">
        <ele>104.92</ele>
        <time>2012-08-28T16:09:39Z</time>
      </trkpt>
      <trkpt lat="47.008" lon="-0.82096">
        <ele>105.88</ele>
        <time>2012-08-28T16:09:48Z</time>
      </trkpt>
      <trkpt lat="47.0079" lon="-0.82125">
        <ele>105.4</ele>
        <time>2012-08-28T16:09:53Z</time>
      </trkpt>
      <trkpt lat="47.00787" lon="-0.82129">
        <ele>105.4</ele>
        <time>2012-08-28T16:09:54Z</time>
      </trkpt>
      <trkpt lat="47.00729" lon="-0.82187">
        <ele>105.4</ele>
        <time>2012-08-28T16:10:09Z</time>
      </trkpt>
      <trkpt lat="47.00726" lon="-0.82192">
        <ele>105.88</ele>
        <time>2012-08-28T16:10:10Z</time>
      </trkpt>
      <trkpt lat="47.00696" lon="-0.82239">
        <ele>106.36</ele>
        <time>2012-08-28T16:10:19Z</time>
      </trkpt>
      <trkpt lat="47.00686" lon="-0.82252">
        <ele>106.36</ele>
        <time>2012-08-28T16:10:22Z</time>
      </trkpt>
      <trkpt lat="47.00636" lon="-0.82299">
        <ele>105.88</ele>
        <time>2012-08-28T16:10:35Z</time>
      </trkpt>
      <trkpt lat="47.00632" lon="-0.823">
        <ele>105.88</ele>
        <time>2012-08-28T16:10:36Z</time>
      </trkpt>
      <trkpt lat="47.00624" lon="-0.82305">
        <ele>105.88</ele>
        <time>2012-08-28T16:10:38Z</time>
      </trkpt>
      <trkpt lat="47.00621" lon="-0.82309">
        <ele>105.88</ele>
        <time>2012-08-28T16:10:39Z</time>
      </trkpt>
      <trkpt lat="47.00618" lon="-0.82314">
        <ele>105.88</ele>
        <time>2012-08-28T16:10:40Z</time>
      </trkpt>
      <trkpt lat="47.00616" lon="-0.8232">
        <ele>105.88</ele>
        <time>2012-08-28T16:10:41Z</time>
      </trkpt>
      <trkpt lat="47.00616" lon="-0.82326">
        <ele>105.88</ele>
        <time>2012-08-28T16:10:42Z</time>
      </trkpt>
      <trkpt lat="47.00619" lon="-0.82333">
        <ele>105.4</ele>
        <time>2012-08-28T16:10:43Z</time>
      </trkpt>
      <trkpt lat="47.00622" lon="-0.82336">
        <ele>105.88</ele>
        <time>2012-08-28T16:10:44Z</time>
      </trkpt>
      <trkpt lat="47.00626" lon="-0.82335">
        <ele>105.88</ele>
        <time>2012-08-28T16:10:45Z</time>
      </trkpt>
      <trkpt lat="47.0063" lon="-0.82332">
        <ele>105.88</ele>
        <time>2012-08-28T16:10:46Z</time>
      </trkpt>
      <trkpt lat="47.00635" lon="-0.8233">
        <ele>105.88</ele>
        <time>2012-08-28T16:10:47Z</time>
      </trkpt>
      <trkpt lat="47.00639" lon="-0.82329">
        <ele>105.88</ele>
        <time>2012-08-28T16:10:48Z</time>
      </trkpt>
      <trkpt lat="47.00644" lon="-0.82329">
        <ele>105.88</ele>
        <time>2012-08-28T16:10:49Z</time>
      </trkpt>
      <trkpt lat="47.00649" lon="-0.8233">
        <ele>105.88</ele>
        <time>2012-08-28T16:10:50Z</time>
      </trkpt>
      <trkpt lat="47.00654" lon="-0.82331">
        <ele>105.88</ele>
        <time>2012-08-28T16:10:51Z</time>
      </trkpt>
      <trkpt lat="47.00658" lon="-0.82331">
        <ele>106.36</ele>
        <time>2012-08-28T16:10:52Z</time>
      </trkpt>
      <trkpt lat="47.00663" lon="-0.8233">
        <ele>105.88</ele>
        <time>2012-08-28T16:10:53Z</time>
      </trkpt>
      <trkpt lat="47.00668" lon="-0.82328">
        <ele>105.88</ele>
        <time>2012-08-28T16:10:54Z</time>
      </trkpt>
      <trkpt lat="47.00673" lon="-0.82325">
        <ele>105.88</ele>
        <time>2012-08-28T16:10:55Z</time>
      </trkpt>
      <trkpt lat="47.00704" lon="-0.82313">
        <ele>105.88</ele>
        <time>2012-08-28T16:11:01Z</time>
      </trkpt>
      <trkpt lat="47.00714" lon="-0.82312">
        <ele>105.88</ele>
        <time>2012-08-28T16:11:03Z</time>
      </trkpt>
      <trkpt lat="47.00719" lon="-0.82313">
        <ele>106.36</ele>
        <time>2012-08-28T16:11:04Z</time>
      </trkpt>
      <trkpt lat="47.00723" lon="-0.82316">
        <ele>106.36</ele>
        <time>2012-08-28T16:11:05Z</time>
      </trkpt>
      <trkpt lat="47.00728" lon="-0.8232">
        <ele>106.36</ele>
        <time>2012-08-28T16:11:06Z</time>
      </trkpt>
      <trkpt lat="47.00732" lon="-0.82324">
        <ele>106.36</ele>
        <time>2012-08-28T16:11:07Z</time>
      </trkpt>
      <trkpt lat="47.00735" lon="-0.82328">
        <ele>106.36</ele>
        <time>2012-08-28T16:11:08Z</time>
      </trkpt>
      <trkpt lat="47.00739" lon="-0.82333">
        <ele>106.36</ele>
        <time>2012-08-28T16:11:09Z</time>
      </trkpt>
      <trkpt lat="47.0079" lon="-0.82429">
        <ele>105.4</ele>
        <time>2012-08-28T16:11:26Z</time>
      </trkpt>
      <trkpt lat="47.00793" lon="-0.82441">
        <ele>105.88</ele>
        <time>2012-08-28T16:11:28Z</time>
      </trkpt>
      <trkpt lat="47.00795" lon="-0.82448">
        <ele>105.4</ele>
        <time>2012-08-28T16:11:29Z</time>
      </trkpt>
      <trkpt lat="47.00795" lon="-0.82454">
        <ele>105.4</ele>
        <time>2012-08-28T16:11:30Z</time>
      </trkpt>
      <trkpt lat="47.00795" lon="-0.82461">
        <ele>105.88</ele>
        <time>2012-08-28T16:11:31Z</time>
      </trkpt>
      <trkpt lat="47.00795" lon="-0.82468">
        <ele>105.4</ele>
        <time>2012-08-28T16:11:32Z</time>
      </trkpt>
      <trkpt lat="47.00794" lon="-0.82475">
        <ele>105.4</ele>
        <time>2012-08-28T16:11:33Z</time>
      </trkpt>
      <trkpt lat="47.00792" lon="-0.82482">
        <ele>105.4</ele>
        <time>2012-08-28T16:11:34Z</time>
      </trkpt>
      <trkpt lat="47.00787" lon="-0.82516">
        <ele>105.88</ele>
        <time>2012-08-28T16:11:39Z</time>
      </trkpt>
      <trkpt lat="47.00788" lon="-0.82523">
        <ele>105.4</ele>
        <time>2012-08-28T16:11:40Z</time>
      </trkpt>
      <trkpt lat="47.00788" lon="-0.8253">
        <ele>105.4</ele>
        <time>2012-08-28T16:11:41Z</time>
      </trkpt>
      <trkpt lat="47.00786" lon="-0.82568">
        <ele>106.36</ele>
        <time>2012-08-28T16:11:48Z</time>
      </trkpt>
      <trkpt lat="47.00785" lon="-0.8257">
        <ele>106.36</ele>
        <time>2012-08-28T16:11:49Z</time>
      </trkpt>
      <trkpt lat="47.00783" lon="-0.8257">
        <ele>106.84</ele>
        <time>2012-08-28T16:11:50Z</time>
      </trkpt>
      <trkpt lat="47.00781" lon="-0.8257">
        <ele>106.36</ele>
        <time>2012-08-28T16:11:51Z</time>
      </trkpt>
      <trkpt lat="47.00779" lon="-0.82572">
        <ele>106.36</ele>
        <time>2012-08-28T16:11:52Z</time>
      </trkpt>
      <trkpt lat="47.00778" lon="-0.82575">
        <ele>106.84</ele>
        <time>2012-08-28T16:11:53Z</time>
      </trkpt>
      <trkpt lat="47.00778" lon="-0.82578">
        <ele>106.36</ele>
        <time>2012-08-28T16:11:54Z</time>
      </trkpt>
      <trkpt lat="47.00779" lon="-0.82582">
        <ele>106.36</ele>
        <time>2012-08-28T16:11:55Z</time>
      </trkpt>
      <trkpt lat="47.00781" lon="-0.82585">
        <ele>106.84</ele>
        <time>2012-08-28T16:11:56Z</time>
      </trkpt>
      <trkpt lat="47.00783" lon="-0.82588">
        <ele>106.36</ele>
        <time>2012-08-28T16:11:57Z</time>
      </trkpt>
      <trkpt lat="47.00786" lon="-0.82591">
        <ele>105.88</ele>
        <time>2012-08-28T16:11:58Z</time>
      </trkpt>
      <trkpt lat="47.00788" lon="-0.82594">
        <ele>105.88</ele>
        <time>2012-08-28T16:11:59Z</time>
      </trkpt>
      <trkpt lat="47.00821" lon="-0.82621">
        <ele>106.36</ele>
        <time>2012-08-28T16:12:10Z</time>
      </trkpt>
      <trkpt lat="47.00849" lon="-0.82646">
        <ele>106.36</ele>
        <time>2012-08-28T16:12:18Z</time>
      </trkpt>
      <trkpt lat="47.00857" lon="-0.82652">
        <ele>106.36</ele>
        <time>2012-08-28T16:12:20Z</time>
      </trkpt>
      <trkpt lat="47.00883" lon="-0.82673">
        <ele>106.84</ele>
        <time>2012-08-28T16:12:31Z</time>
      </trkpt>
      <trkpt lat="47.00884" lon="-0.82675">
        <ele>106.84</ele>
        <time>2012-08-28T16:12:44Z</time>
      </trkpt>
      <trkpt lat="47.00897" lon="-0.82684">
        <ele>105.88</ele>
        <time>2012-08-28T16:12:53Z</time>
      </trkpt>
      <trkpt lat="47.00949" lon="-0.82727">
        <ele>106.36</ele>
        <time>2012-08-28T16:13:07Z</time>
      </trkpt>
      <trkpt lat="47.00965" lon="-0.82739">
        <ele>106.84</ele>
        <time>2012-08-28T16:13:11Z</time>
      </trkpt>
      <trkpt lat="47.00975" lon="-0.82748">
        <ele>106.84</ele>
        <time>2012-08-28T16:13:15Z</time>
      </trkpt>
      <trkpt lat="47.00977" lon="-0.82747">
        <ele>107.32</ele>
        <time>2012-08-28T16:13:16Z</time>
      </trkpt>
      <trkpt lat="47.00979" lon="-0.82744">
        <ele>106.84</ele>
        <time>2012-08-28T16:13:21Z</time>
      </trkpt>
      <trkpt lat="47.0098" lon="-0.82742">
        <ele>107.32</ele>
        <time>2012-08-28T16:13:22Z</time>
      </trkpt>
      <trkpt lat="47.00982" lon="-0.8274">
        <ele>107.32</ele>
        <time>2012-08-28T16:13:23Z</time>
      </trkpt>
      <trkpt lat="47.00984" lon="-0.82738">
        <ele>107.32</ele>
        <time>2012-08-28T16:13:24Z</time>
      </trkpt>
      <trkpt lat="47.00986" lon="-0.82735">
        <ele>106.84</ele>
        <time>2012-08-28T16:13:25Z</time>
      </trkpt>
      <trkpt lat="47.00989" lon="-0.82731">
        <ele>106.36</ele>
        <time>2012-08-28T16:13:26Z</time>
      </trkpt>
      <trkpt lat="47.01037" lon="-0.82664">
        <ele>105.88</ele>
        <time>2012-08-28T16:13:40Z</time>
      </trkpt>
      <trkpt lat="47.01081" lon="-0.82602">
        <ele>106.36</ele>
        <time>2012-08-28T16:13:51Z</time>
      </trkpt>
      <trkpt lat="47.01084" lon="-0.82596">
        <ele>105.88</ele>
        <time>2012-08-28T16:13:52Z</time>
      </trkpt>
      <trkpt lat="47.01087" lon="-0.82589">
        <ele>106.36</ele>
        <time>2012-08-28T16:13:53Z</time>
      </trkpt>
      <trkpt lat="47.0109" lon="-0.82582">
        <ele>106.36</ele>
        <time>2012-08-28T16:13:54Z</time>
      </trkpt>
      <trkpt lat="47.01092" lon="-0.82575">
        <ele>106.36</ele>
        <time>2012-08-28T16:13:55Z</time>
      </trkpt>
      <trkpt lat="47.01101" lon="-0.82555">
        <ele>106.36</ele>
        <time>2012-08-28T16:13:58Z</time>
      </trkpt>
      <trkpt lat="47.01115" lon="-0.82529">
        <ele>105.88</ele>
        <time>2012-08-28T16:14:02Z</time>
      </trkpt>
      <trkpt lat="47.01119" lon="-0.82523">
        <ele>105.88</ele>
        <time>2012-08-28T16:14:03Z</time>
      </trkpt>
      <trkpt lat="47.0119" lon="-0.82455">
        <ele>105.88</ele>
        <time>2012-08-28T16:14:19Z</time>
      </trkpt>
      <trkpt lat="47.01253" lon="-0.82435">
        <ele>106.36</ele>
        <time>2012-08-28T16:14:32Z</time>
      </trkpt>
      <trkpt lat="47.01293" lon="-0.82419">
        <ele>105.88</ele>
        <time>2012-08-28T16:14:40Z</time>
      </trkpt>
      <trkpt lat="47.01298" lon="-0.82415">
        <ele>105.88</ele>
        <time>2012-08-28T16:14:41Z</time>
      </trkpt>
      <trkpt lat="47.0132" lon="-0.82392">
        <ele>105.88</ele>
        <time>2012-08-28T16:14:46Z</time>
      </trkpt>
      <trkpt lat="47.01324" lon="-0.8239">
        <ele>105.4</ele>
        <time>2012-08-28T16:14:47Z</time>
      </trkpt>
      <trkpt lat="47.01329" lon="-0.8239">
        <ele>105.4</ele>
        <time>2012-08-28T16:14:48Z</time>
      </trkpt>
      <trkpt lat="47.01375" lon="-0.82399">
        <ele>106.36</ele>
        <time>2012-08-28T16:14:57Z</time>
      </trkpt>
      <trkpt lat="47.0138" lon="-0.82402">
        <ele>106.36</ele>
        <time>2012-08-28T16:14:58Z</time>
      </trkpt>
      <trkpt lat="47.01399" lon="-0.82412">
        <ele>105.88</ele>
        <time>2012-08-28T16:15:02Z</time>
      </trkpt>
      <trkpt lat="47.01404" lon="-0.82414">
        <ele>106.36</ele>
        <time>2012-08-28T16:15:03Z</time>
      </trkpt>
      <trkpt lat="47.01409" lon="-0.82415">
        <ele>105.88</ele>
        <time>2012-08-28T16:15:04Z</time>
      </trkpt>
      <trkpt lat="47.01414" lon="-0.82415">
        <ele>105.88</ele>
        <time>2012-08-28T16:15:05Z</time>
      </trkpt>
      <trkpt lat="47.0142" lon="-0.82415">
        <ele>105.88</ele>
        <time>2012-08-28T16:15:06Z</time>
      </trkpt>
      <trkpt lat="47.01425" lon="-0.82415">
        <ele>106.36</ele>
        <time>2012-08-28T16:15:07Z</time>
      </trkpt>
      <trkpt lat="47.0143" lon="-0.82414">
        <ele>106.36</ele>
        <time>2012-08-28T16:15:08Z</time>
      </trkpt>
      <trkpt lat="47.01435" lon="-0.82412">
        <ele>106.36</ele>
        <time>2012-08-28T16:15:09Z</time>
      </trkpt>
      <trkpt lat="47.0144" lon="-0.8241">
        <ele>106.36</ele>
        <time>2012-08-28T16:15:10Z</time>
      </trkpt>
      <trkpt lat="47.01484" lon="-0.82388">
        <ele>106.36</ele>
        <time>2012-08-28T16:15:19Z</time>
      </trkpt>
      <trkpt lat="47.01489" lon="-0.82387">
        <ele>105.88</ele>
        <time>2012-08-28T16:15:20Z</time>
      </trkpt>
      <trkpt lat="47.01494" lon="-0.82387">
        <ele>106.36</ele>
        <time>2012-08-28T16:15:21Z</time>
      </trkpt>
      <trkpt lat="47.01499" lon="-0.82389">
        <ele>106.36</ele>
        <time>2012-08-28T16:15:22Z</time>
      </trkpt>
      <trkpt lat="47.01505" lon="-0.8239">
        <ele>105.88</ele>
        <time>2012-08-28T16:15:23Z</time>
      </trkpt>
      <trkpt lat="47.01509" lon="-0.82393">
        <ele>106.36</ele>
        <time>2012-08-28T16:15:24Z</time>
      </trkpt>
      <trkpt lat="47.01514" lon="-0.82396">
        <ele>106.36</ele>
        <time>2012-08-28T16:15:25Z</time>
      </trkpt>
      <trkpt lat="47.01519" lon="-0.824">
        <ele>105.88</ele>
        <time>2012-08-28T16:15:26Z</time>
      </trkpt>
      <trkpt lat="47.01522" lon="-0.82406">
        <ele>106.36</ele>
        <time>2012-08-28T16:15:27Z</time>
      </trkpt>
      <trkpt lat="47.01525" lon="-0.82412">
        <ele>106.36</ele>
        <time>2012-08-28T16:15:28Z</time>
      </trkpt>
      <trkpt lat="47.01528" lon="-0.82419">
        <ele>106.36</ele>
        <time>2012-08-28T16:15:29Z</time>
      </trkpt>
      <trkpt lat="47.0153" lon="-0.82425">
        <ele>105.88</ele>
        <time>2012-08-28T16:15:30Z</time>
      </trkpt>
      <trkpt lat="47.0155" lon="-0.82469">
        <ele>106.36</ele>
        <time>2012-08-28T16:15:37Z</time>
      </trkpt>
      <trkpt lat="47.01554" lon="-0.82474">
        <ele>105.88</ele>
        <time>2012-08-28T16:15:38Z</time>
      </trkpt>
      <trkpt lat="47.01559" lon="-0.82479">
        <ele>105.88</ele>
        <time>2012-08-28T16:15:39Z</time>
      </trkpt>
      <trkpt lat="47.01569" lon="-0.82495">
        <ele>105.4</ele>
        <time>2012-08-28T16:15:42Z</time>
      </trkpt>
      <trkpt lat="47.01571" lon="-0.82502">
        <ele>105.4</ele>
        <time>2012-08-28T16:15:43Z</time>
      </trkpt>
      <trkpt lat="47.01573" lon="-0.82509">
        <ele>105.4</ele>
        <time>2012-08-28T16:15:44Z</time>
      </trkpt>
      <trkpt lat="47.01574" lon="-0.82516">
        <ele>104.92</ele>
        <time>2012-08-28T16:15:45Z</time>
      </trkpt>
      <trkpt lat="47.01574" lon="-0.82524">
        <ele>105.4</ele>
        <time>2012-08-28T16:15:46Z</time>
      </trkpt>
      <trkpt lat="47.01575" lon="-0.82532">
        <ele>105.4</ele>
        <time>2012-08-28T16:15:47Z</time>
      </trkpt>
      <trkpt lat="47.01581" lon="-0.82568">
        <ele>105.88</ele>
        <time>2012-08-28T16:15:52Z</time>
      </trkpt>
      <trkpt lat="47.01586" lon="-0.82588">
        <ele>105.88</ele>
        <time>2012-08-28T16:15:55Z</time>
      </trkpt>
      <trkpt lat="47.01587" lon="-0.82595">
        <ele>105.4</ele>
        <time>2012-08-28T16:15:56Z</time>
      </trkpt>
      <trkpt lat="47.01586" lon="-0.82602">
        <ele>105.4</ele>
        <time>2012-08-28T16:15:57Z</time>
      </trkpt>
      <trkpt lat="47.01585" lon="-0.82609">
        <ele>104.92</ele>
        <time>2012-08-28T16:15:58Z</time>
      </trkpt>
      <trkpt lat="47.01584" lon="-0.82617">
        <ele>105.4</ele>
        <time>2012-08-28T16:15:59Z</time>
      </trkpt>
      <trkpt lat="47.01581" lon="-0.82631">
        <ele>105.4</ele>
        <time>2012-08-28T16:16:01Z</time>
      </trkpt>
      <trkpt lat="47.01575" lon="-0.82658">
        <ele>105.4</ele>
        <time>2012-08-28T16:16:05Z</time>
      </trkpt>
      <trkpt lat="47.01571" lon="-0.8267">
        <ele>105.4</ele>
        <time>2012-08-28T16:16:07Z</time>
      </trkpt>
      <trkpt lat="47.01554" lon="-0.8274">
        <ele>106.36</ele>
        <time>2012-08-28T16:16:17Z</time>
      </trkpt>
      <trkpt lat="47.01541" lon="-0.82771">
        <ele>106.36</ele>
        <time>2012-08-28T16:16:22Z</time>
      </trkpt>
      <trkpt lat="47.01537" lon="-0.82776">
        <ele>105.88</ele>
        <time>2012-08-28T16:16:23Z</time>
      </trkpt>
      <trkpt lat="47.01514" lon="-0.82815">
        <ele>105.4</ele>
        <time>2012-08-28T16:16:30Z</time>
      </trkpt>
      <trkpt lat="47.01512" lon="-0.82821">
        <ele>105.4</ele>
        <time>2012-08-28T16:16:31Z</time>
      </trkpt>
      <trkpt lat="47.01511" lon="-0.82828">
        <ele>105.88</ele>
        <time>2012-08-28T16:16:32Z</time>
      </trkpt>
      <trkpt lat="47.0151" lon="-0.82836">
        <ele>105.4</ele>
        <time>2012-08-28T16:16:33Z</time>
      </trkpt>
      <trkpt lat="47.0151" lon="-0.82843">
        <ele>105.4</ele>
        <time>2012-08-28T16:16:34Z</time>
      </trkpt>
      <trkpt lat="47.0151" lon="-0.8285">
        <ele>105.88</ele>
        <time>2012-08-28T16:16:35Z</time>
      </trkpt>
      <trkpt lat="47.01511" lon="-0.82872">
        <ele>105.88</ele>
        <time>2012-08-28T16:16:38Z</time>
      </trkpt>
      <trkpt lat="47.01511" lon="-0.82879">
        <ele>105.88</ele>
        <time>2012-08-28T16:16:39Z</time>
      </trkpt>
      <trkpt lat="47.0151" lon="-0.82886">
        <ele>105.4</ele>
        <time>2012-08-28T16:16:40Z</time>
      </trkpt>
      <trkpt lat="47.01508" lon="-0.82893">
        <ele>105.88</ele>
        <time>2012-08-28T16:16:41Z</time>
      </trkpt>
      <trkpt lat="47.01506" lon="-0.829">
        <ele>105.88</ele>
        <time>2012-08-28T16:16:42Z</time>
      </trkpt>
      <trkpt lat="47.01503" lon="-0.82906">
        <ele>105.88</ele>
        <time>2012-08-28T16:16:43Z</time>
      </trkpt>
      <trkpt lat="47.015" lon="-0.82912">
        <ele>106.36</ele>
        <time>2012-08-28T16:16:44Z</time>
      </trkpt>
      <trkpt lat="47.01497" lon="-0.82917">
        <ele>105.88</ele>
        <time>2012-08-28T16:16:45Z</time>
      </trkpt>
      <trkpt lat="47.01484" lon="-0.82936">
        <ele>105.88</ele>
        <time>2012-08-28T16:16:49Z</time>
      </trkpt>
      <trkpt lat="47.01482" lon="-0.82941">
        <ele>106.36</ele>
        <time>2012-08-28T16:16:50Z</time>
      </trkpt>
      <trkpt lat="47.01482" lon="-0.82947">
        <ele>105.88</ele>
        <time>2012-08-28T16:16:51Z</time>
      </trkpt>
      <trkpt lat="47.01484" lon="-0.82953">
        <ele>106.36</ele>
        <time>2012-08-28T16:16:52Z</time>
      </trkpt>
      <trkpt lat="47.01486" lon="-0.82957">
        <ele>106.36</ele>
        <time>2012-08-28T16:16:53Z</time>
      </trkpt>
      <trkpt lat="47.01489" lon="-0.82962">
        <ele>106.84</ele>
        <time>2012-08-28T16:16:54Z</time>
      </trkpt>
      <trkpt lat="47.01495" lon="-0.8297">
        <ele>106.84</ele>
        <time>2012-08-28T16:16:56Z</time>
      </trkpt>
      <trkpt lat="47.01499" lon="-0.82972">
        <ele>106.36</ele>
        <time>2012-08-28T16:16:57Z</time>
      </trkpt>
      <trkpt lat="47.01504" lon="-0.82973">
        <ele>106.36</ele>
        <time>2012-08-28T16:16:58Z</time>
      </trkpt>
      <trkpt lat="47.01509" lon="-0.82972">
        <ele>106.36</ele>
        <time>2012-08-28T16:16:59Z</time>
      </trkpt>
      <trkpt lat="47.01514" lon="-0.82971">
        <ele>105.88</ele>
        <time>2012-08-28T16:17:00Z</time>
      </trkpt>
      <trkpt lat="47.01519" lon="-0.82968">
        <ele>106.36</ele>
        <time>2012-08-28T16:17:01Z</time>
      </trkpt>
      <trkpt lat="47.01524" lon="-0.82964">
        <ele>105.88</ele>
        <time>2012-08-28T16:17:02Z</time>
      </trkpt>
      <trkpt lat="47.01528" lon="-0.82959">
        <ele>105.88</ele>
        <time>2012-08-28T16:17:03Z</time>
      </trkpt>
      <trkpt lat="47.01532" lon="-0.82953">
        <ele>105.88</ele>
        <time>2012-08-28T16:17:04Z</time>
      </trkpt>
      <trkpt lat="47.01535" lon="-0.82947">
        <ele>106.36</ele>
        <time>2012-08-28T16:17:05Z</time>
      </trkpt>
      <trkpt lat="47.01539" lon="-0.82942">
        <ele>105.88</ele>
        <time>2012-08-28T16:17:06Z</time>
      </trkpt>
      <trkpt lat="47.01589" lon="-0.82867">
        <ele>106.84</ele>
        <time>2012-08-28T16:17:19Z</time>
      </trkpt>
      <trkpt lat="47.0162" lon="-0.82837">
        <ele>105.88</ele>
        <time>2012-08-28T16:17:26Z</time>
      </trkpt>
      <trkpt lat="47.01625" lon="-0.82833">
        <ele>106.36</ele>
        <time>2012-08-28T16:17:27Z</time>
      </trkpt>
      <trkpt lat="47.0163" lon="-0.8283">
        <ele>105.88</ele>
        <time>2012-08-28T16:17:28Z</time>
      </trkpt>
      <trkpt lat="47.01646" lon="-0.82824">
        <ele>105.88</ele>
        <time>2012-08-28T16:17:31Z</time>
      </trkpt>
      <trkpt lat="47.01661" lon="-0.82821">
        <ele>105.88</ele>
        <time>2012-08-28T16:17:34Z</time>
      </trkpt>
      <trkpt lat="47.01664" lon="-0.82821">
        <ele>106.36</ele>
        <time>2012-08-28T16:17:35Z</time>
      </trkpt>
      <trkpt lat="47.01668" lon="-0.8282">
        <ele>106.36</ele>
        <time>2012-08-28T16:17:36Z</time>
      </trkpt>
      <trkpt lat="47.01671" lon="-0.82821">
        <ele>106.84</ele>
        <time>2012-08-28T16:17:37Z</time>
      </trkpt>
      <trkpt lat="47.01674" lon="-0.82822">
        <ele>106.36</ele>
        <time>2012-08-28T16:17:38Z</time>
      </trkpt>
      <trkpt lat="47.01676" lon="-0.82821">
        <ele>106.84</ele>
        <time>2012-08-28T16:17:39Z</time>
      </trkpt>
      <trkpt lat="47.01678" lon="-0.8282">
        <ele>106.84</ele>
        <time>2012-08-28T16:17:40Z</time>
      </trkpt>
      <trkpt lat="47.01681" lon="-0.82819">
        <ele>106.84</ele>
        <time>2012-08-28T16:17:41Z</time>
      </trkpt>
      <trkpt lat="47.01685" lon="-0.82818">
        <ele>106.36</ele>
        <time>2012-08-28T16:17:42Z</time>
      </trkpt>
      <trkpt lat="47.01688" lon="-0.82818">
        <ele>106.36</ele>
        <time>2012-08-28T16:17:43Z</time>
      </trkpt>
      <trkpt lat="47.01718" lon="-0.82815">
        <ele>106.36</ele>
        <time>2012-08-28T16:17:52Z</time>
      </trkpt>
      <trkpt lat="47.01719" lon="-0.82818">
        <ele>106.84</ele>
        <time>2012-08-28T16:17:53Z</time>
      </trkpt>
      <trkpt lat="47.0171" lon="-0.82819">
        <ele>106.84</ele>
        <time>2012-08-28T16:18:00Z</time>
      </trkpt>
      <trkpt lat="47.01711" lon="-0.8282">
        <ele>106.84</ele>
        <time>2012-08-28T16:18:28Z</time>
      </trkpt>
      <trkpt lat="47.0171" lon="-0.8282">
        <ele>106.84</ele>
        <time>2012-08-28T16:18:47Z</time>
      </trkpt>
      <trkpt lat="47.0171" lon="-0.8282">
        <ele>106.36</ele>
        <time>2012-08-28T16:19:06Z</time>
      </trkpt>
      <trkpt lat="47.0171" lon="-0.8282">
        <ele>105.88</ele>
        <time>2012-08-28T16:19:39Z</time>
      </trkpt>
      <trkpt lat="47.0171" lon="-0.8282">
        <ele>106.84</ele>
        <time>2012-08-28T16:19:59Z</time>
      </trkpt>
      <trkpt lat="47.0171" lon="-0.82819">
        <ele>106.84</ele>
        <time>2012-08-28T16:20:25Z</time>
      </trkpt>
      <trkpt lat="47.0171" lon="-0.82819">
        <ele>106.84</ele>
        <time>2012-08-28T16:20:47Z</time>
      </trkpt>
      <trkpt lat="47.0171" lon="-0.8282">
        <ele>106.84</ele>
        <time>2012-08-28T16:21:17Z</time>
      </trkpt>
      <trkpt lat="47.0171" lon="-0.8282">
        <ele>106.84</ele>
        <time>2012-08-28T16:21:44Z</time>
      </trkpt>
      <trkpt lat="47.0171" lon="-0.82821">
        <ele>106.84</ele>
        <time>2012-08-28T16:22:07Z</time>
      </trkpt>
      <trkpt lat="47.0171" lon="-0.8282">
        <ele>106.84</ele>
        <time>2012-08-28T16:22:34Z</time>
      </trkpt>
      <trkpt lat="47.0171" lon="-0.8282">
        <ele>106.84</ele>
        <time>2012-08-28T16:22:55Z</time>
      </trkpt>
      <trkpt lat="47.01709" lon="-0.8282">
        <ele>107.32</ele>
        <time>2012-08-28T16:23:24Z</time>
      </trkpt>
      <trkpt lat="47.01709" lon="-0.82821">
        <ele>106.36</ele>
        <time>2012-08-28T16:23:53Z</time>
      </trkpt>
      <trkpt lat="47.01709" lon="-0.82822">
        <ele>106.36</ele>
        <time>2012-08-28T16:24:23Z</time>
      </trkpt>
      <trkpt lat="47.01709" lon="-0.82822">
        <ele>107.32</ele>
        <time>2012-08-28T16:24:57Z</time>
      </trkpt>
      <trkpt lat="47.01708" lon="-0.82821">
        <ele>106.36</ele>
        <time>2012-08-28T16:25:27Z</time>
      </trkpt>
      <trkpt lat="47.01709" lon="-0.8282">
        <ele>106.36</ele>
        <time>2012-08-28T16:25:47Z</time>
      </trkpt>
      <trkpt lat="47.01709" lon="-0.8282">
        <ele>106.84</ele>
        <time>2012-08-28T16:26:07Z</time>
      </trkpt>
      <trkpt lat="47.01709" lon="-0.8282">
        <ele>106.84</ele>
        <time>2012-08-28T16:26:32Z</time>
      </trkpt>
      <trkpt lat="47.0171" lon="-0.8282">
        <ele>105.88</ele>
        <time>2012-08-28T16:27:02Z</time>
      </trkpt>
      <trkpt lat="47.01709" lon="-0.82819">
        <ele>106.36</ele>
        <time>2012-08-28T16:27:28Z</time>
      </trkpt>
      <trkpt lat="47.01708" lon="-0.82815">
        <ele>106.36</ele>
        <time>2012-08-28T16:27:31Z</time>
      </trkpt>
      <trkpt lat="47.01713" lon="-0.82814">
        <ele>105.88</ele>
        <time>2012-08-28T16:27:38Z</time>
      </trkpt>
      <trkpt lat="47.01737" lon="-0.82808">
        <ele>106.36</ele>
        <time>2012-08-28T16:27:47Z</time>
      </trkpt>
      <trkpt lat="47.01741" lon="-0.82808">
        <ele>105.88</ele>
        <time>2012-08-28T16:27:48Z</time>
      </trkpt>
      <trkpt lat="47.01746" lon="-0.82807">
        <ele>105.4</ele>
        <time>2012-08-28T16:27:49Z</time>
      </trkpt>
      <trkpt lat="47.0175" lon="-0.82806">
        <ele>105.88</ele>
        <time>2012-08-28T16:27:50Z</time>
      </trkpt>
      <trkpt lat="47.01755" lon="-0.82806">
        <ele>105.4</ele>
        <time>2012-08-28T16:27:51Z</time>
      </trkpt>
      <trkpt lat="47.01764" lon="-0.82806">
        <ele>105.4</ele>
        <time>2012-08-28T16:27:53Z</time>
      </trkpt>
      <trkpt lat="47.0177" lon="-0.82806">
        <ele>104.92</ele>
        <time>2012-08-28T16:27:54Z</time>
      </trkpt>
      <trkpt lat="47.01785" lon="-0.82806">
        <ele>105.88</ele>
        <time>2012-08-28T16:27:57Z</time>
      </trkpt>
      <trkpt lat="47.0179" lon="-0.82807">
        <ele>105.4</ele>
        <time>2012-08-28T16:27:58Z</time>
      </trkpt>
      <trkpt lat="47.01795" lon="-0.82807">
        <ele>105.88</ele>
        <time>2012-08-28T16:27:59Z</time>
      </trkpt>
      <trkpt lat="47.018" lon="-0.82805">
        <ele>105.4</ele>
        <time>2012-08-28T16:28:00Z</time>
      </trkpt>
      <trkpt lat="47.01805" lon="-0.82804">
        <ele>105.88</ele>
        <time>2012-08-28T16:28:01Z</time>
      </trkpt>
      <trkpt lat="47.01875" lon="-0.82792">
        <ele>105.88</ele>
        <time>2012-08-28T16:28:14Z</time>
      </trkpt>
      <trkpt lat="47.01953" lon="-0.82786">
        <ele>104.92</ele>
        <time>2012-08-28T16:28:29Z</time>
      </trkpt>
      <trkpt lat="47.01957" lon="-0.82785">
        <ele>105.4</ele>
        <time>2012-08-28T16:28:30Z</time>
      </trkpt>
      <trkpt lat="47.01961" lon="-0.82785">
        <ele>105.88</ele>
        <time>2012-08-28T16:28:31Z</time>
      </trkpt>
      <trkpt lat="47.01965" lon="-0.82787">
        <ele>105.88</ele>
        <time>2012-08-28T16:28:32Z</time>
      </trkpt>
      <trkpt lat="47.01968" lon="-0.82789">
        <ele>105.88</ele>
        <time>2012-08-28T16:28:33Z</time>
      </trkpt>
      <trkpt lat="47.0197" lon="-0.82794">
        <ele>106.36</ele>
        <time>2012-08-28T16:28:34Z</time>
      </trkpt>
      <trkpt lat="47.0197" lon="-0.82799">
        <ele>106.36</ele>
        <time>2012-08-28T16:28:35Z</time>
      </trkpt>
      <trkpt lat="47.01969" lon="-0.82803">
        <ele>106.36</ele>
        <time>2012-08-28T16:28:36Z</time>
      </trkpt>
      <trkpt lat="47.01967" lon="-0.82809">
        <ele>106.36</ele>
        <time>2012-08-28T16:28:37Z</time>
      </trkpt>
      <trkpt lat="47.01963" lon="-0.82819">
        <ele>107.32</ele>
        <time>2012-08-28T16:28:39Z</time>
      </trkpt>
      <trkpt lat="47.01962" lon="-0.82825">
        <ele>106.84</ele>
        <time>2012-08-28T16:28:40Z</time>
      </trkpt>
      <trkpt lat="47.0194" lon="-0.82911">
        <ele>108.29</ele>
        <time>2012-08-28T16:28:54Z</time>
      </trkpt>
      <trkpt lat="47.01934" lon="-0.82935">
        <ele>109.73</ele>
        <time>2012-08-28T16:28:58Z</time>
      </trkpt>
      <trkpt lat="47.01933" lon="-0.82941">
        <ele>109.73</ele>
        <time>2012-08-28T16:28:59Z</time>
      </trkpt>
      <trkpt lat="47.01926" lon="-0.82964">
        <ele>110.69</ele>
        <time>2012-08-28T16:29:03Z</time>
      </trkpt>
      <trkpt lat="47.01924" lon="-0.82969">
        <ele>110.69</ele>
        <time>2012-08-28T16:29:04Z</time>
      </trkpt>
      <trkpt lat="47.01922" lon="-0.82975">
        <ele>111.17</ele>
        <time>2012-08-28T16:29:05Z</time>
      </trkpt>
      <trkpt lat="47.01907" lon="-0.83011">
        <ele>112.13</ele>
        <time>2012-08-28T16:29:12Z</time>
      </trkpt>
      <trkpt lat="47.01865" lon="-0.83093">
        <ele>115.5</ele>
        <time>2012-08-28T16:29:29Z</time>
      </trkpt>
      <trkpt lat="47.01836" lon="-0.83151">
        <ele>116.94</ele>
        <time>2012-08-28T16:29:41Z</time>
      </trkpt>
      <trkpt lat="47.01811" lon="-0.83193">
        <ele>118.38</ele>
        <time>2012-08-28T16:29:50Z</time>
      </trkpt>
      <trkpt lat="47.01744" lon="-0.83264">
        <ele>118.38</ele>
        <time>2012-08-28T16:30:08Z</time>
      </trkpt>
      <trkpt lat="47.01654" lon="-0.83341">
        <ele>115.98</ele>
        <time>2012-08-28T16:30:25Z</time>
      </trkpt>
      <trkpt lat="47.01561" lon="-0.83389">
        <ele>114.53</ele>
        <time>2012-08-28T16:30:40Z</time>
      </trkpt>
      <trkpt lat="47.01454" lon="-0.83446">
        <ele>114.05</ele>
        <time>2012-08-28T16:30:57Z</time>
      </trkpt>
      <trkpt lat="47.01348" lon="-0.83517">
        <ele>115.5</ele>
        <time>2012-08-28T16:31:15Z</time>
      </trkpt>
      <trkpt lat="47.013" lon="-0.83526">
        <ele>115.5</ele>
        <time>2012-08-28T16:31:23Z</time>
      </trkpt>
      <trkpt lat="47.01209" lon="-0.83543">
        <ele>116.94</ele>
        <time>2012-08-28T16:31:39Z</time>
      </trkpt>
      <trkpt lat="47.01109" lon="-0.83617">
        <ele>119.34</ele>
        <time>2012-08-28T16:31:59Z</time>
      </trkpt>
      <trkpt lat="47.01105" lon="-0.83621">
        <ele>119.82</ele>
        <time>2012-08-28T16:32:00Z</time>
      </trkpt>
      <trkpt lat="47.011" lon="-0.83625">
        <ele>119.82</ele>
        <time>2012-08-28T16:32:01Z</time>
      </trkpt>
      <trkpt lat="47.01016" lon="-0.83698">
        <ele>122.22</ele>
        <time>2012-08-28T16:32:19Z</time>
      </trkpt>
      <trkpt lat="47.00954" lon="-0.83761">
        <ele>123.67</ele>
        <time>2012-08-28T16:32:33Z</time>
      </trkpt>
      <trkpt lat="47.00881" lon="-0.83834">
        <ele>127.03</ele>
        <time>2012-08-28T16:32:50Z</time>
      </trkpt>
      <trkpt lat="47.00809" lon="-0.83906">
        <ele>129.43</ele>
        <time>2012-08-28T16:33:07Z</time>
      </trkpt>
      <trkpt lat="47.0077" lon="-0.83943">
        <ele>128.95</ele>
        <time>2012-08-28T16:33:16Z</time>
      </trkpt>
      <trkpt lat="47.00766" lon="-0.83948">
        <ele>129.43</ele>
        <time>2012-08-28T16:33:17Z</time>
      </trkpt>
      <trkpt lat="47.00733" lon="-0.83985">
        <ele>128.95</ele>
        <time>2012-08-28T16:33:25Z</time>
      </trkpt>
      <trkpt lat="47.0073" lon="-0.83991">
        <ele>128.47</ele>
        <time>2012-08-28T16:33:26Z</time>
      </trkpt>
      <trkpt lat="47.00727" lon="-0.83998">
        <ele>128.47</ele>
        <time>2012-08-28T16:33:27Z</time>
      </trkpt>
      <trkpt lat="47.00724" lon="-0.84005">
        <ele>128.95</ele>
        <time>2012-08-28T16:33:28Z</time>
      </trkpt>
      <trkpt lat="47.00722" lon="-0.84013">
        <ele>128.47</ele>
        <time>2012-08-28T16:33:29Z</time>
      </trkpt>
      <trkpt lat="47.00721" lon="-0.84021">
        <ele>127.51</ele>
        <time>2012-08-28T16:33:30Z</time>
      </trkpt>
      <trkpt lat="47.00721" lon="-0.84029">
        <ele>127.51</ele>
        <time>2012-08-28T16:33:31Z</time>
      </trkpt>
      <trkpt lat="47.00721" lon="-0.84037">
        <ele>127.99</ele>
        <time>2012-08-28T16:33:32Z</time>
      </trkpt>
      <trkpt lat="47.00724" lon="-0.84086">
        <ele>127.03</ele>
        <time>2012-08-28T16:33:38Z</time>
      </trkpt>
      <trkpt lat="47.00727" lon="-0.8411">
        <ele>126.55</ele>
        <time>2012-08-28T16:33:41Z</time>
      </trkpt>
      <trkpt lat="47.00728" lon="-0.84119">
        <ele>127.03</ele>
        <time>2012-08-28T16:33:42Z</time>
      </trkpt>
      <trkpt lat="47.00724" lon="-0.84241">
        <ele>126.55</ele>
        <time>2012-08-28T16:33:57Z</time>
      </trkpt>
      <trkpt lat="47.0072" lon="-0.84263">
        <ele>126.07</ele>
        <time>2012-08-28T16:34:00Z</time>
      </trkpt>
      <trkpt lat="47.0072" lon="-0.84276">
        <ele>125.59</ele>
        <time>2012-08-28T16:34:02Z</time>
      </trkpt>
      <trkpt lat="47.00722" lon="-0.84283">
        <ele>126.07</ele>
        <time>2012-08-28T16:34:03Z</time>
      </trkpt>
      <trkpt lat="47.00725" lon="-0.84288">
        <ele>126.07</ele>
        <time>2012-08-28T16:34:04Z</time>
      </trkpt>
      <trkpt lat="47.00727" lon="-0.84294">
        <ele>126.07</ele>
        <time>2012-08-28T16:34:05Z</time>
      </trkpt>
      <trkpt lat="47.00727" lon="-0.84301">
        <ele>126.07</ele>
        <time>2012-08-28T16:34:06Z</time>
      </trkpt>
      <trkpt lat="47.00725" lon="-0.84307">
        <ele>125.59</ele>
        <time>2012-08-28T16:34:07Z</time>
      </trkpt>
      <trkpt lat="47.00722" lon="-0.84311">
        <ele>126.07</ele>
        <time>2012-08-28T16:34:08Z</time>
      </trkpt>
      <trkpt lat="47.00718" lon="-0.84313">
        <ele>125.59</ele>
        <time>2012-08-28T16:34:09Z</time>
      </trkpt>
      <trkpt lat="47.00713" lon="-0.84311">
        <ele>125.59</ele>
        <time>2012-08-28T16:34:10Z</time>
      </trkpt>
      <trkpt lat="47.00709" lon="-0.84307">
        <ele>126.07</ele>
        <time>2012-08-28T16:34:11Z</time>
      </trkpt>
      <trkpt lat="47.00706" lon="-0.84302">
        <ele>126.55</ele>
        <time>2012-08-28T16:34:12Z</time>
      </trkpt>
      <trkpt lat="47.00702" lon="-0.84297">
        <ele>126.07</ele>
        <time>2012-08-28T16:34:13Z</time>
      </trkpt>
      <trkpt lat="47.00697" lon="-0.84294">
        <ele>126.07</ele>
        <time>2012-08-28T16:34:14Z</time>
      </trkpt>
      <trkpt lat="47.00649" lon="-0.84278">
        <ele>127.03</ele>
        <time>2012-08-28T16:34:23Z</time>
      </trkpt>
      <trkpt lat="47.00644" lon="-0.84277">
        <ele>126.55</ele>
        <time>2012-08-28T16:34:24Z</time>
      </trkpt>
      <trkpt lat="47.00633" lon="-0.84275">
        <ele>127.03</ele>
        <time>2012-08-28T16:34:26Z</time>
      </trkpt>
      <trkpt lat="47.0056" lon="-0.84298">
        <ele>127.03</ele>
        <time>2012-08-28T16:34:40Z</time>
      </trkpt>
      <trkpt lat="47.00533" lon="-0.84311">
        <ele>127.99</ele>
        <time>2012-08-28T16:34:46Z</time>
      </trkpt>
      <trkpt lat="47.00529" lon="-0.84314">
        <ele>128.47</ele>
        <time>2012-08-28T16:34:47Z</time>
      </trkpt>
      <trkpt lat="47.00525" lon="-0.84318">
        <ele>127.99</ele>
        <time>2012-08-28T16:34:48Z</time>
      </trkpt>
      <trkpt lat="47.00521" lon="-0.84322">
        <ele>128.47</ele>
        <time>2012-08-28T16:34:49Z</time>
      </trkpt>
      <trkpt lat="47.00516" lon="-0.84326">
        <ele>128.47</ele>
        <time>2012-08-28T16:34:50Z</time>
      </trkpt>
      <trkpt lat="47.00512" lon="-0.84329">
        <ele>128.95</ele>
        <time>2012-08-28T16:34:51Z</time>
      </trkpt>
      <trkpt lat="47.00507" lon="-0.84331">
        <ele>129.43</ele>
        <time>2012-08-28T16:34:52Z</time>
      </trkpt>
      <trkpt lat="47.00496" lon="-0.84333">
        <ele>129.43</ele>
        <time>2012-08-28T16:34:54Z</time>
      </trkpt>
      <trkpt lat="47.00415" lon="-0.84375">
        <ele>128.95</ele>
        <time>2012-08-28T16:35:10Z</time>
      </trkpt>
      <trkpt lat="47.00348" lon="-0.84429">
        <ele>125.59</ele>
        <time>2012-08-28T16:35:22Z</time>
      </trkpt>
      <trkpt lat="47.00335" lon="-0.84441">
        <ele>123.67</ele>
        <time>2012-08-28T16:35:24Z</time>
      </trkpt>
      <trkpt lat="47.00303" lon="-0.84481">
        <ele>120.78</ele>
        <time>2012-08-28T16:35:29Z</time>
      </trkpt>
      <trkpt lat="47.00283" lon="-0.84525">
        <ele>117.42</ele>
        <time>2012-08-28T16:35:33Z</time>
      </trkpt>
      <trkpt lat="47.0028" lon="-0.84537">
        <ele>117.42</ele>
        <time>2012-08-28T16:35:34Z</time>
      </trkpt>
      <trkpt lat="47.00278" lon="-0.8455">
        <ele>117.42</ele>
        <time>2012-08-28T16:35:35Z</time>
      </trkpt>
      <trkpt lat="47.00276" lon="-0.84563">
        <ele>116.46</ele>
        <time>2012-08-28T16:35:36Z</time>
      </trkpt>
      <trkpt lat="47.00275" lon="-0.84575">
        <ele>116.94</ele>
        <time>2012-08-28T16:35:37Z</time>
      </trkpt>
      <trkpt lat="47.00275" lon="-0.84588">
        <ele>115.98</ele>
        <time>2012-08-28T16:35:38Z</time>
      </trkpt>
      <trkpt lat="47.00276" lon="-0.846">
        <ele>115.98</ele>
        <time>2012-08-28T16:35:39Z</time>
      </trkpt>
      <trkpt lat="47.00277" lon="-0.84612">
        <ele>116.46</ele>
        <time>2012-08-28T16:35:40Z</time>
      </trkpt>
      <trkpt lat="47.00279" lon="-0.84624">
        <ele>115.98</ele>
        <time>2012-08-28T16:35:41Z</time>
      </trkpt>
      <trkpt lat="47.00282" lon="-0.84635">
        <ele>115.5</ele>
        <time>2012-08-28T16:35:42Z</time>
      </trkpt>
      <trkpt lat="47.00285" lon="-0.84646">
        <ele>115.5</ele>
        <time>2012-08-28T16:35:43Z</time>
      </trkpt>
      <trkpt lat="47.00289" lon="-0.84656">
        <ele>115.5</ele>
        <time>2012-08-28T16:35:44Z</time>
      </trkpt>
      <trkpt lat="47.00339" lon="-0.84781">
        <ele>115.98</ele>
        <time>2012-08-28T16:35:59Z</time>
      </trkpt>
      <trkpt lat="47.00343" lon="-0.84797">
        <ele>115.98</ele>
        <time>2012-08-28T16:36:01Z</time>
      </trkpt>
      <trkpt lat="47.00344" lon="-0.84806">
        <ele>115.98</ele>
        <time>2012-08-28T16:36:02Z</time>
      </trkpt>
      <trkpt lat="47.00346" lon="-0.84823">
        <ele>116.46</ele>
        <time>2012-08-28T16:36:04Z</time>
      </trkpt>
      <trkpt lat="47.00344" lon="-0.84832">
        <ele>115.98</ele>
        <time>2012-08-28T16:36:05Z</time>
      </trkpt>
      <trkpt lat="47.00342" lon="-0.8484">
        <ele>115.98</ele>
        <time>2012-08-28T16:36:06Z</time>
      </trkpt>
      <trkpt lat="47.00336" lon="-0.84855">
        <ele>115.98</ele>
        <time>2012-08-28T16:36:08Z</time>
      </trkpt>
      <trkpt lat="47.00332" lon="-0.84861">
        <ele>116.46</ele>
        <time>2012-08-28T16:36:09Z</time>
      </trkpt>
      <trkpt lat="47.00328" lon="-0.84867">
        <ele>116.94</ele>
        <time>2012-08-28T16:36:10Z</time>
      </trkpt>
      <trkpt lat="47.00314" lon="-0.84883">
        <ele>115.5</ele>
        <time>2012-08-28T16:36:13Z</time>
      </trkpt>
      <trkpt lat="47.0031" lon="-0.84889">
        <ele>115.01</ele>
        <time>2012-08-28T16:36:14Z</time>
      </trkpt>
      <trkpt lat="47.00307" lon="-0.84896">
        <ele>115.01</ele>
        <time>2012-08-28T16:36:15Z</time>
      </trkpt>
      <trkpt lat="47.00306" lon="-0.84903">
        <ele>115.01</ele>
        <time>2012-08-28T16:36:16Z</time>
      </trkpt>
      <trkpt lat="47.00307" lon="-0.84909">
        <ele>115.5</ele>
        <time>2012-08-28T16:36:17Z</time>
      </trkpt>
      <trkpt lat="47.00309" lon="-0.84914">
        <ele>115.01</ele>
        <time>2012-08-28T16:36:18Z</time>
      </trkpt>
      <trkpt lat="47.00312" lon="-0.84917">
        <ele>115.01</ele>
        <time>2012-08-28T16:36:19Z</time>
      </trkpt>
      <trkpt lat="47.00316" lon="-0.84921">
        <ele>115.01</ele>
        <time>2012-08-28T16:36:20Z</time>
      </trkpt>
      <trkpt lat="47.00319" lon="-0.84925">
        <ele>115.5</ele>
        <time>2012-08-28T16:36:21Z</time>
      </trkpt>
      <trkpt lat="47.00328" lon="-0.84933">
        <ele>115.01</ele>
        <time>2012-08-28T16:36:23Z</time>
      </trkpt>
      <trkpt lat="47.00332" lon="-0.84937">
        <ele>115.01</ele>
        <time>2012-08-28T16:36:24Z</time>
      </trkpt>
      <trkpt lat="47.00397" lon="-0.85001">
        <ele>118.38</ele>
        <time>2012-08-28T16:36:39Z</time>
      </trkpt>
      <trkpt lat="47.00401" lon="-0.85005">
        <ele>118.38</ele>
        <time>2012-08-28T16:36:40Z</time>
      </trkpt>
      <trkpt lat="47.00405" lon="-0.85009">
        <ele>119.34</ele>
        <time>2012-08-28T16:36:41Z</time>
      </trkpt>
      <trkpt lat="47.00414" lon="-0.85018">
        <ele>118.86</ele>
        <time>2012-08-28T16:36:43Z</time>
      </trkpt>
      <trkpt lat="47.00452" lon="-0.85062">
        <ele>119.82</ele>
        <time>2012-08-28T16:36:53Z</time>
      </trkpt>
      <trkpt lat="47.00455" lon="-0.85067">
        <ele>120.3</ele>
        <time>2012-08-28T16:36:54Z</time>
      </trkpt>
      <trkpt lat="47.00457" lon="-0.85071">
        <ele>120.3</ele>
        <time>2012-08-28T16:36:55Z</time>
      </trkpt>
      <trkpt lat="47.00458" lon="-0.85074">
        <ele>121.26</ele>
        <time>2012-08-28T16:36:56Z</time>
      </trkpt>
      <trkpt lat="47.00459" lon="-0.85076">
        <ele>121.74</ele>
        <time>2012-08-28T16:36:57Z</time>
      </trkpt>
      <trkpt lat="47.00459" lon="-0.85078">
        <ele>121.26</ele>
        <time>2012-08-28T16:36:58Z</time>
      </trkpt>
      <trkpt lat="47.0046" lon="-0.8508">
        <ele>121.26</ele>
        <time>2012-08-28T16:36:59Z</time>
      </trkpt>
      <trkpt lat="47.00461" lon="-0.85082">
        <ele>120.78</ele>
        <time>2012-08-28T16:37:00Z</time>
      </trkpt>
      <trkpt lat="47.00467" lon="-0.85113">
        <ele>121.26</ele>
        <time>2012-08-28T16:37:06Z</time>
      </trkpt>
      <trkpt lat="47.00465" lon="-0.85118">
        <ele>120.78</ele>
        <time>2012-08-28T16:37:07Z</time>
      </trkpt>
      <trkpt lat="47.00461" lon="-0.85122">
        <ele>120.78</ele>
        <time>2012-08-28T16:37:08Z</time>
      </trkpt>
      <trkpt lat="47.00457" lon="-0.85125">
        <ele>121.74</ele>
        <time>2012-08-28T16:37:09Z</time>
      </trkpt>
      <trkpt lat="47.00453" lon="-0.85129">
        <ele>122.22</ele>
        <time>2012-08-28T16:37:10Z</time>
      </trkpt>
      <trkpt lat="47.00441" lon="-0.85138">
        <ele>122.22</ele>
        <time>2012-08-28T16:37:13Z</time>
      </trkpt>
      <trkpt lat="47.00379" lon="-0.8521">
        <ele>122.71</ele>
        <time>2012-08-28T16:37:30Z</time>
      </trkpt>
      <trkpt lat="47.00327" lon="-0.85267">
        <ele>124.15</ele>
        <time>2012-08-28T16:37:44Z</time>
      </trkpt>
      <trkpt lat="47.00313" lon="-0.85283">
        <ele>123.67</ele>
        <time>2012-08-28T16:37:48Z</time>
      </trkpt>
      <trkpt lat="47.00309" lon="-0.85287">
        <ele>123.67</ele>
        <time>2012-08-28T16:37:49Z</time>
      </trkpt>
      <trkpt lat="47.00288" lon="-0.85311">
        <ele>123.67</ele>
        <time>2012-08-28T16:37:55Z</time>
      </trkpt>
      <trkpt lat="47.00286" lon="-0.85317">
        <ele>124.15</ele>
        <time>2012-08-28T16:37:56Z</time>
      </trkpt>
      <trkpt lat="47.00286" lon="-0.85323">
        <ele>124.15</ele>
        <time>2012-08-28T16:37:57Z</time>
      </trkpt>
      <trkpt lat="47.00288" lon="-0.85329">
        <ele>124.15</ele>
        <time>2012-08-28T16:37:58Z</time>
      </trkpt>
      <trkpt lat="47.00291" lon="-0.85335">
        <ele>124.15</ele>
        <time>2012-08-28T16:37:59Z</time>
      </trkpt>
      <trkpt lat="47.00294" lon="-0.8534">
        <ele>124.15</ele>
        <time>2012-08-28T16:38:00Z</time>
      </trkpt>
      <trkpt lat="47.00324" lon="-0.85391">
        <ele>127.03</ele>
        <time>2012-08-28T16:38:11Z</time>
      </trkpt>
      <trkpt lat="47.00323" lon="-0.85396">
        <ele>127.03</ele>
        <time>2012-08-28T16:38:12Z</time>
      </trkpt>
      <trkpt lat="47.0032" lon="-0.85401">
        <ele>127.03</ele>
        <time>2012-08-28T16:38:13Z</time>
      </trkpt>
      <trkpt lat="47.00317" lon="-0.85405">
        <ele>126.55</ele>
        <time>2012-08-28T16:38:14Z</time>
      </trkpt>
      <trkpt lat="47.00314" lon="-0.85409">
        <ele>127.03</ele>
        <time>2012-08-28T16:38:15Z</time>
      </trkpt>
      <trkpt lat="47.0031" lon="-0.85413">
        <ele>127.03</ele>
        <time>2012-08-28T16:38:16Z</time>
      </trkpt>
      <trkpt lat="47.00261" lon="-0.8547">
        <ele>127.51</ele>
        <time>2012-08-28T16:38:31Z</time>
      </trkpt>
      <trkpt lat="47.00259" lon="-0.85476">
        <ele>127.99</ele>
        <time>2012-08-28T16:38:32Z</time>
      </trkpt>
      <trkpt lat="47.00259" lon="-0.85482">
        <ele>128.47</ele>
        <time>2012-08-28T16:38:33Z</time>
      </trkpt>
      <trkpt lat="47.00261" lon="-0.85488">
        <ele>128.47</ele>
        <time>2012-08-28T16:38:34Z</time>
      </trkpt>
      <trkpt lat="47.00264" lon="-0.85493">
        <ele>127.51</ele>
        <time>2012-08-28T16:38:35Z</time>
      </trkpt>
      <trkpt lat="47.00267" lon="-0.85497">
        <ele>127.99</ele>
        <time>2012-08-28T16:38:36Z</time>
      </trkpt>
      <trkpt lat="47.00286" lon="-0.85524">
        <ele>128.47</ele>
        <time>2012-08-28T16:38:43Z</time>
      </trkpt>
    </trkseg>
  </trk>
</gpx>